<?xml version="1.0" encoding="UTF-8" standalone="no" ?>
<gpx xmlns="http://www.topografix.com/GPX/1/1" xmlns:xsi="http://www.w3.org/2001/XMLSchema-instance" xsi:schemaLocation="http://www.topografix.com/GPX/1/1 http://www.topografix.com/GPX/1/1/gpx.xsd" version="1.1" creator="VisuGPX - https://www.visugpx.com">
  <metadata>
    <name>Clape engagée</name>
  </metadata>
  <wpt lat="43.1242" lon="3.09527">
    <ele>16</ele>
    <name><![CDATA[Start]]></name>
    <desc><![CDATA[By Zorste]]></desc>
    <cmt><![CDATA[By Zorste]]></cmt>
  </wpt>
  <trk>
    <name><![CDATA[ClapeEngaged]]></name>
    <trkseg>
      <trkpt lat="43.1242" lon="3.09528">
        <ele>16</ele>
        <time>2011-04-19T16:48:34Z</time>
      </trkpt>
      <trkpt lat="43.1245" lon="3.09513">
        <ele>16.578125</ele>
        <time>2011-04-19T16:48:43Z</time>
      </trkpt>
      <trkpt lat="43.12454" lon="3.09513">
        <ele>16.683593</ele>
        <time>2011-04-19T16:48:45Z</time>
      </trkpt>
      <trkpt lat="43.12485" lon="3.0951">
        <ele>17.90625</ele>
        <time>2011-04-19T16:48:54Z</time>
      </trkpt>
      <trkpt lat="43.12504" lon="3.09429">
        <ele>19.691406</ele>
        <time>2011-04-19T16:49:13Z</time>
      </trkpt>
      <trkpt lat="43.12523" lon="3.09362">
        <ele>23.671875</ele>
        <time>2011-04-19T16:49:29Z</time>
      </trkpt>
      <trkpt lat="43.12551" lon="3.09293">
        <ele>27.464843</ele>
        <time>2011-04-19T16:49:47Z</time>
      </trkpt>
      <trkpt lat="43.12552" lon="3.09293">
        <ele>27.285156</ele>
        <time>2011-04-19T16:49:48Z</time>
      </trkpt>
      <trkpt lat="43.12566" lon="3.09255">
        <ele>27.324218</ele>
        <time>2011-04-19T16:49:57Z</time>
      </trkpt>
      <trkpt lat="43.12575" lon="3.09232">
        <ele>27.28125</ele>
        <time>2011-04-19T16:50:03Z</time>
      </trkpt>
      <trkpt lat="43.1257" lon="3.09201">
        <ele>29.472656</ele>
        <time>2011-04-19T16:50:10Z</time>
      </trkpt>
      <trkpt lat="43.12569" lon="3.09184">
        <ele>40.418999</ele>
        <time>2011-04-19T16:50:14Z</time>
      </trkpt>
      <trkpt lat="43.12571" lon="3.09162">
        <ele>41.646</ele>
        <time>2011-04-19T16:50:19Z</time>
      </trkpt>
      <trkpt lat="43.12581" lon="3.09135">
        <ele>44.716999</ele>
        <time>2011-04-19T16:50:26Z</time>
      </trkpt>
      <trkpt lat="43.12587" lon="3.09108">
        <ele>44.466999</ele>
        <time>2011-04-19T16:50:32Z</time>
      </trkpt>
      <trkpt lat="43.12587" lon="3.09076">
        <ele>46.007999</ele>
        <time>2011-04-19T16:50:39Z</time>
      </trkpt>
      <trkpt lat="43.12586" lon="3.09055">
        <ele>48.497002</ele>
        <time>2011-04-19T16:50:44Z</time>
      </trkpt>
      <trkpt lat="43.12587" lon="3.09027">
        <ele>45.480999</ele>
        <time>2011-04-19T16:50:50Z</time>
      </trkpt>
      <trkpt lat="43.12585" lon="3.09021">
        <ele>46.983002</ele>
        <time>2011-04-19T16:50:52Z</time>
      </trkpt>
      <trkpt lat="43.12572" lon="3.09008">
        <ele>49.589001</ele>
        <time>2011-04-19T16:50:57Z</time>
      </trkpt>
      <trkpt lat="43.12561" lon="3.08993">
        <ele>50.424999</ele>
        <time>2011-04-19T16:51:02Z</time>
      </trkpt>
      <trkpt lat="43.12561" lon="3.0899">
        <ele>50.181999</ele>
        <time>2011-04-19T16:51:02Z</time>
      </trkpt>
      <trkpt lat="43.12558" lon="3.08967">
        <ele>49.987</ele>
        <time>2011-04-19T16:51:08Z</time>
      </trkpt>
      <trkpt lat="43.12557" lon="3.08964">
        <ele>50.303001</ele>
        <time>2011-04-19T16:51:08Z</time>
      </trkpt>
      <trkpt lat="43.12555" lon="3.08952">
        <ele>56.013</ele>
        <time>2011-04-19T16:51:11Z</time>
      </trkpt>
      <trkpt lat="43.12552" lon="3.08937">
        <ele>56.534</ele>
        <time>2011-04-19T16:51:14Z</time>
      </trkpt>
      <trkpt lat="43.12547" lon="3.08918">
        <ele>58.299999</ele>
        <time>2011-04-19T16:51:19Z</time>
      </trkpt>
      <trkpt lat="43.12546" lon="3.08913">
        <ele>59.006</ele>
        <time>2011-04-19T16:51:20Z</time>
      </trkpt>
      <trkpt lat="43.12545" lon="3.08905">
        <ele>60.863998</ele>
        <time>2011-04-19T16:51:22Z</time>
      </trkpt>
      <trkpt lat="43.12543" lon="3.08883">
        <ele>60.854</ele>
        <time>2011-04-19T16:51:27Z</time>
      </trkpt>
      <trkpt lat="43.12542" lon="3.08873">
        <ele>63.345001</ele>
        <time>2011-04-19T16:51:29Z</time>
      </trkpt>
      <trkpt lat="43.1254" lon="3.08853">
        <ele>65.705002</ele>
        <time>2011-04-19T16:51:34Z</time>
      </trkpt>
      <trkpt lat="43.12532" lon="3.08842">
        <ele>69.119003</ele>
        <time>2011-04-19T16:51:37Z</time>
      </trkpt>
      <trkpt lat="43.12519" lon="3.0884">
        <ele>68.367996</ele>
        <time>2011-04-19T16:51:41Z</time>
      </trkpt>
      <trkpt lat="43.12505" lon="3.08832">
        <ele>68.781998</ele>
        <time>2011-04-19T16:51:46Z</time>
      </trkpt>
      <trkpt lat="43.12498" lon="3.08812">
        <ele>70.345001</ele>
        <time>2011-04-19T16:51:51Z</time>
      </trkpt>
      <trkpt lat="43.12499" lon="3.08793">
        <ele>71.615997</ele>
        <time>2011-04-19T16:51:55Z</time>
      </trkpt>
      <trkpt lat="43.12502" lon="3.0877">
        <ele>71.838997</ele>
        <time>2011-04-19T16:52:01Z</time>
      </trkpt>
      <trkpt lat="43.12502" lon="3.08748">
        <ele>73.321999</ele>
        <time>2011-04-19T16:52:06Z</time>
      </trkpt>
      <trkpt lat="43.12495" lon="3.08727">
        <ele>72.529999</ele>
        <time>2011-04-19T16:52:11Z</time>
      </trkpt>
      <trkpt lat="43.12489" lon="3.08692">
        <ele>71.660004</ele>
        <time>2011-04-19T16:52:19Z</time>
      </trkpt>
      <trkpt lat="43.1248" lon="3.08661">
        <ele>71.195999</ele>
        <time>2011-04-19T16:52:26Z</time>
      </trkpt>
      <trkpt lat="43.12464" lon="3.08655">
        <ele>70.915001</ele>
        <time>2011-04-19T16:52:32Z</time>
      </trkpt>
      <trkpt lat="43.12455" lon="3.08655">
        <ele>70.490997</ele>
        <time>2011-04-19T16:52:34Z</time>
      </trkpt>
      <trkpt lat="43.1244" lon="3.08654">
        <ele>70.539001</ele>
        <time>2011-04-19T16:52:39Z</time>
      </trkpt>
      <trkpt lat="43.12418" lon="3.08645">
        <ele>72.139999</ele>
        <time>2011-04-19T16:52:46Z</time>
      </trkpt>
      <trkpt lat="43.12398" lon="3.08644">
        <ele>72.871002</ele>
        <time>2011-04-19T16:52:52Z</time>
      </trkpt>
      <trkpt lat="43.12373" lon="3.08647">
        <ele>75.307999</ele>
        <time>2011-04-19T16:53:00Z</time>
      </trkpt>
      <trkpt lat="43.12344" lon="3.08651">
        <ele>74.744003</ele>
        <time>2011-04-19T16:53:09Z</time>
      </trkpt>
      <trkpt lat="43.12332" lon="3.08666">
        <ele>75.142998</ele>
        <time>2011-04-19T16:53:14Z</time>
      </trkpt>
      <trkpt lat="43.12319" lon="3.08692">
        <ele>76.388001</ele>
        <time>2011-04-19T16:53:21Z</time>
      </trkpt>
      <trkpt lat="43.12322" lon="3.08712">
        <ele>78.026001</ele>
        <time>2011-04-19T16:53:26Z</time>
      </trkpt>
      <trkpt lat="43.12329" lon="3.08744">
        <ele>79.856003</ele>
        <time>2011-04-19T16:53:33Z</time>
      </trkpt>
      <trkpt lat="43.12334" lon="3.0877">
        <ele>80.363998</ele>
        <time>2011-04-19T16:53:39Z</time>
      </trkpt>
      <trkpt lat="43.12339" lon="3.088">
        <ele>82.416</ele>
        <time>2011-04-19T16:53:46Z</time>
      </trkpt>
      <trkpt lat="43.12343" lon="3.08826">
        <ele>83.387001</ele>
        <time>2011-04-19T16:53:52Z</time>
      </trkpt>
      <trkpt lat="43.12346" lon="3.08852">
        <ele>84.609001</ele>
        <time>2011-04-19T16:53:58Z</time>
      </trkpt>
      <trkpt lat="43.12345" lon="3.08863">
        <ele>86.092003</ele>
        <time>2011-04-19T16:54:00Z</time>
      </trkpt>
      <trkpt lat="43.1234" lon="3.08885">
        <ele>89.880997</ele>
        <time>2011-04-19T16:54:06Z</time>
      </trkpt>
      <trkpt lat="43.12334" lon="3.08888">
        <ele>69.828003</ele>
        <time>2011-04-19T16:54:08Z</time>
      </trkpt>
      <trkpt lat="43.12317" lon="3.08897">
        <ele>68.603996</ele>
        <time>2011-04-19T16:54:13Z</time>
      </trkpt>
      <trkpt lat="43.12306" lon="3.08894">
        <ele>67.524002</ele>
        <time>2011-04-19T16:54:17Z</time>
      </trkpt>
      <trkpt lat="43.12303" lon="3.08887">
        <ele>67.607002</ele>
        <time>2011-04-19T16:54:19Z</time>
      </trkpt>
      <trkpt lat="43.12301" lon="3.08885">
        <ele>67.690002</ele>
        <time>2011-04-19T16:54:19Z</time>
      </trkpt>
      <trkpt lat="43.12299" lon="3.08879">
        <ele>68.321999</ele>
        <time>2011-04-19T16:54:21Z</time>
      </trkpt>
      <trkpt lat="43.12294" lon="3.08877">
        <ele>68.066002</ele>
        <time>2011-04-19T16:54:22Z</time>
      </trkpt>
      <trkpt lat="43.12292" lon="3.08869">
        <ele>67.982002</ele>
        <time>2011-04-19T16:54:24Z</time>
      </trkpt>
      <trkpt lat="43.12291" lon="3.08868">
        <ele>68.041</ele>
        <time>2011-04-19T16:54:25Z</time>
      </trkpt>
      <trkpt lat="43.12289" lon="3.08859">
        <ele>68.525002</ele>
        <time>2011-04-19T16:54:27Z</time>
      </trkpt>
      <trkpt lat="43.12287" lon="3.08845">
        <ele>68.978996</ele>
        <time>2011-04-19T16:54:30Z</time>
      </trkpt>
      <trkpt lat="43.12285" lon="3.08826">
        <ele>68.833</ele>
        <time>2011-04-19T16:54:34Z</time>
      </trkpt>
      <trkpt lat="43.1228" lon="3.0881">
        <ele>67.963997</ele>
        <time>2011-04-19T16:54:38Z</time>
      </trkpt>
      <trkpt lat="43.1228" lon="3.08807">
        <ele>67.866997</ele>
        <time>2011-04-19T16:54:39Z</time>
      </trkpt>
      <trkpt lat="43.12277" lon="3.08793">
        <ele>67.723</ele>
        <time>2011-04-19T16:54:42Z</time>
      </trkpt>
      <trkpt lat="43.12276" lon="3.08789">
        <ele>67.658997</ele>
        <time>2011-04-19T16:54:43Z</time>
      </trkpt>
      <trkpt lat="43.12273" lon="3.08779">
        <ele>67.380997</ele>
        <time>2011-04-19T16:54:45Z</time>
      </trkpt>
      <trkpt lat="43.12269" lon="3.08765">
        <ele>66.841003</ele>
        <time>2011-04-19T16:54:49Z</time>
      </trkpt>
      <trkpt lat="43.12265" lon="3.08757">
        <ele>66.741997</ele>
        <time>2011-04-19T16:54:51Z</time>
      </trkpt>
      <trkpt lat="43.1226" lon="3.08746">
        <ele>67.035004</ele>
        <time>2011-04-19T16:54:54Z</time>
      </trkpt>
      <trkpt lat="43.1226" lon="3.08728">
        <ele>67.828003</ele>
        <time>2011-04-19T16:54:58Z</time>
      </trkpt>
      <trkpt lat="43.12257" lon="3.0871">
        <ele>69.449997</ele>
        <time>2011-04-19T16:55:02Z</time>
      </trkpt>
      <trkpt lat="43.12251" lon="3.08706">
        <ele>69.811997</ele>
        <time>2011-04-19T16:55:04Z</time>
      </trkpt>
      <trkpt lat="43.12239" lon="3.08701">
        <ele>70.547996</ele>
        <time>2011-04-19T16:55:08Z</time>
      </trkpt>
      <trkpt lat="43.12226" lon="3.08701">
        <ele>69.25</ele>
        <time>2011-04-19T16:55:12Z</time>
      </trkpt>
      <trkpt lat="43.12215" lon="3.08705">
        <ele>69.058998</ele>
        <time>2011-04-19T16:55:15Z</time>
      </trkpt>
      <trkpt lat="43.12207" lon="3.08703">
        <ele>68.637001</ele>
        <time>2011-04-19T16:55:18Z</time>
      </trkpt>
      <trkpt lat="43.12199" lon="3.08707">
        <ele>68.842003</ele>
        <time>2011-04-19T16:55:21Z</time>
      </trkpt>
      <trkpt lat="43.1218" lon="3.08725">
        <ele>67.805</ele>
        <time>2011-04-19T16:55:28Z</time>
      </trkpt>
      <trkpt lat="43.1217" lon="3.08739">
        <ele>66.681999</ele>
        <time>2011-04-19T16:55:32Z</time>
      </trkpt>
      <trkpt lat="43.12159" lon="3.0875">
        <ele>64.931</ele>
        <time>2011-04-19T16:55:36Z</time>
      </trkpt>
      <trkpt lat="43.12153" lon="3.08762">
        <ele>61.691002</ele>
        <time>2011-04-19T16:55:40Z</time>
      </trkpt>
      <trkpt lat="43.12149" lon="3.08765">
        <ele>60.807999</ele>
        <time>2011-04-19T16:55:41Z</time>
      </trkpt>
      <trkpt lat="43.12149" lon="3.08765">
        <ele>60.734001</ele>
        <time>2011-04-19T16:55:41Z</time>
      </trkpt>
      <trkpt lat="43.12142" lon="3.08771">
        <ele>60.798</ele>
        <time>2011-04-19T16:55:44Z</time>
      </trkpt>
      <trkpt lat="43.12133" lon="3.08774">
        <ele>60.115002</ele>
        <time>2011-04-19T16:55:46Z</time>
      </trkpt>
      <trkpt lat="43.12121" lon="3.0878">
        <ele>58.890999</ele>
        <time>2011-04-19T16:55:50Z</time>
      </trkpt>
      <trkpt lat="43.12117" lon="3.08774">
        <ele>58.187</ele>
        <time>2011-04-19T16:55:52Z</time>
      </trkpt>
      <trkpt lat="43.12117" lon="3.08774">
        <ele>58.224998</ele>
        <time>2011-04-19T16:55:52Z</time>
      </trkpt>
      <trkpt lat="43.12106" lon="3.08777">
        <ele>57.799999</ele>
        <time>2011-04-19T16:55:56Z</time>
      </trkpt>
      <trkpt lat="43.121" lon="3.08783">
        <ele>56.200001</ele>
        <time>2011-04-19T16:55:58Z</time>
      </trkpt>
      <trkpt lat="43.12089" lon="3.08805">
        <ele>51.681</ele>
        <time>2011-04-19T16:56:04Z</time>
      </trkpt>
      <trkpt lat="43.12077" lon="3.08818">
        <ele>47.796001</ele>
        <time>2011-04-19T16:56:09Z</time>
      </trkpt>
      <trkpt lat="43.12052" lon="3.08835">
        <ele>42.826</ele>
        <time>2011-04-19T16:56:17Z</time>
      </trkpt>
      <trkpt lat="43.12044" lon="3.08836">
        <ele>41.537998</ele>
        <time>2011-04-19T16:56:20Z</time>
      </trkpt>
      <trkpt lat="43.12035" lon="3.0883">
        <ele>39.173</ele>
        <time>2011-04-19T16:56:23Z</time>
      </trkpt>
      <trkpt lat="43.12032" lon="3.08828">
        <ele>37.908001</ele>
        <time>2011-04-19T16:56:24Z</time>
      </trkpt>
      <trkpt lat="43.12031" lon="3.08829">
        <ele>37.471001</ele>
        <time>2011-04-19T16:56:24Z</time>
      </trkpt>
      <trkpt lat="43.12023" lon="3.08826">
        <ele>36.202999</ele>
        <time>2011-04-19T16:56:27Z</time>
      </trkpt>
      <trkpt lat="43.12022" lon="3.08824">
        <ele>35.195999</ele>
        <time>2011-04-19T16:56:27Z</time>
      </trkpt>
      <trkpt lat="43.12024" lon="3.08817">
        <ele>33.491001</ele>
        <time>2011-04-19T16:56:29Z</time>
      </trkpt>
      <trkpt lat="43.12024" lon="3.08816">
        <ele>33.481998</ele>
        <time>2011-04-19T16:56:29Z</time>
      </trkpt>
      <trkpt lat="43.12024" lon="3.08809">
        <ele>33.66</ele>
        <time>2011-04-19T16:56:31Z</time>
      </trkpt>
      <trkpt lat="43.12022" lon="3.08806">
        <ele>33.479</ele>
        <time>2011-04-19T16:56:32Z</time>
      </trkpt>
      <trkpt lat="43.1202" lon="3.08786">
        <ele>34.012001</ele>
        <time>2011-04-19T16:56:36Z</time>
      </trkpt>
      <trkpt lat="43.12019" lon="3.08776">
        <ele>34.563</ele>
        <time>2011-04-19T16:56:39Z</time>
      </trkpt>
      <trkpt lat="43.12019" lon="3.08769">
        <ele>34.972</ele>
        <time>2011-04-19T16:56:40Z</time>
      </trkpt>
      <trkpt lat="43.12016" lon="3.08763">
        <ele>35.181</ele>
        <time>2011-04-19T16:56:42Z</time>
      </trkpt>
      <trkpt lat="43.12011" lon="3.08749">
        <ele>34.111</ele>
        <time>2011-04-19T16:56:45Z</time>
      </trkpt>
      <trkpt lat="43.12008" lon="3.0874">
        <ele>33.200001</ele>
        <time>2011-04-19T16:56:48Z</time>
      </trkpt>
      <trkpt lat="43.12004" lon="3.08721">
        <ele>31.940001</ele>
        <time>2011-04-19T16:56:52Z</time>
      </trkpt>
      <trkpt lat="43.12002" lon="3.08713">
        <ele>31.372999</ele>
        <time>2011-04-19T16:56:54Z</time>
      </trkpt>
      <trkpt lat="43.12001" lon="3.08695">
        <ele>28.783001</ele>
        <time>2011-04-19T16:56:58Z</time>
      </trkpt>
      <trkpt lat="43.12001" lon="3.08693">
        <ele>28.895</ele>
        <time>2011-04-19T16:56:58Z</time>
      </trkpt>
      <trkpt lat="43.11997" lon="3.08685">
        <ele>29.750999</ele>
        <time>2011-04-19T16:57:01Z</time>
      </trkpt>
      <trkpt lat="43.11996" lon="3.08683">
        <ele>30.072001</ele>
        <time>2011-04-19T16:57:01Z</time>
      </trkpt>
      <trkpt lat="43.11995" lon="3.08675">
        <ele>30.076</ele>
        <time>2011-04-19T16:57:03Z</time>
      </trkpt>
      <trkpt lat="43.11995" lon="3.08674">
        <ele>30.1</ele>
        <time>2011-04-19T16:57:03Z</time>
      </trkpt>
      <trkpt lat="43.11995" lon="3.0867">
        <ele>30.073999</ele>
        <time>2011-04-19T16:57:04Z</time>
      </trkpt>
      <trkpt lat="43.11995" lon="3.08666">
        <ele>30.464001</ele>
        <time>2011-04-19T16:57:05Z</time>
      </trkpt>
      <trkpt lat="43.11993" lon="3.08661">
        <ele>29.091</ele>
        <time>2011-04-19T16:57:06Z</time>
      </trkpt>
      <trkpt lat="43.11993" lon="3.08659">
        <ele>28.374001</ele>
        <time>2011-04-19T16:57:07Z</time>
      </trkpt>
      <trkpt lat="43.11991" lon="3.08656">
        <ele>28.257999</ele>
        <time>2011-04-19T16:57:08Z</time>
      </trkpt>
      <trkpt lat="43.11988" lon="3.08644">
        <ele>27.855</ele>
        <time>2011-04-19T16:57:10Z</time>
      </trkpt>
      <trkpt lat="43.11986" lon="3.08636">
        <ele>28.163</ele>
        <time>2011-04-19T16:57:13Z</time>
      </trkpt>
      <trkpt lat="43.11985" lon="3.08623">
        <ele>27.525999</ele>
        <time>2011-04-19T16:57:15Z</time>
      </trkpt>
      <trkpt lat="43.11986" lon="3.08606">
        <ele>27.042</ele>
        <time>2011-04-19T16:57:19Z</time>
      </trkpt>
      <trkpt lat="43.1198" lon="3.08587">
        <ele>24.259001</ele>
        <time>2011-04-19T16:57:24Z</time>
      </trkpt>
      <trkpt lat="43.11977" lon="3.08582">
        <ele>22.629</ele>
        <time>2011-04-19T16:57:25Z</time>
      </trkpt>
      <trkpt lat="43.11976" lon="3.08574">
        <ele>21.937</ele>
        <time>2011-04-19T16:57:27Z</time>
      </trkpt>
      <trkpt lat="43.11982" lon="3.08556">
        <ele>21.311001</ele>
        <time>2011-04-19T16:57:31Z</time>
      </trkpt>
      <trkpt lat="43.11987" lon="3.08547">
        <ele>21.247999</ele>
        <time>2011-04-19T16:57:34Z</time>
      </trkpt>
      <trkpt lat="43.11991" lon="3.0854">
        <ele>21.136999</ele>
        <time>2011-04-19T16:57:36Z</time>
      </trkpt>
      <trkpt lat="43.11994" lon="3.08531">
        <ele>21.313</ele>
        <time>2011-04-19T16:57:38Z</time>
      </trkpt>
      <trkpt lat="43.11988" lon="3.08516">
        <ele>19.851999</ele>
        <time>2011-04-19T16:57:42Z</time>
      </trkpt>
      <trkpt lat="43.11987" lon="3.08503">
        <ele>17.934</ele>
        <time>2011-04-19T16:57:45Z</time>
      </trkpt>
      <trkpt lat="43.11988" lon="3.085">
        <ele>17.523001</ele>
        <time>2011-04-19T16:57:46Z</time>
      </trkpt>
      <trkpt lat="43.11992" lon="3.08489">
        <ele>16.548</ele>
        <time>2011-04-19T16:57:49Z</time>
      </trkpt>
      <trkpt lat="43.11998" lon="3.08478">
        <ele>15.948</ele>
        <time>2011-04-19T16:57:52Z</time>
      </trkpt>
      <trkpt lat="43.11999" lon="3.08477">
        <ele>16.003</ele>
        <time>2011-04-19T16:57:52Z</time>
      </trkpt>
      <trkpt lat="43.12003" lon="3.08464">
        <ele>15.595</ele>
        <time>2011-04-19T16:57:55Z</time>
      </trkpt>
      <trkpt lat="43.12006" lon="3.08459">
        <ele>15.49</ele>
        <time>2011-04-19T16:57:57Z</time>
      </trkpt>
      <trkpt lat="43.12009" lon="3.08456">
        <ele>15.564</ele>
        <time>2011-04-19T16:57:58Z</time>
      </trkpt>
      <trkpt lat="43.12014" lon="3.08454">
        <ele>16.06</ele>
        <time>2011-04-19T16:57:59Z</time>
      </trkpt>
      <trkpt lat="43.12018" lon="3.08452">
        <ele>17.49</ele>
        <time>2011-04-19T16:58:01Z</time>
      </trkpt>
      <trkpt lat="43.12019" lon="3.08452">
        <ele>17.318001</ele>
        <time>2011-04-19T16:58:01Z</time>
      </trkpt>
      <trkpt lat="43.12025" lon="3.08443">
        <ele>17.329</ele>
        <time>2011-04-19T16:58:04Z</time>
      </trkpt>
      <trkpt lat="43.12035" lon="3.08427">
        <ele>16.284</ele>
        <time>2011-04-19T16:58:09Z</time>
      </trkpt>
      <trkpt lat="43.12039" lon="3.08419">
        <ele>14.737001</ele>
        <time>2011-04-19T16:58:11Z</time>
      </trkpt>
      <trkpt lat="43.12048" lon="3.08412">
        <ele>14.243</ele>
        <time>2011-04-19T16:58:14Z</time>
      </trkpt>
      <trkpt lat="43.12048" lon="3.08409">
        <ele>14.723</ele>
        <time>2011-04-19T16:58:15Z</time>
      </trkpt>
      <trkpt lat="43.12048" lon="3.0841">
        <ele>14.439</ele>
        <time>2011-04-19T16:58:15Z</time>
      </trkpt>
      <trkpt lat="43.12058" lon="3.08409">
        <ele>15.081</ele>
        <time>2011-04-19T16:58:18Z</time>
      </trkpt>
      <trkpt lat="43.12083" lon="3.08404">
        <ele>16.347</ele>
        <time>2011-04-19T16:58:26Z</time>
      </trkpt>
      <trkpt lat="43.12108" lon="3.08397">
        <ele>16.788</ele>
        <time>2011-04-19T16:58:34Z</time>
      </trkpt>
      <trkpt lat="43.12142" lon="3.08388">
        <ele>17.893999</ele>
        <time>2011-04-19T16:58:44Z</time>
      </trkpt>
      <trkpt lat="43.12186" lon="3.08378">
        <ele>18.889999</ele>
        <time>2011-04-19T16:58:58Z</time>
      </trkpt>
      <trkpt lat="43.12218" lon="3.08367">
        <ele>19.854</ele>
        <time>2011-04-19T16:59:08Z</time>
      </trkpt>
      <trkpt lat="43.12231" lon="3.0835">
        <ele>20.426001</ele>
        <time>2011-04-19T16:59:14Z</time>
      </trkpt>
      <trkpt lat="43.12241" lon="3.08317">
        <ele>21.1</ele>
        <time>2011-04-19T16:59:22Z</time>
      </trkpt>
      <trkpt lat="43.12246" lon="3.08281">
        <ele>22.507999</ele>
        <time>2011-04-19T16:59:30Z</time>
      </trkpt>
      <trkpt lat="43.12249" lon="3.08248">
        <ele>23.718</ele>
        <time>2011-04-19T16:59:38Z</time>
      </trkpt>
      <trkpt lat="43.12253" lon="3.08209">
        <ele>24.882999</ele>
        <time>2011-04-19T16:59:46Z</time>
      </trkpt>
      <trkpt lat="43.12257" lon="3.08174">
        <ele>26.538</ele>
        <time>2011-04-19T16:59:54Z</time>
      </trkpt>
      <trkpt lat="43.1226" lon="3.08155">
        <ele>27.825001</ele>
        <time>2011-04-19T16:59:59Z</time>
      </trkpt>
      <trkpt lat="43.12255" lon="3.08149">
        <ele>28.375</ele>
        <time>2011-04-19T17:00:01Z</time>
      </trkpt>
      <trkpt lat="43.12254" lon="3.0815">
        <ele>28.729</ele>
        <time>2011-04-19T17:00:01Z</time>
      </trkpt>
      <trkpt lat="43.12242" lon="3.08155">
        <ele>30.356001</ele>
        <time>2011-04-19T17:00:05Z</time>
      </trkpt>
      <trkpt lat="43.12225" lon="3.08156">
        <ele>32.056999</ele>
        <time>2011-04-19T17:00:10Z</time>
      </trkpt>
      <trkpt lat="43.12219" lon="3.08157">
        <ele>33.342999</ele>
        <time>2011-04-19T17:00:12Z</time>
      </trkpt>
      <trkpt lat="43.1221" lon="3.0816">
        <ele>34.195</ele>
        <time>2011-04-19T17:00:15Z</time>
      </trkpt>
      <trkpt lat="43.12206" lon="3.08152">
        <ele>34.470001</ele>
        <time>2011-04-19T17:00:17Z</time>
      </trkpt>
      <trkpt lat="43.12207" lon="3.08146">
        <ele>35.237999</ele>
        <time>2011-04-19T17:00:18Z</time>
      </trkpt>
      <trkpt lat="43.12212" lon="3.08137">
        <ele>38.279999</ele>
        <time>2011-04-19T17:00:21Z</time>
      </trkpt>
      <trkpt lat="43.12218" lon="3.08122">
        <ele>41.352001</ele>
        <time>2011-04-19T17:00:25Z</time>
      </trkpt>
      <trkpt lat="43.1222" lon="3.08115">
        <ele>42.816002</ele>
        <time>2011-04-19T17:00:27Z</time>
      </trkpt>
      <trkpt lat="43.12219" lon="3.0811">
        <ele>43.627998</ele>
        <time>2011-04-19T17:00:28Z</time>
      </trkpt>
      <trkpt lat="43.12217" lon="3.08091">
        <ele>45.386002</ele>
        <time>2011-04-19T17:00:32Z</time>
      </trkpt>
      <trkpt lat="43.1222" lon="3.08078">
        <ele>46.167999</ele>
        <time>2011-04-19T17:00:35Z</time>
      </trkpt>
      <trkpt lat="43.12225" lon="3.08066">
        <ele>46.748001</ele>
        <time>2011-04-19T17:00:38Z</time>
      </trkpt>
      <trkpt lat="43.12234" lon="3.0806">
        <ele>48.034</ele>
        <time>2011-04-19T17:00:41Z</time>
      </trkpt>
      <trkpt lat="43.12246" lon="3.08055">
        <ele>48.297001</ele>
        <time>2011-04-19T17:00:45Z</time>
      </trkpt>
      <trkpt lat="43.12257" lon="3.08044">
        <ele>48.597</ele>
        <time>2011-04-19T17:00:49Z</time>
      </trkpt>
      <trkpt lat="43.12268" lon="3.08028">
        <ele>49.118</ele>
        <time>2011-04-19T17:00:54Z</time>
      </trkpt>
      <trkpt lat="43.12277" lon="3.08019">
        <ele>47.897999</ele>
        <time>2011-04-19T17:00:58Z</time>
      </trkpt>
      <trkpt lat="43.12279" lon="3.08016">
        <ele>47.630001</ele>
        <time>2011-04-19T17:00:58Z</time>
      </trkpt>
      <trkpt lat="43.12293" lon="3.08013">
        <ele>43.361</ele>
        <time>2011-04-19T17:01:03Z</time>
      </trkpt>
      <trkpt lat="43.12308" lon="3.08012">
        <ele>38.653999</ele>
        <time>2011-04-19T17:01:08Z</time>
      </trkpt>
      <trkpt lat="43.12319" lon="3.08017">
        <ele>35.073002</ele>
        <time>2011-04-19T17:01:11Z</time>
      </trkpt>
      <trkpt lat="43.1232" lon="3.08015">
        <ele>34.933998</ele>
        <time>2011-04-19T17:01:12Z</time>
      </trkpt>
      <trkpt lat="43.12326" lon="3.08006">
        <ele>35.157002</ele>
        <time>2011-04-19T17:01:15Z</time>
      </trkpt>
      <trkpt lat="43.12329" lon="3.07997">
        <ele>35.797001</ele>
        <time>2011-04-19T17:01:17Z</time>
      </trkpt>
      <trkpt lat="43.12331" lon="3.07991">
        <ele>36.327</ele>
        <time>2011-04-19T17:01:18Z</time>
      </trkpt>
      <trkpt lat="43.12341" lon="3.07977">
        <ele>37.485001</ele>
        <time>2011-04-19T17:01:23Z</time>
      </trkpt>
      <trkpt lat="43.12355" lon="3.07978">
        <ele>38.110001</ele>
        <time>2011-04-19T17:01:27Z</time>
      </trkpt>
      <trkpt lat="43.12372" lon="3.0799">
        <ele>38.784</ele>
        <time>2011-04-19T17:01:33Z</time>
      </trkpt>
      <trkpt lat="43.12381" lon="3.08007">
        <ele>40.147999</ele>
        <time>2011-04-19T17:01:37Z</time>
      </trkpt>
      <trkpt lat="43.12393" lon="3.08016">
        <ele>41.627998</ele>
        <time>2011-04-19T17:01:42Z</time>
      </trkpt>
      <trkpt lat="43.12408" lon="3.08012">
        <ele>43.999001</ele>
        <time>2011-04-19T17:01:46Z</time>
      </trkpt>
      <trkpt lat="43.12411" lon="3.08001">
        <ele>45.458</ele>
        <time>2011-04-19T17:01:49Z</time>
      </trkpt>
      <trkpt lat="43.12408" lon="3.07979">
        <ele>46.939999</ele>
        <time>2011-04-19T17:01:54Z</time>
      </trkpt>
      <trkpt lat="43.12403" lon="3.07955">
        <ele>48.282002</ele>
        <time>2011-04-19T17:02:00Z</time>
      </trkpt>
      <trkpt lat="43.12398" lon="3.0794">
        <ele>49.974998</ele>
        <time>2011-04-19T17:02:03Z</time>
      </trkpt>
      <trkpt lat="43.12395" lon="3.07921">
        <ele>52.146999</ele>
        <time>2011-04-19T17:02:08Z</time>
      </trkpt>
      <trkpt lat="43.12385" lon="3.07906">
        <ele>53.896999</ele>
        <time>2011-04-19T17:02:12Z</time>
      </trkpt>
      <trkpt lat="43.12376" lon="3.07898">
        <ele>54.661999</ele>
        <time>2011-04-19T17:02:15Z</time>
      </trkpt>
      <trkpt lat="43.12371" lon="3.0789">
        <ele>55.014</ele>
        <time>2011-04-19T17:02:18Z</time>
      </trkpt>
      <trkpt lat="43.12365" lon="3.07874">
        <ele>55.137001</ele>
        <time>2011-04-19T17:02:22Z</time>
      </trkpt>
      <trkpt lat="43.12359" lon="3.07853">
        <ele>54.035999</ele>
        <time>2011-04-19T17:02:27Z</time>
      </trkpt>
      <trkpt lat="43.12347" lon="3.07832">
        <ele>52.950001</ele>
        <time>2011-04-19T17:02:33Z</time>
      </trkpt>
      <trkpt lat="43.12342" lon="3.07828">
        <ele>52.561001</ele>
        <time>2011-04-19T17:02:35Z</time>
      </trkpt>
      <trkpt lat="43.12328" lon="3.078">
        <ele>49.257999</ele>
        <time>2011-04-19T17:02:42Z</time>
      </trkpt>
      <trkpt lat="43.12326" lon="3.07793">
        <ele>48.768002</ele>
        <time>2011-04-19T17:02:44Z</time>
      </trkpt>
      <trkpt lat="43.12316" lon="3.07773">
        <ele>44.568001</ele>
        <time>2011-04-19T17:02:50Z</time>
      </trkpt>
      <trkpt lat="43.12304" lon="3.07756">
        <ele>41.384998</ele>
        <time>2011-04-19T17:02:55Z</time>
      </trkpt>
      <trkpt lat="43.12298" lon="3.07756">
        <ele>38.612999</ele>
        <time>2011-04-19T17:02:57Z</time>
      </trkpt>
      <trkpt lat="43.12297" lon="3.07754">
        <ele>38.312</ele>
        <time>2011-04-19T17:02:57Z</time>
      </trkpt>
      <trkpt lat="43.12297" lon="3.07752">
        <ele>37.959</ele>
        <time>2011-04-19T17:02:58Z</time>
      </trkpt>
      <trkpt lat="43.12299" lon="3.07736">
        <ele>37.323002</ele>
        <time>2011-04-19T17:03:01Z</time>
      </trkpt>
      <trkpt lat="43.12299" lon="3.07735">
        <ele>37.264999</ele>
        <time>2011-04-19T17:03:01Z</time>
      </trkpt>
      <trkpt lat="43.123" lon="3.07728">
        <ele>37.265999</ele>
        <time>2011-04-19T17:03:03Z</time>
      </trkpt>
      <trkpt lat="43.12308" lon="3.07715">
        <ele>37.733002</ele>
        <time>2011-04-19T17:03:07Z</time>
      </trkpt>
      <trkpt lat="43.12315" lon="3.07693">
        <ele>37.433998</ele>
        <time>2011-04-19T17:03:12Z</time>
      </trkpt>
      <trkpt lat="43.1232" lon="3.07677">
        <ele>37.221001</ele>
        <time>2011-04-19T17:03:16Z</time>
      </trkpt>
      <trkpt lat="43.12328" lon="3.07656">
        <ele>37.342999</ele>
        <time>2011-04-19T17:03:21Z</time>
      </trkpt>
      <trkpt lat="43.12329" lon="3.07636">
        <ele>36.087002</ele>
        <time>2011-04-19T17:03:26Z</time>
      </trkpt>
      <trkpt lat="43.12338" lon="3.07611">
        <ele>33.411999</ele>
        <time>2011-04-19T17:03:32Z</time>
      </trkpt>
      <trkpt lat="43.12349" lon="3.07598">
        <ele>32.834999</ele>
        <time>2011-04-19T17:03:37Z</time>
      </trkpt>
      <trkpt lat="43.12363" lon="3.07583">
        <ele>32.338001</ele>
        <time>2011-04-19T17:03:42Z</time>
      </trkpt>
      <trkpt lat="43.12367" lon="3.07579">
        <ele>32.237999</ele>
        <time>2011-04-19T17:03:44Z</time>
      </trkpt>
      <trkpt lat="43.12388" lon="3.07554">
        <ele>32.033001</ele>
        <time>2011-04-19T17:03:52Z</time>
      </trkpt>
      <trkpt lat="43.12393" lon="3.07545">
        <ele>31.837999</ele>
        <time>2011-04-19T17:03:55Z</time>
      </trkpt>
      <trkpt lat="43.12412" lon="3.07529">
        <ele>30.555</ele>
        <time>2011-04-19T17:04:02Z</time>
      </trkpt>
      <trkpt lat="43.12417" lon="3.07528">
        <ele>30.496</ele>
        <time>2011-04-19T17:04:03Z</time>
      </trkpt>
      <trkpt lat="43.12445" lon="3.0752">
        <ele>30.712999</ele>
        <time>2011-04-19T17:04:12Z</time>
      </trkpt>
      <trkpt lat="43.12461" lon="3.07505">
        <ele>31.542</ele>
        <time>2011-04-19T17:04:18Z</time>
      </trkpt>
      <trkpt lat="43.1247" lon="3.07487">
        <ele>31.888001</ele>
        <time>2011-04-19T17:04:23Z</time>
      </trkpt>
      <trkpt lat="43.12476" lon="3.07465">
        <ele>33.320999</ele>
        <time>2011-04-19T17:04:28Z</time>
      </trkpt>
      <trkpt lat="43.12484" lon="3.07453">
        <ele>34.986</ele>
        <time>2011-04-19T17:04:32Z</time>
      </trkpt>
      <trkpt lat="43.12496" lon="3.07446">
        <ele>36.397999</ele>
        <time>2011-04-19T17:04:36Z</time>
      </trkpt>
      <trkpt lat="43.12513" lon="3.07437">
        <ele>37.720001</ele>
        <time>2011-04-19T17:04:41Z</time>
      </trkpt>
      <trkpt lat="43.12532" lon="3.07431">
        <ele>39.252998</ele>
        <time>2011-04-19T17:04:47Z</time>
      </trkpt>
      <trkpt lat="43.12555" lon="3.07429">
        <ele>40.729</ele>
        <time>2011-04-19T17:04:54Z</time>
      </trkpt>
      <trkpt lat="43.12575" lon="3.07437">
        <ele>40.946999</ele>
        <time>2011-04-19T17:05:01Z</time>
      </trkpt>
      <trkpt lat="43.12594" lon="3.07445">
        <ele>40.797001</ele>
        <time>2011-04-19T17:05:07Z</time>
      </trkpt>
      <trkpt lat="43.12603" lon="3.07448">
        <ele>41.186001</ele>
        <time>2011-04-19T17:05:10Z</time>
      </trkpt>
      <trkpt lat="43.12618" lon="3.07457">
        <ele>41.556</ele>
        <time>2011-04-19T17:05:15Z</time>
      </trkpt>
      <trkpt lat="43.12633" lon="3.07465">
        <ele>42.321999</ele>
        <time>2011-04-19T17:05:20Z</time>
      </trkpt>
      <trkpt lat="43.12651" lon="3.0747">
        <ele>43.236</ele>
        <time>2011-04-19T17:05:26Z</time>
      </trkpt>
      <trkpt lat="43.12672" lon="3.0748">
        <ele>44.591999</ele>
        <time>2011-04-19T17:05:32Z</time>
      </trkpt>
      <trkpt lat="43.12681" lon="3.07489">
        <ele>45.335999</ele>
        <time>2011-04-19T17:05:36Z</time>
      </trkpt>
      <trkpt lat="43.12693" lon="3.07501">
        <ele>46.359001</ele>
        <time>2011-04-19T17:05:40Z</time>
      </trkpt>
      <trkpt lat="43.12706" lon="3.07515">
        <ele>47.356998</ele>
        <time>2011-04-19T17:05:45Z</time>
      </trkpt>
      <trkpt lat="43.12724" lon="3.07527">
        <ele>48.817001</ele>
        <time>2011-04-19T17:05:51Z</time>
      </trkpt>
      <trkpt lat="43.12734" lon="3.07536">
        <ele>50.244999</ele>
        <time>2011-04-19T17:05:55Z</time>
      </trkpt>
      <trkpt lat="43.12747" lon="3.07546">
        <ele>51.409</ele>
        <time>2011-04-19T17:06:00Z</time>
      </trkpt>
      <trkpt lat="43.12762" lon="3.07558">
        <ele>52.750999</ele>
        <time>2011-04-19T17:06:05Z</time>
      </trkpt>
      <trkpt lat="43.12778" lon="3.07569">
        <ele>53.466</ele>
        <time>2011-04-19T17:06:11Z</time>
      </trkpt>
      <trkpt lat="43.12795" lon="3.07582">
        <ele>55.172001</ele>
        <time>2011-04-19T17:06:17Z</time>
      </trkpt>
      <trkpt lat="43.12807" lon="3.07589">
        <ele>55.876999</ele>
        <time>2011-04-19T17:06:21Z</time>
      </trkpt>
      <trkpt lat="43.12814" lon="3.07598">
        <ele>56.748001</ele>
        <time>2011-04-19T17:06:24Z</time>
      </trkpt>
      <trkpt lat="43.12813" lon="3.07609">
        <ele>57.686001</ele>
        <time>2011-04-19T17:06:26Z</time>
      </trkpt>
      <trkpt lat="43.12813" lon="3.07621">
        <ele>59.187</ele>
        <time>2011-04-19T17:06:29Z</time>
      </trkpt>
      <trkpt lat="43.12816" lon="3.0763">
        <ele>60.618</ele>
        <time>2011-04-19T17:06:31Z</time>
      </trkpt>
      <trkpt lat="43.12818" lon="3.07634">
        <ele>61.139</ele>
        <time>2011-04-19T17:06:32Z</time>
      </trkpt>
      <trkpt lat="43.1282" lon="3.0764">
        <ele>61.924</ele>
        <time>2011-04-19T17:06:34Z</time>
      </trkpt>
      <trkpt lat="43.12827" lon="3.07646">
        <ele>63.326</ele>
        <time>2011-04-19T17:06:36Z</time>
      </trkpt>
      <trkpt lat="43.12831" lon="3.07652">
        <ele>64.492996</ele>
        <time>2011-04-19T17:06:38Z</time>
      </trkpt>
      <trkpt lat="43.12837" lon="3.07657">
        <ele>66.121002</ele>
        <time>2011-04-19T17:06:40Z</time>
      </trkpt>
      <trkpt lat="43.12843" lon="3.07661">
        <ele>66.893997</ele>
        <time>2011-04-19T17:06:42Z</time>
      </trkpt>
      <trkpt lat="43.12844" lon="3.0766">
        <ele>67.887001</ele>
        <time>2011-04-19T17:06:43Z</time>
      </trkpt>
      <trkpt lat="43.12851" lon="3.07663">
        <ele>69.380997</ele>
        <time>2011-04-19T17:06:45Z</time>
      </trkpt>
      <trkpt lat="43.12856" lon="3.07666">
        <ele>70.587997</ele>
        <time>2011-04-19T17:06:47Z</time>
      </trkpt>
      <trkpt lat="43.1286" lon="3.07667">
        <ele>71.931</ele>
        <time>2011-04-19T17:06:48Z</time>
      </trkpt>
      <trkpt lat="43.12865" lon="3.07671">
        <ele>73.134003</ele>
        <time>2011-04-19T17:06:50Z</time>
      </trkpt>
      <trkpt lat="43.12865" lon="3.07671">
        <ele>73.401001</ele>
        <time>2011-04-19T17:06:50Z</time>
      </trkpt>
      <trkpt lat="43.12872" lon="3.07673">
        <ele>74.928001</ele>
        <time>2011-04-19T17:06:52Z</time>
      </trkpt>
      <trkpt lat="43.12879" lon="3.07679">
        <ele>76.639</ele>
        <time>2011-04-19T17:06:54Z</time>
      </trkpt>
      <trkpt lat="43.12888" lon="3.07684">
        <ele>78.415001</ele>
        <time>2011-04-19T17:06:57Z</time>
      </trkpt>
      <trkpt lat="43.12892" lon="3.07686">
        <ele>79.255997</ele>
        <time>2011-04-19T17:06:59Z</time>
      </trkpt>
      <trkpt lat="43.12896" lon="3.07687">
        <ele>80.122002</ele>
        <time>2011-04-19T17:07:00Z</time>
      </trkpt>
      <trkpt lat="43.12902" lon="3.07691">
        <ele>81.140999</ele>
        <time>2011-04-19T17:07:02Z</time>
      </trkpt>
      <trkpt lat="43.12903" lon="3.07691">
        <ele>81.587997</ele>
        <time>2011-04-19T17:07:02Z</time>
      </trkpt>
      <trkpt lat="43.12902" lon="3.07693">
        <ele>81.764999</ele>
        <time>2011-04-19T17:07:03Z</time>
      </trkpt>
      <trkpt lat="43.12897" lon="3.07698">
        <ele>82.716003</ele>
        <time>2011-04-19T17:07:05Z</time>
      </trkpt>
      <trkpt lat="43.12898" lon="3.07706">
        <ele>84.383003</ele>
        <time>2011-04-19T17:07:07Z</time>
      </trkpt>
      <trkpt lat="43.12897" lon="3.07714">
        <ele>86.178001</ele>
        <time>2011-04-19T17:07:08Z</time>
      </trkpt>
      <trkpt lat="43.12896" lon="3.07718">
        <ele>87.676002</ele>
        <time>2011-04-19T17:07:09Z</time>
      </trkpt>
      <trkpt lat="43.12896" lon="3.07718">
        <ele>87.974998</ele>
        <time>2011-04-19T17:07:09Z</time>
      </trkpt>
      <trkpt lat="43.12898" lon="3.07727">
        <ele>89.751999</ele>
        <time>2011-04-19T17:07:11Z</time>
      </trkpt>
      <trkpt lat="43.12901" lon="3.0774">
        <ele>91.525002</ele>
        <time>2011-04-19T17:07:15Z</time>
      </trkpt>
      <trkpt lat="43.129" lon="3.07742">
        <ele>91.882004</ele>
        <time>2011-04-19T17:07:15Z</time>
      </trkpt>
      <trkpt lat="43.12896" lon="3.0775">
        <ele>93.154999</ele>
        <time>2011-04-19T17:07:17Z</time>
      </trkpt>
      <trkpt lat="43.12896" lon="3.07759">
        <ele>94.546997</ele>
        <time>2011-04-19T17:07:19Z</time>
      </trkpt>
      <trkpt lat="43.12896" lon="3.07762">
        <ele>94.874</ele>
        <time>2011-04-19T17:07:20Z</time>
      </trkpt>
      <trkpt lat="43.12898" lon="3.07773">
        <ele>95.986999</ele>
        <time>2011-04-19T17:07:23Z</time>
      </trkpt>
      <trkpt lat="43.129" lon="3.07778">
        <ele>96.627998</ele>
        <time>2011-04-19T17:07:24Z</time>
      </trkpt>
      <trkpt lat="43.12906" lon="3.07787">
        <ele>97.942001</ele>
        <time>2011-04-19T17:07:27Z</time>
      </trkpt>
      <trkpt lat="43.12906" lon="3.07788">
        <ele>97.974998</ele>
        <time>2011-04-19T17:07:27Z</time>
      </trkpt>
      <trkpt lat="43.12907" lon="3.07793">
        <ele>98.267998</ele>
        <time>2011-04-19T17:07:28Z</time>
      </trkpt>
      <trkpt lat="43.12907" lon="3.07803">
        <ele>99.335999</ele>
        <time>2011-04-19T17:07:30Z</time>
      </trkpt>
      <trkpt lat="43.12909" lon="3.0781">
        <ele>100.049</ele>
        <time>2011-04-19T17:07:32Z</time>
      </trkpt>
      <trkpt lat="43.12909" lon="3.07811">
        <ele>100.07199</ele>
        <time>2011-04-19T17:07:32Z</time>
      </trkpt>
      <trkpt lat="43.12909" lon="3.07815">
        <ele>100.637</ele>
        <time>2011-04-19T17:07:33Z</time>
      </trkpt>
      <trkpt lat="43.1291" lon="3.0782">
        <ele>100.744</ele>
        <time>2011-04-19T17:07:34Z</time>
      </trkpt>
      <trkpt lat="43.12911" lon="3.07827">
        <ele>101.621</ele>
        <time>2011-04-19T17:07:36Z</time>
      </trkpt>
      <trkpt lat="43.12911" lon="3.07827">
        <ele>101.68699</ele>
        <time>2011-04-19T17:07:36Z</time>
      </trkpt>
      <trkpt lat="43.12909" lon="3.07834">
        <ele>101.982</ele>
        <time>2011-04-19T17:07:38Z</time>
      </trkpt>
      <trkpt lat="43.12906" lon="3.07845">
        <ele>103.16899</ele>
        <time>2011-04-19T17:07:40Z</time>
      </trkpt>
      <trkpt lat="43.12906" lon="3.07849">
        <ele>103.35299</ele>
        <time>2011-04-19T17:07:41Z</time>
      </trkpt>
      <trkpt lat="43.12908" lon="3.07852">
        <ele>103.457</ele>
        <time>2011-04-19T17:07:42Z</time>
      </trkpt>
      <trkpt lat="43.12908" lon="3.07864">
        <ele>104.191</ele>
        <time>2011-04-19T17:07:45Z</time>
      </trkpt>
      <trkpt lat="43.12905" lon="3.07876">
        <ele>104.54</ele>
        <time>2011-04-19T17:07:48Z</time>
      </trkpt>
      <trkpt lat="43.12904" lon="3.07891">
        <ele>105.011</ele>
        <time>2011-04-19T17:07:51Z</time>
      </trkpt>
      <trkpt lat="43.12904" lon="3.07894">
        <ele>105.08999</ele>
        <time>2011-04-19T17:07:52Z</time>
      </trkpt>
      <trkpt lat="43.12903" lon="3.07902">
        <ele>105.05699</ele>
        <time>2011-04-19T17:07:53Z</time>
      </trkpt>
      <trkpt lat="43.12903" lon="3.07913">
        <ele>105.12699</ele>
        <time>2011-04-19T17:07:56Z</time>
      </trkpt>
      <trkpt lat="43.12901" lon="3.07925">
        <ele>105.343</ele>
        <time>2011-04-19T17:07:59Z</time>
      </trkpt>
      <trkpt lat="43.12893" lon="3.07938">
        <ele>105.042</ele>
        <time>2011-04-19T17:08:03Z</time>
      </trkpt>
      <trkpt lat="43.12894" lon="3.07959">
        <ele>104.902</ele>
        <time>2011-04-19T17:08:07Z</time>
      </trkpt>
      <trkpt lat="43.12895" lon="3.07986">
        <ele>104.85199</ele>
        <time>2011-04-19T17:08:13Z</time>
      </trkpt>
      <trkpt lat="43.12895" lon="3.08011">
        <ele>104.72</ele>
        <time>2011-04-19T17:08:19Z</time>
      </trkpt>
      <trkpt lat="43.12898" lon="3.08034">
        <ele>104.289</ele>
        <time>2011-04-19T17:08:24Z</time>
      </trkpt>
      <trkpt lat="43.12904" lon="3.08055">
        <ele>103.58799</ele>
        <time>2011-04-19T17:08:29Z</time>
      </trkpt>
      <trkpt lat="43.12904" lon="3.08078">
        <ele>102.664</ele>
        <time>2011-04-19T17:08:34Z</time>
      </trkpt>
      <trkpt lat="43.12903" lon="3.08086">
        <ele>102.07499</ele>
        <time>2011-04-19T17:08:36Z</time>
      </trkpt>
      <trkpt lat="43.12912" lon="3.08103">
        <ele>102.258</ele>
        <time>2011-04-19T17:08:41Z</time>
      </trkpt>
      <trkpt lat="43.12911" lon="3.08119">
        <ele>101.57399</ele>
        <time>2011-04-19T17:08:45Z</time>
      </trkpt>
      <trkpt lat="43.12915" lon="3.0813">
        <ele>101.14399</ele>
        <time>2011-04-19T17:08:47Z</time>
      </trkpt>
      <trkpt lat="43.12922" lon="3.08151">
        <ele>100.813</ele>
        <time>2011-04-19T17:08:52Z</time>
      </trkpt>
      <trkpt lat="43.12925" lon="3.08173">
        <ele>99.446999</ele>
        <time>2011-04-19T17:08:58Z</time>
      </trkpt>
      <trkpt lat="43.12929" lon="3.08186">
        <ele>97.464996</ele>
        <time>2011-04-19T17:09:01Z</time>
      </trkpt>
      <trkpt lat="43.12936" lon="3.08199">
        <ele>96.619003</ele>
        <time>2011-04-19T17:09:04Z</time>
      </trkpt>
      <trkpt lat="43.12938" lon="3.08205">
        <ele>96.275002</ele>
        <time>2011-04-19T17:09:06Z</time>
      </trkpt>
      <trkpt lat="43.1295" lon="3.08211">
        <ele>95.978996</ele>
        <time>2011-04-19T17:09:10Z</time>
      </trkpt>
      <trkpt lat="43.12962" lon="3.08223">
        <ele>95.740997</ele>
        <time>2011-04-19T17:09:14Z</time>
      </trkpt>
      <trkpt lat="43.1297" lon="3.08236">
        <ele>95.771004</ele>
        <time>2011-04-19T17:09:18Z</time>
      </trkpt>
      <trkpt lat="43.12981" lon="3.08245">
        <ele>96.345001</ele>
        <time>2011-04-19T17:09:22Z</time>
      </trkpt>
      <trkpt lat="43.12984" lon="3.08247">
        <ele>96.332001</ele>
        <time>2011-04-19T17:09:23Z</time>
      </trkpt>
      <trkpt lat="43.12992" lon="3.08255">
        <ele>96.606003</ele>
        <time>2011-04-19T17:09:26Z</time>
      </trkpt>
      <trkpt lat="43.13012" lon="3.08254">
        <ele>96.541</ele>
        <time>2011-04-19T17:09:32Z</time>
      </trkpt>
      <trkpt lat="43.13025" lon="3.08259">
        <ele>96.431999</ele>
        <time>2011-04-19T17:09:37Z</time>
      </trkpt>
      <trkpt lat="43.13034" lon="3.08262">
        <ele>96.486</ele>
        <time>2011-04-19T17:09:39Z</time>
      </trkpt>
      <trkpt lat="43.13048" lon="3.08272">
        <ele>95.763001</ele>
        <time>2011-04-19T17:09:44Z</time>
      </trkpt>
      <trkpt lat="43.1305" lon="3.08287">
        <ele>96.099998</ele>
        <time>2011-04-19T17:09:48Z</time>
      </trkpt>
      <trkpt lat="43.13045" lon="3.08303">
        <ele>96.860001</ele>
        <time>2011-04-19T17:09:51Z</time>
      </trkpt>
      <trkpt lat="43.13043" lon="3.08322">
        <ele>97.481003</ele>
        <time>2011-04-19T17:09:56Z</time>
      </trkpt>
      <trkpt lat="43.13038" lon="3.08331">
        <ele>98.425003</ele>
        <time>2011-04-19T17:09:58Z</time>
      </trkpt>
      <trkpt lat="43.13032" lon="3.08343">
        <ele>99.262001</ele>
        <time>2011-04-19T17:10:02Z</time>
      </trkpt>
      <trkpt lat="43.13023" lon="3.08361">
        <ele>100.521</ele>
        <time>2011-04-19T17:10:07Z</time>
      </trkpt>
      <trkpt lat="43.13015" lon="3.08376">
        <ele>101.414</ele>
        <time>2011-04-19T17:10:11Z</time>
      </trkpt>
      <trkpt lat="43.13003" lon="3.08394">
        <ele>102.612</ele>
        <time>2011-04-19T17:10:16Z</time>
      </trkpt>
      <trkpt lat="43.12999" lon="3.08402">
        <ele>103.11</ele>
        <time>2011-04-19T17:10:18Z</time>
      </trkpt>
      <trkpt lat="43.13002" lon="3.08411">
        <ele>103.68199</ele>
        <time>2011-04-19T17:10:21Z</time>
      </trkpt>
      <trkpt lat="43.13015" lon="3.08424">
        <ele>103.775</ele>
        <time>2011-04-19T17:10:25Z</time>
      </trkpt>
      <trkpt lat="43.13032" lon="3.08442">
        <ele>103.498</ele>
        <time>2011-04-19T17:10:32Z</time>
      </trkpt>
      <trkpt lat="43.1304" lon="3.08462">
        <ele>104.01699</ele>
        <time>2011-04-19T17:10:37Z</time>
      </trkpt>
      <trkpt lat="43.13051" lon="3.08474">
        <ele>103.97699</ele>
        <time>2011-04-19T17:10:42Z</time>
      </trkpt>
      <trkpt lat="43.13055" lon="3.08482">
        <ele>103.873</ele>
        <time>2011-04-19T17:10:44Z</time>
      </trkpt>
      <trkpt lat="43.13058" lon="3.08501">
        <ele>104.126</ele>
        <time>2011-04-19T17:10:48Z</time>
      </trkpt>
      <trkpt lat="43.13054" lon="3.08508">
        <ele>104.35099</ele>
        <time>2011-04-19T17:10:50Z</time>
      </trkpt>
      <trkpt lat="43.13053" lon="3.0852">
        <ele>104.841</ele>
        <time>2011-04-19T17:10:53Z</time>
      </trkpt>
      <trkpt lat="43.13054" lon="3.0854">
        <ele>105.055</ele>
        <time>2011-04-19T17:10:57Z</time>
      </trkpt>
      <trkpt lat="43.13053" lon="3.08553">
        <ele>105.25199</ele>
        <time>2011-04-19T17:11:00Z</time>
      </trkpt>
      <trkpt lat="43.13057" lon="3.08559">
        <ele>105.219</ele>
        <time>2011-04-19T17:11:02Z</time>
      </trkpt>
      <trkpt lat="43.13058" lon="3.08584">
        <ele>104.75199</ele>
        <time>2011-04-19T17:11:08Z</time>
      </trkpt>
      <trkpt lat="43.13065" lon="3.08612">
        <ele>104.43699</ele>
        <time>2011-04-19T17:11:14Z</time>
      </trkpt>
      <trkpt lat="43.13065" lon="3.08636">
        <ele>103.72799</ele>
        <time>2011-04-19T17:11:20Z</time>
      </trkpt>
      <trkpt lat="43.13062" lon="3.08653">
        <ele>103.22799</ele>
        <time>2011-04-19T17:11:24Z</time>
      </trkpt>
      <trkpt lat="43.13057" lon="3.08669">
        <ele>103.08499</ele>
        <time>2011-04-19T17:11:28Z</time>
      </trkpt>
      <trkpt lat="43.13054" lon="3.08673">
        <ele>103.55</ele>
        <time>2011-04-19T17:11:29Z</time>
      </trkpt>
      <trkpt lat="43.13041" lon="3.08687">
        <ele>104.929</ele>
        <time>2011-04-19T17:11:34Z</time>
      </trkpt>
      <trkpt lat="43.13033" lon="3.08698">
        <ele>105.72899</ele>
        <time>2011-04-19T17:11:37Z</time>
      </trkpt>
      <trkpt lat="43.13024" lon="3.08712">
        <ele>106.08</ele>
        <time>2011-04-19T17:11:42Z</time>
      </trkpt>
      <trkpt lat="43.13013" lon="3.08708">
        <ele>108.013</ele>
        <time>2011-04-19T17:11:45Z</time>
      </trkpt>
      <trkpt lat="43.13005" lon="3.087">
        <ele>109.847</ele>
        <time>2011-04-19T17:11:48Z</time>
      </trkpt>
      <trkpt lat="43.12996" lon="3.08694">
        <ele>111.33799</ele>
        <time>2011-04-19T17:11:51Z</time>
      </trkpt>
      <trkpt lat="43.12991" lon="3.08685">
        <ele>112.251</ele>
        <time>2011-04-19T17:11:54Z</time>
      </trkpt>
      <trkpt lat="43.12989" lon="3.08684">
        <ele>112.959</ele>
        <time>2011-04-19T17:11:54Z</time>
      </trkpt>
      <trkpt lat="43.12978" lon="3.08682">
        <ele>114.70099</ele>
        <time>2011-04-19T17:11:58Z</time>
      </trkpt>
      <trkpt lat="43.12964" lon="3.08679">
        <ele>116.556</ele>
        <time>2011-04-19T17:12:02Z</time>
      </trkpt>
      <trkpt lat="43.12955" lon="3.08673">
        <ele>119.149</ele>
        <time>2011-04-19T17:12:05Z</time>
      </trkpt>
      <trkpt lat="43.12953" lon="3.08672">
        <ele>119.332</ele>
        <time>2011-04-19T17:12:06Z</time>
      </trkpt>
      <trkpt lat="43.12948" lon="3.08669">
        <ele>120.12799</ele>
        <time>2011-04-19T17:12:08Z</time>
      </trkpt>
      <trkpt lat="43.12946" lon="3.08669">
        <ele>120.459</ele>
        <time>2011-04-19T17:12:08Z</time>
      </trkpt>
      <trkpt lat="43.12933" lon="3.08663">
        <ele>123.10199</ele>
        <time>2011-04-19T17:12:12Z</time>
      </trkpt>
      <trkpt lat="43.12931" lon="3.08661">
        <ele>124.03199</ele>
        <time>2011-04-19T17:12:13Z</time>
      </trkpt>
      <trkpt lat="43.12918" lon="3.08661">
        <ele>125.65</ele>
        <time>2011-04-19T17:12:17Z</time>
      </trkpt>
      <trkpt lat="43.12916" lon="3.08661">
        <ele>125.68499</ele>
        <time>2011-04-19T17:12:18Z</time>
      </trkpt>
      <trkpt lat="43.12903" lon="3.08654">
        <ele>126.956</ele>
        <time>2011-04-19T17:12:22Z</time>
      </trkpt>
      <trkpt lat="43.12894" lon="3.0865">
        <ele>127.556</ele>
        <time>2011-04-19T17:12:25Z</time>
      </trkpt>
      <trkpt lat="43.12881" lon="3.08644">
        <ele>128.041</ele>
        <time>2011-04-19T17:12:29Z</time>
      </trkpt>
      <trkpt lat="43.12865" lon="3.08643">
        <ele>128.442</ele>
        <time>2011-04-19T17:12:34Z</time>
      </trkpt>
      <trkpt lat="43.12851" lon="3.08644">
        <ele>129.328</ele>
        <time>2011-04-19T17:12:39Z</time>
      </trkpt>
      <trkpt lat="43.12841" lon="3.08638">
        <ele>129.367</ele>
        <time>2011-04-19T17:12:42Z</time>
      </trkpt>
      <trkpt lat="43.12827" lon="3.08631">
        <ele>129.281</ele>
        <time>2011-04-19T17:12:46Z</time>
      </trkpt>
      <trkpt lat="43.12809" lon="3.0863">
        <ele>129.046</ele>
        <time>2011-04-19T17:12:52Z</time>
      </trkpt>
      <trkpt lat="43.12795" lon="3.08623">
        <ele>128.54299</ele>
        <time>2011-04-19T17:12:56Z</time>
      </trkpt>
      <trkpt lat="43.1278" lon="3.08608">
        <ele>128.886</ele>
        <time>2011-04-19T17:13:02Z</time>
      </trkpt>
      <trkpt lat="43.12772" lon="3.08593">
        <ele>129.24699</ele>
        <time>2011-04-19T17:13:06Z</time>
      </trkpt>
      <trkpt lat="43.12763" lon="3.08579">
        <ele>129.63499</ele>
        <time>2011-04-19T17:13:11Z</time>
      </trkpt>
      <trkpt lat="43.1276" lon="3.08567">
        <ele>129.86999</ele>
        <time>2011-04-19T17:13:13Z</time>
      </trkpt>
      <trkpt lat="43.1276" lon="3.08568">
        <ele>129.90899</ele>
        <time>2011-04-19T17:13:13Z</time>
      </trkpt>
      <trkpt lat="43.12758" lon="3.08544">
        <ele>131.216</ele>
        <time>2011-04-19T17:13:19Z</time>
      </trkpt>
      <trkpt lat="43.12758" lon="3.0854">
        <ele>131.225</ele>
        <time>2011-04-19T17:13:20Z</time>
      </trkpt>
      <trkpt lat="43.1275" lon="3.0852">
        <ele>131.623</ele>
        <time>2011-04-19T17:13:25Z</time>
      </trkpt>
      <trkpt lat="43.1274" lon="3.08509">
        <ele>131.97799</ele>
        <time>2011-04-19T17:13:29Z</time>
      </trkpt>
      <trkpt lat="43.12744" lon="3.08494">
        <ele>132.455</ele>
        <time>2011-04-19T17:13:33Z</time>
      </trkpt>
      <trkpt lat="43.12748" lon="3.08481">
        <ele>132.46099</ele>
        <time>2011-04-19T17:13:36Z</time>
      </trkpt>
      <trkpt lat="43.12752" lon="3.08465">
        <ele>132.67599</ele>
        <time>2011-04-19T17:13:39Z</time>
      </trkpt>
      <trkpt lat="43.12754" lon="3.08461">
        <ele>132.235</ele>
        <time>2011-04-19T17:13:41Z</time>
      </trkpt>
      <trkpt lat="43.12757" lon="3.0846">
        <ele>132.253</ele>
        <time>2011-04-19T17:13:41Z</time>
      </trkpt>
      <trkpt lat="43.12762" lon="3.08447">
        <ele>131.77499</ele>
        <time>2011-04-19T17:13:45Z</time>
      </trkpt>
      <trkpt lat="43.12767" lon="3.08428">
        <ele>131.33</ele>
        <time>2011-04-19T17:13:49Z</time>
      </trkpt>
      <trkpt lat="43.12774" lon="3.08415">
        <ele>129.99899</ele>
        <time>2011-04-19T17:13:53Z</time>
      </trkpt>
      <trkpt lat="43.1278" lon="3.0839">
        <ele>127.26</ele>
        <time>2011-04-19T17:13:59Z</time>
      </trkpt>
      <trkpt lat="43.12785" lon="3.08365">
        <ele>124.152</ele>
        <time>2011-04-19T17:14:05Z</time>
      </trkpt>
      <trkpt lat="43.12789" lon="3.08335">
        <ele>120.121</ele>
        <time>2011-04-19T17:14:12Z</time>
      </trkpt>
      <trkpt lat="43.12786" lon="3.08317">
        <ele>118.21399</ele>
        <time>2011-04-19T17:14:16Z</time>
      </trkpt>
      <trkpt lat="43.12788" lon="3.08307">
        <ele>116.72</ele>
        <time>2011-04-19T17:14:18Z</time>
      </trkpt>
      <trkpt lat="43.12787" lon="3.08303">
        <ele>116.262</ele>
        <time>2011-04-19T17:14:19Z</time>
      </trkpt>
      <trkpt lat="43.12775" lon="3.08264">
        <ele>113.014</ele>
        <time>2011-04-19T17:14:29Z</time>
      </trkpt>
      <trkpt lat="43.1277" lon="3.08244">
        <ele>111.14499</ele>
        <time>2011-04-19T17:14:33Z</time>
      </trkpt>
      <trkpt lat="43.12765" lon="3.08234">
        <ele>108.69799</ele>
        <time>2011-04-19T17:14:36Z</time>
      </trkpt>
      <trkpt lat="43.12756" lon="3.08217">
        <ele>105.305</ele>
        <time>2011-04-19T17:14:41Z</time>
      </trkpt>
      <trkpt lat="43.12739" lon="3.08203">
        <ele>100.54499</ele>
        <time>2011-04-19T17:14:47Z</time>
      </trkpt>
      <trkpt lat="43.12732" lon="3.08198">
        <ele>97.899002</ele>
        <time>2011-04-19T17:14:49Z</time>
      </trkpt>
      <trkpt lat="43.12717" lon="3.08191">
        <ele>93.876999</ele>
        <time>2011-04-19T17:14:54Z</time>
      </trkpt>
      <trkpt lat="43.12715" lon="3.0819">
        <ele>93.579002</ele>
        <time>2011-04-19T17:14:55Z</time>
      </trkpt>
      <trkpt lat="43.12709" lon="3.08185">
        <ele>90.990997</ele>
        <time>2011-04-19T17:14:57Z</time>
      </trkpt>
      <trkpt lat="43.12701" lon="3.08185">
        <ele>87.903</ele>
        <time>2011-04-19T17:14:59Z</time>
      </trkpt>
      <trkpt lat="43.12696" lon="3.08195">
        <ele>85.247002</ele>
        <time>2011-04-19T17:15:02Z</time>
      </trkpt>
      <trkpt lat="43.12694" lon="3.08208">
        <ele>83.191002</ele>
        <time>2011-04-19T17:15:05Z</time>
      </trkpt>
      <trkpt lat="43.12693" lon="3.08211">
        <ele>82.766998</ele>
        <time>2011-04-19T17:15:06Z</time>
      </trkpt>
      <trkpt lat="43.12683" lon="3.0823">
        <ele>76.300003</ele>
        <time>2011-04-19T17:15:11Z</time>
      </trkpt>
      <trkpt lat="43.12681" lon="3.08232">
        <ele>75.362999</ele>
        <time>2011-04-19T17:15:12Z</time>
      </trkpt>
      <trkpt lat="43.12677" lon="3.08233">
        <ele>74.517998</ele>
        <time>2011-04-19T17:15:13Z</time>
      </trkpt>
      <trkpt lat="43.12671" lon="3.08231">
        <ele>74.234001</ele>
        <time>2011-04-19T17:15:15Z</time>
      </trkpt>
      <trkpt lat="43.12667" lon="3.0823">
        <ele>73.463997</ele>
        <time>2011-04-19T17:15:16Z</time>
      </trkpt>
      <trkpt lat="43.12663" lon="3.08224">
        <ele>72.844002</ele>
        <time>2011-04-19T17:15:18Z</time>
      </trkpt>
      <trkpt lat="43.12657" lon="3.08217">
        <ele>72.230003</ele>
        <time>2011-04-19T17:15:20Z</time>
      </trkpt>
      <trkpt lat="43.12645" lon="3.08217">
        <ele>70.470001</ele>
        <time>2011-04-19T17:15:24Z</time>
      </trkpt>
      <trkpt lat="43.1263" lon="3.08237">
        <ele>70.874</ele>
        <time>2011-04-19T17:15:31Z</time>
      </trkpt>
      <trkpt lat="43.12623" lon="3.08249">
        <ele>70.788002</ele>
        <time>2011-04-19T17:15:34Z</time>
      </trkpt>
      <trkpt lat="43.12613" lon="3.08282">
        <ele>69.221001</ele>
        <time>2011-04-19T17:15:42Z</time>
      </trkpt>
      <trkpt lat="43.12608" lon="3.08331">
        <ele>67.057999</ele>
        <time>2011-04-19T17:15:53Z</time>
      </trkpt>
      <trkpt lat="43.12606" lon="3.08373">
        <ele>66.948998</ele>
        <time>2011-04-19T17:16:03Z</time>
      </trkpt>
      <trkpt lat="43.12605" lon="3.08393">
        <ele>66.810997</ele>
        <time>2011-04-19T17:16:07Z</time>
      </trkpt>
      <trkpt lat="43.12608" lon="3.08418">
        <ele>67.220001</ele>
        <time>2011-04-19T17:16:13Z</time>
      </trkpt>
      <trkpt lat="43.12602" lon="3.08432">
        <ele>67.232002</ele>
        <time>2011-04-19T17:16:17Z</time>
      </trkpt>
      <trkpt lat="43.12593" lon="3.08474">
        <ele>66.670998</ele>
        <time>2011-04-19T17:16:27Z</time>
      </trkpt>
      <trkpt lat="43.1259" lon="3.08492">
        <ele>66.426002</ele>
        <time>2011-04-19T17:16:31Z</time>
      </trkpt>
      <trkpt lat="43.12588" lon="3.08508">
        <ele>65.75</ele>
        <time>2011-04-19T17:16:34Z</time>
      </trkpt>
      <trkpt lat="43.12593" lon="3.08533">
        <ele>65.832001</ele>
        <time>2011-04-19T17:16:40Z</time>
      </trkpt>
      <trkpt lat="43.12608" lon="3.08551">
        <ele>66.092003</ele>
        <time>2011-04-19T17:16:46Z</time>
      </trkpt>
      <trkpt lat="43.12613" lon="3.0857">
        <ele>66.144997</ele>
        <time>2011-04-19T17:16:51Z</time>
      </trkpt>
      <trkpt lat="43.12607" lon="3.08605">
        <ele>64.021004</ele>
        <time>2011-04-19T17:16:59Z</time>
      </trkpt>
      <trkpt lat="43.12601" lon="3.0862">
        <ele>63.033001</ele>
        <time>2011-04-19T17:17:03Z</time>
      </trkpt>
      <trkpt lat="43.12605" lon="3.0864">
        <ele>61.317001</ele>
        <time>2011-04-19T17:17:07Z</time>
      </trkpt>
      <trkpt lat="43.12608" lon="3.08647">
        <ele>61.049999</ele>
        <time>2011-04-19T17:17:09Z</time>
      </trkpt>
      <trkpt lat="43.12617" lon="3.08687">
        <ele>58.369</ele>
        <time>2011-04-19T17:17:18Z</time>
      </trkpt>
      <trkpt lat="43.12634" lon="3.08698">
        <ele>57.639</ele>
        <time>2011-04-19T17:17:24Z</time>
      </trkpt>
      <trkpt lat="43.12643" lon="3.08702">
        <ele>57.251999</ele>
        <time>2011-04-19T17:17:27Z</time>
      </trkpt>
      <trkpt lat="43.1265" lon="3.08703">
        <ele>57.161999</ele>
        <time>2011-04-19T17:17:29Z</time>
      </trkpt>
      <trkpt lat="43.12661" lon="3.08696">
        <ele>58.139</ele>
        <time>2011-04-19T17:17:33Z</time>
      </trkpt>
      <trkpt lat="43.12669" lon="3.08694">
        <ele>59.318001</ele>
        <time>2011-04-19T17:17:35Z</time>
      </trkpt>
      <trkpt lat="43.12669" lon="3.08694">
        <ele>59.438999</ele>
        <time>2011-04-19T17:17:36Z</time>
      </trkpt>
      <trkpt lat="43.12669" lon="3.08695">
        <ele>59.978001</ele>
        <time>2011-04-19T17:17:36Z</time>
      </trkpt>
      <trkpt lat="43.12674" lon="3.08696">
        <ele>60.282002</ele>
        <time>2011-04-19T17:17:37Z</time>
      </trkpt>
      <trkpt lat="43.12677" lon="3.08705">
        <ele>59.832001</ele>
        <time>2011-04-19T17:17:40Z</time>
      </trkpt>
      <trkpt lat="43.12679" lon="3.08707">
        <ele>59.891998</ele>
        <time>2011-04-19T17:17:40Z</time>
      </trkpt>
      <trkpt lat="43.12678" lon="3.08718">
        <ele>59.127998</ele>
        <time>2011-04-19T17:17:43Z</time>
      </trkpt>
      <trkpt lat="43.12678" lon="3.08721">
        <ele>58.747002</ele>
        <time>2011-04-19T17:17:44Z</time>
      </trkpt>
      <trkpt lat="43.12679" lon="3.08728">
        <ele>57.181999</ele>
        <time>2011-04-19T17:17:45Z</time>
      </trkpt>
      <trkpt lat="43.12687" lon="3.08747">
        <ele>55.964001</ele>
        <time>2011-04-19T17:17:50Z</time>
      </trkpt>
      <trkpt lat="43.12695" lon="3.08769">
        <ele>54.623001</ele>
        <time>2011-04-19T17:17:56Z</time>
      </trkpt>
      <trkpt lat="43.12717" lon="3.08786">
        <ele>52.43</ele>
        <time>2011-04-19T17:18:04Z</time>
      </trkpt>
      <trkpt lat="43.12743" lon="3.08798">
        <ele>51.511002</ele>
        <time>2011-04-19T17:18:12Z</time>
      </trkpt>
      <trkpt lat="43.12752" lon="3.08802">
        <ele>50.803001</ele>
        <time>2011-04-19T17:18:15Z</time>
      </trkpt>
      <trkpt lat="43.12763" lon="3.08804">
        <ele>51.348999</ele>
        <time>2011-04-19T17:18:18Z</time>
      </trkpt>
      <trkpt lat="43.12777" lon="3.08805">
        <ele>51.757999</ele>
        <time>2011-04-19T17:18:23Z</time>
      </trkpt>
      <trkpt lat="43.12793" lon="3.08813">
        <ele>52.111</ele>
        <time>2011-04-19T17:18:28Z</time>
      </trkpt>
      <trkpt lat="43.12798" lon="3.08818">
        <ele>52.015999</ele>
        <time>2011-04-19T17:18:30Z</time>
      </trkpt>
      <trkpt lat="43.12811" lon="3.08812">
        <ele>52.686001</ele>
        <time>2011-04-19T17:18:34Z</time>
      </trkpt>
      <trkpt lat="43.12826" lon="3.08806">
        <ele>53.869</ele>
        <time>2011-04-19T17:18:39Z</time>
      </trkpt>
      <trkpt lat="43.12831" lon="3.08803">
        <ele>54.169998</ele>
        <time>2011-04-19T17:18:40Z</time>
      </trkpt>
      <trkpt lat="43.12844" lon="3.08807">
        <ele>53.681</ele>
        <time>2011-04-19T17:18:45Z</time>
      </trkpt>
      <trkpt lat="43.12853" lon="3.08806">
        <ele>53.756</ele>
        <time>2011-04-19T17:18:47Z</time>
      </trkpt>
      <trkpt lat="43.12861" lon="3.08804">
        <ele>54.037998</ele>
        <time>2011-04-19T17:18:50Z</time>
      </trkpt>
      <trkpt lat="43.12874" lon="3.08806">
        <ele>53.09</ele>
        <time>2011-04-19T17:18:54Z</time>
      </trkpt>
      <trkpt lat="43.12881" lon="3.08809">
        <ele>51.735001</ele>
        <time>2011-04-19T17:18:56Z</time>
      </trkpt>
      <trkpt lat="43.12883" lon="3.08817">
        <ele>48.484001</ele>
        <time>2011-04-19T17:18:58Z</time>
      </trkpt>
      <trkpt lat="43.12884" lon="3.08831">
        <ele>44.416</ele>
        <time>2011-04-19T17:19:01Z</time>
      </trkpt>
      <trkpt lat="43.12895" lon="3.08845">
        <ele>40.483002</ele>
        <time>2011-04-19T17:19:06Z</time>
      </trkpt>
      <trkpt lat="43.12902" lon="3.08855">
        <ele>37.453999</ele>
        <time>2011-04-19T17:19:09Z</time>
      </trkpt>
      <trkpt lat="43.12902" lon="3.08855">
        <ele>36.662998</ele>
        <time>2011-04-19T17:19:09Z</time>
      </trkpt>
      <trkpt lat="43.12901" lon="3.08862">
        <ele>35.431</ele>
        <time>2011-04-19T17:19:11Z</time>
      </trkpt>
      <trkpt lat="43.12907" lon="3.08872">
        <ele>36.34</ele>
        <time>2011-04-19T17:19:14Z</time>
      </trkpt>
      <trkpt lat="43.12907" lon="3.08874">
        <ele>36.701</ele>
        <time>2011-04-19T17:19:14Z</time>
      </trkpt>
      <trkpt lat="43.12908" lon="3.08874">
        <ele>36.745998</ele>
        <time>2011-04-19T17:19:14Z</time>
      </trkpt>
      <trkpt lat="43.12913" lon="3.08885">
        <ele>36.638</ele>
        <time>2011-04-19T17:19:17Z</time>
      </trkpt>
      <trkpt lat="43.12921" lon="3.08892">
        <ele>37.195</ele>
        <time>2011-04-19T17:19:20Z</time>
      </trkpt>
      <trkpt lat="43.12923" lon="3.08895">
        <ele>37.870998</ele>
        <time>2011-04-19T17:19:21Z</time>
      </trkpt>
      <trkpt lat="43.12942" lon="3.08904">
        <ele>38.622002</ele>
        <time>2011-04-19T17:19:27Z</time>
      </trkpt>
      <trkpt lat="43.12947" lon="3.08905">
        <ele>38.721001</ele>
        <time>2011-04-19T17:19:29Z</time>
      </trkpt>
      <trkpt lat="43.12959" lon="3.089">
        <ele>38.945</ele>
        <time>2011-04-19T17:19:33Z</time>
      </trkpt>
      <trkpt lat="43.12968" lon="3.08898">
        <ele>39.014999</ele>
        <time>2011-04-19T17:19:36Z</time>
      </trkpt>
      <trkpt lat="43.12974" lon="3.08903">
        <ele>39.247002</ele>
        <time>2011-04-19T17:19:38Z</time>
      </trkpt>
      <trkpt lat="43.12989" lon="3.08914">
        <ele>41.181</ele>
        <time>2011-04-19T17:19:43Z</time>
      </trkpt>
      <trkpt lat="43.12999" lon="3.08919">
        <ele>41.860001</ele>
        <time>2011-04-19T17:19:46Z</time>
      </trkpt>
      <trkpt lat="43.13017" lon="3.08924">
        <ele>40.573002</ele>
        <time>2011-04-19T17:19:52Z</time>
      </trkpt>
      <trkpt lat="43.13023" lon="3.08928">
        <ele>39.837002</ele>
        <time>2011-04-19T17:19:54Z</time>
      </trkpt>
      <trkpt lat="43.13034" lon="3.08936">
        <ele>39.811001</ele>
        <time>2011-04-19T17:19:58Z</time>
      </trkpt>
      <trkpt lat="43.13036" lon="3.08937">
        <ele>39.866001</ele>
        <time>2011-04-19T17:19:58Z</time>
      </trkpt>
      <trkpt lat="43.13051" lon="3.08946">
        <ele>40.508999</ele>
        <time>2011-04-19T17:20:04Z</time>
      </trkpt>
      <trkpt lat="43.13065" lon="3.08955">
        <ele>41.494999</ele>
        <time>2011-04-19T17:20:08Z</time>
      </trkpt>
      <trkpt lat="43.13078" lon="3.08964">
        <ele>42.047001</ele>
        <time>2011-04-19T17:20:13Z</time>
      </trkpt>
      <trkpt lat="43.13086" lon="3.0897">
        <ele>42.556</ele>
        <time>2011-04-19T17:20:15Z</time>
      </trkpt>
      <trkpt lat="43.13099" lon="3.08967">
        <ele>42.627998</ele>
        <time>2011-04-19T17:20:20Z</time>
      </trkpt>
      <trkpt lat="43.13112" lon="3.08958">
        <ele>43.157002</ele>
        <time>2011-04-19T17:20:24Z</time>
      </trkpt>
      <trkpt lat="43.13124" lon="3.08946">
        <ele>43.914001</ele>
        <time>2011-04-19T17:20:29Z</time>
      </trkpt>
      <trkpt lat="43.13135" lon="3.08933">
        <ele>44.667999</ele>
        <time>2011-04-19T17:20:33Z</time>
      </trkpt>
      <trkpt lat="43.13139" lon="3.08932">
        <ele>44.549999</ele>
        <time>2011-04-19T17:20:34Z</time>
      </trkpt>
      <trkpt lat="43.13147" lon="3.08935">
        <ele>43.530998</ele>
        <time>2011-04-19T17:20:37Z</time>
      </trkpt>
      <trkpt lat="43.13157" lon="3.08941">
        <ele>44.047001</ele>
        <time>2011-04-19T17:20:40Z</time>
      </trkpt>
      <trkpt lat="43.1316" lon="3.0895">
        <ele>45.034</ele>
        <time>2011-04-19T17:20:43Z</time>
      </trkpt>
      <trkpt lat="43.13163" lon="3.08958">
        <ele>45.416</ele>
        <time>2011-04-19T17:20:45Z</time>
      </trkpt>
      <trkpt lat="43.13171" lon="3.08974">
        <ele>45.535</ele>
        <time>2011-04-19T17:20:49Z</time>
      </trkpt>
      <trkpt lat="43.13173" lon="3.08978">
        <ele>45.610001</ele>
        <time>2011-04-19T17:20:50Z</time>
      </trkpt>
      <trkpt lat="43.13179" lon="3.08996">
        <ele>46.259998</ele>
        <time>2011-04-19T17:20:54Z</time>
      </trkpt>
      <trkpt lat="43.13181" lon="3.09005">
        <ele>46.812</ele>
        <time>2011-04-19T17:20:57Z</time>
      </trkpt>
      <trkpt lat="43.13186" lon="3.09017">
        <ele>47.314999</ele>
        <time>2011-04-19T17:21:00Z</time>
      </trkpt>
      <trkpt lat="43.13196" lon="3.09036">
        <ele>48.194</ele>
        <time>2011-04-19T17:21:05Z</time>
      </trkpt>
      <trkpt lat="43.13201" lon="3.0905">
        <ele>48.648998</ele>
        <time>2011-04-19T17:21:09Z</time>
      </trkpt>
      <trkpt lat="43.13206" lon="3.09056">
        <ele>49.102001</ele>
        <time>2011-04-19T17:21:11Z</time>
      </trkpt>
      <trkpt lat="43.13219" lon="3.09061">
        <ele>49.928001</ele>
        <time>2011-04-19T17:21:15Z</time>
      </trkpt>
      <trkpt lat="43.13221" lon="3.09061">
        <ele>50.145001</ele>
        <time>2011-04-19T17:21:15Z</time>
      </trkpt>
      <trkpt lat="43.13223" lon="3.0906">
        <ele>50.366001</ele>
        <time>2011-04-19T17:21:16Z</time>
      </trkpt>
      <trkpt lat="43.13223" lon="3.0906">
        <ele>50.598999</ele>
        <time>2011-04-19T17:21:16Z</time>
      </trkpt>
      <trkpt lat="43.1323" lon="3.09062">
        <ele>52.845001</ele>
        <time>2011-04-19T17:21:18Z</time>
      </trkpt>
      <trkpt lat="43.13232" lon="3.09067">
        <ele>54.195</ele>
        <time>2011-04-19T17:21:19Z</time>
      </trkpt>
      <trkpt lat="43.13232" lon="3.09069">
        <ele>54.359001</ele>
        <time>2011-04-19T17:21:20Z</time>
      </trkpt>
      <trkpt lat="43.13233" lon="3.09071">
        <ele>54.653</ele>
        <time>2011-04-19T17:21:20Z</time>
      </trkpt>
      <trkpt lat="43.13239" lon="3.0907">
        <ele>55.988998</ele>
        <time>2011-04-19T17:21:22Z</time>
      </trkpt>
      <trkpt lat="43.13248" lon="3.09068">
        <ele>57.255001</ele>
        <time>2011-04-19T17:21:25Z</time>
      </trkpt>
      <trkpt lat="43.13252" lon="3.09063">
        <ele>57.651001</ele>
        <time>2011-04-19T17:21:27Z</time>
      </trkpt>
      <trkpt lat="43.13256" lon="3.09063">
        <ele>58.133999</ele>
        <time>2011-04-19T17:21:28Z</time>
      </trkpt>
      <trkpt lat="43.13263" lon="3.09068">
        <ele>58.436001</ele>
        <time>2011-04-19T17:21:30Z</time>
      </trkpt>
      <trkpt lat="43.13269" lon="3.09071">
        <ele>58.851002</ele>
        <time>2011-04-19T17:21:32Z</time>
      </trkpt>
      <trkpt lat="43.13275" lon="3.09074">
        <ele>58.917999</ele>
        <time>2011-04-19T17:21:34Z</time>
      </trkpt>
      <trkpt lat="43.13274" lon="3.09089">
        <ele>60.535</ele>
        <time>2011-04-19T17:21:38Z</time>
      </trkpt>
      <trkpt lat="43.13274" lon="3.09105">
        <ele>62.164001</ele>
        <time>2011-04-19T17:21:41Z</time>
      </trkpt>
      <trkpt lat="43.13277" lon="3.0912">
        <ele>63.082001</ele>
        <time>2011-04-19T17:21:45Z</time>
      </trkpt>
      <trkpt lat="43.1328" lon="3.0912">
        <ele>63.365002</ele>
        <time>2011-04-19T17:21:46Z</time>
      </trkpt>
      <trkpt lat="43.13285" lon="3.09098">
        <ele>63.223</ele>
        <time>2011-04-19T17:21:51Z</time>
      </trkpt>
      <trkpt lat="43.13294" lon="3.09073">
        <ele>63.658001</ele>
        <time>2011-04-19T17:21:57Z</time>
      </trkpt>
      <trkpt lat="43.13302" lon="3.09044">
        <ele>63.207001</ele>
        <time>2011-04-19T17:22:04Z</time>
      </trkpt>
      <trkpt lat="43.13313" lon="3.09031">
        <ele>63.282002</ele>
        <time>2011-04-19T17:22:09Z</time>
      </trkpt>
      <trkpt lat="43.13329" lon="3.09027">
        <ele>63.911999</ele>
        <time>2011-04-19T17:22:14Z</time>
      </trkpt>
      <trkpt lat="43.13347" lon="3.09011">
        <ele>65.414001</ele>
        <time>2011-04-19T17:22:20Z</time>
      </trkpt>
      <trkpt lat="43.13362" lon="3.09006">
        <ele>66.622002</ele>
        <time>2011-04-19T17:22:25Z</time>
      </trkpt>
      <trkpt lat="43.13368" lon="3.09007">
        <ele>66.816002</ele>
        <time>2011-04-19T17:22:27Z</time>
      </trkpt>
      <trkpt lat="43.13377" lon="3.09026">
        <ele>68.223999</ele>
        <time>2011-04-19T17:22:32Z</time>
      </trkpt>
      <trkpt lat="43.13385" lon="3.09039">
        <ele>68.808998</ele>
        <time>2011-04-19T17:22:36Z</time>
      </trkpt>
      <trkpt lat="43.13387" lon="3.09053">
        <ele>69.861999</ele>
        <time>2011-04-19T17:22:39Z</time>
      </trkpt>
      <trkpt lat="43.13381" lon="3.09072">
        <ele>71.416</ele>
        <time>2011-04-19T17:22:44Z</time>
      </trkpt>
      <trkpt lat="43.13375" lon="3.09089">
        <ele>72.708</ele>
        <time>2011-04-19T17:22:48Z</time>
      </trkpt>
      <trkpt lat="43.13375" lon="3.09092">
        <ele>72.908997</ele>
        <time>2011-04-19T17:22:48Z</time>
      </trkpt>
      <trkpt lat="43.13375" lon="3.09109">
        <ele>74.091003</ele>
        <time>2011-04-19T17:22:52Z</time>
      </trkpt>
      <trkpt lat="43.13376" lon="3.09118">
        <ele>74.533997</ele>
        <time>2011-04-19T17:22:54Z</time>
      </trkpt>
      <trkpt lat="43.1338" lon="3.09142">
        <ele>76.209999</ele>
        <time>2011-04-19T17:23:00Z</time>
      </trkpt>
      <trkpt lat="43.1338" lon="3.09145">
        <ele>76.285004</ele>
        <time>2011-04-19T17:23:00Z</time>
      </trkpt>
      <trkpt lat="43.13379" lon="3.09151">
        <ele>76.651001</ele>
        <time>2011-04-19T17:23:02Z</time>
      </trkpt>
      <trkpt lat="43.13376" lon="3.09161">
        <ele>76.689003</ele>
        <time>2011-04-19T17:23:05Z</time>
      </trkpt>
      <trkpt lat="43.1337" lon="3.09165">
        <ele>76.788002</ele>
        <time>2011-04-19T17:23:07Z</time>
      </trkpt>
      <trkpt lat="43.13367" lon="3.09166">
        <ele>77.085999</ele>
        <time>2011-04-19T17:23:07Z</time>
      </trkpt>
      <trkpt lat="43.13358" lon="3.09172">
        <ele>77.711998</ele>
        <time>2011-04-19T17:23:10Z</time>
      </trkpt>
      <trkpt lat="43.13345" lon="3.09195">
        <ele>77.606003</ele>
        <time>2011-04-19T17:23:17Z</time>
      </trkpt>
      <trkpt lat="43.13334" lon="3.09204">
        <ele>78.275002</ele>
        <time>2011-04-19T17:23:21Z</time>
      </trkpt>
      <trkpt lat="43.13333" lon="3.09206">
        <ele>78.392998</ele>
        <time>2011-04-19T17:23:22Z</time>
      </trkpt>
      <trkpt lat="43.13329" lon="3.09206">
        <ele>78.453003</ele>
        <time>2011-04-19T17:23:23Z</time>
      </trkpt>
      <trkpt lat="43.13323" lon="3.09197">
        <ele>75.710999</ele>
        <time>2011-04-19T17:23:25Z</time>
      </trkpt>
      <trkpt lat="43.13322" lon="3.09195">
        <ele>74.747002</ele>
        <time>2011-04-19T17:23:26Z</time>
      </trkpt>
      <trkpt lat="43.13321" lon="3.09186">
        <ele>71.023003</ele>
        <time>2011-04-19T17:23:28Z</time>
      </trkpt>
      <trkpt lat="43.1332" lon="3.09177">
        <ele>71.084</ele>
        <time>2011-04-19T17:23:30Z</time>
      </trkpt>
      <trkpt lat="43.13315" lon="3.09163">
        <ele>67.728996</ele>
        <time>2011-04-19T17:23:34Z</time>
      </trkpt>
      <trkpt lat="43.13315" lon="3.09162">
        <ele>67.303001</ele>
        <time>2011-04-19T17:23:34Z</time>
      </trkpt>
      <trkpt lat="43.13313" lon="3.09164">
        <ele>67.273003</ele>
        <time>2011-04-19T17:23:35Z</time>
      </trkpt>
      <trkpt lat="43.13311" lon="3.09167">
        <ele>67.234001</ele>
        <time>2011-04-19T17:23:35Z</time>
      </trkpt>
      <trkpt lat="43.13313" lon="3.09168">
        <ele>67.179001</ele>
        <time>2011-04-19T17:23:36Z</time>
      </trkpt>
      <trkpt lat="43.13313" lon="3.09164">
        <ele>67.144997</ele>
        <time>2011-04-19T17:23:37Z</time>
      </trkpt>
      <trkpt lat="43.13312" lon="3.09159">
        <ele>67.171997</ele>
        <time>2011-04-19T17:23:38Z</time>
      </trkpt>
      <trkpt lat="43.13313" lon="3.09159">
        <ele>68.013001</ele>
        <time>2011-04-19T17:23:38Z</time>
      </trkpt>
      <trkpt lat="43.13315" lon="3.09163">
        <ele>71.114998</ele>
        <time>2011-04-19T17:23:39Z</time>
      </trkpt>
      <trkpt lat="43.13315" lon="3.09165">
        <ele>70.985001</ele>
        <time>2011-04-19T17:23:40Z</time>
      </trkpt>
      <trkpt lat="43.13315" lon="3.09158">
        <ele>68.637001</ele>
        <time>2011-04-19T17:23:41Z</time>
      </trkpt>
      <trkpt lat="43.13314" lon="3.09157">
        <ele>67.475998</ele>
        <time>2011-04-19T17:23:41Z</time>
      </trkpt>
      <trkpt lat="43.13314" lon="3.09157">
        <ele>67.420998</ele>
        <time>2011-04-19T17:23:41Z</time>
      </trkpt>
      <trkpt lat="43.13312" lon="3.09159">
        <ele>67.413002</ele>
        <time>2011-04-19T17:23:42Z</time>
      </trkpt>
      <trkpt lat="43.13311" lon="3.09162">
        <ele>67.410004</ele>
        <time>2011-04-19T17:23:43Z</time>
      </trkpt>
      <trkpt lat="43.13304" lon="3.09179">
        <ele>67.934998</ele>
        <time>2011-04-19T17:23:47Z</time>
      </trkpt>
      <trkpt lat="43.13299" lon="3.09197">
        <ele>68.603996</ele>
        <time>2011-04-19T17:23:52Z</time>
      </trkpt>
      <trkpt lat="43.13293" lon="3.09213">
        <ele>68.523003</ele>
        <time>2011-04-19T17:23:56Z</time>
      </trkpt>
      <trkpt lat="43.13287" lon="3.09234">
        <ele>68.432999</ele>
        <time>2011-04-19T17:24:01Z</time>
      </trkpt>
      <trkpt lat="43.13285" lon="3.0925">
        <ele>68.932999</ele>
        <time>2011-04-19T17:24:04Z</time>
      </trkpt>
      <trkpt lat="43.13287" lon="3.09265">
        <ele>69.917</ele>
        <time>2011-04-19T17:24:08Z</time>
      </trkpt>
      <trkpt lat="43.13284" lon="3.09275">
        <ele>70.248001</ele>
        <time>2011-04-19T17:24:10Z</time>
      </trkpt>
      <trkpt lat="43.13288" lon="3.09293">
        <ele>70.886002</ele>
        <time>2011-04-19T17:24:14Z</time>
      </trkpt>
      <trkpt lat="43.13289" lon="3.09316">
        <ele>71.885002</ele>
        <time>2011-04-19T17:24:20Z</time>
      </trkpt>
      <trkpt lat="43.13288" lon="3.09333">
        <ele>72.897003</ele>
        <time>2011-04-19T17:24:23Z</time>
      </trkpt>
      <trkpt lat="43.13288" lon="3.09343">
        <ele>73.874</ele>
        <time>2011-04-19T17:24:26Z</time>
      </trkpt>
      <trkpt lat="43.13287" lon="3.09358">
        <ele>76.268997</ele>
        <time>2011-04-19T17:24:29Z</time>
      </trkpt>
      <trkpt lat="43.13291" lon="3.09363">
        <ele>77.128998</ele>
        <time>2011-04-19T17:24:31Z</time>
      </trkpt>
      <trkpt lat="43.13302" lon="3.09371">
        <ele>77.679001</ele>
        <time>2011-04-19T17:24:34Z</time>
      </trkpt>
      <trkpt lat="43.13296" lon="3.09376">
        <ele>100.014</ele>
        <time>2011-04-19T17:24:37Z</time>
      </trkpt>
      <trkpt lat="43.1329" lon="3.09385">
        <ele>101.148</ele>
        <time>2011-04-19T17:24:39Z</time>
      </trkpt>
      <trkpt lat="43.13282" lon="3.09397">
        <ele>101.122</ele>
        <time>2011-04-19T17:24:43Z</time>
      </trkpt>
      <trkpt lat="43.13282" lon="3.09409">
        <ele>103.846</ele>
        <time>2011-04-19T17:24:46Z</time>
      </trkpt>
      <trkpt lat="43.13281" lon="3.09421">
        <ele>105.11299</ele>
        <time>2011-04-19T17:24:49Z</time>
      </trkpt>
      <trkpt lat="43.13278" lon="3.09436">
        <ele>106.646</ele>
        <time>2011-04-19T17:24:52Z</time>
      </trkpt>
      <trkpt lat="43.13277" lon="3.09439">
        <ele>107.39299</ele>
        <time>2011-04-19T17:24:53Z</time>
      </trkpt>
      <trkpt lat="43.1328" lon="3.0945">
        <ele>107.73999</ele>
        <time>2011-04-19T17:24:55Z</time>
      </trkpt>
      <trkpt lat="43.13277" lon="3.09458">
        <ele>109.471</ele>
        <time>2011-04-19T17:24:57Z</time>
      </trkpt>
      <trkpt lat="43.13276" lon="3.09464">
        <ele>110.41</ele>
        <time>2011-04-19T17:24:59Z</time>
      </trkpt>
      <trkpt lat="43.13274" lon="3.0948">
        <ele>113.939</ele>
        <time>2011-04-19T17:25:02Z</time>
      </trkpt>
      <trkpt lat="43.13271" lon="3.09491">
        <ele>114.455</ele>
        <time>2011-04-19T17:25:05Z</time>
      </trkpt>
      <trkpt lat="43.13268" lon="3.09505">
        <ele>115.981</ele>
        <time>2011-04-19T17:25:08Z</time>
      </trkpt>
      <trkpt lat="43.13263" lon="3.0952">
        <ele>118.383</ele>
        <time>2011-04-19T17:25:12Z</time>
      </trkpt>
      <trkpt lat="43.13265" lon="3.09533">
        <ele>120.688</ele>
        <time>2011-04-19T17:25:15Z</time>
      </trkpt>
      <trkpt lat="43.13265" lon="3.09535">
        <ele>120.829</ele>
        <time>2011-04-19T17:25:15Z</time>
      </trkpt>
      <trkpt lat="43.13264" lon="3.09539">
        <ele>122.53099</ele>
        <time>2011-04-19T17:25:16Z</time>
      </trkpt>
      <trkpt lat="43.13262" lon="3.09541">
        <ele>123.40699</ele>
        <time>2011-04-19T17:25:17Z</time>
      </trkpt>
      <trkpt lat="43.1326" lon="3.09543">
        <ele>124.192</ele>
        <time>2011-04-19T17:25:18Z</time>
      </trkpt>
      <trkpt lat="43.13252" lon="3.09546">
        <ele>125.487</ele>
        <time>2011-04-19T17:25:20Z</time>
      </trkpt>
      <trkpt lat="43.13243" lon="3.0955">
        <ele>125.942</ele>
        <time>2011-04-19T17:25:23Z</time>
      </trkpt>
      <trkpt lat="43.1324" lon="3.09554">
        <ele>126.66799</ele>
        <time>2011-04-19T17:25:24Z</time>
      </trkpt>
      <trkpt lat="43.13239" lon="3.09568">
        <ele>126.677</ele>
        <time>2011-04-19T17:25:28Z</time>
      </trkpt>
      <trkpt lat="43.13239" lon="3.09571">
        <ele>126.704</ele>
        <time>2011-04-19T17:25:28Z</time>
      </trkpt>
      <trkpt lat="43.1323" lon="3.09582">
        <ele>126.512</ele>
        <time>2011-04-19T17:25:32Z</time>
      </trkpt>
      <trkpt lat="43.13218" lon="3.09602">
        <ele>126.424</ele>
        <time>2011-04-19T17:25:38Z</time>
      </trkpt>
      <trkpt lat="43.13218" lon="3.09605">
        <ele>126.43699</ele>
        <time>2011-04-19T17:25:39Z</time>
      </trkpt>
      <trkpt lat="43.13204" lon="3.09618">
        <ele>125.67299</ele>
        <time>2011-04-19T17:25:44Z</time>
      </trkpt>
      <trkpt lat="43.13193" lon="3.09619">
        <ele>125.43699</ele>
        <time>2011-04-19T17:25:47Z</time>
      </trkpt>
      <trkpt lat="43.13182" lon="3.09615">
        <ele>125.17299</ele>
        <time>2011-04-19T17:25:51Z</time>
      </trkpt>
      <trkpt lat="43.13169" lon="3.09613">
        <ele>124.093</ele>
        <time>2011-04-19T17:25:55Z</time>
      </trkpt>
      <trkpt lat="43.13167" lon="3.09618">
        <ele>124.163</ele>
        <time>2011-04-19T17:25:56Z</time>
      </trkpt>
      <trkpt lat="43.13172" lon="3.09631">
        <ele>123.36</ele>
        <time>2011-04-19T17:25:59Z</time>
      </trkpt>
      <trkpt lat="43.13175" lon="3.0965">
        <ele>124.764</ele>
        <time>2011-04-19T17:26:04Z</time>
      </trkpt>
      <trkpt lat="43.13178" lon="3.09667">
        <ele>125.04699</ele>
        <time>2011-04-19T17:26:08Z</time>
      </trkpt>
      <trkpt lat="43.13186" lon="3.09674">
        <ele>124.592</ele>
        <time>2011-04-19T17:26:10Z</time>
      </trkpt>
      <trkpt lat="43.13189" lon="3.09679">
        <ele>124.50599</ele>
        <time>2011-04-19T17:26:12Z</time>
      </trkpt>
      <trkpt lat="43.13195" lon="3.0968">
        <ele>124.92199</ele>
        <time>2011-04-19T17:26:14Z</time>
      </trkpt>
      <trkpt lat="43.13204" lon="3.09683">
        <ele>125.30999</ele>
        <time>2011-04-19T17:26:17Z</time>
      </trkpt>
      <trkpt lat="43.13206" lon="3.09693">
        <ele>124.94</ele>
        <time>2011-04-19T17:26:19Z</time>
      </trkpt>
      <trkpt lat="43.13206" lon="3.09707">
        <ele>124.341</ele>
        <time>2011-04-19T17:26:22Z</time>
      </trkpt>
      <trkpt lat="43.13208" lon="3.09714">
        <ele>124.32499</ele>
        <time>2011-04-19T17:26:24Z</time>
      </trkpt>
      <trkpt lat="43.13209" lon="3.09721">
        <ele>124.385</ele>
        <time>2011-04-19T17:26:25Z</time>
      </trkpt>
      <trkpt lat="43.13203" lon="3.09733">
        <ele>124.416</ele>
        <time>2011-04-19T17:26:29Z</time>
      </trkpt>
      <trkpt lat="43.132" lon="3.09736">
        <ele>123.986</ele>
        <time>2011-04-19T17:26:30Z</time>
      </trkpt>
      <trkpt lat="43.13201" lon="3.09738">
        <ele>123.537</ele>
        <time>2011-04-19T17:26:30Z</time>
      </trkpt>
      <trkpt lat="43.13206" lon="3.09748">
        <ele>123.92299</ele>
        <time>2011-04-19T17:26:33Z</time>
      </trkpt>
      <trkpt lat="43.13217" lon="3.09755">
        <ele>123.869</ele>
        <time>2011-04-19T17:26:37Z</time>
      </trkpt>
      <trkpt lat="43.13225" lon="3.09768">
        <ele>125.705</ele>
        <time>2011-04-19T17:26:40Z</time>
      </trkpt>
      <trkpt lat="43.13234" lon="3.09773">
        <ele>125.216</ele>
        <time>2011-04-19T17:26:43Z</time>
      </trkpt>
      <trkpt lat="43.13235" lon="3.09785">
        <ele>124.929</ele>
        <time>2011-04-19T17:26:46Z</time>
      </trkpt>
      <trkpt lat="43.13244" lon="3.09799">
        <ele>124.65599</ele>
        <time>2011-04-19T17:26:50Z</time>
      </trkpt>
      <trkpt lat="43.13248" lon="3.0981">
        <ele>124.57499</ele>
        <time>2011-04-19T17:26:53Z</time>
      </trkpt>
      <trkpt lat="43.13253" lon="3.0982">
        <ele>123.842</ele>
        <time>2011-04-19T17:26:56Z</time>
      </trkpt>
      <trkpt lat="43.13261" lon="3.09823">
        <ele>123.523</ele>
        <time>2011-04-19T17:26:58Z</time>
      </trkpt>
      <trkpt lat="43.13274" lon="3.09825">
        <ele>122.93</ele>
        <time>2011-04-19T17:27:02Z</time>
      </trkpt>
      <trkpt lat="43.13285" lon="3.09836">
        <ele>123.721</ele>
        <time>2011-04-19T17:27:06Z</time>
      </trkpt>
      <trkpt lat="43.13292" lon="3.09843">
        <ele>123.166</ele>
        <time>2011-04-19T17:27:09Z</time>
      </trkpt>
      <trkpt lat="43.13308" lon="3.0986">
        <ele>122.676</ele>
        <time>2011-04-19T17:27:15Z</time>
      </trkpt>
      <trkpt lat="43.13314" lon="3.09862">
        <ele>121.65699</ele>
        <time>2011-04-19T17:27:17Z</time>
      </trkpt>
      <trkpt lat="43.13329" lon="3.09873">
        <ele>122.76599</ele>
        <time>2011-04-19T17:27:23Z</time>
      </trkpt>
      <trkpt lat="43.13334" lon="3.09878">
        <ele>122.093</ele>
        <time>2011-04-19T17:27:24Z</time>
      </trkpt>
      <trkpt lat="43.13339" lon="3.09893">
        <ele>119.76599</ele>
        <time>2011-04-19T17:27:28Z</time>
      </trkpt>
      <trkpt lat="43.13341" lon="3.09907">
        <ele>117.176</ele>
        <time>2011-04-19T17:27:31Z</time>
      </trkpt>
      <trkpt lat="43.13342" lon="3.0991">
        <ele>117.33699</ele>
        <time>2011-04-19T17:27:32Z</time>
      </trkpt>
      <trkpt lat="43.13343" lon="3.09913">
        <ele>117.318</ele>
        <time>2011-04-19T17:27:33Z</time>
      </trkpt>
      <trkpt lat="43.13346" lon="3.09918">
        <ele>113.041</ele>
        <time>2011-04-19T17:27:34Z</time>
      </trkpt>
      <trkpt lat="43.13348" lon="3.09924">
        <ele>112.195</ele>
        <time>2011-04-19T17:27:36Z</time>
      </trkpt>
      <trkpt lat="43.13351" lon="3.09936">
        <ele>108.537</ele>
        <time>2011-04-19T17:27:39Z</time>
      </trkpt>
      <trkpt lat="43.13353" lon="3.09941">
        <ele>106.791</ele>
        <time>2011-04-19T17:27:40Z</time>
      </trkpt>
      <trkpt lat="43.13357" lon="3.09945">
        <ele>105.334</ele>
        <time>2011-04-19T17:27:41Z</time>
      </trkpt>
      <trkpt lat="43.13368" lon="3.09953">
        <ele>102.16799</ele>
        <time>2011-04-19T17:27:45Z</time>
      </trkpt>
      <trkpt lat="43.1337" lon="3.09956">
        <ele>101.917</ele>
        <time>2011-04-19T17:27:46Z</time>
      </trkpt>
      <trkpt lat="43.13375" lon="3.09968">
        <ele>99.176002</ele>
        <time>2011-04-19T17:27:49Z</time>
      </trkpt>
      <trkpt lat="43.13379" lon="3.09986">
        <ele>95.099998</ele>
        <time>2011-04-19T17:27:54Z</time>
      </trkpt>
      <trkpt lat="43.13379" lon="3.09991">
        <ele>93.969002</ele>
        <time>2011-04-19T17:27:55Z</time>
      </trkpt>
      <trkpt lat="43.13379" lon="3.10009">
        <ele>91.877998</ele>
        <time>2011-04-19T17:27:59Z</time>
      </trkpt>
      <trkpt lat="43.13376" lon="3.10018">
        <ele>91.592003</ele>
        <time>2011-04-19T17:28:01Z</time>
      </trkpt>
      <trkpt lat="43.13368" lon="3.10026">
        <ele>91.639</ele>
        <time>2011-04-19T17:28:04Z</time>
      </trkpt>
      <trkpt lat="43.13354" lon="3.10034">
        <ele>90.847</ele>
        <time>2011-04-19T17:28:09Z</time>
      </trkpt>
      <trkpt lat="43.1334" lon="3.1003">
        <ele>91.628998</ele>
        <time>2011-04-19T17:28:13Z</time>
      </trkpt>
      <trkpt lat="43.13324" lon="3.1002">
        <ele>92.485001</ele>
        <time>2011-04-19T17:28:19Z</time>
      </trkpt>
      <trkpt lat="43.13296" lon="3.10004">
        <ele>91.571999</ele>
        <time>2011-04-19T17:28:28Z</time>
      </trkpt>
      <trkpt lat="43.13292" lon="3.10001">
        <ele>91.408997</ele>
        <time>2011-04-19T17:28:29Z</time>
      </trkpt>
      <trkpt lat="43.13274" lon="3.09996">
        <ele>89.996002</ele>
        <time>2011-04-19T17:28:35Z</time>
      </trkpt>
      <trkpt lat="43.13271" lon="3.09999">
        <ele>89.872002</ele>
        <time>2011-04-19T17:28:36Z</time>
      </trkpt>
      <trkpt lat="43.13261" lon="3.10008">
        <ele>88.611</ele>
        <time>2011-04-19T17:28:40Z</time>
      </trkpt>
      <trkpt lat="43.13243" lon="3.10019">
        <ele>87.198998</ele>
        <time>2011-04-19T17:28:46Z</time>
      </trkpt>
      <trkpt lat="43.13235" lon="3.10025">
        <ele>86.632004</ele>
        <time>2011-04-19T17:28:49Z</time>
      </trkpt>
      <trkpt lat="43.1322" lon="3.10038">
        <ele>86.453003</ele>
        <time>2011-04-19T17:28:54Z</time>
      </trkpt>
      <trkpt lat="43.13211" lon="3.10033">
        <ele>86.176002</ele>
        <time>2011-04-19T17:28:57Z</time>
      </trkpt>
      <trkpt lat="43.13208" lon="3.10035">
        <ele>85.128998</ele>
        <time>2011-04-19T17:28:58Z</time>
      </trkpt>
      <trkpt lat="43.13205" lon="3.10043">
        <ele>83.934998</ele>
        <time>2011-04-19T17:29:00Z</time>
      </trkpt>
      <trkpt lat="43.13197" lon="3.10046">
        <ele>80.867996</ele>
        <time>2011-04-19T17:29:03Z</time>
      </trkpt>
      <trkpt lat="43.13195" lon="3.10047">
        <ele>80.606003</ele>
        <time>2011-04-19T17:29:03Z</time>
      </trkpt>
      <trkpt lat="43.13192" lon="3.10051">
        <ele>78.639</ele>
        <time>2011-04-19T17:29:05Z</time>
      </trkpt>
      <trkpt lat="43.13181" lon="3.10053">
        <ele>74.161003</ele>
        <time>2011-04-19T17:29:08Z</time>
      </trkpt>
      <trkpt lat="43.1316" lon="3.10047">
        <ele>68.361999</ele>
        <time>2011-04-19T17:29:15Z</time>
      </trkpt>
      <trkpt lat="43.13148" lon="3.10048">
        <ele>67.400002</ele>
        <time>2011-04-19T17:29:18Z</time>
      </trkpt>
      <trkpt lat="43.13136" lon="3.10055">
        <ele>68.122002</ele>
        <time>2011-04-19T17:29:23Z</time>
      </trkpt>
      <trkpt lat="43.13134" lon="3.10073">
        <ele>66.912003</ele>
        <time>2011-04-19T17:29:27Z</time>
      </trkpt>
      <trkpt lat="43.13135" lon="3.10085">
        <ele>66.670998</ele>
        <time>2011-04-19T17:29:29Z</time>
      </trkpt>
      <trkpt lat="43.13139" lon="3.10116">
        <ele>66.033997</ele>
        <time>2011-04-19T17:29:36Z</time>
      </trkpt>
      <trkpt lat="43.1315" lon="3.10132">
        <ele>66.168999</ele>
        <time>2011-04-19T17:29:41Z</time>
      </trkpt>
      <trkpt lat="43.13189" lon="3.1015">
        <ele>66.703003</ele>
        <time>2011-04-19T17:29:54Z</time>
      </trkpt>
      <trkpt lat="43.13217" lon="3.10174">
        <ele>68.191002</ele>
        <time>2011-04-19T17:30:04Z</time>
      </trkpt>
      <trkpt lat="43.1324" lon="3.1019">
        <ele>68.834</ele>
        <time>2011-04-19T17:30:12Z</time>
      </trkpt>
      <trkpt lat="43.13242" lon="3.10191">
        <ele>69.038002</ele>
        <time>2011-04-19T17:30:13Z</time>
      </trkpt>
      <trkpt lat="43.13248" lon="3.10195">
        <ele>69.489998</ele>
        <time>2011-04-19T17:30:15Z</time>
      </trkpt>
      <trkpt lat="43.13248" lon="3.10196">
        <ele>69.775002</ele>
        <time>2011-04-19T17:30:15Z</time>
      </trkpt>
      <trkpt lat="43.13243" lon="3.1021">
        <ele>66.656998</ele>
        <time>2011-04-19T17:30:19Z</time>
      </trkpt>
      <trkpt lat="43.13244" lon="3.10215">
        <ele>65.082001</ele>
        <time>2011-04-19T17:30:20Z</time>
      </trkpt>
      <trkpt lat="43.13254" lon="3.10223">
        <ele>65.421997</ele>
        <time>2011-04-19T17:30:23Z</time>
      </trkpt>
      <trkpt lat="43.13269" lon="3.10245">
        <ele>64.431</ele>
        <time>2011-04-19T17:30:30Z</time>
      </trkpt>
      <trkpt lat="43.1328" lon="3.10269">
        <ele>64.859001</ele>
        <time>2011-04-19T17:30:37Z</time>
      </trkpt>
      <trkpt lat="43.13293" lon="3.10281">
        <ele>65.925003</ele>
        <time>2011-04-19T17:30:41Z</time>
      </trkpt>
      <trkpt lat="43.13302" lon="3.10291">
        <ele>67.167999</ele>
        <time>2011-04-19T17:30:45Z</time>
      </trkpt>
      <trkpt lat="43.13311" lon="3.10305">
        <ele>67.611999</ele>
        <time>2011-04-19T17:30:49Z</time>
      </trkpt>
      <trkpt lat="43.13322" lon="3.10317">
        <ele>66.595001</ele>
        <time>2011-04-19T17:30:53Z</time>
      </trkpt>
      <trkpt lat="43.13334" lon="3.10318">
        <ele>66.113998</ele>
        <time>2011-04-19T17:30:57Z</time>
      </trkpt>
      <trkpt lat="43.13338" lon="3.10313">
        <ele>69.355003</ele>
        <time>2011-04-19T17:30:59Z</time>
      </trkpt>
      <trkpt lat="43.13347" lon="3.10318">
        <ele>66.886002</ele>
        <time>2011-04-19T17:31:02Z</time>
      </trkpt>
      <trkpt lat="43.13355" lon="3.10314">
        <ele>65.505997</ele>
        <time>2011-04-19T17:31:04Z</time>
      </trkpt>
      <trkpt lat="43.13361" lon="3.10308">
        <ele>65.508003</ele>
        <time>2011-04-19T17:31:07Z</time>
      </trkpt>
      <trkpt lat="43.13371" lon="3.10308">
        <ele>65.741997</ele>
        <time>2011-04-19T17:31:10Z</time>
      </trkpt>
      <trkpt lat="43.13382" lon="3.10304">
        <ele>66.029999</ele>
        <time>2011-04-19T17:31:13Z</time>
      </trkpt>
      <trkpt lat="43.13385" lon="3.10302">
        <ele>66.279999</ele>
        <time>2011-04-19T17:31:14Z</time>
      </trkpt>
      <trkpt lat="43.13395" lon="3.10293">
        <ele>67.035004</ele>
        <time>2011-04-19T17:31:18Z</time>
      </trkpt>
      <trkpt lat="43.13404" lon="3.10287">
        <ele>67.957001</ele>
        <time>2011-04-19T17:31:21Z</time>
      </trkpt>
      <trkpt lat="43.13409" lon="3.10284">
        <ele>67.390999</ele>
        <time>2011-04-19T17:31:23Z</time>
      </trkpt>
      <trkpt lat="43.1342" lon="3.10285">
        <ele>68.242996</ele>
        <time>2011-04-19T17:31:26Z</time>
      </trkpt>
      <trkpt lat="43.13427" lon="3.10291">
        <ele>68.385002</ele>
        <time>2011-04-19T17:31:29Z</time>
      </trkpt>
      <trkpt lat="43.13436" lon="3.10291">
        <ele>69.274002</ele>
        <time>2011-04-19T17:31:31Z</time>
      </trkpt>
      <trkpt lat="43.13445" lon="3.10293">
        <ele>68.984001</ele>
        <time>2011-04-19T17:31:34Z</time>
      </trkpt>
      <trkpt lat="43.13447" lon="3.10291">
        <ele>69.813003</ele>
        <time>2011-04-19T17:31:35Z</time>
      </trkpt>
      <trkpt lat="43.13462" lon="3.10292">
        <ele>69.714996</ele>
        <time>2011-04-19T17:31:40Z</time>
      </trkpt>
      <trkpt lat="43.13468" lon="3.10291">
        <ele>69.422996</ele>
        <time>2011-04-19T17:31:41Z</time>
      </trkpt>
      <trkpt lat="43.13485" lon="3.10287">
        <ele>70.505997</ele>
        <time>2011-04-19T17:31:47Z</time>
      </trkpt>
      <trkpt lat="43.13486" lon="3.10286">
        <ele>70.813003</ele>
        <time>2011-04-19T17:31:47Z</time>
      </trkpt>
      <trkpt lat="43.13501" lon="3.10278">
        <ele>72.305</ele>
        <time>2011-04-19T17:31:52Z</time>
      </trkpt>
      <trkpt lat="43.13514" lon="3.10271">
        <ele>72.291</ele>
        <time>2011-04-19T17:31:56Z</time>
      </trkpt>
      <trkpt lat="43.1353" lon="3.10275">
        <ele>71.523003</ele>
        <time>2011-04-19T17:32:01Z</time>
      </trkpt>
      <trkpt lat="43.13549" lon="3.10274">
        <ele>69.718002</ele>
        <time>2011-04-19T17:32:07Z</time>
      </trkpt>
      <trkpt lat="43.13551" lon="3.10273">
        <ele>69.999</ele>
        <time>2011-04-19T17:32:08Z</time>
      </trkpt>
      <trkpt lat="43.13565" lon="3.10261">
        <ele>71.446999</ele>
        <time>2011-04-19T17:32:13Z</time>
      </trkpt>
      <trkpt lat="43.13567" lon="3.1026">
        <ele>71.609001</ele>
        <time>2011-04-19T17:32:14Z</time>
      </trkpt>
      <trkpt lat="43.1357" lon="3.1024">
        <ele>71.725998</ele>
        <time>2011-04-19T17:32:18Z</time>
      </trkpt>
      <trkpt lat="43.13572" lon="3.10215">
        <ele>72.813003</ele>
        <time>2011-04-19T17:32:24Z</time>
      </trkpt>
      <trkpt lat="43.1357" lon="3.10193">
        <ele>74.211998</ele>
        <time>2011-04-19T17:32:29Z</time>
      </trkpt>
      <trkpt lat="43.13576" lon="3.10186">
        <ele>75.242996</ele>
        <time>2011-04-19T17:32:31Z</time>
      </trkpt>
      <trkpt lat="43.13577" lon="3.10169">
        <ele>76.317001</ele>
        <time>2011-04-19T17:32:35Z</time>
      </trkpt>
      <trkpt lat="43.13577" lon="3.10161">
        <ele>77.513001</ele>
        <time>2011-04-19T17:32:37Z</time>
      </trkpt>
      <trkpt lat="43.13575" lon="3.10144">
        <ele>79.314003</ele>
        <time>2011-04-19T17:32:41Z</time>
      </trkpt>
      <trkpt lat="43.1357" lon="3.10131">
        <ele>79.714996</ele>
        <time>2011-04-19T17:32:44Z</time>
      </trkpt>
      <trkpt lat="43.13568" lon="3.10117">
        <ele>79.898003</ele>
        <time>2011-04-19T17:32:47Z</time>
      </trkpt>
      <trkpt lat="43.13573" lon="3.10099">
        <ele>79.43</ele>
        <time>2011-04-19T17:32:52Z</time>
      </trkpt>
      <trkpt lat="43.13586" lon="3.10082">
        <ele>80.411003</ele>
        <time>2011-04-19T17:32:57Z</time>
      </trkpt>
      <trkpt lat="43.1359" lon="3.1007">
        <ele>80.240997</ele>
        <time>2011-04-19T17:33:00Z</time>
      </trkpt>
      <trkpt lat="43.13594" lon="3.10044">
        <ele>77.991997</ele>
        <time>2011-04-19T17:33:06Z</time>
      </trkpt>
      <trkpt lat="43.13604" lon="3.10026">
        <ele>78.943001</ele>
        <time>2011-04-19T17:33:11Z</time>
      </trkpt>
      <trkpt lat="43.13606" lon="3.1001">
        <ele>79.855003</ele>
        <time>2011-04-19T17:33:15Z</time>
      </trkpt>
      <trkpt lat="43.13607" lon="3.09973">
        <ele>80.609001</ele>
        <time>2011-04-19T17:33:23Z</time>
      </trkpt>
      <trkpt lat="43.13605" lon="3.09954">
        <ele>79.732002</ele>
        <time>2011-04-19T17:33:27Z</time>
      </trkpt>
      <trkpt lat="43.13593" lon="3.09934">
        <ele>80.510002</ele>
        <time>2011-04-19T17:33:33Z</time>
      </trkpt>
      <trkpt lat="43.13578" lon="3.09919">
        <ele>79.901001</ele>
        <time>2011-04-19T17:33:39Z</time>
      </trkpt>
      <trkpt lat="43.13565" lon="3.099">
        <ele>79.128998</ele>
        <time>2011-04-19T17:33:45Z</time>
      </trkpt>
      <trkpt lat="43.1356" lon="3.0988">
        <ele>81.516998</ele>
        <time>2011-04-19T17:33:49Z</time>
      </trkpt>
      <trkpt lat="43.13551" lon="3.09858">
        <ele>80.735001</ele>
        <time>2011-04-19T17:33:55Z</time>
      </trkpt>
      <trkpt lat="43.13538" lon="3.09827">
        <ele>81.473999</ele>
        <time>2011-04-19T17:34:03Z</time>
      </trkpt>
      <trkpt lat="43.13524" lon="3.09807">
        <ele>83.25</ele>
        <time>2011-04-19T17:34:09Z</time>
      </trkpt>
      <trkpt lat="43.13515" lon="3.09788">
        <ele>83.188003</ele>
        <time>2011-04-19T17:34:15Z</time>
      </trkpt>
      <trkpt lat="43.13508" lon="3.0976">
        <ele>82.720001</ele>
        <time>2011-04-19T17:34:21Z</time>
      </trkpt>
      <trkpt lat="43.1351" lon="3.09745">
        <ele>82.888001</ele>
        <time>2011-04-19T17:34:25Z</time>
      </trkpt>
      <trkpt lat="43.13514" lon="3.09727">
        <ele>86.059998</ele>
        <time>2011-04-19T17:34:29Z</time>
      </trkpt>
      <trkpt lat="43.13516" lon="3.09718">
        <ele>88.078003</ele>
        <time>2011-04-19T17:34:31Z</time>
      </trkpt>
      <trkpt lat="43.13525" lon="3.09721">
        <ele>89.014</ele>
        <time>2011-04-19T17:34:34Z</time>
      </trkpt>
      <trkpt lat="43.1353" lon="3.09724">
        <ele>89.898003</ele>
        <time>2011-04-19T17:34:36Z</time>
      </trkpt>
      <trkpt lat="43.13537" lon="3.09742">
        <ele>63.049999</ele>
        <time>2011-04-19T17:34:40Z</time>
      </trkpt>
      <trkpt lat="43.13547" lon="3.09765">
        <ele>63.439999</ele>
        <time>2011-04-19T17:34:46Z</time>
      </trkpt>
      <trkpt lat="43.1357" lon="3.09807">
        <ele>63.557999</ele>
        <time>2011-04-19T17:34:58Z</time>
      </trkpt>
      <trkpt lat="43.13598" lon="3.09846">
        <ele>63.278999</ele>
        <time>2011-04-19T17:35:10Z</time>
      </trkpt>
      <trkpt lat="43.13624" lon="3.09879">
        <ele>62.324001</ele>
        <time>2011-04-19T17:35:21Z</time>
      </trkpt>
      <trkpt lat="43.13643" lon="3.09909">
        <ele>61.912998</ele>
        <time>2011-04-19T17:35:30Z</time>
      </trkpt>
      <trkpt lat="43.13654" lon="3.09923">
        <ele>62.946999</ele>
        <time>2011-04-19T17:35:35Z</time>
      </trkpt>
      <trkpt lat="43.13665" lon="3.09937">
        <ele>64.483002</ele>
        <time>2011-04-19T17:35:39Z</time>
      </trkpt>
      <trkpt lat="43.13675" lon="3.09955">
        <ele>65.919998</ele>
        <time>2011-04-19T17:35:44Z</time>
      </trkpt>
      <trkpt lat="43.13686" lon="3.09968">
        <ele>67.420998</ele>
        <time>2011-04-19T17:35:49Z</time>
      </trkpt>
      <trkpt lat="43.137" lon="3.09977">
        <ele>68.147003</ele>
        <time>2011-04-19T17:35:54Z</time>
      </trkpt>
      <trkpt lat="43.13718" lon="3.09976">
        <ele>68.899002</ele>
        <time>2011-04-19T17:35:59Z</time>
      </trkpt>
      <trkpt lat="43.1373" lon="3.09969">
        <ele>69.695999</ele>
        <time>2011-04-19T17:36:03Z</time>
      </trkpt>
      <trkpt lat="43.13744" lon="3.09961">
        <ele>70.716003</ele>
        <time>2011-04-19T17:36:08Z</time>
      </trkpt>
      <trkpt lat="43.1376" lon="3.09954">
        <ele>72.503998</ele>
        <time>2011-04-19T17:36:13Z</time>
      </trkpt>
      <trkpt lat="43.13771" lon="3.09958">
        <ele>73.597</ele>
        <time>2011-04-19T17:36:17Z</time>
      </trkpt>
      <trkpt lat="43.13779" lon="3.0997">
        <ele>74.757004</ele>
        <time>2011-04-19T17:36:20Z</time>
      </trkpt>
      <trkpt lat="43.13789" lon="3.09984">
        <ele>75.998001</ele>
        <time>2011-04-19T17:36:25Z</time>
      </trkpt>
      <trkpt lat="43.13807" lon="3.09999">
        <ele>77.730003</ele>
        <time>2011-04-19T17:36:31Z</time>
      </trkpt>
      <trkpt lat="43.13821" lon="3.10008">
        <ele>78.829002</ele>
        <time>2011-04-19T17:36:36Z</time>
      </trkpt>
      <trkpt lat="43.13835" lon="3.10012">
        <ele>80.232002</ele>
        <time>2011-04-19T17:36:40Z</time>
      </trkpt>
      <trkpt lat="43.13848" lon="3.10016">
        <ele>81.478996</ele>
        <time>2011-04-19T17:36:44Z</time>
      </trkpt>
      <trkpt lat="43.13863" lon="3.10021">
        <ele>83.258003</ele>
        <time>2011-04-19T17:36:49Z</time>
      </trkpt>
      <trkpt lat="43.13874" lon="3.10021">
        <ele>84.582001</ele>
        <time>2011-04-19T17:36:53Z</time>
      </trkpt>
      <trkpt lat="43.13886" lon="3.10016">
        <ele>85.736999</ele>
        <time>2011-04-19T17:36:57Z</time>
      </trkpt>
      <trkpt lat="43.1389" lon="3.10012">
        <ele>86.026001</ele>
        <time>2011-04-19T17:36:58Z</time>
      </trkpt>
      <trkpt lat="43.13899" lon="3.09993">
        <ele>87.501</ele>
        <time>2011-04-19T17:37:03Z</time>
      </trkpt>
      <trkpt lat="43.13903" lon="3.09985">
        <ele>88.055</ele>
        <time>2011-04-19T17:37:05Z</time>
      </trkpt>
      <trkpt lat="43.13908" lon="3.09971">
        <ele>88.929001</ele>
        <time>2011-04-19T17:37:09Z</time>
      </trkpt>
      <trkpt lat="43.13914" lon="3.09962">
        <ele>89.817001</ele>
        <time>2011-04-19T17:37:11Z</time>
      </trkpt>
      <trkpt lat="43.13923" lon="3.09943">
        <ele>91.077004</ele>
        <time>2011-04-19T17:37:16Z</time>
      </trkpt>
      <trkpt lat="43.13927" lon="3.09919">
        <ele>92.149002</ele>
        <time>2011-04-19T17:37:22Z</time>
      </trkpt>
      <trkpt lat="43.13932" lon="3.09896">
        <ele>92.933998</ele>
        <time>2011-04-19T17:37:28Z</time>
      </trkpt>
      <trkpt lat="43.13943" lon="3.09881">
        <ele>93.390999</ele>
        <time>2011-04-19T17:37:32Z</time>
      </trkpt>
      <trkpt lat="43.1395" lon="3.09857">
        <ele>93.734001</ele>
        <time>2011-04-19T17:37:38Z</time>
      </trkpt>
      <trkpt lat="43.13961" lon="3.09828">
        <ele>94.055</ele>
        <time>2011-04-19T17:37:46Z</time>
      </trkpt>
      <trkpt lat="43.13972" lon="3.09805">
        <ele>94.161003</ele>
        <time>2011-04-19T17:37:51Z</time>
      </trkpt>
      <trkpt lat="43.13981" lon="3.09805">
        <ele>94.164001</ele>
        <time>2011-04-19T17:37:54Z</time>
      </trkpt>
      <trkpt lat="43.13979" lon="3.09814">
        <ele>94.818001</ele>
        <time>2011-04-19T17:37:56Z</time>
      </trkpt>
      <trkpt lat="43.13975" lon="3.09821">
        <ele>95.485001</ele>
        <time>2011-04-19T17:37:58Z</time>
      </trkpt>
      <trkpt lat="43.13976" lon="3.09831">
        <ele>96.083</ele>
        <time>2011-04-19T17:38:01Z</time>
      </trkpt>
      <trkpt lat="43.1398" lon="3.09844">
        <ele>96.078003</ele>
        <time>2011-04-19T17:38:04Z</time>
      </trkpt>
      <trkpt lat="43.13985" lon="3.0986">
        <ele>97.271004</ele>
        <time>2011-04-19T17:38:08Z</time>
      </trkpt>
      <trkpt lat="43.1399" lon="3.09885">
        <ele>98.596001</ele>
        <time>2011-04-19T17:38:14Z</time>
      </trkpt>
      <trkpt lat="43.13997" lon="3.09901">
        <ele>100.11799</ele>
        <time>2011-04-19T17:38:18Z</time>
      </trkpt>
      <trkpt lat="43.14006" lon="3.09915">
        <ele>101.495</ele>
        <time>2011-04-19T17:38:22Z</time>
      </trkpt>
      <trkpt lat="43.14013" lon="3.09925">
        <ele>102.85299</ele>
        <time>2011-04-19T17:38:25Z</time>
      </trkpt>
      <trkpt lat="43.14014" lon="3.09938">
        <ele>103.88099</ele>
        <time>2011-04-19T17:38:28Z</time>
      </trkpt>
      <trkpt lat="43.14019" lon="3.09963">
        <ele>105.191</ele>
        <time>2011-04-19T17:38:34Z</time>
      </trkpt>
      <trkpt lat="43.14029" lon="3.09972">
        <ele>106.357</ele>
        <time>2011-04-19T17:38:37Z</time>
      </trkpt>
      <trkpt lat="43.14042" lon="3.0997">
        <ele>107.47399</ele>
        <time>2011-04-19T17:38:41Z</time>
      </trkpt>
      <trkpt lat="43.14053" lon="3.09965">
        <ele>108.646</ele>
        <time>2011-04-19T17:38:45Z</time>
      </trkpt>
      <trkpt lat="43.14065" lon="3.09961">
        <ele>110.327</ele>
        <time>2011-04-19T17:38:49Z</time>
      </trkpt>
      <trkpt lat="43.14075" lon="3.09947">
        <ele>112.276</ele>
        <time>2011-04-19T17:38:53Z</time>
      </trkpt>
      <trkpt lat="43.14084" lon="3.09939">
        <ele>113.9</ele>
        <time>2011-04-19T17:38:57Z</time>
      </trkpt>
      <trkpt lat="43.14095" lon="3.0993">
        <ele>116.014</ele>
        <time>2011-04-19T17:39:01Z</time>
      </trkpt>
      <trkpt lat="43.14098" lon="3.09913">
        <ele>117.18399</ele>
        <time>2011-04-19T17:39:04Z</time>
      </trkpt>
      <trkpt lat="43.14097" lon="3.09886">
        <ele>118.94999</ele>
        <time>2011-04-19T17:39:11Z</time>
      </trkpt>
      <trkpt lat="43.14095" lon="3.0987">
        <ele>120.526</ele>
        <time>2011-04-19T17:39:14Z</time>
      </trkpt>
      <trkpt lat="43.14096" lon="3.09852">
        <ele>121.694</ele>
        <time>2011-04-19T17:39:18Z</time>
      </trkpt>
      <trkpt lat="43.14101" lon="3.09835">
        <ele>123.4</ele>
        <time>2011-04-19T17:39:22Z</time>
      </trkpt>
      <trkpt lat="43.14109" lon="3.09829">
        <ele>124.746</ele>
        <time>2011-04-19T17:39:25Z</time>
      </trkpt>
      <trkpt lat="43.14117" lon="3.09817">
        <ele>126.07399</ele>
        <time>2011-04-19T17:39:29Z</time>
      </trkpt>
      <trkpt lat="43.14119" lon="3.09802">
        <ele>127.11</ele>
        <time>2011-04-19T17:39:32Z</time>
      </trkpt>
      <trkpt lat="43.14124" lon="3.09788">
        <ele>128.503</ele>
        <time>2011-04-19T17:39:36Z</time>
      </trkpt>
      <trkpt lat="43.14133" lon="3.09771">
        <ele>130.339</ele>
        <time>2011-04-19T17:39:40Z</time>
      </trkpt>
      <trkpt lat="43.14136" lon="3.09755">
        <ele>131.46899</ele>
        <time>2011-04-19T17:39:44Z</time>
      </trkpt>
      <trkpt lat="43.14137" lon="3.09733">
        <ele>132.93499</ele>
        <time>2011-04-19T17:39:49Z</time>
      </trkpt>
      <trkpt lat="43.14138" lon="3.09715">
        <ele>134.41099</ele>
        <time>2011-04-19T17:39:53Z</time>
      </trkpt>
      <trkpt lat="43.14138" lon="3.09697">
        <ele>135.598</ele>
        <time>2011-04-19T17:39:57Z</time>
      </trkpt>
      <trkpt lat="43.14137" lon="3.09679">
        <ele>137.302</ele>
        <time>2011-04-19T17:40:01Z</time>
      </trkpt>
      <trkpt lat="43.14137" lon="3.09663">
        <ele>138.67399</ele>
        <time>2011-04-19T17:40:05Z</time>
      </trkpt>
      <trkpt lat="43.14139" lon="3.09642">
        <ele>140.68699</ele>
        <time>2011-04-19T17:40:10Z</time>
      </trkpt>
      <trkpt lat="43.14143" lon="3.09627">
        <ele>141.92599</ele>
        <time>2011-04-19T17:40:13Z</time>
      </trkpt>
      <trkpt lat="43.14146" lon="3.09606">
        <ele>143.865</ele>
        <time>2011-04-19T17:40:18Z</time>
      </trkpt>
      <trkpt lat="43.14142" lon="3.09587">
        <ele>145.38499</ele>
        <time>2011-04-19T17:40:22Z</time>
      </trkpt>
      <trkpt lat="43.14133" lon="3.09572">
        <ele>147.056</ele>
        <time>2011-04-19T17:40:27Z</time>
      </trkpt>
      <trkpt lat="43.1412" lon="3.09558">
        <ele>148.48899</ele>
        <time>2011-04-19T17:40:32Z</time>
      </trkpt>
      <trkpt lat="43.14112" lon="3.09545">
        <ele>149.72</ele>
        <time>2011-04-19T17:40:36Z</time>
      </trkpt>
      <trkpt lat="43.14101" lon="3.09537">
        <ele>150.994</ele>
        <time>2011-04-19T17:40:40Z</time>
      </trkpt>
      <trkpt lat="43.14088" lon="3.09532">
        <ele>152.365</ele>
        <time>2011-04-19T17:40:44Z</time>
      </trkpt>
      <trkpt lat="43.14078" lon="3.0952">
        <ele>153.093</ele>
        <time>2011-04-19T17:40:48Z</time>
      </trkpt>
      <trkpt lat="43.14063" lon="3.09503">
        <ele>154.76499</ele>
        <time>2011-04-19T17:40:54Z</time>
      </trkpt>
      <trkpt lat="43.14047" lon="3.09495">
        <ele>155.686</ele>
        <time>2011-04-19T17:40:59Z</time>
      </trkpt>
      <trkpt lat="43.1403" lon="3.09481">
        <ele>156.701</ele>
        <time>2011-04-19T17:41:05Z</time>
      </trkpt>
      <trkpt lat="43.14028" lon="3.09479">
        <ele>156.80999</ele>
        <time>2011-04-19T17:41:06Z</time>
      </trkpt>
      <trkpt lat="43.1403" lon="3.09464">
        <ele>157.08299</ele>
        <time>2011-04-19T17:41:09Z</time>
      </trkpt>
      <trkpt lat="43.14037" lon="3.09464">
        <ele>157.6</ele>
        <time>2011-04-19T17:41:11Z</time>
      </trkpt>
      <trkpt lat="43.14045" lon="3.09467">
        <ele>157.748</ele>
        <time>2011-04-19T17:41:14Z</time>
      </trkpt>
      <trkpt lat="43.14048" lon="3.09469">
        <ele>157.824</ele>
        <time>2011-04-19T17:41:15Z</time>
      </trkpt>
      <trkpt lat="43.14053" lon="3.09472">
        <ele>157.807</ele>
        <time>2011-04-19T17:41:17Z</time>
      </trkpt>
      <trkpt lat="43.14062" lon="3.09475">
        <ele>157.62699</ele>
        <time>2011-04-19T17:41:19Z</time>
      </trkpt>
      <trkpt lat="43.14069" lon="3.09477">
        <ele>157.89199</ele>
        <time>2011-04-19T17:41:22Z</time>
      </trkpt>
      <trkpt lat="43.14081" lon="3.09482">
        <ele>158.40499</ele>
        <time>2011-04-19T17:41:26Z</time>
      </trkpt>
      <trkpt lat="43.14092" lon="3.09489">
        <ele>158.43899</ele>
        <time>2011-04-19T17:41:29Z</time>
      </trkpt>
      <trkpt lat="43.14104" lon="3.09494">
        <ele>158.15199</ele>
        <time>2011-04-19T17:41:33Z</time>
      </trkpt>
      <trkpt lat="43.1412" lon="3.09504">
        <ele>158.33299</ele>
        <time>2011-04-19T17:41:39Z</time>
      </trkpt>
      <trkpt lat="43.14141" lon="3.09517">
        <ele>158.05099</ele>
        <time>2011-04-19T17:41:46Z</time>
      </trkpt>
      <trkpt lat="43.14165" lon="3.09526">
        <ele>157.74099</ele>
        <time>2011-04-19T17:41:53Z</time>
      </trkpt>
      <trkpt lat="43.14194" lon="3.09532">
        <ele>157.143</ele>
        <time>2011-04-19T17:42:03Z</time>
      </trkpt>
      <trkpt lat="43.14231" lon="3.09536">
        <ele>157.531</ele>
        <time>2011-04-19T17:42:14Z</time>
      </trkpt>
      <trkpt lat="43.14264" lon="3.09541">
        <ele>158.08599</ele>
        <time>2011-04-19T17:42:24Z</time>
      </trkpt>
      <trkpt lat="43.14283" lon="3.09552">
        <ele>158.79699</ele>
        <time>2011-04-19T17:42:30Z</time>
      </trkpt>
      <trkpt lat="43.1431" lon="3.09564">
        <ele>159.804</ele>
        <time>2011-04-19T17:42:39Z</time>
      </trkpt>
      <trkpt lat="43.14339" lon="3.0957">
        <ele>160.697</ele>
        <time>2011-04-19T17:42:48Z</time>
      </trkpt>
      <trkpt lat="43.14358" lon="3.09566">
        <ele>161.33099</ele>
        <time>2011-04-19T17:42:54Z</time>
      </trkpt>
      <trkpt lat="43.14373" lon="3.09556">
        <ele>162.468</ele>
        <time>2011-04-19T17:42:59Z</time>
      </trkpt>
      <trkpt lat="43.14392" lon="3.09544">
        <ele>164.309</ele>
        <time>2011-04-19T17:43:06Z</time>
      </trkpt>
      <trkpt lat="43.14411" lon="3.09537">
        <ele>165.59899</ele>
        <time>2011-04-19T17:43:12Z</time>
      </trkpt>
      <trkpt lat="43.14432" lon="3.09539">
        <ele>166.97599</ele>
        <time>2011-04-19T17:43:18Z</time>
      </trkpt>
      <trkpt lat="43.14453" lon="3.09544">
        <ele>168.25999</ele>
        <time>2011-04-19T17:43:25Z</time>
      </trkpt>
      <trkpt lat="43.1447" lon="3.09552">
        <ele>169.33299</ele>
        <time>2011-04-19T17:43:30Z</time>
      </trkpt>
      <trkpt lat="43.14494" lon="3.09562">
        <ele>170.75799</ele>
        <time>2011-04-19T17:43:38Z</time>
      </trkpt>
      <trkpt lat="43.14514" lon="3.0956">
        <ele>171.41099</ele>
        <time>2011-04-19T17:43:44Z</time>
      </trkpt>
      <trkpt lat="43.1453" lon="3.09546">
        <ele>171.927</ele>
        <time>2011-04-19T17:43:50Z</time>
      </trkpt>
      <trkpt lat="43.14547" lon="3.0952">
        <ele>172.19999</ele>
        <time>2011-04-19T17:43:58Z</time>
      </trkpt>
      <trkpt lat="43.14567" lon="3.09491">
        <ele>172.89999</ele>
        <time>2011-04-19T17:44:07Z</time>
      </trkpt>
      <trkpt lat="43.14586" lon="3.09465">
        <ele>173.035</ele>
        <time>2011-04-19T17:44:15Z</time>
      </trkpt>
      <trkpt lat="43.14603" lon="3.09447">
        <ele>172.97</ele>
        <time>2011-04-19T17:44:22Z</time>
      </trkpt>
      <trkpt lat="43.14619" lon="3.09456">
        <ele>173.09899</ele>
        <time>2011-04-19T17:44:27Z</time>
      </trkpt>
      <trkpt lat="43.14621" lon="3.09461">
        <ele>173.09399</ele>
        <time>2011-04-19T17:44:28Z</time>
      </trkpt>
      <trkpt lat="43.14643" lon="3.09504">
        <ele>172.115</ele>
        <time>2011-04-19T17:44:40Z</time>
      </trkpt>
      <trkpt lat="43.14652" lon="3.09523">
        <ele>172.065</ele>
        <time>2011-04-19T17:44:45Z</time>
      </trkpt>
      <trkpt lat="43.14671" lon="3.09544">
        <ele>171.56199</ele>
        <time>2011-04-19T17:44:53Z</time>
      </trkpt>
      <trkpt lat="43.14693" lon="3.09544">
        <ele>171.429</ele>
        <time>2011-04-19T17:44:59Z</time>
      </trkpt>
      <trkpt lat="43.14698" lon="3.09542">
        <ele>171.604</ele>
        <time>2011-04-19T17:45:01Z</time>
      </trkpt>
      <trkpt lat="43.14738" lon="3.09513">
        <ele>170.278</ele>
        <time>2011-04-19T17:45:15Z</time>
      </trkpt>
      <trkpt lat="43.14743" lon="3.0951">
        <ele>169.987</ele>
        <time>2011-04-19T17:45:17Z</time>
      </trkpt>
      <trkpt lat="43.14753" lon="3.09498">
        <ele>170.085</ele>
        <time>2011-04-19T17:45:21Z</time>
      </trkpt>
      <trkpt lat="43.14752" lon="3.09497">
        <ele>170.57</ele>
        <time>2011-04-19T17:45:21Z</time>
      </trkpt>
      <trkpt lat="43.14755" lon="3.09486">
        <ele>171.94999</ele>
        <time>2011-04-19T17:45:23Z</time>
      </trkpt>
      <trkpt lat="43.14754" lon="3.09476">
        <ele>173.53599</ele>
        <time>2011-04-19T17:45:26Z</time>
      </trkpt>
      <trkpt lat="43.14753" lon="3.0947">
        <ele>174.75799</ele>
        <time>2011-04-19T17:45:27Z</time>
      </trkpt>
      <trkpt lat="43.14753" lon="3.09468">
        <ele>174.99099</ele>
        <time>2011-04-19T17:45:28Z</time>
      </trkpt>
      <trkpt lat="43.14753" lon="3.09463">
        <ele>175.62399</ele>
        <time>2011-04-19T17:45:29Z</time>
      </trkpt>
      <trkpt lat="43.14759" lon="3.09454">
        <ele>177.302</ele>
        <time>2011-04-19T17:45:31Z</time>
      </trkpt>
      <trkpt lat="43.1476" lon="3.09448">
        <ele>178.75399</ele>
        <time>2011-04-19T17:45:33Z</time>
      </trkpt>
      <trkpt lat="43.1476" lon="3.09446">
        <ele>179.069</ele>
        <time>2011-04-19T17:45:33Z</time>
      </trkpt>
      <trkpt lat="43.14761" lon="3.0944">
        <ele>180.453</ele>
        <time>2011-04-19T17:45:34Z</time>
      </trkpt>
      <trkpt lat="43.14763" lon="3.09434">
        <ele>182.427</ele>
        <time>2011-04-19T17:45:36Z</time>
      </trkpt>
      <trkpt lat="43.14765" lon="3.09427">
        <ele>183.998</ele>
        <time>2011-04-19T17:45:38Z</time>
      </trkpt>
      <trkpt lat="43.14767" lon="3.09421">
        <ele>185.44999</ele>
        <time>2011-04-19T17:45:39Z</time>
      </trkpt>
      <trkpt lat="43.14767" lon="3.09413">
        <ele>186.744</ele>
        <time>2011-04-19T17:45:41Z</time>
      </trkpt>
      <trkpt lat="43.14767" lon="3.09407">
        <ele>188.15899</ele>
        <time>2011-04-19T17:45:42Z</time>
      </trkpt>
      <trkpt lat="43.14769" lon="3.09399">
        <ele>189.77</ele>
        <time>2011-04-19T17:45:44Z</time>
      </trkpt>
      <trkpt lat="43.1477" lon="3.09393">
        <ele>190.74099</ele>
        <time>2011-04-19T17:45:46Z</time>
      </trkpt>
      <trkpt lat="43.1477" lon="3.09391">
        <ele>191.324</ele>
        <time>2011-04-19T17:45:46Z</time>
      </trkpt>
      <trkpt lat="43.14771" lon="3.09381">
        <ele>192.62699</ele>
        <time>2011-04-19T17:45:48Z</time>
      </trkpt>
      <trkpt lat="43.14774" lon="3.09376">
        <ele>193.404</ele>
        <time>2011-04-19T17:45:50Z</time>
      </trkpt>
      <trkpt lat="43.14778" lon="3.09367">
        <ele>195.102</ele>
        <time>2011-04-19T17:45:52Z</time>
      </trkpt>
      <trkpt lat="43.1478" lon="3.09356">
        <ele>196.29499</ele>
        <time>2011-04-19T17:45:55Z</time>
      </trkpt>
      <trkpt lat="43.14781" lon="3.09347">
        <ele>197.40699</ele>
        <time>2011-04-19T17:45:57Z</time>
      </trkpt>
      <trkpt lat="43.14783" lon="3.0934">
        <ele>198.108</ele>
        <time>2011-04-19T17:45:58Z</time>
      </trkpt>
      <trkpt lat="43.14787" lon="3.09329">
        <ele>198.975</ele>
        <time>2011-04-19T17:46:01Z</time>
      </trkpt>
      <trkpt lat="43.14792" lon="3.0932">
        <ele>199.78999</ele>
        <time>2011-04-19T17:46:04Z</time>
      </trkpt>
      <trkpt lat="43.14796" lon="3.09313">
        <ele>200.61999</ele>
        <time>2011-04-19T17:46:06Z</time>
      </trkpt>
      <trkpt lat="43.14801" lon="3.09308">
        <ele>200.93299</ele>
        <time>2011-04-19T17:46:08Z</time>
      </trkpt>
      <trkpt lat="43.14809" lon="3.09299">
        <ele>202.302</ele>
        <time>2011-04-19T17:46:11Z</time>
      </trkpt>
      <trkpt lat="43.14819" lon="3.09287">
        <ele>203.58099</ele>
        <time>2011-04-19T17:46:15Z</time>
      </trkpt>
      <trkpt lat="43.14826" lon="3.09272">
        <ele>204.628</ele>
        <time>2011-04-19T17:46:19Z</time>
      </trkpt>
      <trkpt lat="43.14837" lon="3.09259">
        <ele>205.12899</ele>
        <time>2011-04-19T17:46:23Z</time>
      </trkpt>
      <trkpt lat="43.14845" lon="3.09241">
        <ele>205.757</ele>
        <time>2011-04-19T17:46:28Z</time>
      </trkpt>
      <trkpt lat="43.14851" lon="3.09214">
        <ele>206.49899</ele>
        <time>2011-04-19T17:46:34Z</time>
      </trkpt>
      <trkpt lat="43.14857" lon="3.09187">
        <ele>206.96499</ele>
        <time>2011-04-19T17:46:41Z</time>
      </trkpt>
      <trkpt lat="43.14865" lon="3.09161">
        <ele>207.19799</ele>
        <time>2011-04-19T17:46:47Z</time>
      </trkpt>
      <trkpt lat="43.14871" lon="3.09139">
        <ele>207.147</ele>
        <time>2011-04-19T17:46:52Z</time>
      </trkpt>
      <trkpt lat="43.14877" lon="3.0912">
        <ele>206.457</ele>
        <time>2011-04-19T17:46:57Z</time>
      </trkpt>
      <trkpt lat="43.14886" lon="3.09085">
        <ele>206.042</ele>
        <time>2011-04-19T17:47:06Z</time>
      </trkpt>
      <trkpt lat="43.14889" lon="3.09073">
        <ele>205.6</ele>
        <time>2011-04-19T17:47:08Z</time>
      </trkpt>
      <trkpt lat="43.149" lon="3.09026">
        <ele>204.05499</ele>
        <time>2011-04-19T17:47:19Z</time>
      </trkpt>
      <trkpt lat="43.14913" lon="3.08984">
        <ele>201.00399</ele>
        <time>2011-04-19T17:47:30Z</time>
      </trkpt>
      <trkpt lat="43.14925" lon="3.08929">
        <ele>195.289</ele>
        <time>2011-04-19T17:47:42Z</time>
      </trkpt>
      <trkpt lat="43.14928" lon="3.08908">
        <ele>191.645</ele>
        <time>2011-04-19T17:47:47Z</time>
      </trkpt>
      <trkpt lat="43.1494" lon="3.08869">
        <ele>185.115</ele>
        <time>2011-04-19T17:47:57Z</time>
      </trkpt>
      <trkpt lat="43.14941" lon="3.08863">
        <ele>184.944</ele>
        <time>2011-04-19T17:47:58Z</time>
      </trkpt>
      <trkpt lat="43.14947" lon="3.08834">
        <ele>185.23199</ele>
        <time>2011-04-19T17:48:05Z</time>
      </trkpt>
      <trkpt lat="43.14953" lon="3.08804">
        <ele>183.438</ele>
        <time>2011-04-19T17:48:12Z</time>
      </trkpt>
      <trkpt lat="43.1496" lon="3.08782">
        <ele>181.746</ele>
        <time>2011-04-19T17:48:17Z</time>
      </trkpt>
      <trkpt lat="43.14965" lon="3.08755">
        <ele>181.031</ele>
        <time>2011-04-19T17:48:24Z</time>
      </trkpt>
      <trkpt lat="43.14965" lon="3.08752">
        <ele>181.80799</ele>
        <time>2011-04-19T17:48:24Z</time>
      </trkpt>
      <trkpt lat="43.14967" lon="3.08748">
        <ele>182.54899</ele>
        <time>2011-04-19T17:48:25Z</time>
      </trkpt>
      <trkpt lat="43.14967" lon="3.08747">
        <ele>183.23199</ele>
        <time>2011-04-19T17:48:26Z</time>
      </trkpt>
      <trkpt lat="43.1497" lon="3.08744">
        <ele>183.52</ele>
        <time>2011-04-19T17:48:27Z</time>
      </trkpt>
      <trkpt lat="43.14973" lon="3.08731">
        <ele>185.20199</ele>
        <time>2011-04-19T17:48:30Z</time>
      </trkpt>
      <trkpt lat="43.14976" lon="3.08718">
        <ele>186.615</ele>
        <time>2011-04-19T17:48:33Z</time>
      </trkpt>
      <trkpt lat="43.14977" lon="3.0871">
        <ele>187.55099</ele>
        <time>2011-04-19T17:48:35Z</time>
      </trkpt>
      <trkpt lat="43.14978" lon="3.08707">
        <ele>187.83099</ele>
        <time>2011-04-19T17:48:35Z</time>
      </trkpt>
      <trkpt lat="43.14981" lon="3.08694">
        <ele>189.212</ele>
        <time>2011-04-19T17:48:39Z</time>
      </trkpt>
      <trkpt lat="43.14985" lon="3.08682">
        <ele>190.375</ele>
        <time>2011-04-19T17:48:41Z</time>
      </trkpt>
      <trkpt lat="43.14989" lon="3.08666">
        <ele>191.85499</ele>
        <time>2011-04-19T17:48:45Z</time>
      </trkpt>
      <trkpt lat="43.14993" lon="3.08651">
        <ele>192.81199</ele>
        <time>2011-04-19T17:48:49Z</time>
      </trkpt>
      <trkpt lat="43.14999" lon="3.08632">
        <ele>194.09199</ele>
        <time>2011-04-19T17:48:54Z</time>
      </trkpt>
      <trkpt lat="43.15003" lon="3.08612">
        <ele>195.49299</ele>
        <time>2011-04-19T17:48:58Z</time>
      </trkpt>
      <trkpt lat="43.15008" lon="3.08596">
        <ele>196.794</ele>
        <time>2011-04-19T17:49:02Z</time>
      </trkpt>
      <trkpt lat="43.15012" lon="3.08576">
        <ele>198.03599</ele>
        <time>2011-04-19T17:49:07Z</time>
      </trkpt>
      <trkpt lat="43.15017" lon="3.08559">
        <ele>198.809</ele>
        <time>2011-04-19T17:49:11Z</time>
      </trkpt>
      <trkpt lat="43.1502" lon="3.08537">
        <ele>199.576</ele>
        <time>2011-04-19T17:49:16Z</time>
      </trkpt>
      <trkpt lat="43.15025" lon="3.08518">
        <ele>200.74499</ele>
        <time>2011-04-19T17:49:20Z</time>
      </trkpt>
      <trkpt lat="43.1503" lon="3.08497">
        <ele>201.34899</ele>
        <time>2011-04-19T17:49:25Z</time>
      </trkpt>
      <trkpt lat="43.15034" lon="3.08476">
        <ele>201.70599</ele>
        <time>2011-04-19T17:49:30Z</time>
      </trkpt>
      <trkpt lat="43.15041" lon="3.08453">
        <ele>202.52999</ele>
        <time>2011-04-19T17:49:36Z</time>
      </trkpt>
      <trkpt lat="43.15049" lon="3.08423">
        <ele>202.88</ele>
        <time>2011-04-19T17:49:43Z</time>
      </trkpt>
      <trkpt lat="43.15057" lon="3.08392">
        <ele>203.569</ele>
        <time>2011-04-19T17:49:50Z</time>
      </trkpt>
      <trkpt lat="43.15064" lon="3.08371">
        <ele>204.304</ele>
        <time>2011-04-19T17:49:56Z</time>
      </trkpt>
      <trkpt lat="43.1507" lon="3.08348">
        <ele>203.70599</ele>
        <time>2011-04-19T17:50:01Z</time>
      </trkpt>
      <trkpt lat="43.15079" lon="3.08329">
        <ele>204.835</ele>
        <time>2011-04-19T17:50:06Z</time>
      </trkpt>
      <trkpt lat="43.15089" lon="3.08303">
        <ele>206.02699</ele>
        <time>2011-04-19T17:50:13Z</time>
      </trkpt>
      <trkpt lat="43.15098" lon="3.08281">
        <ele>206.789</ele>
        <time>2011-04-19T17:50:18Z</time>
      </trkpt>
      <trkpt lat="43.15109" lon="3.08247">
        <ele>207.93299</ele>
        <time>2011-04-19T17:50:27Z</time>
      </trkpt>
      <trkpt lat="43.15117" lon="3.08215">
        <ele>209.06799</ele>
        <time>2011-04-19T17:50:34Z</time>
      </trkpt>
      <trkpt lat="43.1512" lon="3.0818">
        <ele>210.016</ele>
        <time>2011-04-19T17:50:42Z</time>
      </trkpt>
      <trkpt lat="43.15117" lon="3.08153">
        <ele>211.3</ele>
        <time>2011-04-19T17:50:48Z</time>
      </trkpt>
      <trkpt lat="43.15112" lon="3.0813">
        <ele>211.888</ele>
        <time>2011-04-19T17:50:54Z</time>
      </trkpt>
      <trkpt lat="43.15099" lon="3.08119">
        <ele>212.31399</ele>
        <time>2011-04-19T17:50:58Z</time>
      </trkpt>
      <trkpt lat="43.15086" lon="3.08111">
        <ele>212.214</ele>
        <time>2011-04-19T17:51:03Z</time>
      </trkpt>
      <trkpt lat="43.15068" lon="3.081">
        <ele>212.164</ele>
        <time>2011-04-19T17:51:09Z</time>
      </trkpt>
      <trkpt lat="43.15053" lon="3.0809">
        <ele>212.044</ele>
        <time>2011-04-19T17:51:14Z</time>
      </trkpt>
      <trkpt lat="43.15035" lon="3.0808">
        <ele>212.089</ele>
        <time>2011-04-19T17:51:20Z</time>
      </trkpt>
      <trkpt lat="43.15021" lon="3.08073">
        <ele>212.513</ele>
        <time>2011-04-19T17:51:25Z</time>
      </trkpt>
      <trkpt lat="43.15008" lon="3.08078">
        <ele>212.955</ele>
        <time>2011-04-19T17:51:29Z</time>
      </trkpt>
      <trkpt lat="43.14993" lon="3.08087">
        <ele>213.113</ele>
        <time>2011-04-19T17:51:34Z</time>
      </trkpt>
      <trkpt lat="43.14981" lon="3.08098">
        <ele>213.139</ele>
        <time>2011-04-19T17:51:38Z</time>
      </trkpt>
      <trkpt lat="43.14964" lon="3.08098">
        <ele>212.33999</ele>
        <time>2011-04-19T17:51:44Z</time>
      </trkpt>
      <trkpt lat="43.14948" lon="3.08095">
        <ele>211.75</ele>
        <time>2011-04-19T17:51:49Z</time>
      </trkpt>
      <trkpt lat="43.14945" lon="3.08094">
        <ele>211.085</ele>
        <time>2011-04-19T17:51:50Z</time>
      </trkpt>
      <trkpt lat="43.14937" lon="3.08076">
        <ele>210.02699</ele>
        <time>2011-04-19T17:51:54Z</time>
      </trkpt>
      <trkpt lat="43.1493" lon="3.0806">
        <ele>206.19999</ele>
        <time>2011-04-19T17:51:58Z</time>
      </trkpt>
      <trkpt lat="43.14929" lon="3.08058">
        <ele>205.632</ele>
        <time>2011-04-19T17:51:59Z</time>
      </trkpt>
      <trkpt lat="43.14928" lon="3.0805">
        <ele>204.302</ele>
        <time>2011-04-19T17:52:01Z</time>
      </trkpt>
      <trkpt lat="43.14926" lon="3.08039">
        <ele>202.07299</ele>
        <time>2011-04-19T17:52:03Z</time>
      </trkpt>
      <trkpt lat="43.14916" lon="3.0802">
        <ele>198.34899</ele>
        <time>2011-04-19T17:52:09Z</time>
      </trkpt>
      <trkpt lat="43.14915" lon="3.08012">
        <ele>196.97</ele>
        <time>2011-04-19T17:52:10Z</time>
      </trkpt>
      <trkpt lat="43.14917" lon="3.08001">
        <ele>194.41499</ele>
        <time>2011-04-19T17:52:13Z</time>
      </trkpt>
      <trkpt lat="43.14916" lon="3.07994">
        <ele>192.156</ele>
        <time>2011-04-19T17:52:15Z</time>
      </trkpt>
      <trkpt lat="43.1492" lon="3.07979">
        <ele>188.494</ele>
        <time>2011-04-19T17:52:18Z</time>
      </trkpt>
      <trkpt lat="43.14924" lon="3.07959">
        <ele>183.141</ele>
        <time>2011-04-19T17:52:23Z</time>
      </trkpt>
      <trkpt lat="43.14925" lon="3.07952">
        <ele>181.565</ele>
        <time>2011-04-19T17:52:24Z</time>
      </trkpt>
      <trkpt lat="43.14925" lon="3.07951">
        <ele>181.01899</ele>
        <time>2011-04-19T17:52:25Z</time>
      </trkpt>
      <trkpt lat="43.14935" lon="3.07942">
        <ele>179.12199</ele>
        <time>2011-04-19T17:52:28Z</time>
      </trkpt>
      <trkpt lat="43.14938" lon="3.07929">
        <ele>176.701</ele>
        <time>2011-04-19T17:52:31Z</time>
      </trkpt>
      <trkpt lat="43.1494" lon="3.07904">
        <ele>174.40199</ele>
        <time>2011-04-19T17:52:37Z</time>
      </trkpt>
      <trkpt lat="43.14945" lon="3.07888">
        <ele>172.28399</ele>
        <time>2011-04-19T17:52:41Z</time>
      </trkpt>
      <trkpt lat="43.14948" lon="3.07879">
        <ele>170.94599</ele>
        <time>2011-04-19T17:52:43Z</time>
      </trkpt>
      <trkpt lat="43.14951" lon="3.07868">
        <ele>169.492</ele>
        <time>2011-04-19T17:52:46Z</time>
      </trkpt>
      <trkpt lat="43.14959" lon="3.07853">
        <ele>168.184</ele>
        <time>2011-04-19T17:52:50Z</time>
      </trkpt>
      <trkpt lat="43.14964" lon="3.07829">
        <ele>166.033</ele>
        <time>2011-04-19T17:52:56Z</time>
      </trkpt>
      <trkpt lat="43.14966" lon="3.0782">
        <ele>164.917</ele>
        <time>2011-04-19T17:52:58Z</time>
      </trkpt>
      <trkpt lat="43.14966" lon="3.07819">
        <ele>165.04899</ele>
        <time>2011-04-19T17:52:58Z</time>
      </trkpt>
      <trkpt lat="43.1498" lon="3.07808">
        <ele>163.99099</ele>
        <time>2011-04-19T17:53:03Z</time>
      </trkpt>
      <trkpt lat="43.14991" lon="3.07789">
        <ele>163.164</ele>
        <time>2011-04-19T17:53:08Z</time>
      </trkpt>
      <trkpt lat="43.14996" lon="3.07759">
        <ele>162.12699</ele>
        <time>2011-04-19T17:53:15Z</time>
      </trkpt>
      <trkpt lat="43.15007" lon="3.07725">
        <ele>160.158</ele>
        <time>2011-04-19T17:53:24Z</time>
      </trkpt>
      <trkpt lat="43.15025" lon="3.07707">
        <ele>159.459</ele>
        <time>2011-04-19T17:53:31Z</time>
      </trkpt>
      <trkpt lat="43.15039" lon="3.07699">
        <ele>158.74</ele>
        <time>2011-04-19T17:53:35Z</time>
      </trkpt>
      <trkpt lat="43.1507" lon="3.07667">
        <ele>156.57899</ele>
        <time>2011-04-19T17:53:47Z</time>
      </trkpt>
      <trkpt lat="43.15114" lon="3.07602">
        <ele>154.35099</ele>
        <time>2011-04-19T17:54:07Z</time>
      </trkpt>
      <trkpt lat="43.15124" lon="3.07586">
        <ele>153.94799</ele>
        <time>2011-04-19T17:54:12Z</time>
      </trkpt>
      <trkpt lat="43.15138" lon="3.07555">
        <ele>153.375</ele>
        <time>2011-04-19T17:54:20Z</time>
      </trkpt>
      <trkpt lat="43.15157" lon="3.07545">
        <ele>154.151</ele>
        <time>2011-04-19T17:54:26Z</time>
      </trkpt>
      <trkpt lat="43.1519" lon="3.07554">
        <ele>154.442</ele>
        <time>2011-04-19T17:54:37Z</time>
      </trkpt>
      <trkpt lat="43.15218" lon="3.07558">
        <ele>155.24299</ele>
        <time>2011-04-19T17:54:45Z</time>
      </trkpt>
      <trkpt lat="43.15223" lon="3.07559">
        <ele>155.287</ele>
        <time>2011-04-19T17:54:47Z</time>
      </trkpt>
      <trkpt lat="43.15232" lon="3.07558">
        <ele>155.457</ele>
        <time>2011-04-19T17:54:50Z</time>
      </trkpt>
      <trkpt lat="43.1527" lon="3.07541">
        <ele>155.287</ele>
        <time>2011-04-19T17:55:02Z</time>
      </trkpt>
      <trkpt lat="43.15306" lon="3.07527">
        <ele>155.167</ele>
        <time>2011-04-19T17:55:14Z</time>
      </trkpt>
      <trkpt lat="43.15338" lon="3.07516">
        <ele>156.86799</ele>
        <time>2011-04-19T17:55:24Z</time>
      </trkpt>
      <trkpt lat="43.1536" lon="3.07511">
        <ele>157.74</ele>
        <time>2011-04-19T17:55:31Z</time>
      </trkpt>
      <trkpt lat="43.1538" lon="3.07505">
        <ele>144.35</ele>
        <time>2011-04-19T17:55:37Z</time>
      </trkpt>
      <trkpt lat="43.15385" lon="3.07483">
        <ele>144.83093</ele>
        <time>2011-04-19T17:55:42Z</time>
      </trkpt>
      <trkpt lat="43.15388" lon="3.07421">
        <ele>145.63391</ele>
        <time>2011-04-19T17:55:56Z</time>
      </trkpt>
      <trkpt lat="43.15388" lon="3.07376">
        <ele>145.625</ele>
        <time>2011-04-19T17:56:06Z</time>
      </trkpt>
      <trkpt lat="43.15387" lon="3.07322">
        <ele>144.6875</ele>
        <time>2011-04-19T17:56:18Z</time>
      </trkpt>
      <trkpt lat="43.15393" lon="3.07296">
        <ele>144.53187</ele>
        <time>2011-04-19T17:56:24Z</time>
      </trkpt>
      <trkpt lat="43.15396" lon="3.07272">
        <ele>144.26249</ele>
        <time>2011-04-19T17:56:30Z</time>
      </trkpt>
      <trkpt lat="43.15388" lon="3.072">
        <ele>156.26499</ele>
        <time>2011-04-19T17:56:46Z</time>
      </trkpt>
      <trkpt lat="43.15385" lon="3.0717">
        <ele>155.727</ele>
        <time>2011-04-19T17:56:53Z</time>
      </trkpt>
      <trkpt lat="43.15387" lon="3.07148">
        <ele>155.82299</ele>
        <time>2011-04-19T17:56:58Z</time>
      </trkpt>
      <trkpt lat="43.15397" lon="3.07117">
        <ele>155.505</ele>
        <time>2011-04-19T17:57:05Z</time>
      </trkpt>
      <trkpt lat="43.15408" lon="3.07098">
        <ele>155.77</ele>
        <time>2011-04-19T17:57:11Z</time>
      </trkpt>
      <trkpt lat="43.15412" lon="3.07071">
        <ele>156.60699</ele>
        <time>2011-04-19T17:57:17Z</time>
      </trkpt>
      <trkpt lat="43.15419" lon="3.07045">
        <ele>157.69099</ele>
        <time>2011-04-19T17:57:23Z</time>
      </trkpt>
      <trkpt lat="43.15427" lon="3.07016">
        <ele>158.528</ele>
        <time>2011-04-19T17:57:30Z</time>
      </trkpt>
      <trkpt lat="43.15426" lon="3.06984">
        <ele>159.341</ele>
        <time>2011-04-19T17:57:37Z</time>
      </trkpt>
      <trkpt lat="43.15428" lon="3.0695">
        <ele>159.12699</ele>
        <time>2011-04-19T17:57:45Z</time>
      </trkpt>
      <trkpt lat="43.15427" lon="3.06929">
        <ele>159.975</ele>
        <time>2011-04-19T17:57:50Z</time>
      </trkpt>
      <trkpt lat="43.15411" lon="3.06888">
        <ele>160.942</ele>
        <time>2011-04-19T17:58:00Z</time>
      </trkpt>
      <trkpt lat="43.15397" lon="3.06844">
        <ele>161.953</ele>
        <time>2011-04-19T17:58:11Z</time>
      </trkpt>
      <trkpt lat="43.15382" lon="3.06803">
        <ele>163.585</ele>
        <time>2011-04-19T17:58:21Z</time>
      </trkpt>
      <trkpt lat="43.15374" lon="3.06769">
        <ele>164.04499</ele>
        <time>2011-04-19T17:58:29Z</time>
      </trkpt>
      <trkpt lat="43.15376" lon="3.06725">
        <ele>164.641</ele>
        <time>2011-04-19T17:58:39Z</time>
      </trkpt>
      <trkpt lat="43.15382" lon="3.06685">
        <ele>165.10299</ele>
        <time>2011-04-19T17:58:48Z</time>
      </trkpt>
      <trkpt lat="43.15386" lon="3.06649">
        <ele>165.54699</ele>
        <time>2011-04-19T17:58:57Z</time>
      </trkpt>
      <trkpt lat="43.15388" lon="3.06614">
        <ele>164.46299</ele>
        <time>2011-04-19T17:59:05Z</time>
      </trkpt>
      <trkpt lat="43.15388" lon="3.06607">
        <ele>164.31199</ele>
        <time>2011-04-19T17:59:06Z</time>
      </trkpt>
      <trkpt lat="43.15381" lon="3.06575">
        <ele>163.15899</ele>
        <time>2011-04-19T17:59:14Z</time>
      </trkpt>
      <trkpt lat="43.15377" lon="3.06566">
        <ele>162.779</ele>
        <time>2011-04-19T17:59:16Z</time>
      </trkpt>
      <trkpt lat="43.15361" lon="3.06532">
        <ele>157.91099</ele>
        <time>2011-04-19T17:59:25Z</time>
      </trkpt>
      <trkpt lat="43.1536" lon="3.06519">
        <ele>155.863</ele>
        <time>2011-04-19T17:59:28Z</time>
      </trkpt>
      <trkpt lat="43.15356" lon="3.06495">
        <ele>154.63099</ele>
        <time>2011-04-19T17:59:34Z</time>
      </trkpt>
      <trkpt lat="43.15344" lon="3.06479">
        <ele>153.61099</ele>
        <time>2011-04-19T17:59:39Z</time>
      </trkpt>
      <trkpt lat="43.15318" lon="3.06435">
        <ele>147.016</ele>
        <time>2011-04-19T17:59:51Z</time>
      </trkpt>
      <trkpt lat="43.15325" lon="3.06403">
        <ele>143.153</ele>
        <time>2011-04-19T17:59:59Z</time>
      </trkpt>
      <trkpt lat="43.1534" lon="3.06381">
        <ele>140.46899</ele>
        <time>2011-04-19T18:00:06Z</time>
      </trkpt>
      <trkpt lat="43.15358" lon="3.06381">
        <ele>139.487</ele>
        <time>2011-04-19T18:00:11Z</time>
      </trkpt>
      <trkpt lat="43.15379" lon="3.06386">
        <ele>139.365</ele>
        <time>2011-04-19T18:00:18Z</time>
      </trkpt>
      <trkpt lat="43.15393" lon="3.06388">
        <ele>139.091</ele>
        <time>2011-04-19T18:00:22Z</time>
      </trkpt>
      <trkpt lat="43.15404" lon="3.06394">
        <ele>137.949</ele>
        <time>2011-04-19T18:00:26Z</time>
      </trkpt>
      <trkpt lat="43.15411" lon="3.06388">
        <ele>135.50199</ele>
        <time>2011-04-19T18:00:28Z</time>
      </trkpt>
      <trkpt lat="43.15418" lon="3.06392">
        <ele>134.00199</ele>
        <time>2011-04-19T18:00:30Z</time>
      </trkpt>
      <trkpt lat="43.15428" lon="3.06376">
        <ele>132.01499</ele>
        <time>2011-04-19T18:00:35Z</time>
      </trkpt>
      <trkpt lat="43.15441" lon="3.06361">
        <ele>130.72</ele>
        <time>2011-04-19T18:00:40Z</time>
      </trkpt>
      <trkpt lat="43.15458" lon="3.06356">
        <ele>130.375</ele>
        <time>2011-04-19T18:00:46Z</time>
      </trkpt>
      <trkpt lat="43.15475" lon="3.06341">
        <ele>127.994</ele>
        <time>2011-04-19T18:00:52Z</time>
      </trkpt>
      <trkpt lat="43.15485" lon="3.06331">
        <ele>126.763</ele>
        <time>2011-04-19T18:00:56Z</time>
      </trkpt>
      <trkpt lat="43.15502" lon="3.06321">
        <ele>124.76699</ele>
        <time>2011-04-19T18:01:01Z</time>
      </trkpt>
      <trkpt lat="43.15508" lon="3.0633">
        <ele>124.001</ele>
        <time>2011-04-19T18:01:04Z</time>
      </trkpt>
      <trkpt lat="43.15508" lon="3.06332">
        <ele>124.04699</ele>
        <time>2011-04-19T18:01:05Z</time>
      </trkpt>
      <trkpt lat="43.15507" lon="3.06345">
        <ele>125.41999</ele>
        <time>2011-04-19T18:01:08Z</time>
      </trkpt>
      <trkpt lat="43.15509" lon="3.06348">
        <ele>125.54599</ele>
        <time>2011-04-19T18:01:08Z</time>
      </trkpt>
      <trkpt lat="43.15521" lon="3.06363">
        <ele>125.11499</ele>
        <time>2011-04-19T18:01:13Z</time>
      </trkpt>
      <trkpt lat="43.15535" lon="3.06356">
        <ele>123.111</ele>
        <time>2011-04-19T18:01:18Z</time>
      </trkpt>
      <trkpt lat="43.15545" lon="3.06355">
        <ele>121.549</ele>
        <time>2011-04-19T18:01:21Z</time>
      </trkpt>
      <trkpt lat="43.15558" lon="3.06362">
        <ele>121.29499</ele>
        <time>2011-04-19T18:01:25Z</time>
      </trkpt>
      <trkpt lat="43.15568" lon="3.06357">
        <ele>120.346</ele>
        <time>2011-04-19T18:01:29Z</time>
      </trkpt>
      <trkpt lat="43.15577" lon="3.06346">
        <ele>119.193</ele>
        <time>2011-04-19T18:01:32Z</time>
      </trkpt>
      <trkpt lat="43.15581" lon="3.06338">
        <ele>117.93</ele>
        <time>2011-04-19T18:01:35Z</time>
      </trkpt>
      <trkpt lat="43.15584" lon="3.06331">
        <ele>117.75399</ele>
        <time>2011-04-19T18:01:36Z</time>
      </trkpt>
      <trkpt lat="43.15592" lon="3.0631">
        <ele>116.271</ele>
        <time>2011-04-19T18:01:42Z</time>
      </trkpt>
      <trkpt lat="43.15598" lon="3.06304">
        <ele>115.23999</ele>
        <time>2011-04-19T18:01:44Z</time>
      </trkpt>
      <trkpt lat="43.15598" lon="3.06295">
        <ele>114.427</ele>
        <time>2011-04-19T18:01:46Z</time>
      </trkpt>
      <trkpt lat="43.15599" lon="3.06285">
        <ele>112.897</ele>
        <time>2011-04-19T18:01:48Z</time>
      </trkpt>
      <trkpt lat="43.15602" lon="3.06275">
        <ele>110.834</ele>
        <time>2011-04-19T18:01:51Z</time>
      </trkpt>
      <trkpt lat="43.15606" lon="3.06259">
        <ele>107.01</ele>
        <time>2011-04-19T18:01:54Z</time>
      </trkpt>
      <trkpt lat="43.15612" lon="3.06255">
        <ele>105.693</ele>
        <time>2011-04-19T18:01:56Z</time>
      </trkpt>
      <trkpt lat="43.15621" lon="3.06249">
        <ele>103.14099</ele>
        <time>2011-04-19T18:02:00Z</time>
      </trkpt>
      <trkpt lat="43.15625" lon="3.06238">
        <ele>99.974998</ele>
        <time>2011-04-19T18:02:03Z</time>
      </trkpt>
      <trkpt lat="43.15631" lon="3.06225">
        <ele>96.241997</ele>
        <time>2011-04-19T18:02:06Z</time>
      </trkpt>
      <trkpt lat="43.15636" lon="3.06225">
        <ele>93.616997</ele>
        <time>2011-04-19T18:02:07Z</time>
      </trkpt>
      <trkpt lat="43.15639" lon="3.06226">
        <ele>92.248001</ele>
        <time>2011-04-19T18:02:08Z</time>
      </trkpt>
      <trkpt lat="43.15651" lon="3.06218">
        <ele>88.658997</ele>
        <time>2011-04-19T18:02:12Z</time>
      </trkpt>
      <trkpt lat="43.15661" lon="3.06207">
        <ele>85.040001</ele>
        <time>2011-04-19T18:02:16Z</time>
      </trkpt>
      <trkpt lat="43.1567" lon="3.06188">
        <ele>80.988998</ele>
        <time>2011-04-19T18:02:21Z</time>
      </trkpt>
      <trkpt lat="43.15682" lon="3.0618">
        <ele>79.903</ele>
        <time>2011-04-19T18:02:26Z</time>
      </trkpt>
      <trkpt lat="43.15698" lon="3.06164">
        <ele>78.82</ele>
        <time>2011-04-19T18:02:32Z</time>
      </trkpt>
      <trkpt lat="43.15709" lon="3.06154">
        <ele>78.473</ele>
        <time>2011-04-19T18:02:36Z</time>
      </trkpt>
      <trkpt lat="43.15711" lon="3.06149">
        <ele>78.658997</ele>
        <time>2011-04-19T18:02:37Z</time>
      </trkpt>
      <trkpt lat="43.15714" lon="3.06148">
        <ele>78.466003</ele>
        <time>2011-04-19T18:02:38Z</time>
      </trkpt>
      <trkpt lat="43.15718" lon="3.06157">
        <ele>76.210999</ele>
        <time>2011-04-19T18:02:40Z</time>
      </trkpt>
      <trkpt lat="43.15723" lon="3.06176">
        <ele>70.848999</ele>
        <time>2011-04-19T18:02:45Z</time>
      </trkpt>
      <trkpt lat="43.15735" lon="3.06189">
        <ele>64.050003</ele>
        <time>2011-04-19T18:02:49Z</time>
      </trkpt>
      <trkpt lat="43.15744" lon="3.06203">
        <ele>58.209</ele>
        <time>2011-04-19T18:02:54Z</time>
      </trkpt>
      <trkpt lat="43.15757" lon="3.06206">
        <ele>54.485001</ele>
        <time>2011-04-19T18:02:58Z</time>
      </trkpt>
      <trkpt lat="43.15763" lon="3.06215">
        <ele>51.207001</ele>
        <time>2011-04-19T18:03:00Z</time>
      </trkpt>
      <trkpt lat="43.15776" lon="3.06225">
        <ele>49.070999</ele>
        <time>2011-04-19T18:03:05Z</time>
      </trkpt>
      <trkpt lat="43.15776" lon="3.06225">
        <ele>48.804001</ele>
        <time>2011-04-19T18:03:05Z</time>
      </trkpt>
      <trkpt lat="43.15776" lon="3.06224">
        <ele>48.661999</ele>
        <time>2011-04-19T18:03:06Z</time>
      </trkpt>
      <trkpt lat="43.15781" lon="3.06224">
        <ele>47.764</ele>
        <time>2011-04-19T18:03:07Z</time>
      </trkpt>
      <trkpt lat="43.15804" lon="3.06226">
        <ele>45.709</ele>
        <time>2011-04-19T18:03:14Z</time>
      </trkpt>
      <trkpt lat="43.15809" lon="3.06223">
        <ele>44.773998</ele>
        <time>2011-04-19T18:03:16Z</time>
      </trkpt>
      <trkpt lat="43.15812" lon="3.06208">
        <ele>42.483002</ele>
        <time>2011-04-19T18:03:19Z</time>
      </trkpt>
      <trkpt lat="43.15814" lon="3.06201">
        <ele>41.485001</ele>
        <time>2011-04-19T18:03:21Z</time>
      </trkpt>
      <trkpt lat="43.1582" lon="3.06183">
        <ele>40.509998</ele>
        <time>2011-04-19T18:03:25Z</time>
      </trkpt>
      <trkpt lat="43.15828" lon="3.06171">
        <ele>40.244999</ele>
        <time>2011-04-19T18:03:29Z</time>
      </trkpt>
      <trkpt lat="43.15847" lon="3.06144">
        <ele>39.506</ele>
        <time>2011-04-19T18:03:38Z</time>
      </trkpt>
      <trkpt lat="43.15873" lon="3.06134">
        <ele>38.585999</ele>
        <time>2011-04-19T18:03:46Z</time>
      </trkpt>
      <trkpt lat="43.15895" lon="3.06134">
        <ele>38.896</ele>
        <time>2011-04-19T18:03:53Z</time>
      </trkpt>
      <trkpt lat="43.15916" lon="3.06126">
        <ele>38.986</ele>
        <time>2011-04-19T18:04:00Z</time>
      </trkpt>
      <trkpt lat="43.1592" lon="3.06123">
        <ele>38.770001</ele>
        <time>2011-04-19T18:04:01Z</time>
      </trkpt>
      <trkpt lat="43.1594" lon="3.06107">
        <ele>38.601002</ele>
        <time>2011-04-19T18:04:08Z</time>
      </trkpt>
      <trkpt lat="43.1596" lon="3.06087">
        <ele>39.209</ele>
        <time>2011-04-19T18:04:16Z</time>
      </trkpt>
      <trkpt lat="43.15978" lon="3.06063">
        <ele>39.713001</ele>
        <time>2011-04-19T18:04:23Z</time>
      </trkpt>
      <trkpt lat="43.15997" lon="3.0604">
        <ele>40.164001</ele>
        <time>2011-04-19T18:04:31Z</time>
      </trkpt>
      <trkpt lat="43.16017" lon="3.06011">
        <ele>39.514</ele>
        <time>2011-04-19T18:04:40Z</time>
      </trkpt>
      <trkpt lat="43.16042" lon="3.05975">
        <ele>37.820999</ele>
        <time>2011-04-19T18:04:51Z</time>
      </trkpt>
      <trkpt lat="43.16045" lon="3.05971">
        <ele>37.675999</ele>
        <time>2011-04-19T18:04:52Z</time>
      </trkpt>
      <trkpt lat="43.16058" lon="3.05959">
        <ele>35.948002</ele>
        <time>2011-04-19T18:04:58Z</time>
      </trkpt>
      <trkpt lat="43.16061" lon="3.05961">
        <ele>36.069</ele>
        <time>2011-04-19T18:04:59Z</time>
      </trkpt>
      <trkpt lat="43.16064" lon="3.05965">
        <ele>37.168999</ele>
        <time>2011-04-19T18:05:00Z</time>
      </trkpt>
      <trkpt lat="43.16057" lon="3.05974">
        <ele>38.737999</ele>
        <time>2011-04-19T18:05:03Z</time>
      </trkpt>
      <trkpt lat="43.16049" lon="3.05985">
        <ele>39.757</ele>
        <time>2011-04-19T18:05:06Z</time>
      </trkpt>
      <trkpt lat="43.16039" lon="3.05999">
        <ele>41.613998</ele>
        <time>2011-04-19T18:05:11Z</time>
      </trkpt>
      <trkpt lat="43.16033" lon="3.06012">
        <ele>42.372002</ele>
        <time>2011-04-19T18:05:14Z</time>
      </trkpt>
      <trkpt lat="43.16029" lon="3.06027">
        <ele>44.002998</ele>
        <time>2011-04-19T18:05:18Z</time>
      </trkpt>
      <trkpt lat="43.16024" lon="3.06044">
        <ele>45.366001</ele>
        <time>2011-04-19T18:05:22Z</time>
      </trkpt>
      <trkpt lat="43.16022" lon="3.06055">
        <ele>46.151001</ele>
        <time>2011-04-19T18:05:24Z</time>
      </trkpt>
      <trkpt lat="43.1602" lon="3.06068">
        <ele>47.707001</ele>
        <time>2011-04-19T18:05:27Z</time>
      </trkpt>
      <trkpt lat="43.16018" lon="3.06079">
        <ele>48.452</ele>
        <time>2011-04-19T18:05:30Z</time>
      </trkpt>
      <trkpt lat="43.16013" lon="3.06094">
        <ele>49.641998</ele>
        <time>2011-04-19T18:05:34Z</time>
      </trkpt>
      <trkpt lat="43.16006" lon="3.06113">
        <ele>51.671001</ele>
        <time>2011-04-19T18:05:39Z</time>
      </trkpt>
      <trkpt lat="43.16001" lon="3.06123">
        <ele>52.377998</ele>
        <time>2011-04-19T18:05:41Z</time>
      </trkpt>
      <trkpt lat="43.15995" lon="3.06138">
        <ele>54.325001</ele>
        <time>2011-04-19T18:05:45Z</time>
      </trkpt>
      <trkpt lat="43.15989" lon="3.06149">
        <ele>55.423</ele>
        <time>2011-04-19T18:05:48Z</time>
      </trkpt>
      <trkpt lat="43.15982" lon="3.06159">
        <ele>56.486</ele>
        <time>2011-04-19T18:05:51Z</time>
      </trkpt>
      <trkpt lat="43.15974" lon="3.06171">
        <ele>58.033001</ele>
        <time>2011-04-19T18:05:55Z</time>
      </trkpt>
      <trkpt lat="43.1597" lon="3.06185">
        <ele>59.147999</ele>
        <time>2011-04-19T18:05:58Z</time>
      </trkpt>
      <trkpt lat="43.15969" lon="3.06192">
        <ele>59.873001</ele>
        <time>2011-04-19T18:06:00Z</time>
      </trkpt>
      <trkpt lat="43.15965" lon="3.062">
        <ele>60.994999</ele>
        <time>2011-04-19T18:06:02Z</time>
      </trkpt>
      <trkpt lat="43.1596" lon="3.06216">
        <ele>62.151001</ele>
        <time>2011-04-19T18:06:06Z</time>
      </trkpt>
      <trkpt lat="43.15956" lon="3.06229">
        <ele>62.949001</ele>
        <time>2011-04-19T18:06:09Z</time>
      </trkpt>
      <trkpt lat="43.15952" lon="3.06241">
        <ele>63.549999</ele>
        <time>2011-04-19T18:06:12Z</time>
      </trkpt>
      <trkpt lat="43.1595" lon="3.06246">
        <ele>63.933998</ele>
        <time>2011-04-19T18:06:13Z</time>
      </trkpt>
      <trkpt lat="43.15945" lon="3.06259">
        <ele>64.905998</ele>
        <time>2011-04-19T18:06:17Z</time>
      </trkpt>
      <trkpt lat="43.15945" lon="3.06263">
        <ele>65.325996</ele>
        <time>2011-04-19T18:06:18Z</time>
      </trkpt>
      <trkpt lat="43.15946" lon="3.0628">
        <ele>66.192001</ele>
        <time>2011-04-19T18:06:21Z</time>
      </trkpt>
      <trkpt lat="43.15946" lon="3.06297">
        <ele>67.663002</ele>
        <time>2011-04-19T18:06:25Z</time>
      </trkpt>
      <trkpt lat="43.15945" lon="3.06316">
        <ele>69.286003</ele>
        <time>2011-04-19T18:06:30Z</time>
      </trkpt>
      <trkpt lat="43.15943" lon="3.06329">
        <ele>70.191002</ele>
        <time>2011-04-19T18:06:32Z</time>
      </trkpt>
      <trkpt lat="43.1594" lon="3.06345">
        <ele>71.157997</ele>
        <time>2011-04-19T18:06:36Z</time>
      </trkpt>
      <trkpt lat="43.15938" lon="3.06365">
        <ele>72.612999</ele>
        <time>2011-04-19T18:06:41Z</time>
      </trkpt>
      <trkpt lat="43.15934" lon="3.06379">
        <ele>73.636002</ele>
        <time>2011-04-19T18:06:44Z</time>
      </trkpt>
      <trkpt lat="43.15937" lon="3.06397">
        <ele>74.821999</ele>
        <time>2011-04-19T18:06:48Z</time>
      </trkpt>
      <trkpt lat="43.15939" lon="3.06413">
        <ele>77.191002</ele>
        <time>2011-04-19T18:06:52Z</time>
      </trkpt>
      <trkpt lat="43.15939" lon="3.06431">
        <ele>77.978996</ele>
        <time>2011-04-19T18:06:56Z</time>
      </trkpt>
      <trkpt lat="43.15933" lon="3.06457">
        <ele>79.236</ele>
        <time>2011-04-19T18:07:02Z</time>
      </trkpt>
      <trkpt lat="43.15924" lon="3.06473">
        <ele>80.508003</ele>
        <time>2011-04-19T18:07:07Z</time>
      </trkpt>
      <trkpt lat="43.1591" lon="3.06481">
        <ele>81.682999</ele>
        <time>2011-04-19T18:07:11Z</time>
      </trkpt>
      <trkpt lat="43.15894" lon="3.06483">
        <ele>82.517998</ele>
        <time>2011-04-19T18:07:16Z</time>
      </trkpt>
      <trkpt lat="43.15876" lon="3.06485">
        <ele>83.924004</ele>
        <time>2011-04-19T18:07:22Z</time>
      </trkpt>
      <trkpt lat="43.15865" lon="3.06492">
        <ele>85.664001</ele>
        <time>2011-04-19T18:07:25Z</time>
      </trkpt>
      <trkpt lat="43.15855" lon="3.06502">
        <ele>86.658997</ele>
        <time>2011-04-19T18:07:29Z</time>
      </trkpt>
      <trkpt lat="43.15838" lon="3.06518">
        <ele>88.202004</ele>
        <time>2011-04-19T18:07:36Z</time>
      </trkpt>
      <trkpt lat="43.15826" lon="3.06528">
        <ele>89.323998</ele>
        <time>2011-04-19T18:07:40Z</time>
      </trkpt>
      <trkpt lat="43.15817" lon="3.06535">
        <ele>90.122002</ele>
        <time>2011-04-19T18:07:43Z</time>
      </trkpt>
      <trkpt lat="43.15802" lon="3.06543">
        <ele>91.539001</ele>
        <time>2011-04-19T18:07:48Z</time>
      </trkpt>
      <trkpt lat="43.15782" lon="3.06546">
        <ele>92.988998</ele>
        <time>2011-04-19T18:07:54Z</time>
      </trkpt>
      <trkpt lat="43.15767" lon="3.0655">
        <ele>94.306</ele>
        <time>2011-04-19T18:07:59Z</time>
      </trkpt>
      <trkpt lat="43.15751" lon="3.06565">
        <ele>95.838997</ele>
        <time>2011-04-19T18:08:05Z</time>
      </trkpt>
      <trkpt lat="43.15743" lon="3.06579">
        <ele>97.946999</ele>
        <time>2011-04-19T18:08:09Z</time>
      </trkpt>
      <trkpt lat="43.15754" lon="3.06591">
        <ele>99.642998</ele>
        <time>2011-04-19T18:08:13Z</time>
      </trkpt>
      <trkpt lat="43.15774" lon="3.06608">
        <ele>101.996</ele>
        <time>2011-04-19T18:08:21Z</time>
      </trkpt>
      <trkpt lat="43.15785" lon="3.06621">
        <ele>104.192</ele>
        <time>2011-04-19T18:08:25Z</time>
      </trkpt>
      <trkpt lat="43.15792" lon="3.06639">
        <ele>105.76799</ele>
        <time>2011-04-19T18:08:30Z</time>
      </trkpt>
      <trkpt lat="43.15793" lon="3.06657">
        <ele>108.021</ele>
        <time>2011-04-19T18:08:34Z</time>
      </trkpt>
      <trkpt lat="43.15793" lon="3.06675">
        <ele>109.18</ele>
        <time>2011-04-19T18:08:38Z</time>
      </trkpt>
      <trkpt lat="43.15788" lon="3.06695">
        <ele>111.607</ele>
        <time>2011-04-19T18:08:42Z</time>
      </trkpt>
      <trkpt lat="43.15786" lon="3.06709">
        <ele>112.457</ele>
        <time>2011-04-19T18:08:46Z</time>
      </trkpt>
      <trkpt lat="43.15793" lon="3.06724">
        <ele>114.109</ele>
        <time>2011-04-19T18:08:50Z</time>
      </trkpt>
      <trkpt lat="43.15805" lon="3.06732">
        <ele>115.513</ele>
        <time>2011-04-19T18:08:54Z</time>
      </trkpt>
      <trkpt lat="43.15815" lon="3.06745">
        <ele>117.162</ele>
        <time>2011-04-19T18:08:58Z</time>
      </trkpt>
      <trkpt lat="43.15811" lon="3.06755">
        <ele>118.207</ele>
        <time>2011-04-19T18:09:01Z</time>
      </trkpt>
      <trkpt lat="43.15807" lon="3.06754">
        <ele>118.467</ele>
        <time>2011-04-19T18:09:02Z</time>
      </trkpt>
      <trkpt lat="43.15792" lon="3.06746">
        <ele>120.26499</ele>
        <time>2011-04-19T18:09:07Z</time>
      </trkpt>
      <trkpt lat="43.15775" lon="3.06744">
        <ele>122.73899</ele>
        <time>2011-04-19T18:09:12Z</time>
      </trkpt>
      <trkpt lat="43.15761" lon="3.06739">
        <ele>124.02899</ele>
        <time>2011-04-19T18:09:17Z</time>
      </trkpt>
      <trkpt lat="43.15743" lon="3.06728">
        <ele>126.874</ele>
        <time>2011-04-19T18:09:23Z</time>
      </trkpt>
      <trkpt lat="43.15731" lon="3.06731">
        <ele>128.09399</ele>
        <time>2011-04-19T18:09:26Z</time>
      </trkpt>
      <trkpt lat="43.15722" lon="3.06743">
        <ele>129.307</ele>
        <time>2011-04-19T18:09:30Z</time>
      </trkpt>
      <trkpt lat="43.15707" lon="3.06757">
        <ele>130.84399</ele>
        <time>2011-04-19T18:09:36Z</time>
      </trkpt>
      <trkpt lat="43.1569" lon="3.06759">
        <ele>133.14599</ele>
        <time>2011-04-19T18:09:41Z</time>
      </trkpt>
      <trkpt lat="43.15668" lon="3.0676">
        <ele>135.513</ele>
        <time>2011-04-19T18:09:48Z</time>
      </trkpt>
      <trkpt lat="43.15651" lon="3.06768">
        <ele>136.67999</ele>
        <time>2011-04-19T18:09:53Z</time>
      </trkpt>
      <trkpt lat="43.15641" lon="3.06791">
        <ele>138.311</ele>
        <time>2011-04-19T18:09:59Z</time>
      </trkpt>
      <trkpt lat="43.15631" lon="3.06818">
        <ele>139.81599</ele>
        <time>2011-04-19T18:10:06Z</time>
      </trkpt>
      <trkpt lat="43.15623" lon="3.06838">
        <ele>141.11</ele>
        <time>2011-04-19T18:10:11Z</time>
      </trkpt>
      <trkpt lat="43.15615" lon="3.06866">
        <ele>143.74</ele>
        <time>2011-04-19T18:10:18Z</time>
      </trkpt>
      <trkpt lat="43.15608" lon="3.06894">
        <ele>143.686</ele>
        <time>2011-04-19T18:10:25Z</time>
      </trkpt>
      <trkpt lat="43.15602" lon="3.06919">
        <ele>144.97999</ele>
        <time>2011-04-19T18:10:31Z</time>
      </trkpt>
      <trkpt lat="43.15587" lon="3.06941">
        <ele>146.90499</ele>
        <time>2011-04-19T18:10:37Z</time>
      </trkpt>
      <trkpt lat="43.15566" lon="3.06967">
        <ele>148.828</ele>
        <time>2011-04-19T18:10:46Z</time>
      </trkpt>
      <trkpt lat="43.15541" lon="3.06987">
        <ele>151.84399</ele>
        <time>2011-04-19T18:10:55Z</time>
      </trkpt>
      <trkpt lat="43.15528" lon="3.07009">
        <ele>153.487</ele>
        <time>2011-04-19T18:11:01Z</time>
      </trkpt>
      <trkpt lat="43.15516" lon="3.07034">
        <ele>155.347</ele>
        <time>2011-04-19T18:11:08Z</time>
      </trkpt>
      <trkpt lat="43.15503" lon="3.07055">
        <ele>155.371</ele>
        <time>2011-04-19T18:11:14Z</time>
      </trkpt>
      <trkpt lat="43.15497" lon="3.0707">
        <ele>155.13</ele>
        <time>2011-04-19T18:11:18Z</time>
      </trkpt>
      <trkpt lat="43.15491" lon="3.07084">
        <ele>155.24899</ele>
        <time>2011-04-19T18:11:22Z</time>
      </trkpt>
      <trkpt lat="43.15489" lon="3.0709">
        <ele>155.233</ele>
        <time>2011-04-19T18:11:23Z</time>
      </trkpt>
      <trkpt lat="43.15491" lon="3.0709">
        <ele>154.218</ele>
        <time>2011-04-19T18:11:24Z</time>
      </trkpt>
      <trkpt lat="43.15497" lon="3.07073">
        <ele>154.404</ele>
        <time>2011-04-19T18:11:28Z</time>
      </trkpt>
      <trkpt lat="43.15501" lon="3.07051">
        <ele>154.246</ele>
        <time>2011-04-19T18:11:33Z</time>
      </trkpt>
      <trkpt lat="43.15508" lon="3.07051">
        <ele>154.58099</ele>
        <time>2011-04-19T18:11:35Z</time>
      </trkpt>
      <trkpt lat="43.15506" lon="3.07057">
        <ele>154.84199</ele>
        <time>2011-04-19T18:11:37Z</time>
      </trkpt>
      <trkpt lat="43.15505" lon="3.07059">
        <ele>154.875</ele>
        <time>2011-04-19T18:11:37Z</time>
      </trkpt>
      <trkpt lat="43.15496" lon="3.07072">
        <ele>154.597</ele>
        <time>2011-04-19T18:11:41Z</time>
      </trkpt>
      <trkpt lat="43.15489" lon="3.07091">
        <ele>154.71099</ele>
        <time>2011-04-19T18:11:46Z</time>
      </trkpt>
      <trkpt lat="43.15483" lon="3.07104">
        <ele>154.28199</ele>
        <time>2011-04-19T18:11:50Z</time>
      </trkpt>
      <trkpt lat="43.15478" lon="3.07114">
        <ele>154.783</ele>
        <time>2011-04-19T18:11:53Z</time>
      </trkpt>
      <trkpt lat="43.15468" lon="3.07131">
        <ele>154.718</ele>
        <time>2011-04-19T18:11:57Z</time>
      </trkpt>
      <trkpt lat="43.15457" lon="3.07154">
        <ele>154.90499</ele>
        <time>2011-04-19T18:12:03Z</time>
      </trkpt>
      <trkpt lat="43.15446" lon="3.07175">
        <ele>154.40899</ele>
        <time>2011-04-19T18:12:09Z</time>
      </trkpt>
      <trkpt lat="43.15432" lon="3.07204">
        <ele>154.25399</ele>
        <time>2011-04-19T18:12:17Z</time>
      </trkpt>
      <trkpt lat="43.15421" lon="3.07234">
        <ele>154.932</ele>
        <time>2011-04-19T18:12:25Z</time>
      </trkpt>
      <trkpt lat="43.15415" lon="3.07272">
        <ele>145.5375</ele>
        <time>2011-04-19T18:12:33Z</time>
      </trkpt>
      <trkpt lat="43.1541" lon="3.07303">
        <ele>145.69999</ele>
        <time>2011-04-19T18:12:41Z</time>
      </trkpt>
      <trkpt lat="43.15407" lon="3.0733">
        <ele>145.94999</ele>
        <time>2011-04-19T18:12:47Z</time>
      </trkpt>
      <trkpt lat="43.15405" lon="3.07357">
        <ele>146.2875</ele>
        <time>2011-04-19T18:12:53Z</time>
      </trkpt>
      <trkpt lat="43.15405" lon="3.07389">
        <ele>146.71249</ele>
        <time>2011-04-19T18:13:00Z</time>
      </trkpt>
      <trkpt lat="43.15403" lon="3.07431">
        <ele>146.6</ele>
        <time>2011-04-19T18:13:09Z</time>
      </trkpt>
      <trkpt lat="43.15406" lon="3.07471">
        <ele>146.43718</ele>
        <time>2011-04-19T18:13:19Z</time>
      </trkpt>
      <trkpt lat="43.15408" lon="3.07512">
        <ele>146.1125</ele>
        <time>2011-04-19T18:13:28Z</time>
      </trkpt>
      <trkpt lat="43.15403" lon="3.0755">
        <ele>145.0375</ele>
        <time>2011-04-19T18:13:36Z</time>
      </trkpt>
      <trkpt lat="43.15402" lon="3.07566">
        <ele>144.70468</ele>
        <time>2011-04-19T18:13:40Z</time>
      </trkpt>
      <trkpt lat="43.15406" lon="3.07609">
        <ele>143.87094</ele>
        <time>2011-04-19T18:13:50Z</time>
      </trkpt>
      <trkpt lat="43.15417" lon="3.07673">
        <ele>142.80984</ele>
        <time>2011-04-19T18:14:05Z</time>
      </trkpt>
      <trkpt lat="43.15425" lon="3.07724">
        <ele>141.48469</ele>
        <time>2011-04-19T18:14:16Z</time>
      </trkpt>
      <trkpt lat="43.15423" lon="3.07785">
        <ele>138.69686</ele>
        <time>2011-04-19T18:14:30Z</time>
      </trkpt>
      <trkpt lat="43.15419" lon="3.07827">
        <ele>148.087</ele>
        <time>2011-04-19T18:14:40Z</time>
      </trkpt>
      <trkpt lat="43.1542" lon="3.07869">
        <ele>148.701</ele>
        <time>2011-04-19T18:14:49Z</time>
      </trkpt>
      <trkpt lat="43.15422" lon="3.07923">
        <ele>148.873</ele>
        <time>2011-04-19T18:15:01Z</time>
      </trkpt>
      <trkpt lat="43.15423" lon="3.07979">
        <ele>149.167</ele>
        <time>2011-04-19T18:15:14Z</time>
      </trkpt>
      <trkpt lat="43.15422" lon="3.08009">
        <ele>149.33799</ele>
        <time>2011-04-19T18:15:20Z</time>
      </trkpt>
      <trkpt lat="43.1541" lon="3.08057">
        <ele>149.91299</ele>
        <time>2011-04-19T18:15:32Z</time>
      </trkpt>
      <trkpt lat="43.15403" lon="3.08092">
        <ele>150.888</ele>
        <time>2011-04-19T18:15:40Z</time>
      </trkpt>
      <trkpt lat="43.15406" lon="3.08128">
        <ele>150.89399</ele>
        <time>2011-04-19T18:15:48Z</time>
      </trkpt>
      <trkpt lat="43.1541" lon="3.08162">
        <ele>151.27699</ele>
        <time>2011-04-19T18:15:56Z</time>
      </trkpt>
      <trkpt lat="43.15409" lon="3.08218">
        <ele>151.365</ele>
        <time>2011-04-19T18:16:08Z</time>
      </trkpt>
      <trkpt lat="43.15409" lon="3.08259">
        <ele>151.61799</ele>
        <time>2011-04-19T18:16:18Z</time>
      </trkpt>
      <trkpt lat="43.1541" lon="3.08305">
        <ele>151.57499</ele>
        <time>2011-04-19T18:16:28Z</time>
      </trkpt>
      <trkpt lat="43.15407" lon="3.08354">
        <ele>151.195</ele>
        <time>2011-04-19T18:16:39Z</time>
      </trkpt>
      <trkpt lat="43.154" lon="3.08401">
        <ele>150.52999</ele>
        <time>2011-04-19T18:16:50Z</time>
      </trkpt>
      <trkpt lat="43.15389" lon="3.08453">
        <ele>149.55499</ele>
        <time>2011-04-19T18:17:02Z</time>
      </trkpt>
      <trkpt lat="43.15383" lon="3.08501">
        <ele>149.33999</ele>
        <time>2011-04-19T18:17:13Z</time>
      </trkpt>
      <trkpt lat="43.1538" lon="3.08527">
        <ele>147.796</ele>
        <time>2011-04-19T18:17:19Z</time>
      </trkpt>
      <trkpt lat="43.15372" lon="3.08564">
        <ele>146.66299</ele>
        <time>2011-04-19T18:17:27Z</time>
      </trkpt>
      <trkpt lat="43.15367" lon="3.08582">
        <ele>146.52099</ele>
        <time>2011-04-19T18:17:32Z</time>
      </trkpt>
      <trkpt lat="43.15364" lon="3.08613">
        <ele>145.59199</ele>
        <time>2011-04-19T18:17:39Z</time>
      </trkpt>
      <trkpt lat="43.15356" lon="3.08621">
        <ele>144.97099</ele>
        <time>2011-04-19T18:17:42Z</time>
      </trkpt>
      <trkpt lat="43.15353" lon="3.08625">
        <ele>145.73199</ele>
        <time>2011-04-19T18:17:43Z</time>
      </trkpt>
      <trkpt lat="43.15343" lon="3.0864">
        <ele>145.71099</ele>
        <time>2011-04-19T18:17:48Z</time>
      </trkpt>
      <trkpt lat="43.15337" lon="3.08661">
        <ele>145.61999</ele>
        <time>2011-04-19T18:17:53Z</time>
      </trkpt>
      <trkpt lat="43.15331" lon="3.08679">
        <ele>145.313</ele>
        <time>2011-04-19T18:17:57Z</time>
      </trkpt>
      <trkpt lat="43.15325" lon="3.08695">
        <ele>145.572</ele>
        <time>2011-04-19T18:18:01Z</time>
      </trkpt>
      <trkpt lat="43.15321" lon="3.08711">
        <ele>145.979</ele>
        <time>2011-04-19T18:18:05Z</time>
      </trkpt>
      <trkpt lat="43.15315" lon="3.08732">
        <ele>146.39799</ele>
        <time>2011-04-19T18:18:10Z</time>
      </trkpt>
      <trkpt lat="43.15311" lon="3.08757">
        <ele>146.74</ele>
        <time>2011-04-19T18:18:16Z</time>
      </trkpt>
      <trkpt lat="43.15308" lon="3.08784">
        <ele>147.529</ele>
        <time>2011-04-19T18:18:22Z</time>
      </trkpt>
      <trkpt lat="43.15305" lon="3.08812">
        <ele>148.15699</ele>
        <time>2011-04-19T18:18:28Z</time>
      </trkpt>
      <trkpt lat="43.15302" lon="3.08842">
        <ele>148.761</ele>
        <time>2011-04-19T18:18:35Z</time>
      </trkpt>
      <trkpt lat="43.153" lon="3.08856">
        <ele>149.216</ele>
        <time>2011-04-19T18:18:38Z</time>
      </trkpt>
      <trkpt lat="43.153" lon="3.08857">
        <ele>149.00599</ele>
        <time>2011-04-19T18:18:39Z</time>
      </trkpt>
      <trkpt lat="43.153" lon="3.08861">
        <ele>148.813</ele>
        <time>2011-04-19T18:18:39Z</time>
      </trkpt>
      <trkpt lat="43.15299" lon="3.08871">
        <ele>149.05999</ele>
        <time>2011-04-19T18:18:42Z</time>
      </trkpt>
      <trkpt lat="43.15299" lon="3.08883">
        <ele>149.15499</ele>
        <time>2011-04-19T18:18:44Z</time>
      </trkpt>
      <trkpt lat="43.15296" lon="3.08894">
        <ele>149.74499</ele>
        <time>2011-04-19T18:18:47Z</time>
      </trkpt>
      <trkpt lat="43.15289" lon="3.08921">
        <ele>150.57899</ele>
        <time>2011-04-19T18:18:53Z</time>
      </trkpt>
      <trkpt lat="43.15284" lon="3.08937">
        <ele>151.029</ele>
        <time>2011-04-19T18:18:58Z</time>
      </trkpt>
      <trkpt lat="43.15277" lon="3.08961">
        <ele>151.811</ele>
        <time>2011-04-19T18:19:03Z</time>
      </trkpt>
      <trkpt lat="43.15266" lon="3.0898">
        <ele>153.17599</ele>
        <time>2011-04-19T18:19:09Z</time>
      </trkpt>
      <trkpt lat="43.15258" lon="3.09009">
        <ele>154.12199</ele>
        <time>2011-04-19T18:19:16Z</time>
      </trkpt>
      <trkpt lat="43.15252" lon="3.09033">
        <ele>154.97799</ele>
        <time>2011-04-19T18:19:21Z</time>
      </trkpt>
      <trkpt lat="43.15252" lon="3.0904">
        <ele>155.272</ele>
        <time>2011-04-19T18:19:23Z</time>
      </trkpt>
      <trkpt lat="43.15264" lon="3.09059">
        <ele>155.811</ele>
        <time>2011-04-19T18:19:29Z</time>
      </trkpt>
      <trkpt lat="43.15266" lon="3.09076">
        <ele>155.444</ele>
        <time>2011-04-19T18:19:32Z</time>
      </trkpt>
      <trkpt lat="43.15259" lon="3.09099">
        <ele>157.233</ele>
        <time>2011-04-19T18:19:38Z</time>
      </trkpt>
      <trkpt lat="43.15258" lon="3.09122">
        <ele>159.20599</ele>
        <time>2011-04-19T18:19:43Z</time>
      </trkpt>
      <trkpt lat="43.15254" lon="3.09156">
        <ele>160.537</ele>
        <time>2011-04-19T18:19:51Z</time>
      </trkpt>
      <trkpt lat="43.1525" lon="3.0919">
        <ele>162.38099</ele>
        <time>2011-04-19T18:19:59Z</time>
      </trkpt>
      <trkpt lat="43.15242" lon="3.09214">
        <ele>163.076</ele>
        <time>2011-04-19T18:20:05Z</time>
      </trkpt>
      <trkpt lat="43.15239" lon="3.09234">
        <ele>163.30099</ele>
        <time>2011-04-19T18:20:09Z</time>
      </trkpt>
      <trkpt lat="43.15237" lon="3.09259">
        <ele>163.55099</ele>
        <time>2011-04-19T18:20:15Z</time>
      </trkpt>
      <trkpt lat="43.15248" lon="3.09277">
        <ele>163.31199</ele>
        <time>2011-04-19T18:20:20Z</time>
      </trkpt>
      <trkpt lat="43.1526" lon="3.09298">
        <ele>163.145</ele>
        <time>2011-04-19T18:20:26Z</time>
      </trkpt>
      <trkpt lat="43.15292" lon="3.09344">
        <ele>161.378</ele>
        <time>2011-04-19T18:20:40Z</time>
      </trkpt>
      <trkpt lat="43.15312" lon="3.09379">
        <ele>160.46099</ele>
        <time>2011-04-19T18:20:50Z</time>
      </trkpt>
      <trkpt lat="43.15331" lon="3.09417">
        <ele>159.96899</ele>
        <time>2011-04-19T18:21:01Z</time>
      </trkpt>
      <trkpt lat="43.15339" lon="3.0944">
        <ele>159.62199</ele>
        <time>2011-04-19T18:21:06Z</time>
      </trkpt>
      <trkpt lat="43.1536" lon="3.09478">
        <ele>156.891</ele>
        <time>2011-04-19T18:21:17Z</time>
      </trkpt>
      <trkpt lat="43.15375" lon="3.09498">
        <ele>155.85699</ele>
        <time>2011-04-19T18:21:23Z</time>
      </trkpt>
      <trkpt lat="43.15391" lon="3.09529">
        <ele>156.29299</ele>
        <time>2011-04-19T18:21:32Z</time>
      </trkpt>
      <trkpt lat="43.15416" lon="3.09561">
        <ele>156.32099</ele>
        <time>2011-04-19T18:21:43Z</time>
      </trkpt>
      <trkpt lat="43.1545" lon="3.09588">
        <ele>156.59599</ele>
        <time>2011-04-19T18:21:55Z</time>
      </trkpt>
      <trkpt lat="43.15466" lon="3.09607">
        <ele>157.71299</ele>
        <time>2011-04-19T18:22:01Z</time>
      </trkpt>
      <trkpt lat="43.15476" lon="3.09617">
        <ele>158.007</ele>
        <time>2011-04-19T18:22:05Z</time>
      </trkpt>
      <trkpt lat="43.15481" lon="3.09626">
        <ele>159.41999</ele>
        <time>2011-04-19T18:22:08Z</time>
      </trkpt>
      <trkpt lat="43.15486" lon="3.09637">
        <ele>160.37399</ele>
        <time>2011-04-19T18:22:11Z</time>
      </trkpt>
      <trkpt lat="43.15492" lon="3.09653">
        <ele>162.30499</ele>
        <time>2011-04-19T18:22:15Z</time>
      </trkpt>
      <trkpt lat="43.15501" lon="3.0966">
        <ele>162.959</ele>
        <time>2011-04-19T18:22:18Z</time>
      </trkpt>
      <trkpt lat="43.15511" lon="3.09676">
        <ele>163.376</ele>
        <time>2011-04-19T18:22:22Z</time>
      </trkpt>
      <trkpt lat="43.15519" lon="3.09689">
        <ele>163.11</ele>
        <time>2011-04-19T18:22:26Z</time>
      </trkpt>
      <trkpt lat="43.15527" lon="3.09706">
        <ele>162.417</ele>
        <time>2011-04-19T18:22:31Z</time>
      </trkpt>
      <trkpt lat="43.15529" lon="3.0971">
        <ele>162.166</ele>
        <time>2011-04-19T18:22:32Z</time>
      </trkpt>
      <trkpt lat="43.15535" lon="3.09743">
        <ele>161.291</ele>
        <time>2011-04-19T18:22:40Z</time>
      </trkpt>
      <trkpt lat="43.15536" lon="3.09751">
        <ele>161.58299</ele>
        <time>2011-04-19T18:22:41Z</time>
      </trkpt>
      <trkpt lat="43.1554" lon="3.09773">
        <ele>163.072</ele>
        <time>2011-04-19T18:22:46Z</time>
      </trkpt>
      <trkpt lat="43.15543" lon="3.09804">
        <ele>163.15899</ele>
        <time>2011-04-19T18:22:53Z</time>
      </trkpt>
      <trkpt lat="43.15541" lon="3.09835">
        <ele>163.13099</ele>
        <time>2011-04-19T18:23:00Z</time>
      </trkpt>
      <trkpt lat="43.15545" lon="3.0986">
        <ele>162.951</ele>
        <time>2011-04-19T18:23:06Z</time>
      </trkpt>
      <trkpt lat="43.15549" lon="3.0988">
        <ele>163.052</ele>
        <time>2011-04-19T18:23:11Z</time>
      </trkpt>
      <trkpt lat="43.15554" lon="3.09903">
        <ele>162.988</ele>
        <time>2011-04-19T18:23:16Z</time>
      </trkpt>
      <trkpt lat="43.15554" lon="3.09938">
        <ele>163.024</ele>
        <time>2011-04-19T18:23:24Z</time>
      </trkpt>
      <trkpt lat="43.15547" lon="3.09956">
        <ele>163.76199</ele>
        <time>2011-04-19T18:23:29Z</time>
      </trkpt>
      <trkpt lat="43.15537" lon="3.09984">
        <ele>165.473</ele>
        <time>2011-04-19T18:23:36Z</time>
      </trkpt>
      <trkpt lat="43.15535" lon="3.1">
        <ele>165.42599</ele>
        <time>2011-04-19T18:23:39Z</time>
      </trkpt>
      <trkpt lat="43.1554" lon="3.10032">
        <ele>164.656</ele>
        <time>2011-04-19T18:23:47Z</time>
      </trkpt>
      <trkpt lat="43.15541" lon="3.10037">
        <ele>164.423</ele>
        <time>2011-04-19T18:23:48Z</time>
      </trkpt>
      <trkpt lat="43.15542" lon="3.10064">
        <ele>164.798</ele>
        <time>2011-04-19T18:23:54Z</time>
      </trkpt>
      <trkpt lat="43.15543" lon="3.10081">
        <ele>164.90499</ele>
        <time>2011-04-19T18:23:58Z</time>
      </trkpt>
      <trkpt lat="43.15544" lon="3.10118">
        <ele>165.839</ele>
        <time>2011-04-19T18:24:06Z</time>
      </trkpt>
      <trkpt lat="43.15546" lon="3.1014">
        <ele>165.59599</ele>
        <time>2011-04-19T18:24:11Z</time>
      </trkpt>
      <trkpt lat="43.15546" lon="3.10147">
        <ele>165.292</ele>
        <time>2011-04-19T18:24:13Z</time>
      </trkpt>
      <trkpt lat="43.15545" lon="3.10178">
        <ele>164.19299</ele>
        <time>2011-04-19T18:24:20Z</time>
      </trkpt>
      <trkpt lat="43.15548" lon="3.10201">
        <ele>163.966</ele>
        <time>2011-04-19T18:24:25Z</time>
      </trkpt>
      <trkpt lat="43.1555" lon="3.10222">
        <ele>163.962</ele>
        <time>2011-04-19T18:24:30Z</time>
      </trkpt>
      <trkpt lat="43.15551" lon="3.10256">
        <ele>164.173</ele>
        <time>2011-04-19T18:24:37Z</time>
      </trkpt>
      <trkpt lat="43.1555" lon="3.10261">
        <ele>164.22399</ele>
        <time>2011-04-19T18:24:38Z</time>
      </trkpt>
      <trkpt lat="43.15545" lon="3.10282">
        <ele>164.48599</ele>
        <time>2011-04-19T18:24:43Z</time>
      </trkpt>
      <trkpt lat="43.15541" lon="3.10293">
        <ele>165.345</ele>
        <time>2011-04-19T18:24:46Z</time>
      </trkpt>
      <trkpt lat="43.1554" lon="3.10312">
        <ele>165.75799</ele>
        <time>2011-04-19T18:24:50Z</time>
      </trkpt>
      <trkpt lat="43.15538" lon="3.10314">
        <ele>165.82</ele>
        <time>2011-04-19T18:24:51Z</time>
      </trkpt>
      <trkpt lat="43.15531" lon="3.10335">
        <ele>166.58099</ele>
        <time>2011-04-19T18:24:56Z</time>
      </trkpt>
      <trkpt lat="43.15527" lon="3.10348">
        <ele>167.487</ele>
        <time>2011-04-19T18:24:59Z</time>
      </trkpt>
      <trkpt lat="43.15527" lon="3.10358">
        <ele>168.29699</ele>
        <time>2011-04-19T18:25:02Z</time>
      </trkpt>
      <trkpt lat="43.15532" lon="3.10377">
        <ele>169.61399</ele>
        <time>2011-04-19T18:25:06Z</time>
      </trkpt>
      <trkpt lat="43.15537" lon="3.10394">
        <ele>170.49299</ele>
        <time>2011-04-19T18:25:10Z</time>
      </trkpt>
      <trkpt lat="43.15541" lon="3.10414">
        <ele>171.806</ele>
        <time>2011-04-19T18:25:15Z</time>
      </trkpt>
      <trkpt lat="43.15547" lon="3.10445">
        <ele>172.375</ele>
        <time>2011-04-19T18:25:22Z</time>
      </trkpt>
      <trkpt lat="43.15553" lon="3.10465">
        <ele>172.54699</ele>
        <time>2011-04-19T18:25:27Z</time>
      </trkpt>
      <trkpt lat="43.15554" lon="3.10483">
        <ele>172.84399</ele>
        <time>2011-04-19T18:25:31Z</time>
      </trkpt>
      <trkpt lat="43.15558" lon="3.10509">
        <ele>173.55499</ele>
        <time>2011-04-19T18:25:37Z</time>
      </trkpt>
      <trkpt lat="43.15555" lon="3.10527">
        <ele>174.72999</ele>
        <time>2011-04-19T18:25:41Z</time>
      </trkpt>
      <trkpt lat="43.15554" lon="3.10552">
        <ele>176.095</ele>
        <time>2011-04-19T18:25:47Z</time>
      </trkpt>
      <trkpt lat="43.15556" lon="3.10578">
        <ele>177.283</ele>
        <time>2011-04-19T18:25:53Z</time>
      </trkpt>
      <trkpt lat="43.15562" lon="3.106">
        <ele>177.862</ele>
        <time>2011-04-19T18:25:58Z</time>
      </trkpt>
      <trkpt lat="43.15563" lon="3.10615">
        <ele>178.32699</ele>
        <time>2011-04-19T18:26:01Z</time>
      </trkpt>
      <trkpt lat="43.15562" lon="3.10621">
        <ele>178.02</ele>
        <time>2011-04-19T18:26:03Z</time>
      </trkpt>
      <trkpt lat="43.15562" lon="3.10622">
        <ele>177.875</ele>
        <time>2011-04-19T18:26:03Z</time>
      </trkpt>
      <trkpt lat="43.15559" lon="3.10628">
        <ele>177.93899</ele>
        <time>2011-04-19T18:26:05Z</time>
      </trkpt>
      <trkpt lat="43.15559" lon="3.1063">
        <ele>177.87199</ele>
        <time>2011-04-19T18:26:05Z</time>
      </trkpt>
      <trkpt lat="43.15558" lon="3.10638">
        <ele>177.76899</ele>
        <time>2011-04-19T18:26:07Z</time>
      </trkpt>
      <trkpt lat="43.15556" lon="3.10652">
        <ele>177.638</ele>
        <time>2011-04-19T18:26:10Z</time>
      </trkpt>
      <trkpt lat="43.15563" lon="3.10685">
        <ele>177.72599</ele>
        <time>2011-04-19T18:26:18Z</time>
      </trkpt>
      <trkpt lat="43.15574" lon="3.10719">
        <ele>176.449</ele>
        <time>2011-04-19T18:26:26Z</time>
      </trkpt>
      <trkpt lat="43.15582" lon="3.10753">
        <ele>174.69099</ele>
        <time>2011-04-19T18:26:34Z</time>
      </trkpt>
      <trkpt lat="43.15595" lon="3.10812">
        <ele>172.813</ele>
        <time>2011-04-19T18:26:48Z</time>
      </trkpt>
      <trkpt lat="43.15595" lon="3.1087">
        <ele>166.39199</ele>
        <time>2011-04-19T18:27:01Z</time>
      </trkpt>
      <trkpt lat="43.15596" lon="3.10886">
        <ele>162.69299</ele>
        <time>2011-04-19T18:27:05Z</time>
      </trkpt>
      <trkpt lat="43.15598" lon="3.10901">
        <ele>161.66299</ele>
        <time>2011-04-19T18:27:08Z</time>
      </trkpt>
      <trkpt lat="43.15605" lon="3.10912">
        <ele>162.00599</ele>
        <time>2011-04-19T18:27:11Z</time>
      </trkpt>
      <trkpt lat="43.15612" lon="3.10928">
        <ele>162.19099</ele>
        <time>2011-04-19T18:27:15Z</time>
      </trkpt>
      <trkpt lat="43.15614" lon="3.1093">
        <ele>162.889</ele>
        <time>2011-04-19T18:27:16Z</time>
      </trkpt>
      <trkpt lat="43.15616" lon="3.10935">
        <ele>163.639</ele>
        <time>2011-04-19T18:27:18Z</time>
      </trkpt>
      <trkpt lat="43.15619" lon="3.10949">
        <ele>164.393</ele>
        <time>2011-04-19T18:27:21Z</time>
      </trkpt>
      <trkpt lat="43.15622" lon="3.10968">
        <ele>166.481</ele>
        <time>2011-04-19T18:27:25Z</time>
      </trkpt>
      <trkpt lat="43.15622" lon="3.10977">
        <ele>167.15899</ele>
        <time>2011-04-19T18:27:27Z</time>
      </trkpt>
      <trkpt lat="43.15626" lon="3.10991">
        <ele>167.964</ele>
        <time>2011-04-19T18:27:30Z</time>
      </trkpt>
      <trkpt lat="43.15622" lon="3.11006">
        <ele>167.459</ele>
        <time>2011-04-19T18:27:34Z</time>
      </trkpt>
      <trkpt lat="43.15619" lon="3.11019">
        <ele>167.285</ele>
        <time>2011-04-19T18:27:37Z</time>
      </trkpt>
      <trkpt lat="43.15622" lon="3.11027">
        <ele>167.46299</ele>
        <time>2011-04-19T18:27:39Z</time>
      </trkpt>
      <trkpt lat="43.15625" lon="3.11029">
        <ele>169.712</ele>
        <time>2011-04-19T18:27:40Z</time>
      </trkpt>
      <trkpt lat="43.15625" lon="3.11029">
        <ele>169.82299</ele>
        <time>2011-04-19T18:27:40Z</time>
      </trkpt>
      <trkpt lat="43.15618" lon="3.11057">
        <ele>163.272</ele>
        <time>2011-04-19T18:27:47Z</time>
      </trkpt>
      <trkpt lat="43.15617" lon="3.11059">
        <ele>162.145</ele>
        <time>2011-04-19T18:27:48Z</time>
      </trkpt>
      <trkpt lat="43.15607" lon="3.11062">
        <ele>157.535</ele>
        <time>2011-04-19T18:27:50Z</time>
      </trkpt>
      <trkpt lat="43.15607" lon="3.11063">
        <ele>157.31599</ele>
        <time>2011-04-19T18:27:51Z</time>
      </trkpt>
      <trkpt lat="43.15595" lon="3.11064">
        <ele>155.587</ele>
        <time>2011-04-19T18:27:54Z</time>
      </trkpt>
      <trkpt lat="43.15584" lon="3.11068">
        <ele>151.281</ele>
        <time>2011-04-19T18:27:58Z</time>
      </trkpt>
      <trkpt lat="43.1557" lon="3.11063">
        <ele>146.38299</ele>
        <time>2011-04-19T18:28:02Z</time>
      </trkpt>
      <trkpt lat="43.15568" lon="3.11061">
        <ele>145.455</ele>
        <time>2011-04-19T18:28:03Z</time>
      </trkpt>
      <trkpt lat="43.1556" lon="3.11061">
        <ele>142.417</ele>
        <time>2011-04-19T18:28:05Z</time>
      </trkpt>
      <trkpt lat="43.1555" lon="3.11055">
        <ele>139.67199</ele>
        <time>2011-04-19T18:28:09Z</time>
      </trkpt>
      <trkpt lat="43.15545" lon="3.11043">
        <ele>137.25</ele>
        <time>2011-04-19T18:28:12Z</time>
      </trkpt>
      <trkpt lat="43.15548" lon="3.11032">
        <ele>136.74</ele>
        <time>2011-04-19T18:28:15Z</time>
      </trkpt>
      <trkpt lat="43.15544" lon="3.11025">
        <ele>136.102</ele>
        <time>2011-04-19T18:28:17Z</time>
      </trkpt>
      <trkpt lat="43.15528" lon="3.11028">
        <ele>131.072</ele>
        <time>2011-04-19T18:28:21Z</time>
      </trkpt>
      <trkpt lat="43.15526" lon="3.11032">
        <ele>130.13</ele>
        <time>2011-04-19T18:28:23Z</time>
      </trkpt>
      <trkpt lat="43.15519" lon="3.1105">
        <ele>128.63499</ele>
        <time>2011-04-19T18:28:27Z</time>
      </trkpt>
      <trkpt lat="43.15512" lon="3.11072">
        <ele>124.18399</ele>
        <time>2011-04-19T18:28:33Z</time>
      </trkpt>
      <trkpt lat="43.15511" lon="3.11074">
        <ele>123.427</ele>
        <time>2011-04-19T18:28:33Z</time>
      </trkpt>
      <trkpt lat="43.1551" lon="3.11074">
        <ele>123.251</ele>
        <time>2011-04-19T18:28:33Z</time>
      </trkpt>
      <trkpt lat="43.15506" lon="3.11077">
        <ele>123.457</ele>
        <time>2011-04-19T18:28:35Z</time>
      </trkpt>
      <trkpt lat="43.15503" lon="3.11077">
        <ele>123.52999</ele>
        <time>2011-04-19T18:28:36Z</time>
      </trkpt>
      <trkpt lat="43.15494" lon="3.11085">
        <ele>123.13999</ele>
        <time>2011-04-19T18:28:39Z</time>
      </trkpt>
      <trkpt lat="43.15484" lon="3.11087">
        <ele>122.86699</ele>
        <time>2011-04-19T18:28:42Z</time>
      </trkpt>
      <trkpt lat="43.15473" lon="3.111">
        <ele>121.47399</ele>
        <time>2011-04-19T18:28:47Z</time>
      </trkpt>
      <trkpt lat="43.15471" lon="3.11108">
        <ele>118.98</ele>
        <time>2011-04-19T18:28:48Z</time>
      </trkpt>
      <trkpt lat="43.15476" lon="3.11121">
        <ele>118.45099</ele>
        <time>2011-04-19T18:28:52Z</time>
      </trkpt>
      <trkpt lat="43.15472" lon="3.11143">
        <ele>118.579</ele>
        <time>2011-04-19T18:28:57Z</time>
      </trkpt>
      <trkpt lat="43.15461" lon="3.11161">
        <ele>117.566</ele>
        <time>2011-04-19T18:29:02Z</time>
      </trkpt>
      <trkpt lat="43.15439" lon="3.11188">
        <ele>115.232</ele>
        <time>2011-04-19T18:29:11Z</time>
      </trkpt>
      <trkpt lat="43.15422" lon="3.11207">
        <ele>112.09899</ele>
        <time>2011-04-19T18:29:18Z</time>
      </trkpt>
      <trkpt lat="43.15419" lon="3.11205">
        <ele>111.98899</ele>
        <time>2011-04-19T18:29:19Z</time>
      </trkpt>
      <trkpt lat="43.1541" lon="3.11196">
        <ele>111.939</ele>
        <time>2011-04-19T18:29:22Z</time>
      </trkpt>
      <trkpt lat="43.15408" lon="3.11194">
        <ele>112.151</ele>
        <time>2011-04-19T18:29:23Z</time>
      </trkpt>
      <trkpt lat="43.15379" lon="3.1118">
        <ele>114.39199</ele>
        <time>2011-04-19T18:29:33Z</time>
      </trkpt>
      <trkpt lat="43.15364" lon="3.11175">
        <ele>113.841</ele>
        <time>2011-04-19T18:29:37Z</time>
      </trkpt>
      <trkpt lat="43.1535" lon="3.1117">
        <ele>115.052</ele>
        <time>2011-04-19T18:29:42Z</time>
      </trkpt>
      <trkpt lat="43.15348" lon="3.11176">
        <ele>108.21499</ele>
        <time>2011-04-19T18:29:44Z</time>
      </trkpt>
      <trkpt lat="43.15341" lon="3.11196">
        <ele>108.883</ele>
        <time>2011-04-19T18:29:48Z</time>
      </trkpt>
      <trkpt lat="43.15336" lon="3.11219">
        <ele>111.346</ele>
        <time>2011-04-19T18:29:54Z</time>
      </trkpt>
      <trkpt lat="43.15339" lon="3.11245">
        <ele>112.22599</ele>
        <time>2011-04-19T18:30:00Z</time>
      </trkpt>
      <trkpt lat="43.15349" lon="3.11271">
        <ele>112.538</ele>
        <time>2011-04-19T18:30:06Z</time>
      </trkpt>
      <trkpt lat="43.15353" lon="3.11296">
        <ele>112.54699</ele>
        <time>2011-04-19T18:30:12Z</time>
      </trkpt>
      <trkpt lat="43.15353" lon="3.11308">
        <ele>111.773</ele>
        <time>2011-04-19T18:30:15Z</time>
      </trkpt>
      <trkpt lat="43.15365" lon="3.11344">
        <ele>110.58999</ele>
        <time>2011-04-19T18:30:24Z</time>
      </trkpt>
      <trkpt lat="43.15381" lon="3.11349">
        <ele>109.26699</ele>
        <time>2011-04-19T18:30:29Z</time>
      </trkpt>
      <trkpt lat="43.15404" lon="3.11362">
        <ele>107.984</ele>
        <time>2011-04-19T18:30:36Z</time>
      </trkpt>
      <trkpt lat="43.15418" lon="3.11394">
        <ele>104.82599</ele>
        <time>2011-04-19T18:30:45Z</time>
      </trkpt>
      <trkpt lat="43.1542" lon="3.11403">
        <ele>104.22699</ele>
        <time>2011-04-19T18:30:47Z</time>
      </trkpt>
      <trkpt lat="43.1542" lon="3.1144">
        <ele>101.746</ele>
        <time>2011-04-19T18:30:55Z</time>
      </trkpt>
      <trkpt lat="43.15415" lon="3.11473">
        <ele>99.054001</ele>
        <time>2011-04-19T18:31:03Z</time>
      </trkpt>
      <trkpt lat="43.15413" lon="3.11493">
        <ele>97.210999</ele>
        <time>2011-04-19T18:31:07Z</time>
      </trkpt>
      <trkpt lat="43.15414" lon="3.115">
        <ele>96.559998</ele>
        <time>2011-04-19T18:31:09Z</time>
      </trkpt>
      <trkpt lat="43.15416" lon="3.11512">
        <ele>95.574997</ele>
        <time>2011-04-19T18:31:12Z</time>
      </trkpt>
      <trkpt lat="43.15421" lon="3.11534">
        <ele>94.887001</ele>
        <time>2011-04-19T18:31:17Z</time>
      </trkpt>
      <trkpt lat="43.15421" lon="3.11534">
        <ele>94.579002</ele>
        <time>2011-04-19T18:31:17Z</time>
      </trkpt>
      <trkpt lat="43.15419" lon="3.11537">
        <ele>96.120003</ele>
        <time>2011-04-19T18:31:17Z</time>
      </trkpt>
      <trkpt lat="43.15418" lon="3.11538">
        <ele>96.953003</ele>
        <time>2011-04-19T18:31:18Z</time>
      </trkpt>
      <trkpt lat="43.15417" lon="3.11544">
        <ele>98.273003</ele>
        <time>2011-04-19T18:31:19Z</time>
      </trkpt>
      <trkpt lat="43.15416" lon="3.11549">
        <ele>100.067</ele>
        <time>2011-04-19T18:31:21Z</time>
      </trkpt>
      <trkpt lat="43.15413" lon="3.11554">
        <ele>101.178</ele>
        <time>2011-04-19T18:31:22Z</time>
      </trkpt>
      <trkpt lat="43.15413" lon="3.11554">
        <ele>101.234</ele>
        <time>2011-04-19T18:31:22Z</time>
      </trkpt>
      <trkpt lat="43.15413" lon="3.11581">
        <ele>103.527</ele>
        <time>2011-04-19T18:31:28Z</time>
      </trkpt>
      <trkpt lat="43.15417" lon="3.11601">
        <ele>104.688</ele>
        <time>2011-04-19T18:31:33Z</time>
      </trkpt>
      <trkpt lat="43.15426" lon="3.11618">
        <ele>104.958</ele>
        <time>2011-04-19T18:31:37Z</time>
      </trkpt>
      <trkpt lat="43.15432" lon="3.11633">
        <ele>104.18699</ele>
        <time>2011-04-19T18:31:41Z</time>
      </trkpt>
      <trkpt lat="43.15438" lon="3.11655">
        <ele>103.94699</ele>
        <time>2011-04-19T18:31:47Z</time>
      </trkpt>
      <trkpt lat="43.15442" lon="3.11668">
        <ele>103.648</ele>
        <time>2011-04-19T18:31:50Z</time>
      </trkpt>
      <trkpt lat="43.15449" lon="3.11692">
        <ele>102.68499</ele>
        <time>2011-04-19T18:31:56Z</time>
      </trkpt>
      <trkpt lat="43.15452" lon="3.11711">
        <ele>101.98799</ele>
        <time>2011-04-19T18:32:00Z</time>
      </trkpt>
      <trkpt lat="43.15449" lon="3.11737">
        <ele>101.688</ele>
        <time>2011-04-19T18:32:06Z</time>
      </trkpt>
      <trkpt lat="43.15446" lon="3.1176">
        <ele>101.305</ele>
        <time>2011-04-19T18:32:11Z</time>
      </trkpt>
      <trkpt lat="43.15446" lon="3.11782">
        <ele>101.261</ele>
        <time>2011-04-19T18:32:16Z</time>
      </trkpt>
      <trkpt lat="43.15443" lon="3.11803">
        <ele>101.453</ele>
        <time>2011-04-19T18:32:21Z</time>
      </trkpt>
      <trkpt lat="43.15439" lon="3.11823">
        <ele>102.235</ele>
        <time>2011-04-19T18:32:26Z</time>
      </trkpt>
      <trkpt lat="43.15437" lon="3.11829">
        <ele>103.30699</ele>
        <time>2011-04-19T18:32:27Z</time>
      </trkpt>
      <trkpt lat="43.15428" lon="3.11838">
        <ele>105.49199</ele>
        <time>2011-04-19T18:32:31Z</time>
      </trkpt>
      <trkpt lat="43.15417" lon="3.11857">
        <ele>107.21299</ele>
        <time>2011-04-19T18:32:36Z</time>
      </trkpt>
      <trkpt lat="43.15414" lon="3.11861">
        <ele>106.72399</ele>
        <time>2011-04-19T18:32:37Z</time>
      </trkpt>
      <trkpt lat="43.15413" lon="3.11865">
        <ele>106.69599</ele>
        <time>2011-04-19T18:32:38Z</time>
      </trkpt>
      <trkpt lat="43.15403" lon="3.11874">
        <ele>105.98799</ele>
        <time>2011-04-19T18:32:42Z</time>
      </trkpt>
      <trkpt lat="43.15396" lon="3.11882">
        <ele>105.707</ele>
        <time>2011-04-19T18:32:45Z</time>
      </trkpt>
      <trkpt lat="43.15386" lon="3.11904">
        <ele>104.37999</ele>
        <time>2011-04-19T18:32:50Z</time>
      </trkpt>
      <trkpt lat="43.15382" lon="3.11929">
        <ele>102.331</ele>
        <time>2011-04-19T18:32:56Z</time>
      </trkpt>
      <trkpt lat="43.15366" lon="3.11977">
        <ele>96.469002</ele>
        <time>2011-04-19T18:33:08Z</time>
      </trkpt>
      <trkpt lat="43.15345" lon="3.11992">
        <ele>93.919998</ele>
        <time>2011-04-19T18:33:15Z</time>
      </trkpt>
      <trkpt lat="43.15327" lon="3.1201">
        <ele>92.353996</ele>
        <time>2011-04-19T18:33:22Z</time>
      </trkpt>
      <trkpt lat="43.15323" lon="3.12015">
        <ele>91.794998</ele>
        <time>2011-04-19T18:33:24Z</time>
      </trkpt>
      <trkpt lat="43.1531" lon="3.1203">
        <ele>90.552002</ele>
        <time>2011-04-19T18:33:29Z</time>
      </trkpt>
      <trkpt lat="43.15299" lon="3.12038">
        <ele>90.484001</ele>
        <time>2011-04-19T18:33:33Z</time>
      </trkpt>
      <trkpt lat="43.15289" lon="3.1204">
        <ele>89.667</ele>
        <time>2011-04-19T18:33:36Z</time>
      </trkpt>
      <trkpt lat="43.1528" lon="3.12036">
        <ele>90.268997</ele>
        <time>2011-04-19T18:33:39Z</time>
      </trkpt>
      <trkpt lat="43.15251" lon="3.1203">
        <ele>91.274002</ele>
        <time>2011-04-19T18:33:48Z</time>
      </trkpt>
      <trkpt lat="43.15231" lon="3.12032">
        <ele>91.710999</ele>
        <time>2011-04-19T18:33:54Z</time>
      </trkpt>
      <trkpt lat="43.15221" lon="3.12031">
        <ele>91.975998</ele>
        <time>2011-04-19T18:33:57Z</time>
      </trkpt>
      <trkpt lat="43.15191" lon="3.12033">
        <ele>92.077004</ele>
        <time>2011-04-19T18:34:07Z</time>
      </trkpt>
      <trkpt lat="43.15171" lon="3.12035">
        <ele>90.828003</ele>
        <time>2011-04-19T18:34:13Z</time>
      </trkpt>
      <trkpt lat="43.15148" lon="3.12034">
        <ele>90.027</ele>
        <time>2011-04-19T18:34:20Z</time>
      </trkpt>
      <trkpt lat="43.15133" lon="3.12029">
        <ele>90.045998</ele>
        <time>2011-04-19T18:34:24Z</time>
      </trkpt>
      <trkpt lat="43.1512" lon="3.12026">
        <ele>88.606003</ele>
        <time>2011-04-19T18:34:29Z</time>
      </trkpt>
      <trkpt lat="43.15111" lon="3.12028">
        <ele>87.303001</ele>
        <time>2011-04-19T18:34:31Z</time>
      </trkpt>
      <trkpt lat="43.15083" lon="3.12021">
        <ele>83.739998</ele>
        <time>2011-04-19T18:34:40Z</time>
      </trkpt>
      <trkpt lat="43.15059" lon="3.1201">
        <ele>80.089996</ele>
        <time>2011-04-19T18:34:48Z</time>
      </trkpt>
      <trkpt lat="43.15039" lon="3.11997">
        <ele>77.363998</ele>
        <time>2011-04-19T18:34:55Z</time>
      </trkpt>
      <trkpt lat="43.15024" lon="3.11984">
        <ele>75.822998</ele>
        <time>2011-04-19T18:35:00Z</time>
      </trkpt>
      <trkpt lat="43.15001" lon="3.11968">
        <ele>73.293999</ele>
        <time>2011-04-19T18:35:08Z</time>
      </trkpt>
      <trkpt lat="43.14998" lon="3.11968">
        <ele>73.07</ele>
        <time>2011-04-19T18:35:09Z</time>
      </trkpt>
      <trkpt lat="43.14997" lon="3.11967">
        <ele>72.794998</ele>
        <time>2011-04-19T18:35:09Z</time>
      </trkpt>
      <trkpt lat="43.14993" lon="3.11963">
        <ele>73.204002</ele>
        <time>2011-04-19T18:35:11Z</time>
      </trkpt>
      <trkpt lat="43.14993" lon="3.1196">
        <ele>73.200996</ele>
        <time>2011-04-19T18:35:12Z</time>
      </trkpt>
      <trkpt lat="43.14996" lon="3.11953">
        <ele>73.503998</ele>
        <time>2011-04-19T18:35:13Z</time>
      </trkpt>
      <trkpt lat="43.14997" lon="3.11944">
        <ele>73.883003</ele>
        <time>2011-04-19T18:35:15Z</time>
      </trkpt>
      <trkpt lat="43.15002" lon="3.1193">
        <ele>74.194</ele>
        <time>2011-04-19T18:35:19Z</time>
      </trkpt>
      <trkpt lat="43.15001" lon="3.11925">
        <ele>74.320999</ele>
        <time>2011-04-19T18:35:20Z</time>
      </trkpt>
      <trkpt lat="43.15003" lon="3.11914">
        <ele>74.789001</ele>
        <time>2011-04-19T18:35:22Z</time>
      </trkpt>
      <trkpt lat="43.15005" lon="3.11908">
        <ele>75.047996</ele>
        <time>2011-04-19T18:35:24Z</time>
      </trkpt>
      <trkpt lat="43.15004" lon="3.11899">
        <ele>75.417999</ele>
        <time>2011-04-19T18:35:26Z</time>
      </trkpt>
      <trkpt lat="43.14999" lon="3.11886">
        <ele>75.484001</ele>
        <time>2011-04-19T18:35:29Z</time>
      </trkpt>
      <trkpt lat="43.14998" lon="3.11881">
        <ele>75.874</ele>
        <time>2011-04-19T18:35:30Z</time>
      </trkpt>
      <trkpt lat="43.14998" lon="3.11877">
        <ele>75.317001</ele>
        <time>2011-04-19T18:35:31Z</time>
      </trkpt>
      <trkpt lat="43.15001" lon="3.11865">
        <ele>75.813003</ele>
        <time>2011-04-19T18:35:34Z</time>
      </trkpt>
      <trkpt lat="43.15001" lon="3.11856">
        <ele>75.888001</ele>
        <time>2011-04-19T18:35:36Z</time>
      </trkpt>
      <trkpt lat="43.14999" lon="3.11851">
        <ele>75.751999</ele>
        <time>2011-04-19T18:35:38Z</time>
      </trkpt>
      <trkpt lat="43.14999" lon="3.11828">
        <ele>75.195</ele>
        <time>2011-04-19T18:35:43Z</time>
      </trkpt>
      <trkpt lat="43.14993" lon="3.1181">
        <ele>73.957001</ele>
        <time>2011-04-19T18:35:47Z</time>
      </trkpt>
      <trkpt lat="43.14991" lon="3.11799">
        <ele>73.724998</ele>
        <time>2011-04-19T18:35:50Z</time>
      </trkpt>
      <trkpt lat="43.14989" lon="3.11789">
        <ele>74.337997</ele>
        <time>2011-04-19T18:35:52Z</time>
      </trkpt>
      <trkpt lat="43.14992" lon="3.11774">
        <ele>75.635002</ele>
        <time>2011-04-19T18:35:55Z</time>
      </trkpt>
      <trkpt lat="43.14993" lon="3.11757">
        <ele>77.292</ele>
        <time>2011-04-19T18:35:59Z</time>
      </trkpt>
      <trkpt lat="43.14998" lon="3.11748">
        <ele>78.25</ele>
        <time>2011-04-19T18:36:02Z</time>
      </trkpt>
      <trkpt lat="43.15005" lon="3.11737">
        <ele>79.700996</ele>
        <time>2011-04-19T18:36:05Z</time>
      </trkpt>
      <trkpt lat="43.15008" lon="3.11728">
        <ele>80.824997</ele>
        <time>2011-04-19T18:36:07Z</time>
      </trkpt>
      <trkpt lat="43.14999" lon="3.11719">
        <ele>80.714996</ele>
        <time>2011-04-19T18:36:11Z</time>
      </trkpt>
      <trkpt lat="43.14994" lon="3.11715">
        <ele>80.809998</ele>
        <time>2011-04-19T18:36:12Z</time>
      </trkpt>
      <trkpt lat="43.14977" lon="3.11719">
        <ele>79.817001</ele>
        <time>2011-04-19T18:36:18Z</time>
      </trkpt>
      <trkpt lat="43.14966" lon="3.11723">
        <ele>78.443001</ele>
        <time>2011-04-19T18:36:21Z</time>
      </trkpt>
      <trkpt lat="43.14959" lon="3.11729">
        <ele>76.803001</ele>
        <time>2011-04-19T18:36:24Z</time>
      </trkpt>
      <trkpt lat="43.14956" lon="3.1173">
        <ele>77.008003</ele>
        <time>2011-04-19T18:36:25Z</time>
      </trkpt>
      <trkpt lat="43.14932" lon="3.11744">
        <ele>73.984001</ele>
        <time>2011-04-19T18:36:33Z</time>
      </trkpt>
      <trkpt lat="43.14928" lon="3.11749">
        <ele>73.224998</ele>
        <time>2011-04-19T18:36:34Z</time>
      </trkpt>
      <trkpt lat="43.14922" lon="3.11755">
        <ele>72.014999</ele>
        <time>2011-04-19T18:36:37Z</time>
      </trkpt>
      <trkpt lat="43.14914" lon="3.11754">
        <ele>71.469002</ele>
        <time>2011-04-19T18:36:39Z</time>
      </trkpt>
      <trkpt lat="43.14901" lon="3.11754">
        <ele>70.573998</ele>
        <time>2011-04-19T18:36:43Z</time>
      </trkpt>
      <trkpt lat="43.14889" lon="3.11757">
        <ele>69.350998</ele>
        <time>2011-04-19T18:36:47Z</time>
      </trkpt>
      <trkpt lat="43.14873" lon="3.11748">
        <ele>68.410004</ele>
        <time>2011-04-19T18:36:52Z</time>
      </trkpt>
      <trkpt lat="43.14856" lon="3.11741">
        <ele>66.995003</ele>
        <time>2011-04-19T18:36:58Z</time>
      </trkpt>
      <trkpt lat="43.14846" lon="3.11748">
        <ele>66.612999</ele>
        <time>2011-04-19T18:37:01Z</time>
      </trkpt>
      <trkpt lat="43.14839" lon="3.11757">
        <ele>66.110001</ele>
        <time>2011-04-19T18:37:04Z</time>
      </trkpt>
      <trkpt lat="43.14828" lon="3.11757">
        <ele>65.991997</ele>
        <time>2011-04-19T18:37:08Z</time>
      </trkpt>
      <trkpt lat="43.14826" lon="3.11756">
        <ele>66.717003</ele>
        <time>2011-04-19T18:37:08Z</time>
      </trkpt>
      <trkpt lat="43.14824" lon="3.11752">
        <ele>67.489998</ele>
        <time>2011-04-19T18:37:09Z</time>
      </trkpt>
      <trkpt lat="43.14822" lon="3.1175">
        <ele>67.890999</ele>
        <time>2011-04-19T18:37:10Z</time>
      </trkpt>
      <trkpt lat="43.14817" lon="3.11742">
        <ele>68.467003</ele>
        <time>2011-04-19T18:37:13Z</time>
      </trkpt>
      <trkpt lat="43.14817" lon="3.11742">
        <ele>68.156998</ele>
        <time>2011-04-19T18:37:13Z</time>
      </trkpt>
      <trkpt lat="43.14816" lon="3.11725">
        <ele>67.926002</ele>
        <time>2011-04-19T18:37:17Z</time>
      </trkpt>
      <trkpt lat="43.14795" lon="3.11734">
        <ele>67</ele>
        <time>2011-04-19T18:37:23Z</time>
      </trkpt>
      <trkpt lat="43.14771" lon="3.11744">
        <ele>65.801002</ele>
        <time>2011-04-19T18:37:31Z</time>
      </trkpt>
      <trkpt lat="43.1475" lon="3.11744">
        <ele>64.524002</ele>
        <time>2011-04-19T18:37:38Z</time>
      </trkpt>
      <trkpt lat="43.14735" lon="3.11742">
        <ele>62.362999</ele>
        <time>2011-04-19T18:37:42Z</time>
      </trkpt>
      <trkpt lat="43.14733" lon="3.11733">
        <ele>63.348999</ele>
        <time>2011-04-19T18:37:44Z</time>
      </trkpt>
      <trkpt lat="43.14731" lon="3.11726">
        <ele>63.07</ele>
        <time>2011-04-19T18:37:46Z</time>
      </trkpt>
      <trkpt lat="43.1472" lon="3.11717">
        <ele>61.952</ele>
        <time>2011-04-19T18:37:50Z</time>
      </trkpt>
      <trkpt lat="43.14696" lon="3.11713">
        <ele>61.132</ele>
        <time>2011-04-19T18:37:57Z</time>
      </trkpt>
      <trkpt lat="43.14671" lon="3.1172">
        <ele>60.07</ele>
        <time>2011-04-19T18:38:05Z</time>
      </trkpt>
      <trkpt lat="43.14661" lon="3.11738">
        <ele>59.658001</ele>
        <time>2011-04-19T18:38:10Z</time>
      </trkpt>
      <trkpt lat="43.14652" lon="3.11748">
        <ele>58.014</ele>
        <time>2011-04-19T18:38:14Z</time>
      </trkpt>
      <trkpt lat="43.14645" lon="3.11751">
        <ele>56.994999</ele>
        <time>2011-04-19T18:38:16Z</time>
      </trkpt>
      <trkpt lat="43.14642" lon="3.11754">
        <ele>56.450001</ele>
        <time>2011-04-19T18:38:17Z</time>
      </trkpt>
      <trkpt lat="43.14641" lon="3.11753">
        <ele>56.459999</ele>
        <time>2011-04-19T18:38:18Z</time>
      </trkpt>
      <trkpt lat="43.14634" lon="3.11759">
        <ele>56.537998</ele>
        <time>2011-04-19T18:38:20Z</time>
      </trkpt>
      <trkpt lat="43.14631" lon="3.11763">
        <ele>56.490002</ele>
        <time>2011-04-19T18:38:21Z</time>
      </trkpt>
      <trkpt lat="43.14626" lon="3.11759">
        <ele>57.014999</ele>
        <time>2011-04-19T18:38:23Z</time>
      </trkpt>
      <trkpt lat="43.14624" lon="3.11757">
        <ele>57.071999</ele>
        <time>2011-04-19T18:38:24Z</time>
      </trkpt>
      <trkpt lat="43.14619" lon="3.11756">
        <ele>56.588001</ele>
        <time>2011-04-19T18:38:25Z</time>
      </trkpt>
      <trkpt lat="43.14606" lon="3.11759">
        <ele>55.839001</ele>
        <time>2011-04-19T18:38:29Z</time>
      </trkpt>
      <trkpt lat="43.14595" lon="3.1177">
        <ele>54.860001</ele>
        <time>2011-04-19T18:38:34Z</time>
      </trkpt>
      <trkpt lat="43.14575" lon="3.11796">
        <ele>52.415001</ele>
        <time>2011-04-19T18:38:42Z</time>
      </trkpt>
      <trkpt lat="43.14572" lon="3.11798">
        <ele>52.464001</ele>
        <time>2011-04-19T18:38:43Z</time>
      </trkpt>
      <trkpt lat="43.14561" lon="3.11796">
        <ele>54.325001</ele>
        <time>2011-04-19T18:38:47Z</time>
      </trkpt>
      <trkpt lat="43.14561" lon="3.11794">
        <ele>54.335999</ele>
        <time>2011-04-19T18:38:47Z</time>
      </trkpt>
      <trkpt lat="43.1456" lon="3.11791">
        <ele>53.846001</ele>
        <time>2011-04-19T18:38:48Z</time>
      </trkpt>
      <trkpt lat="43.1456" lon="3.11785">
        <ele>53.313</ele>
        <time>2011-04-19T18:38:49Z</time>
      </trkpt>
      <trkpt lat="43.14547" lon="3.11773">
        <ele>48.259998</ele>
        <time>2011-04-19T18:38:54Z</time>
      </trkpt>
      <trkpt lat="43.14557" lon="3.11771">
        <ele>49.096</ele>
        <time>2011-04-19T18:38:57Z</time>
      </trkpt>
      <trkpt lat="43.14565" lon="3.11766">
        <ele>50.444</ele>
        <time>2011-04-19T18:38:59Z</time>
      </trkpt>
      <trkpt lat="43.14578" lon="3.11761">
        <ele>51.949001</ele>
        <time>2011-04-19T18:39:04Z</time>
      </trkpt>
      <trkpt lat="43.14585" lon="3.11761">
        <ele>52.363998</ele>
        <time>2011-04-19T18:39:06Z</time>
      </trkpt>
      <trkpt lat="43.14589" lon="3.11758">
        <ele>53.000999</ele>
        <time>2011-04-19T18:39:07Z</time>
      </trkpt>
      <trkpt lat="43.1459" lon="3.11756">
        <ele>53.178001</ele>
        <time>2011-04-19T18:39:08Z</time>
      </trkpt>
      <trkpt lat="43.14592" lon="3.11748">
        <ele>53.407001</ele>
        <time>2011-04-19T18:39:10Z</time>
      </trkpt>
      <trkpt lat="43.14595" lon="3.11744">
        <ele>53.588001</ele>
        <time>2011-04-19T18:39:11Z</time>
      </trkpt>
      <trkpt lat="43.146" lon="3.11743">
        <ele>53.956001</ele>
        <time>2011-04-19T18:39:12Z</time>
      </trkpt>
      <trkpt lat="43.14603" lon="3.1174">
        <ele>54.672</ele>
        <time>2011-04-19T18:39:14Z</time>
      </trkpt>
      <trkpt lat="43.14604" lon="3.11735">
        <ele>55.645</ele>
        <time>2011-04-19T18:39:15Z</time>
      </trkpt>
      <trkpt lat="43.14601" lon="3.11722">
        <ele>56.096</ele>
        <time>2011-04-19T18:39:18Z</time>
      </trkpt>
      <trkpt lat="43.14596" lon="3.11717">
        <ele>57.147998</ele>
        <time>2011-04-19T18:39:20Z</time>
      </trkpt>
      <trkpt lat="43.14588" lon="3.11714">
        <ele>58.247001</ele>
        <time>2011-04-19T18:39:22Z</time>
      </trkpt>
      <trkpt lat="43.14585" lon="3.11711">
        <ele>58.979999</ele>
        <time>2011-04-19T18:39:23Z</time>
      </trkpt>
      <trkpt lat="43.14585" lon="3.11703">
        <ele>60.157001</ele>
        <time>2011-04-19T18:39:25Z</time>
      </trkpt>
      <trkpt lat="43.14589" lon="3.11694">
        <ele>61.257999</ele>
        <time>2011-04-19T18:39:28Z</time>
      </trkpt>
      <trkpt lat="43.14594" lon="3.11689">
        <ele>61.977001</ele>
        <time>2011-04-19T18:39:29Z</time>
      </trkpt>
      <trkpt lat="43.14602" lon="3.11686">
        <ele>63.368999</ele>
        <time>2011-04-19T18:39:32Z</time>
      </trkpt>
      <trkpt lat="43.14611" lon="3.11685">
        <ele>63.980999</ele>
        <time>2011-04-19T18:39:35Z</time>
      </trkpt>
      <trkpt lat="43.14616" lon="3.11681">
        <ele>64.726997</ele>
        <time>2011-04-19T18:39:37Z</time>
      </trkpt>
      <trkpt lat="43.14624" lon="3.11676">
        <ele>65.942001</ele>
        <time>2011-04-19T18:39:39Z</time>
      </trkpt>
      <trkpt lat="43.14628" lon="3.11674">
        <ele>66.315002</ele>
        <time>2011-04-19T18:39:41Z</time>
      </trkpt>
      <trkpt lat="43.14633" lon="3.11671">
        <ele>66.922996</ele>
        <time>2011-04-19T18:39:42Z</time>
      </trkpt>
      <trkpt lat="43.14633" lon="3.11661">
        <ele>66.872001</ele>
        <time>2011-04-19T18:39:45Z</time>
      </trkpt>
      <trkpt lat="43.1463" lon="3.11654">
        <ele>66.716003</ele>
        <time>2011-04-19T18:39:47Z</time>
      </trkpt>
      <trkpt lat="43.14624" lon="3.11643">
        <ele>65.861999</ele>
        <time>2011-04-19T18:39:50Z</time>
      </trkpt>
      <trkpt lat="43.14618" lon="3.11641">
        <ele>65.430999</ele>
        <time>2011-04-19T18:39:51Z</time>
      </trkpt>
      <trkpt lat="43.14613" lon="3.11638">
        <ele>65.427002</ele>
        <time>2011-04-19T18:39:53Z</time>
      </trkpt>
      <trkpt lat="43.14608" lon="3.11631">
        <ele>65.344001</ele>
        <time>2011-04-19T18:39:55Z</time>
      </trkpt>
      <trkpt lat="43.14599" lon="3.11623">
        <ele>63.923</ele>
        <time>2011-04-19T18:39:59Z</time>
      </trkpt>
      <trkpt lat="43.14594" lon="3.11621">
        <ele>62.971</ele>
        <time>2011-04-19T18:40:00Z</time>
      </trkpt>
      <trkpt lat="43.14589" lon="3.11607">
        <ele>62.492</ele>
        <time>2011-04-19T18:40:04Z</time>
      </trkpt>
      <trkpt lat="43.14586" lon="3.11604">
        <ele>62.11</ele>
        <time>2011-04-19T18:40:05Z</time>
      </trkpt>
      <trkpt lat="43.14585" lon="3.11603">
        <ele>61.922</ele>
        <time>2011-04-19T18:40:05Z</time>
      </trkpt>
      <trkpt lat="43.14573" lon="3.11594">
        <ele>59.949001</ele>
        <time>2011-04-19T18:40:10Z</time>
      </trkpt>
      <trkpt lat="43.14562" lon="3.11585">
        <ele>59.345001</ele>
        <time>2011-04-19T18:40:13Z</time>
      </trkpt>
      <trkpt lat="43.14558" lon="3.11586">
        <ele>58.944999</ele>
        <time>2011-04-19T18:40:15Z</time>
      </trkpt>
      <trkpt lat="43.14551" lon="3.11592">
        <ele>57.263999</ele>
        <time>2011-04-19T18:40:17Z</time>
      </trkpt>
      <trkpt lat="43.14544" lon="3.11596">
        <ele>56.041</ele>
        <time>2011-04-19T18:40:20Z</time>
      </trkpt>
      <trkpt lat="43.14537" lon="3.11594">
        <ele>54.988998</ele>
        <time>2011-04-19T18:40:22Z</time>
      </trkpt>
      <trkpt lat="43.14534" lon="3.11601">
        <ele>54.222</ele>
        <time>2011-04-19T18:40:24Z</time>
      </trkpt>
      <trkpt lat="43.14537" lon="3.1161">
        <ele>53.958</ele>
        <time>2011-04-19T18:40:26Z</time>
      </trkpt>
      <trkpt lat="43.14533" lon="3.11611">
        <ele>52.784999</ele>
        <time>2011-04-19T18:40:27Z</time>
      </trkpt>
      <trkpt lat="43.14532" lon="3.11608">
        <ele>52.812999</ele>
        <time>2011-04-19T18:40:28Z</time>
      </trkpt>
      <trkpt lat="43.14529" lon="3.116">
        <ele>53.021999</ele>
        <time>2011-04-19T18:40:30Z</time>
      </trkpt>
      <trkpt lat="43.14528" lon="3.11596">
        <ele>52.222999</ele>
        <time>2011-04-19T18:40:31Z</time>
      </trkpt>
      <trkpt lat="43.14526" lon="3.11594">
        <ele>51.331001</ele>
        <time>2011-04-19T18:40:32Z</time>
      </trkpt>
      <trkpt lat="43.14524" lon="3.11591">
        <ele>50.165</ele>
        <time>2011-04-19T18:40:33Z</time>
      </trkpt>
      <trkpt lat="43.14523" lon="3.11582">
        <ele>51.493999</ele>
        <time>2011-04-19T18:40:35Z</time>
      </trkpt>
      <trkpt lat="43.14534" lon="3.11578">
        <ele>54.609001</ele>
        <time>2011-04-19T18:40:38Z</time>
      </trkpt>
      <trkpt lat="43.14544" lon="3.11575">
        <ele>56.270999</ele>
        <time>2011-04-19T18:40:41Z</time>
      </trkpt>
      <trkpt lat="43.1455" lon="3.11572">
        <ele>57.486</ele>
        <time>2011-04-19T18:40:43Z</time>
      </trkpt>
      <trkpt lat="43.14557" lon="3.1156">
        <ele>60.692001</ele>
        <time>2011-04-19T18:40:47Z</time>
      </trkpt>
      <trkpt lat="43.14566" lon="3.11544">
        <ele>62.830001</ele>
        <time>2011-04-19T18:40:51Z</time>
      </trkpt>
      <trkpt lat="43.14564" lon="3.11535">
        <ele>64.087997</ele>
        <time>2011-04-19T18:40:53Z</time>
      </trkpt>
      <trkpt lat="43.14564" lon="3.11531">
        <ele>64.638999</ele>
        <time>2011-04-19T18:40:54Z</time>
      </trkpt>
      <trkpt lat="43.14565" lon="3.11524">
        <ele>65.454002</ele>
        <time>2011-04-19T18:40:56Z</time>
      </trkpt>
      <trkpt lat="43.14572" lon="3.11513">
        <ele>67.691001</ele>
        <time>2011-04-19T18:40:59Z</time>
      </trkpt>
      <trkpt lat="43.14577" lon="3.115">
        <ele>68.754997</ele>
        <time>2011-04-19T18:41:02Z</time>
      </trkpt>
      <trkpt lat="43.14575" lon="3.11493">
        <ele>68.971</ele>
        <time>2011-04-19T18:41:04Z</time>
      </trkpt>
      <trkpt lat="43.14575" lon="3.11478">
        <ele>69.004997</ele>
        <time>2011-04-19T18:41:07Z</time>
      </trkpt>
      <trkpt lat="43.14574" lon="3.11475">
        <ele>69.013</ele>
        <time>2011-04-19T18:41:08Z</time>
      </trkpt>
      <trkpt lat="43.14571" lon="3.11474">
        <ele>67.924003</ele>
        <time>2011-04-19T18:41:09Z</time>
      </trkpt>
      <trkpt lat="43.14568" lon="3.11479">
        <ele>67.472999</ele>
        <time>2011-04-19T18:41:11Z</time>
      </trkpt>
      <trkpt lat="43.14562" lon="3.11481">
        <ele>64.690002</ele>
        <time>2011-04-19T18:41:12Z</time>
      </trkpt>
      <trkpt lat="43.14562" lon="3.11481">
        <ele>64.539001</ele>
        <time>2011-04-19T18:41:12Z</time>
      </trkpt>
      <trkpt lat="43.14557" lon="3.11479">
        <ele>62.918998</ele>
        <time>2011-04-19T18:41:14Z</time>
      </trkpt>
      <trkpt lat="43.14549" lon="3.1148">
        <ele>60.034</ele>
        <time>2011-04-19T18:41:17Z</time>
      </trkpt>
      <trkpt lat="43.14542" lon="3.11475">
        <ele>58.222</ele>
        <time>2011-04-19T18:41:19Z</time>
      </trkpt>
      <trkpt lat="43.1454" lon="3.11472">
        <ele>57.605999</ele>
        <time>2011-04-19T18:41:20Z</time>
      </trkpt>
      <trkpt lat="43.14537" lon="3.11462">
        <ele>56.051998</ele>
        <time>2011-04-19T18:41:23Z</time>
      </trkpt>
      <trkpt lat="43.14534" lon="3.11448">
        <ele>56.345001</ele>
        <time>2011-04-19T18:41:26Z</time>
      </trkpt>
      <trkpt lat="43.14531" lon="3.11443">
        <ele>56.694999</ele>
        <time>2011-04-19T18:41:27Z</time>
      </trkpt>
      <trkpt lat="43.14529" lon="3.1144">
        <ele>56.844001</ele>
        <time>2011-04-19T18:41:28Z</time>
      </trkpt>
      <trkpt lat="43.14522" lon="3.11429">
        <ele>57.119998</ele>
        <time>2011-04-19T18:41:31Z</time>
      </trkpt>
      <trkpt lat="43.14518" lon="3.11426">
        <ele>57.021999</ele>
        <time>2011-04-19T18:41:33Z</time>
      </trkpt>
      <trkpt lat="43.14515" lon="3.11416">
        <ele>57.289001</ele>
        <time>2011-04-19T18:41:35Z</time>
      </trkpt>
      <trkpt lat="43.14512" lon="3.11409">
        <ele>57.182998</ele>
        <time>2011-04-19T18:41:37Z</time>
      </trkpt>
      <trkpt lat="43.14514" lon="3.11389">
        <ele>58.530998</ele>
        <time>2011-04-19T18:41:41Z</time>
      </trkpt>
      <trkpt lat="43.14522" lon="3.11377">
        <ele>58.959999</ele>
        <time>2011-04-19T18:41:45Z</time>
      </trkpt>
      <trkpt lat="43.14524" lon="3.11375">
        <ele>59.083</ele>
        <time>2011-04-19T18:41:46Z</time>
      </trkpt>
      <trkpt lat="43.14526" lon="3.11366">
        <ele>59.039001</ele>
        <time>2011-04-19T18:41:48Z</time>
      </trkpt>
      <trkpt lat="43.14526" lon="3.11365">
        <ele>59.027</ele>
        <time>2011-04-19T18:41:48Z</time>
      </trkpt>
      <trkpt lat="43.14525" lon="3.11357">
        <ele>59.037998</ele>
        <time>2011-04-19T18:41:50Z</time>
      </trkpt>
      <trkpt lat="43.14525" lon="3.11356">
        <ele>58.909999</ele>
        <time>2011-04-19T18:41:50Z</time>
      </trkpt>
      <trkpt lat="43.14525" lon="3.11351">
        <ele>58.493</ele>
        <time>2011-04-19T18:41:51Z</time>
      </trkpt>
      <trkpt lat="43.14523" lon="3.11349">
        <ele>58.498001</ele>
        <time>2011-04-19T18:41:52Z</time>
      </trkpt>
      <trkpt lat="43.14519" lon="3.11347">
        <ele>58.974998</ele>
        <time>2011-04-19T18:41:53Z</time>
      </trkpt>
      <trkpt lat="43.14515" lon="3.11341">
        <ele>59.145</ele>
        <time>2011-04-19T18:41:55Z</time>
      </trkpt>
      <trkpt lat="43.1451" lon="3.11343">
        <ele>59.458</ele>
        <time>2011-04-19T18:41:57Z</time>
      </trkpt>
      <trkpt lat="43.14503" lon="3.11344">
        <ele>60.233001</ele>
        <time>2011-04-19T18:41:59Z</time>
      </trkpt>
      <trkpt lat="43.14494" lon="3.11338">
        <ele>61.513</ele>
        <time>2011-04-19T18:42:02Z</time>
      </trkpt>
      <trkpt lat="43.14485" lon="3.11339">
        <ele>63.132999</ele>
        <time>2011-04-19T18:42:05Z</time>
      </trkpt>
      <trkpt lat="43.14484" lon="3.11339">
        <ele>63.062</ele>
        <time>2011-04-19T18:42:05Z</time>
      </trkpt>
      <trkpt lat="43.14479" lon="3.11348">
        <ele>63.544998</ele>
        <time>2011-04-19T18:42:07Z</time>
      </trkpt>
      <trkpt lat="43.14479" lon="3.11348">
        <ele>63.382</ele>
        <time>2011-04-19T18:42:07Z</time>
      </trkpt>
      <trkpt lat="43.14483" lon="3.11343">
        <ele>63.053001</ele>
        <time>2011-04-19T18:42:09Z</time>
      </trkpt>
      <trkpt lat="43.14482" lon="3.11342">
        <ele>63.054</ele>
        <time>2011-04-19T18:42:09Z</time>
      </trkpt>
      <trkpt lat="43.14488" lon="3.11327">
        <ele>62.952999</ele>
        <time>2011-04-19T18:42:13Z</time>
      </trkpt>
      <trkpt lat="43.14486" lon="3.11331">
        <ele>63.094001</ele>
        <time>2011-04-19T18:42:14Z</time>
      </trkpt>
      <trkpt lat="43.14484" lon="3.11335">
        <ele>63.233001</ele>
        <time>2011-04-19T18:42:15Z</time>
      </trkpt>
      <trkpt lat="43.14478" lon="3.11348">
        <ele>63.640998</ele>
        <time>2011-04-19T18:42:19Z</time>
      </trkpt>
      <trkpt lat="43.14475" lon="3.11349">
        <ele>63.951</ele>
        <time>2011-04-19T18:42:19Z</time>
      </trkpt>
      <trkpt lat="43.14464" lon="3.11344">
        <ele>65.190002</ele>
        <time>2011-04-19T18:42:23Z</time>
      </trkpt>
      <trkpt lat="43.14455" lon="3.1133">
        <ele>65.900001</ele>
        <time>2011-04-19T18:42:27Z</time>
      </trkpt>
      <trkpt lat="43.14458" lon="3.11313">
        <ele>66.787002</ele>
        <time>2011-04-19T18:42:31Z</time>
      </trkpt>
      <trkpt lat="43.14466" lon="3.11298">
        <ele>55.66</ele>
        <time>2011-04-19T18:42:35Z</time>
      </trkpt>
      <trkpt lat="43.14475" lon="3.11279">
        <ele>56.073002</ele>
        <time>2011-04-19T18:42:40Z</time>
      </trkpt>
      <trkpt lat="43.14489" lon="3.1126">
        <ele>57.195</ele>
        <time>2011-04-19T18:42:46Z</time>
      </trkpt>
      <trkpt lat="43.14505" lon="3.11248">
        <ele>58.209999</ele>
        <time>2011-04-19T18:42:52Z</time>
      </trkpt>
      <trkpt lat="43.14521" lon="3.11233">
        <ele>58.512001</ele>
        <time>2011-04-19T18:42:58Z</time>
      </trkpt>
      <trkpt lat="43.14539" lon="3.11214">
        <ele>59.354999</ele>
        <time>2011-04-19T18:43:05Z</time>
      </trkpt>
      <trkpt lat="43.14555" lon="3.11195">
        <ele>60.487</ele>
        <time>2011-04-19T18:43:11Z</time>
      </trkpt>
      <trkpt lat="43.14581" lon="3.11172">
        <ele>60.741001</ele>
        <time>2011-04-19T18:43:21Z</time>
      </trkpt>
      <trkpt lat="43.14598" lon="3.11157">
        <ele>61.897999</ele>
        <time>2011-04-19T18:43:27Z</time>
      </trkpt>
      <trkpt lat="43.14615" lon="3.11138">
        <ele>63.160999</ele>
        <time>2011-04-19T18:43:34Z</time>
      </trkpt>
      <trkpt lat="43.1463" lon="3.11121">
        <ele>64.526001</ele>
        <time>2011-04-19T18:43:40Z</time>
      </trkpt>
      <trkpt lat="43.14647" lon="3.11108">
        <ele>65.785004</ele>
        <time>2011-04-19T18:43:46Z</time>
      </trkpt>
      <trkpt lat="43.14663" lon="3.1109">
        <ele>66.495003</ele>
        <time>2011-04-19T18:43:52Z</time>
      </trkpt>
      <trkpt lat="43.14679" lon="3.1107">
        <ele>67.037003</ele>
        <time>2011-04-19T18:43:59Z</time>
      </trkpt>
      <trkpt lat="43.14695" lon="3.11047">
        <ele>68.858002</ele>
        <time>2011-04-19T18:44:06Z</time>
      </trkpt>
      <trkpt lat="43.14711" lon="3.11021">
        <ele>70.446999</ele>
        <time>2011-04-19T18:44:14Z</time>
      </trkpt>
      <trkpt lat="43.14719" lon="3.10999">
        <ele>69.726997</ele>
        <time>2011-04-19T18:44:19Z</time>
      </trkpt>
      <trkpt lat="43.1471" lon="3.10998">
        <ele>88.015998</ele>
        <time>2011-04-19T18:44:22Z</time>
      </trkpt>
      <trkpt lat="43.14706" lon="3.10999">
        <ele>87.948997</ele>
        <time>2011-04-19T18:44:24Z</time>
      </trkpt>
      <trkpt lat="43.14681" lon="3.11005">
        <ele>87.644996</ele>
        <time>2011-04-19T18:44:31Z</time>
      </trkpt>
      <trkpt lat="43.14664" lon="3.11015">
        <ele>86.498001</ele>
        <time>2011-04-19T18:44:37Z</time>
      </trkpt>
      <trkpt lat="43.14645" lon="3.11024">
        <ele>84.666</ele>
        <time>2011-04-19T18:44:43Z</time>
      </trkpt>
      <trkpt lat="43.14641" lon="3.1101">
        <ele>83.705001</ele>
        <time>2011-04-19T18:44:47Z</time>
      </trkpt>
      <trkpt lat="43.14642" lon="3.10997">
        <ele>84.195999</ele>
        <time>2011-04-19T18:44:50Z</time>
      </trkpt>
      <trkpt lat="43.14647" lon="3.10983">
        <ele>85.93</ele>
        <time>2011-04-19T18:44:53Z</time>
      </trkpt>
      <trkpt lat="43.14647" lon="3.1098">
        <ele>85.876998</ele>
        <time>2011-04-19T18:44:54Z</time>
      </trkpt>
      <trkpt lat="43.14647" lon="3.10975">
        <ele>86.558998</ele>
        <time>2011-04-19T18:44:55Z</time>
      </trkpt>
      <trkpt lat="43.14649" lon="3.10964">
        <ele>87.975997</ele>
        <time>2011-04-19T18:44:57Z</time>
      </trkpt>
      <trkpt lat="43.14656" lon="3.10955">
        <ele>89.639999</ele>
        <time>2011-04-19T18:45:00Z</time>
      </trkpt>
      <trkpt lat="43.14664" lon="3.10935">
        <ele>90.819</ele>
        <time>2011-04-19T18:45:06Z</time>
      </trkpt>
      <trkpt lat="43.14667" lon="3.1093">
        <ele>91.555</ele>
        <time>2011-04-19T18:45:07Z</time>
      </trkpt>
      <trkpt lat="43.14673" lon="3.10925">
        <ele>92.411003</ele>
        <time>2011-04-19T18:45:09Z</time>
      </trkpt>
      <trkpt lat="43.14682" lon="3.10913">
        <ele>93.406997</ele>
        <time>2011-04-19T18:45:13Z</time>
      </trkpt>
      <trkpt lat="43.14692" lon="3.10903">
        <ele>94.18</ele>
        <time>2011-04-19T18:45:17Z</time>
      </trkpt>
      <trkpt lat="43.14701" lon="3.10896">
        <ele>95.097</ele>
        <time>2011-04-19T18:45:20Z</time>
      </trkpt>
      <trkpt lat="43.14702" lon="3.10895">
        <ele>95.617996</ele>
        <time>2011-04-19T18:45:20Z</time>
      </trkpt>
      <trkpt lat="43.14708" lon="3.10885">
        <ele>95.912002</ele>
        <time>2011-04-19T18:45:23Z</time>
      </trkpt>
      <trkpt lat="43.14716" lon="3.10878">
        <ele>96.833999</ele>
        <time>2011-04-19T18:45:26Z</time>
      </trkpt>
      <trkpt lat="43.14723" lon="3.10869">
        <ele>97.43</ele>
        <time>2011-04-19T18:45:29Z</time>
      </trkpt>
      <trkpt lat="43.14727" lon="3.10866">
        <ele>97.911003</ele>
        <time>2011-04-19T18:45:31Z</time>
      </trkpt>
      <trkpt lat="43.14728" lon="3.10863">
        <ele>98.058998</ele>
        <time>2011-04-19T18:45:31Z</time>
      </trkpt>
      <trkpt lat="43.14729" lon="3.10862">
        <ele>98.107002</ele>
        <time>2011-04-19T18:45:32Z</time>
      </trkpt>
      <trkpt lat="43.14728" lon="3.10863">
        <ele>98.303001</ele>
        <time>2011-04-19T18:45:32Z</time>
      </trkpt>
      <trkpt lat="43.14733" lon="3.10861">
        <ele>99.217002</ele>
        <time>2011-04-19T18:45:34Z</time>
      </trkpt>
      <trkpt lat="43.14735" lon="3.10858">
        <ele>99.294998</ele>
        <time>2011-04-19T18:45:34Z</time>
      </trkpt>
      <trkpt lat="43.14736" lon="3.10855">
        <ele>99.223999</ele>
        <time>2011-04-19T18:45:35Z</time>
      </trkpt>
      <trkpt lat="43.14743" lon="3.10844">
        <ele>99.969001</ele>
        <time>2011-04-19T18:45:39Z</time>
      </trkpt>
      <trkpt lat="43.14749" lon="3.10835">
        <ele>100.762</ele>
        <time>2011-04-19T18:45:41Z</time>
      </trkpt>
      <trkpt lat="43.14753" lon="3.10825">
        <ele>101.64099</ele>
        <time>2011-04-19T18:45:44Z</time>
      </trkpt>
      <trkpt lat="43.14756" lon="3.10808">
        <ele>102.73999</ele>
        <time>2011-04-19T18:45:48Z</time>
      </trkpt>
      <trkpt lat="43.14755" lon="3.10796">
        <ele>103.457</ele>
        <time>2011-04-19T18:45:51Z</time>
      </trkpt>
      <trkpt lat="43.14758" lon="3.10778">
        <ele>104.486</ele>
        <time>2011-04-19T18:45:55Z</time>
      </trkpt>
      <trkpt lat="43.14759" lon="3.10773">
        <ele>104.82199</ele>
        <time>2011-04-19T18:45:56Z</time>
      </trkpt>
      <trkpt lat="43.14766" lon="3.10763">
        <ele>106.274</ele>
        <time>2011-04-19T18:45:59Z</time>
      </trkpt>
      <trkpt lat="43.14766" lon="3.1076">
        <ele>106.21399</ele>
        <time>2011-04-19T18:45:59Z</time>
      </trkpt>
      <trkpt lat="43.14759" lon="3.1075">
        <ele>106.29799</ele>
        <time>2011-04-19T18:46:03Z</time>
      </trkpt>
      <trkpt lat="43.14751" lon="3.10759">
        <ele>103.54499</ele>
        <time>2011-04-19T18:46:06Z</time>
      </trkpt>
      <trkpt lat="43.14752" lon="3.10757">
        <ele>88.918999</ele>
        <time>2011-04-19T18:46:06Z</time>
      </trkpt>
      <trkpt lat="43.14743" lon="3.10756">
        <ele>85.218002</ele>
        <time>2011-04-19T18:46:09Z</time>
      </trkpt>
      <trkpt lat="43.14743" lon="3.10756">
        <ele>85.168999</ele>
        <time>2011-04-19T18:46:09Z</time>
      </trkpt>
      <trkpt lat="43.14737" lon="3.10744">
        <ele>81.795998</ele>
        <time>2011-04-19T18:46:12Z</time>
      </trkpt>
      <trkpt lat="43.14734" lon="3.10745">
        <ele>80.845001</ele>
        <time>2011-04-19T18:46:13Z</time>
      </trkpt>
      <trkpt lat="43.14728" lon="3.10749">
        <ele>78.945</ele>
        <time>2011-04-19T18:46:15Z</time>
      </trkpt>
      <trkpt lat="43.14722" lon="3.10746">
        <ele>76.609001</ele>
        <time>2011-04-19T18:46:17Z</time>
      </trkpt>
      <trkpt lat="43.14721" lon="3.10745">
        <ele>76.417</ele>
        <time>2011-04-19T18:46:18Z</time>
      </trkpt>
      <trkpt lat="43.14721" lon="3.10741">
        <ele>75.883003</ele>
        <time>2011-04-19T18:46:19Z</time>
      </trkpt>
      <trkpt lat="43.1472" lon="3.10739">
        <ele>74.734001</ele>
        <time>2011-04-19T18:46:19Z</time>
      </trkpt>
      <trkpt lat="43.14719" lon="3.10738">
        <ele>74.199997</ele>
        <time>2011-04-19T18:46:19Z</time>
      </trkpt>
      <trkpt lat="43.14716" lon="3.10735">
        <ele>73.446999</ele>
        <time>2011-04-19T18:46:21Z</time>
      </trkpt>
      <trkpt lat="43.14716" lon="3.10734">
        <ele>73.402</ele>
        <time>2011-04-19T18:46:21Z</time>
      </trkpt>
      <trkpt lat="43.14707" lon="3.10736">
        <ele>72.087997</ele>
        <time>2011-04-19T18:46:24Z</time>
      </trkpt>
      <trkpt lat="43.14704" lon="3.1074">
        <ele>71.461998</ele>
        <time>2011-04-19T18:46:25Z</time>
      </trkpt>
      <trkpt lat="43.14703" lon="3.10748">
        <ele>72.063003</ele>
        <time>2011-04-19T18:46:27Z</time>
      </trkpt>
      <trkpt lat="43.14701" lon="3.10754">
        <ele>71.733002</ele>
        <time>2011-04-19T18:46:28Z</time>
      </trkpt>
      <trkpt lat="43.14697" lon="3.10764">
        <ele>71.188003</ele>
        <time>2011-04-19T18:46:31Z</time>
      </trkpt>
      <trkpt lat="43.14694" lon="3.10772">
        <ele>70.763001</ele>
        <time>2011-04-19T18:46:33Z</time>
      </trkpt>
      <trkpt lat="43.14683" lon="3.1078">
        <ele>69.108002</ele>
        <time>2011-04-19T18:46:36Z</time>
      </trkpt>
      <trkpt lat="43.14678" lon="3.10787">
        <ele>68.313003</ele>
        <time>2011-04-19T18:46:39Z</time>
      </trkpt>
      <trkpt lat="43.14672" lon="3.10792">
        <ele>67.613998</ele>
        <time>2011-04-19T18:46:41Z</time>
      </trkpt>
      <trkpt lat="43.14672" lon="3.10798">
        <ele>67.910004</ele>
        <time>2011-04-19T18:46:42Z</time>
      </trkpt>
      <trkpt lat="43.14663" lon="3.1081">
        <ele>66.742996</ele>
        <time>2011-04-19T18:46:46Z</time>
      </trkpt>
      <trkpt lat="43.14662" lon="3.1081">
        <ele>66.499</ele>
        <time>2011-04-19T18:46:46Z</time>
      </trkpt>
      <trkpt lat="43.14655" lon="3.10815">
        <ele>65.616997</ele>
        <time>2011-04-19T18:46:49Z</time>
      </trkpt>
      <trkpt lat="43.14643" lon="3.10827">
        <ele>65.097</ele>
        <time>2011-04-19T18:46:53Z</time>
      </trkpt>
      <trkpt lat="43.14634" lon="3.1083">
        <ele>64.111999</ele>
        <time>2011-04-19T18:46:56Z</time>
      </trkpt>
      <trkpt lat="43.14623" lon="3.10835">
        <ele>63.596001</ele>
        <time>2011-04-19T18:47:00Z</time>
      </trkpt>
      <trkpt lat="43.14616" lon="3.10838">
        <ele>63.698002</ele>
        <time>2011-04-19T18:47:02Z</time>
      </trkpt>
      <trkpt lat="43.14612" lon="3.10845">
        <ele>63.067001</ele>
        <time>2011-04-19T18:47:04Z</time>
      </trkpt>
      <trkpt lat="43.14598" lon="3.10859">
        <ele>62.280998</ele>
        <time>2011-04-19T18:47:09Z</time>
      </trkpt>
      <trkpt lat="43.14585" lon="3.10873">
        <ele>61.862</ele>
        <time>2011-04-19T18:47:15Z</time>
      </trkpt>
      <trkpt lat="43.14576" lon="3.10881">
        <ele>60.723</ele>
        <time>2011-04-19T18:47:18Z</time>
      </trkpt>
      <trkpt lat="43.14575" lon="3.10881">
        <ele>60.408001</ele>
        <time>2011-04-19T18:47:18Z</time>
      </trkpt>
      <trkpt lat="43.14572" lon="3.10884">
        <ele>60.949001</ele>
        <time>2011-04-19T18:47:19Z</time>
      </trkpt>
      <trkpt lat="43.14566" lon="3.10894">
        <ele>60.585999</ele>
        <time>2011-04-19T18:47:22Z</time>
      </trkpt>
      <trkpt lat="43.14563" lon="3.10901">
        <ele>60.486</ele>
        <time>2011-04-19T18:47:24Z</time>
      </trkpt>
      <trkpt lat="43.14547" lon="3.10916">
        <ele>58.808998</ele>
        <time>2011-04-19T18:47:30Z</time>
      </trkpt>
      <trkpt lat="43.14547" lon="3.10922">
        <ele>58.422001</ele>
        <time>2011-04-19T18:47:31Z</time>
      </trkpt>
      <trkpt lat="43.14545" lon="3.1093">
        <ele>58.863998</ele>
        <time>2011-04-19T18:47:33Z</time>
      </trkpt>
      <trkpt lat="43.14539" lon="3.10934">
        <ele>57.848999</ele>
        <time>2011-04-19T18:47:35Z</time>
      </trkpt>
      <trkpt lat="43.14536" lon="3.10938">
        <ele>57.591999</ele>
        <time>2011-04-19T18:47:37Z</time>
      </trkpt>
      <trkpt lat="43.1452" lon="3.10951">
        <ele>56.574001</ele>
        <time>2011-04-19T18:47:43Z</time>
      </trkpt>
      <trkpt lat="43.14502" lon="3.10956">
        <ele>56.837002</ele>
        <time>2011-04-19T18:47:48Z</time>
      </trkpt>
      <trkpt lat="43.14482" lon="3.10964">
        <ele>56.799999</ele>
        <time>2011-04-19T18:47:55Z</time>
      </trkpt>
      <trkpt lat="43.14473" lon="3.10973">
        <ele>56.978001</ele>
        <time>2011-04-19T18:47:58Z</time>
      </trkpt>
      <trkpt lat="43.14458" lon="3.10976">
        <ele>54.539001</ele>
        <time>2011-04-19T18:48:02Z</time>
      </trkpt>
      <trkpt lat="43.14449" lon="3.10966">
        <ele>53.495998</ele>
        <time>2011-04-19T18:48:06Z</time>
      </trkpt>
      <trkpt lat="43.14448" lon="3.10962">
        <ele>53.085999</ele>
        <time>2011-04-19T18:48:07Z</time>
      </trkpt>
      <trkpt lat="43.14446" lon="3.10929">
        <ele>51.744999</ele>
        <time>2011-04-19T18:48:14Z</time>
      </trkpt>
      <trkpt lat="43.14445" lon="3.10921">
        <ele>50.675999</ele>
        <time>2011-04-19T18:48:16Z</time>
      </trkpt>
      <trkpt lat="43.14444" lon="3.10914">
        <ele>50.230999</ele>
        <time>2011-04-19T18:48:18Z</time>
      </trkpt>
      <trkpt lat="43.14445" lon="3.10912">
        <ele>50.009998</ele>
        <time>2011-04-19T18:48:18Z</time>
      </trkpt>
      <trkpt lat="43.14444" lon="3.10911">
        <ele>51.909</ele>
        <time>2011-04-19T18:48:19Z</time>
      </trkpt>
      <trkpt lat="43.14438" lon="3.10899">
        <ele>51.382</ele>
        <time>2011-04-19T18:48:22Z</time>
      </trkpt>
      <trkpt lat="43.14429" lon="3.10878">
        <ele>50.445</ele>
        <time>2011-04-19T18:48:27Z</time>
      </trkpt>
      <trkpt lat="43.1442" lon="3.10865">
        <ele>49.187</ele>
        <time>2011-04-19T18:48:31Z</time>
      </trkpt>
      <trkpt lat="43.14418" lon="3.10859">
        <ele>48.889</ele>
        <time>2011-04-19T18:48:33Z</time>
      </trkpt>
      <trkpt lat="43.14416" lon="3.10835">
        <ele>48.164001</ele>
        <time>2011-04-19T18:48:38Z</time>
      </trkpt>
      <trkpt lat="43.14419" lon="3.10831">
        <ele>48.653</ele>
        <time>2011-04-19T18:48:40Z</time>
      </trkpt>
      <trkpt lat="43.14436" lon="3.10801">
        <ele>50.153999</ele>
        <time>2011-04-19T18:48:48Z</time>
      </trkpt>
      <trkpt lat="43.1444" lon="3.10792">
        <ele>50.151001</ele>
        <time>2011-04-19T18:48:50Z</time>
      </trkpt>
      <trkpt lat="43.14439" lon="3.10773">
        <ele>50.120998</ele>
        <time>2011-04-19T18:48:55Z</time>
      </trkpt>
      <trkpt lat="43.14441" lon="3.10752">
        <ele>50.127998</ele>
        <time>2011-04-19T18:48:59Z</time>
      </trkpt>
      <trkpt lat="43.14446" lon="3.10748">
        <ele>50.859001</ele>
        <time>2011-04-19T18:49:01Z</time>
      </trkpt>
      <trkpt lat="43.14454" lon="3.10729">
        <ele>51.657002</ele>
        <time>2011-04-19T18:49:06Z</time>
      </trkpt>
      <trkpt lat="43.14454" lon="3.10724">
        <ele>51.536999</ele>
        <time>2011-04-19T18:49:07Z</time>
      </trkpt>
      <trkpt lat="43.14453" lon="3.10714">
        <ele>50.609001</ele>
        <time>2011-04-19T18:49:09Z</time>
      </trkpt>
      <trkpt lat="43.14451" lon="3.10707">
        <ele>50.833</ele>
        <time>2011-04-19T18:49:11Z</time>
      </trkpt>
      <trkpt lat="43.14444" lon="3.10697">
        <ele>51.116001</ele>
        <time>2011-04-19T18:49:14Z</time>
      </trkpt>
      <trkpt lat="43.14432" lon="3.10704">
        <ele>50.237</ele>
        <time>2011-04-19T18:49:18Z</time>
      </trkpt>
      <trkpt lat="43.14428" lon="3.10708">
        <ele>50.213001</ele>
        <time>2011-04-19T18:49:20Z</time>
      </trkpt>
      <trkpt lat="43.14412" lon="3.10727">
        <ele>47.182999</ele>
        <time>2011-04-19T18:49:26Z</time>
      </trkpt>
      <trkpt lat="43.14407" lon="3.10736">
        <ele>47.299999</ele>
        <time>2011-04-19T18:49:29Z</time>
      </trkpt>
      <trkpt lat="43.14409" lon="3.10752">
        <ele>48.157002</ele>
        <time>2011-04-19T18:49:33Z</time>
      </trkpt>
      <trkpt lat="43.14409" lon="3.10768">
        <ele>47.158001</ele>
        <time>2011-04-19T18:49:36Z</time>
      </trkpt>
      <trkpt lat="43.14402" lon="3.10774">
        <ele>46.334</ele>
        <time>2011-04-19T18:49:39Z</time>
      </trkpt>
      <trkpt lat="43.14399" lon="3.10773">
        <ele>46.310001</ele>
        <time>2011-04-19T18:49:40Z</time>
      </trkpt>
      <trkpt lat="43.14384" lon="3.10766">
        <ele>45.616001</ele>
        <time>2011-04-19T18:49:45Z</time>
      </trkpt>
      <trkpt lat="43.14367" lon="3.10757">
        <ele>45.188999</ele>
        <time>2011-04-19T18:49:50Z</time>
      </trkpt>
      <trkpt lat="43.14353" lon="3.10754">
        <ele>44.691002</ele>
        <time>2011-04-19T18:49:55Z</time>
      </trkpt>
      <trkpt lat="43.1435" lon="3.10754">
        <ele>44.346001</ele>
        <time>2011-04-19T18:49:56Z</time>
      </trkpt>
      <trkpt lat="43.14339" lon="3.10751">
        <ele>44.514</ele>
        <time>2011-04-19T18:49:59Z</time>
      </trkpt>
      <trkpt lat="43.14327" lon="3.10757">
        <ele>43.785</ele>
        <time>2011-04-19T18:50:03Z</time>
      </trkpt>
      <trkpt lat="43.14323" lon="3.10757">
        <ele>43.789001</ele>
        <time>2011-04-19T18:50:04Z</time>
      </trkpt>
      <trkpt lat="43.14314" lon="3.1075">
        <ele>43.062</ele>
        <time>2011-04-19T18:50:07Z</time>
      </trkpt>
      <trkpt lat="43.14313" lon="3.10748">
        <ele>42.873001</ele>
        <time>2011-04-19T18:50:08Z</time>
      </trkpt>
      <trkpt lat="43.14307" lon="3.10748">
        <ele>42.455002</ele>
        <time>2011-04-19T18:50:10Z</time>
      </trkpt>
      <trkpt lat="43.1429" lon="3.10743">
        <ele>41.731998</ele>
        <time>2011-04-19T18:50:15Z</time>
      </trkpt>
      <trkpt lat="43.14285" lon="3.10741">
        <ele>41.536999</ele>
        <time>2011-04-19T18:50:17Z</time>
      </trkpt>
      <trkpt lat="43.14266" lon="3.10747">
        <ele>40.528</ele>
        <time>2011-04-19T18:50:23Z</time>
      </trkpt>
      <trkpt lat="43.14262" lon="3.10752">
        <ele>40.375999</ele>
        <time>2011-04-19T18:50:25Z</time>
      </trkpt>
      <trkpt lat="43.14231" lon="3.1079">
        <ele>38.629002</ele>
        <time>2011-04-19T18:50:37Z</time>
      </trkpt>
      <trkpt lat="43.14222" lon="3.10816">
        <ele>38.084</ele>
        <time>2011-04-19T18:50:44Z</time>
      </trkpt>
      <trkpt lat="43.14222" lon="3.10823">
        <ele>38.162998</ele>
        <time>2011-04-19T18:50:45Z</time>
      </trkpt>
      <trkpt lat="43.14223" lon="3.10836">
        <ele>37.761002</ele>
        <time>2011-04-19T18:50:48Z</time>
      </trkpt>
      <trkpt lat="43.14226" lon="3.10848">
        <ele>48.121093</ele>
        <time>2011-04-19T18:50:51Z</time>
      </trkpt>
      <trkpt lat="43.14238" lon="3.10847">
        <ele>48.660156</ele>
        <time>2011-04-19T18:50:55Z</time>
      </trkpt>
      <trkpt lat="43.14252" lon="3.1085">
        <ele>49.519531</ele>
        <time>2011-04-19T18:50:59Z</time>
      </trkpt>
      <trkpt lat="43.14263" lon="3.10864">
        <ele>50.105468</ele>
        <time>2011-04-19T18:51:04Z</time>
      </trkpt>
      <trkpt lat="43.14264" lon="3.10864">
        <ele>50.128906</ele>
        <time>2011-04-19T18:51:04Z</time>
      </trkpt>
      <trkpt lat="43.1427" lon="3.10881">
        <ele>50.894531</ele>
        <time>2011-04-19T18:51:08Z</time>
      </trkpt>
      <trkpt lat="43.1427" lon="3.10882">
        <ele>50.921875</ele>
        <time>2011-04-19T18:51:09Z</time>
      </trkpt>
      <trkpt lat="43.14277" lon="3.10889">
        <ele>51.421875</ele>
        <time>2011-04-19T18:51:11Z</time>
      </trkpt>
      <trkpt lat="43.14304" lon="3.10897">
        <ele>53.277343</ele>
        <time>2011-04-19T18:51:20Z</time>
      </trkpt>
      <trkpt lat="43.14334" lon="3.10916">
        <ele>55.449218</ele>
        <time>2011-04-19T18:51:30Z</time>
      </trkpt>
      <trkpt lat="43.1434" lon="3.10944">
        <ele>55.871093</ele>
        <time>2011-04-19T18:51:37Z</time>
      </trkpt>
      <trkpt lat="43.14345" lon="3.10955">
        <ele>56.246093</ele>
        <time>2011-04-19T18:51:39Z</time>
      </trkpt>
      <trkpt lat="43.14389" lon="3.10978">
        <ele>58.660156</ele>
        <time>2011-04-19T18:51:54Z</time>
      </trkpt>
      <trkpt lat="43.14407" lon="3.10999">
        <ele>60.101562</ele>
        <time>2011-04-19T18:52:01Z</time>
      </trkpt>
      <trkpt lat="43.14422" lon="3.11009">
        <ele>60.992187</ele>
        <time>2011-04-19T18:52:07Z</time>
      </trkpt>
      <trkpt lat="43.14449" lon="3.11006">
        <ele>62.667968</ele>
        <time>2011-04-19T18:52:15Z</time>
      </trkpt>
      <trkpt lat="43.14469" lon="3.11006">
        <ele>64.628906</ele>
        <time>2011-04-19T18:52:21Z</time>
      </trkpt>
      <trkpt lat="43.14476" lon="3.11008">
        <ele>65.3125</ele>
        <time>2011-04-19T18:52:23Z</time>
      </trkpt>
      <trkpt lat="43.14473" lon="3.11025">
        <ele>65.257812</ele>
        <time>2011-04-19T18:52:27Z</time>
      </trkpt>
      <trkpt lat="43.14468" lon="3.1103">
        <ele>64.933593</ele>
        <time>2011-04-19T18:52:29Z</time>
      </trkpt>
      <trkpt lat="43.1447" lon="3.11052">
        <ele>65.117187</ele>
        <time>2011-04-19T18:52:34Z</time>
      </trkpt>
      <trkpt lat="43.14468" lon="3.11056">
        <ele>55.827999</ele>
        <time>2011-04-19T18:52:35Z</time>
      </trkpt>
      <trkpt lat="43.14461" lon="3.11066">
        <ele>55.269001</ele>
        <time>2011-04-19T18:52:38Z</time>
      </trkpt>
      <trkpt lat="43.14453" lon="3.11069">
        <ele>54.963001</ele>
        <time>2011-04-19T18:52:41Z</time>
      </trkpt>
      <trkpt lat="43.14445" lon="3.11055">
        <ele>54.867001</ele>
        <time>2011-04-19T18:52:44Z</time>
      </trkpt>
      <trkpt lat="43.14442" lon="3.11047">
        <ele>54.368</ele>
        <time>2011-04-19T18:52:47Z</time>
      </trkpt>
      <trkpt lat="43.14437" lon="3.11048">
        <ele>54.189999</ele>
        <time>2011-04-19T18:52:48Z</time>
      </trkpt>
      <trkpt lat="43.14428" lon="3.11045">
        <ele>53.794998</ele>
        <time>2011-04-19T18:52:51Z</time>
      </trkpt>
      <trkpt lat="43.14416" lon="3.11039">
        <ele>53.042999</ele>
        <time>2011-04-19T18:52:55Z</time>
      </trkpt>
      <trkpt lat="43.14397" lon="3.11033">
        <ele>51.799</ele>
        <time>2011-04-19T18:53:01Z</time>
      </trkpt>
      <trkpt lat="43.14391" lon="3.11031">
        <ele>51.352001</ele>
        <time>2011-04-19T18:53:03Z</time>
      </trkpt>
      <trkpt lat="43.14372" lon="3.1103">
        <ele>50.903999</ele>
        <time>2011-04-19T18:53:08Z</time>
      </trkpt>
      <trkpt lat="43.14368" lon="3.11026">
        <ele>50.712002</ele>
        <time>2011-04-19T18:53:10Z</time>
      </trkpt>
      <trkpt lat="43.14352" lon="3.11018">
        <ele>50.272999</ele>
        <time>2011-04-19T18:53:15Z</time>
      </trkpt>
      <trkpt lat="43.14348" lon="3.11019">
        <ele>50.596001</ele>
        <time>2011-04-19T18:53:16Z</time>
      </trkpt>
      <trkpt lat="43.14333" lon="3.11023">
        <ele>51.266998</ele>
        <time>2011-04-19T18:53:21Z</time>
      </trkpt>
      <trkpt lat="43.14322" lon="3.11023">
        <ele>50.113998</ele>
        <time>2011-04-19T18:53:25Z</time>
      </trkpt>
      <trkpt lat="43.14309" lon="3.11022">
        <ele>49.050999</ele>
        <time>2011-04-19T18:53:29Z</time>
      </trkpt>
      <trkpt lat="43.14296" lon="3.11025">
        <ele>47.257999</ele>
        <time>2011-04-19T18:53:33Z</time>
      </trkpt>
      <trkpt lat="43.14285" lon="3.11022">
        <ele>45.991001</ele>
        <time>2011-04-19T18:53:36Z</time>
      </trkpt>
      <trkpt lat="43.14283" lon="3.11023">
        <ele>45.675999</ele>
        <time>2011-04-19T18:53:37Z</time>
      </trkpt>
      <trkpt lat="43.14278" lon="3.11026">
        <ele>44.285</ele>
        <time>2011-04-19T18:53:39Z</time>
      </trkpt>
      <trkpt lat="43.14267" lon="3.11029">
        <ele>42.535999</ele>
        <time>2011-04-19T18:53:42Z</time>
      </trkpt>
      <trkpt lat="43.14254" lon="3.11027">
        <ele>41.893002</ele>
        <time>2011-04-19T18:53:46Z</time>
      </trkpt>
      <trkpt lat="43.14226" lon="3.11026">
        <ele>40.818001</ele>
        <time>2011-04-19T18:53:55Z</time>
      </trkpt>
      <trkpt lat="43.14205" lon="3.11022">
        <ele>40.055</ele>
        <time>2011-04-19T18:54:01Z</time>
      </trkpt>
      <trkpt lat="43.14189" lon="3.11016">
        <ele>39.007999</ele>
        <time>2011-04-19T18:54:06Z</time>
      </trkpt>
      <trkpt lat="43.14166" lon="3.10996">
        <ele>38.258999</ele>
        <time>2011-04-19T18:54:15Z</time>
      </trkpt>
      <trkpt lat="43.14156" lon="3.10982">
        <ele>37.938999</ele>
        <time>2011-04-19T18:54:19Z</time>
      </trkpt>
      <trkpt lat="43.14149" lon="3.10972">
        <ele>37.952</ele>
        <time>2011-04-19T18:54:22Z</time>
      </trkpt>
      <trkpt lat="43.14143" lon="3.10957">
        <ele>37.942001</ele>
        <time>2011-04-19T18:54:26Z</time>
      </trkpt>
      <trkpt lat="43.1414" lon="3.10956">
        <ele>36.82</ele>
        <time>2011-04-19T18:54:27Z</time>
      </trkpt>
      <trkpt lat="43.14132" lon="3.10961">
        <ele>35.612</ele>
        <time>2011-04-19T18:54:30Z</time>
      </trkpt>
      <trkpt lat="43.1412" lon="3.10965">
        <ele>35.285</ele>
        <time>2011-04-19T18:54:34Z</time>
      </trkpt>
      <trkpt lat="43.14111" lon="3.10977">
        <ele>37.710999</ele>
        <time>2011-04-19T18:54:37Z</time>
      </trkpt>
      <trkpt lat="43.14104" lon="3.10982">
        <ele>38.464001</ele>
        <time>2011-04-19T18:54:40Z</time>
      </trkpt>
      <trkpt lat="43.1409" lon="3.10974">
        <ele>39.068001</ele>
        <time>2011-04-19T18:54:45Z</time>
      </trkpt>
      <trkpt lat="43.14082" lon="3.10955">
        <ele>37.651001</ele>
        <time>2011-04-19T18:54:49Z</time>
      </trkpt>
      <trkpt lat="43.14081" lon="3.10932">
        <ele>35.532002</ele>
        <time>2011-04-19T18:54:55Z</time>
      </trkpt>
      <trkpt lat="43.14081" lon="3.10901">
        <ele>33.903999</ele>
        <time>2011-04-19T18:55:02Z</time>
      </trkpt>
      <trkpt lat="43.14071" lon="3.10893">
        <ele>32.777</ele>
        <time>2011-04-19T18:55:05Z</time>
      </trkpt>
      <trkpt lat="43.14058" lon="3.10901">
        <ele>32.497002</ele>
        <time>2011-04-19T18:55:10Z</time>
      </trkpt>
      <trkpt lat="43.14049" lon="3.10906">
        <ele>33.223</ele>
        <time>2011-04-19T18:55:13Z</time>
      </trkpt>
      <trkpt lat="43.14039" lon="3.10909">
        <ele>34.011002</ele>
        <time>2011-04-19T18:55:16Z</time>
      </trkpt>
      <trkpt lat="43.1402" lon="3.10909">
        <ele>37.464001</ele>
        <time>2011-04-19T18:55:21Z</time>
      </trkpt>
      <trkpt lat="43.13989" lon="3.10898">
        <ele>37.495998</ele>
        <time>2011-04-19T18:55:31Z</time>
      </trkpt>
      <trkpt lat="43.13968" lon="3.10893">
        <ele>36.991001</ele>
        <time>2011-04-19T18:55:38Z</time>
      </trkpt>
      <trkpt lat="43.13942" lon="3.10893">
        <ele>37.701</ele>
        <time>2011-04-19T18:55:46Z</time>
      </trkpt>
      <trkpt lat="43.13923" lon="3.10897">
        <ele>39.453999</ele>
        <time>2011-04-19T18:55:52Z</time>
      </trkpt>
      <trkpt lat="43.13916" lon="3.10904">
        <ele>40.012001</ele>
        <time>2011-04-19T18:55:55Z</time>
      </trkpt>
      <trkpt lat="43.13911" lon="3.10909">
        <ele>40.820999</ele>
        <time>2011-04-19T18:55:56Z</time>
      </trkpt>
      <trkpt lat="43.13916" lon="3.10915">
        <ele>40.028999</ele>
        <time>2011-04-19T18:55:59Z</time>
      </trkpt>
      <trkpt lat="43.13914" lon="3.10926">
        <ele>38.721001</ele>
        <time>2011-04-19T18:56:01Z</time>
      </trkpt>
      <trkpt lat="43.13921" lon="3.10935">
        <ele>38.154999</ele>
        <time>2011-04-19T18:56:04Z</time>
      </trkpt>
      <trkpt lat="43.13927" lon="3.1095">
        <ele>36.742001</ele>
        <time>2011-04-19T18:56:08Z</time>
      </trkpt>
      <trkpt lat="43.13932" lon="3.10962">
        <ele>33.771999</ele>
        <time>2011-04-19T18:56:11Z</time>
      </trkpt>
      <trkpt lat="43.13933" lon="3.10973">
        <ele>30.544001</ele>
        <time>2011-04-19T18:56:13Z</time>
      </trkpt>
      <trkpt lat="43.13932" lon="3.10978">
        <ele>30.291</ele>
        <time>2011-04-19T18:56:14Z</time>
      </trkpt>
      <trkpt lat="43.13932" lon="3.10991">
        <ele>30.739</ele>
        <time>2011-04-19T18:56:17Z</time>
      </trkpt>
      <trkpt lat="43.13941" lon="3.10997">
        <ele>31.728001</ele>
        <time>2011-04-19T18:56:20Z</time>
      </trkpt>
      <trkpt lat="43.13947" lon="3.10997">
        <ele>31.625</ele>
        <time>2011-04-19T18:56:22Z</time>
      </trkpt>
      <trkpt lat="43.13963" lon="3.1099">
        <ele>31.320999</ele>
        <time>2011-04-19T18:56:27Z</time>
      </trkpt>
      <trkpt lat="43.13972" lon="3.10995">
        <ele>32.195999</ele>
        <time>2011-04-19T18:56:30Z</time>
      </trkpt>
      <trkpt lat="43.13976" lon="3.11">
        <ele>33.279999</ele>
        <time>2011-04-19T18:56:32Z</time>
      </trkpt>
      <trkpt lat="43.13989" lon="3.11004">
        <ele>34.887001</ele>
        <time>2011-04-19T18:56:36Z</time>
      </trkpt>
      <trkpt lat="43.13994" lon="3.11012">
        <ele>35.268002</ele>
        <time>2011-04-19T18:56:38Z</time>
      </trkpt>
      <trkpt lat="43.14009" lon="3.11036">
        <ele>36.622002</ele>
        <time>2011-04-19T18:56:46Z</time>
      </trkpt>
      <trkpt lat="43.14026" lon="3.11058">
        <ele>37.736</ele>
        <time>2011-04-19T18:56:53Z</time>
      </trkpt>
      <trkpt lat="43.14043" lon="3.11086">
        <ele>38.858002</ele>
        <time>2011-04-19T18:57:01Z</time>
      </trkpt>
      <trkpt lat="43.14046" lon="3.11092">
        <ele>39.817001</ele>
        <time>2011-04-19T18:57:03Z</time>
      </trkpt>
      <trkpt lat="43.14061" lon="3.11107">
        <ele>41.022999</ele>
        <time>2011-04-19T18:57:08Z</time>
      </trkpt>
      <trkpt lat="43.14075" lon="3.11121">
        <ele>41.265999</ele>
        <time>2011-04-19T18:57:14Z</time>
      </trkpt>
      <trkpt lat="43.1409" lon="3.11126">
        <ele>42.266998</ele>
        <time>2011-04-19T18:57:18Z</time>
      </trkpt>
      <trkpt lat="43.14111" lon="3.11128">
        <ele>44.245998</ele>
        <time>2011-04-19T18:57:25Z</time>
      </trkpt>
      <trkpt lat="43.14125" lon="3.1114">
        <ele>44.966</ele>
        <time>2011-04-19T18:57:30Z</time>
      </trkpt>
      <trkpt lat="43.14132" lon="3.11153">
        <ele>47.679001</ele>
        <time>2011-04-19T18:57:34Z</time>
      </trkpt>
      <trkpt lat="43.14138" lon="3.11164">
        <ele>46.16</ele>
        <time>2011-04-19T18:57:37Z</time>
      </trkpt>
      <trkpt lat="43.14155" lon="3.11198">
        <ele>49.488998</ele>
        <time>2011-04-19T18:57:46Z</time>
      </trkpt>
      <trkpt lat="43.14171" lon="3.11222">
        <ele>49.213001</ele>
        <time>2011-04-19T18:57:53Z</time>
      </trkpt>
      <trkpt lat="43.14185" lon="3.11243">
        <ele>51.556</ele>
        <time>2011-04-19T18:58:00Z</time>
      </trkpt>
      <trkpt lat="43.14193" lon="3.11259">
        <ele>52.812</ele>
        <time>2011-04-19T18:58:04Z</time>
      </trkpt>
      <trkpt lat="43.14202" lon="3.11295">
        <ele>53.146999</ele>
        <time>2011-04-19T18:58:13Z</time>
      </trkpt>
      <trkpt lat="43.14204" lon="3.11305">
        <ele>54.034</ele>
        <time>2011-04-19T18:58:15Z</time>
      </trkpt>
      <trkpt lat="43.14209" lon="3.11337">
        <ele>54.957001</ele>
        <time>2011-04-19T18:58:22Z</time>
      </trkpt>
      <trkpt lat="43.14219" lon="3.1138">
        <ele>52.763</ele>
        <time>2011-04-19T18:58:32Z</time>
      </trkpt>
      <trkpt lat="43.14228" lon="3.11425">
        <ele>53.066002</ele>
        <time>2011-04-19T18:58:43Z</time>
      </trkpt>
      <trkpt lat="43.14229" lon="3.11471">
        <ele>53.292999</ele>
        <time>2011-04-19T18:58:53Z</time>
      </trkpt>
      <trkpt lat="43.14222" lon="3.11517">
        <ele>54.994</ele>
        <time>2011-04-19T18:59:04Z</time>
      </trkpt>
      <trkpt lat="43.14217" lon="3.11549">
        <ele>55.368</ele>
        <time>2011-04-19T18:59:11Z</time>
      </trkpt>
      <trkpt lat="43.14214" lon="3.11562">
        <ele>55.507999</ele>
        <time>2011-04-19T18:59:14Z</time>
      </trkpt>
      <trkpt lat="43.14209" lon="3.11597">
        <ele>55.720001</ele>
        <time>2011-04-19T18:59:22Z</time>
      </trkpt>
      <trkpt lat="43.14207" lon="3.11611">
        <ele>55.550999</ele>
        <time>2011-04-19T18:59:25Z</time>
      </trkpt>
      <trkpt lat="43.14193" lon="3.11639">
        <ele>55.199001</ele>
        <time>2011-04-19T18:59:33Z</time>
      </trkpt>
      <trkpt lat="43.14183" lon="3.11646">
        <ele>54.726002</ele>
        <time>2011-04-19T18:59:36Z</time>
      </trkpt>
      <trkpt lat="43.14145" lon="3.11658">
        <ele>56.001999</ele>
        <time>2011-04-19T18:59:48Z</time>
      </trkpt>
      <trkpt lat="43.14119" lon="3.11675">
        <ele>58.798</ele>
        <time>2011-04-19T18:59:57Z</time>
      </trkpt>
      <trkpt lat="43.14105" lon="3.11692">
        <ele>60.071999</ele>
        <time>2011-04-19T19:00:03Z</time>
      </trkpt>
      <trkpt lat="43.14083" lon="3.1173">
        <ele>60.136002</ele>
        <time>2011-04-19T19:00:14Z</time>
      </trkpt>
      <trkpt lat="43.14051" lon="3.11773">
        <ele>60.141998</ele>
        <time>2011-04-19T19:00:28Z</time>
      </trkpt>
      <trkpt lat="43.14043" lon="3.11784">
        <ele>60.279999</ele>
        <time>2011-04-19T19:00:31Z</time>
      </trkpt>
      <trkpt lat="43.14029" lon="3.11814">
        <ele>59.414001</ele>
        <time>2011-04-19T19:00:39Z</time>
      </trkpt>
      <trkpt lat="43.14026" lon="3.11822">
        <ele>58.965</ele>
        <time>2011-04-19T19:00:41Z</time>
      </trkpt>
      <trkpt lat="43.14022" lon="3.11836">
        <ele>58.042999</ele>
        <time>2011-04-19T19:00:45Z</time>
      </trkpt>
      <trkpt lat="43.14027" lon="3.11852">
        <ele>57.394001</ele>
        <time>2011-04-19T19:00:49Z</time>
      </trkpt>
      <trkpt lat="43.14038" lon="3.11862">
        <ele>55.980999</ele>
        <time>2011-04-19T19:00:53Z</time>
      </trkpt>
      <trkpt lat="43.14036" lon="3.11867">
        <ele>55.761002</ele>
        <time>2011-04-19T19:00:54Z</time>
      </trkpt>
      <trkpt lat="43.14031" lon="3.11882">
        <ele>56.244</ele>
        <time>2011-04-19T19:00:58Z</time>
      </trkpt>
      <trkpt lat="43.14022" lon="3.11899">
        <ele>54.91</ele>
        <time>2011-04-19T19:01:03Z</time>
      </trkpt>
      <trkpt lat="43.14016" lon="3.11901">
        <ele>54.771</ele>
        <time>2011-04-19T19:01:04Z</time>
      </trkpt>
      <trkpt lat="43.14" lon="3.11912">
        <ele>51.831001</ele>
        <time>2011-04-19T19:01:10Z</time>
      </trkpt>
      <trkpt lat="43.14" lon="3.11917">
        <ele>51.57</ele>
        <time>2011-04-19T19:01:11Z</time>
      </trkpt>
      <trkpt lat="43.14003" lon="3.1194">
        <ele>50.967999</ele>
        <time>2011-04-19T19:01:16Z</time>
      </trkpt>
      <trkpt lat="43.14011" lon="3.11972">
        <ele>54.077</ele>
        <time>2011-04-19T19:01:24Z</time>
      </trkpt>
      <trkpt lat="43.1401" lon="3.12012">
        <ele>49.950001</ele>
        <time>2011-04-19T19:01:33Z</time>
      </trkpt>
      <trkpt lat="43.14005" lon="3.12042">
        <ele>49.521</ele>
        <time>2011-04-19T19:01:40Z</time>
      </trkpt>
      <trkpt lat="43.13994" lon="3.1207">
        <ele>49.307999</ele>
        <time>2011-04-19T19:01:47Z</time>
      </trkpt>
      <trkpt lat="43.13989" lon="3.12085">
        <ele>48.681999</ele>
        <time>2011-04-19T19:01:51Z</time>
      </trkpt>
      <trkpt lat="43.13985" lon="3.121">
        <ele>47.966</ele>
        <time>2011-04-19T19:01:54Z</time>
      </trkpt>
      <trkpt lat="43.13974" lon="3.12155">
        <ele>46.456001</ele>
        <time>2011-04-19T19:02:07Z</time>
      </trkpt>
      <trkpt lat="43.13967" lon="3.12198">
        <ele>43.751999</ele>
        <time>2011-04-19T19:02:17Z</time>
      </trkpt>
      <trkpt lat="43.13961" lon="3.12267">
        <ele>42.471001</ele>
        <time>2011-04-19T19:02:33Z</time>
      </trkpt>
      <trkpt lat="43.13959" lon="3.12277">
        <ele>42.455002</ele>
        <time>2011-04-19T19:02:35Z</time>
      </trkpt>
      <trkpt lat="43.13961" lon="3.12309">
        <ele>40.348</ele>
        <time>2011-04-19T19:02:42Z</time>
      </trkpt>
      <trkpt lat="43.13964" lon="3.12316">
        <ele>39.886002</ele>
        <time>2011-04-19T19:02:44Z</time>
      </trkpt>
      <trkpt lat="43.13972" lon="3.12328">
        <ele>39.855999</ele>
        <time>2011-04-19T19:02:48Z</time>
      </trkpt>
      <trkpt lat="43.14001" lon="3.12354">
        <ele>38.567001</ele>
        <time>2011-04-19T19:02:58Z</time>
      </trkpt>
      <trkpt lat="43.14027" lon="3.12379">
        <ele>40.952</ele>
        <time>2011-04-19T19:03:08Z</time>
      </trkpt>
      <trkpt lat="43.14039" lon="3.12391">
        <ele>39.640999</ele>
        <time>2011-04-19T19:03:13Z</time>
      </trkpt>
      <trkpt lat="43.14046" lon="3.12401">
        <ele>38.209</ele>
        <time>2011-04-19T19:03:16Z</time>
      </trkpt>
      <trkpt lat="43.14052" lon="3.12411">
        <ele>38.101002</ele>
        <time>2011-04-19T19:03:19Z</time>
      </trkpt>
      <trkpt lat="43.14055" lon="3.12438">
        <ele>41.842999</ele>
        <time>2011-04-19T19:03:25Z</time>
      </trkpt>
      <trkpt lat="43.14052" lon="3.1245">
        <ele>43.425999</ele>
        <time>2011-04-19T19:03:28Z</time>
      </trkpt>
      <trkpt lat="43.14042" lon="3.12464">
        <ele>42.467999</ele>
        <time>2011-04-19T19:03:32Z</time>
      </trkpt>
      <trkpt lat="43.14032" lon="3.12475">
        <ele>40.799999</ele>
        <time>2011-04-19T19:03:36Z</time>
      </trkpt>
      <trkpt lat="43.14029" lon="3.1248">
        <ele>40.68</ele>
        <time>2011-04-19T19:03:38Z</time>
      </trkpt>
      <trkpt lat="43.14013" lon="3.12516">
        <ele>42.268002</ele>
        <time>2011-04-19T19:03:47Z</time>
      </trkpt>
      <trkpt lat="43.14008" lon="3.12534">
        <ele>44.618</ele>
        <time>2011-04-19T19:03:51Z</time>
      </trkpt>
      <trkpt lat="43.14004" lon="3.12555">
        <ele>41.849998</ele>
        <time>2011-04-19T19:03:56Z</time>
      </trkpt>
      <trkpt lat="43.14004" lon="3.12555">
        <ele>41.816002</ele>
        <time>2011-04-19T19:03:56Z</time>
      </trkpt>
      <trkpt lat="43.13997" lon="3.12549">
        <ele>40.507999</ele>
        <time>2011-04-19T19:03:59Z</time>
      </trkpt>
      <trkpt lat="43.13992" lon="3.1255">
        <ele>40.346001</ele>
        <time>2011-04-19T19:04:01Z</time>
      </trkpt>
      <trkpt lat="43.13985" lon="3.1256">
        <ele>37.634998</ele>
        <time>2011-04-19T19:04:04Z</time>
      </trkpt>
      <trkpt lat="43.13982" lon="3.12566">
        <ele>39.431999</ele>
        <time>2011-04-19T19:04:05Z</time>
      </trkpt>
      <trkpt lat="43.1398" lon="3.1257">
        <ele>37.946999</ele>
        <time>2011-04-19T19:04:06Z</time>
      </trkpt>
      <trkpt lat="43.13971" lon="3.12568">
        <ele>35.667999</ele>
        <time>2011-04-19T19:04:09Z</time>
      </trkpt>
      <trkpt lat="43.13961" lon="3.12566">
        <ele>32.623001</ele>
        <time>2011-04-19T19:04:12Z</time>
      </trkpt>
      <trkpt lat="43.1395" lon="3.12558">
        <ele>28.179001</ele>
        <time>2011-04-19T19:04:16Z</time>
      </trkpt>
      <trkpt lat="43.13942" lon="3.12556">
        <ele>24.372999</ele>
        <time>2011-04-19T19:04:19Z</time>
      </trkpt>
      <trkpt lat="43.13936" lon="3.1255">
        <ele>22.264</ele>
        <time>2011-04-19T19:04:21Z</time>
      </trkpt>
      <trkpt lat="43.13929" lon="3.12539">
        <ele>21.177</ele>
        <time>2011-04-19T19:04:24Z</time>
      </trkpt>
      <trkpt lat="43.1392" lon="3.12547">
        <ele>17.955</ele>
        <time>2011-04-19T19:04:28Z</time>
      </trkpt>
      <trkpt lat="43.13915" lon="3.12557">
        <ele>17.264</ele>
        <time>2011-04-19T19:04:30Z</time>
      </trkpt>
      <trkpt lat="43.139" lon="3.12581">
        <ele>17.205999</ele>
        <time>2011-04-19T19:04:37Z</time>
      </trkpt>
      <trkpt lat="43.13877" lon="3.12604">
        <ele>18.648001</ele>
        <time>2011-04-19T19:04:46Z</time>
      </trkpt>
      <trkpt lat="43.13861" lon="3.12614">
        <ele>20.441999</ele>
        <time>2011-04-19T19:04:51Z</time>
      </trkpt>
      <trkpt lat="43.13858" lon="3.12616">
        <ele>20.462</ele>
        <time>2011-04-19T19:04:53Z</time>
      </trkpt>
      <trkpt lat="43.13841" lon="3.12637">
        <ele>19.834999</ele>
        <time>2011-04-19T19:05:00Z</time>
      </trkpt>
      <trkpt lat="43.13828" lon="3.12666">
        <ele>18.322001</ele>
        <time>2011-04-19T19:05:07Z</time>
      </trkpt>
      <trkpt lat="43.13821" lon="3.12677">
        <ele>18.073</ele>
        <time>2011-04-19T19:05:11Z</time>
      </trkpt>
      <trkpt lat="43.13814" lon="3.12704">
        <ele>19.336</ele>
        <time>2011-04-19T19:05:17Z</time>
      </trkpt>
      <trkpt lat="43.13804" lon="3.12725">
        <ele>19.923</ele>
        <time>2011-04-19T19:05:23Z</time>
      </trkpt>
      <trkpt lat="43.13793" lon="3.12731">
        <ele>19.844999</ele>
        <time>2011-04-19T19:05:26Z</time>
      </trkpt>
      <trkpt lat="43.13786" lon="3.12737">
        <ele>20.339001</ele>
        <time>2011-04-19T19:05:29Z</time>
      </trkpt>
      <trkpt lat="43.13766" lon="3.12758">
        <ele>20.334</ele>
        <time>2011-04-19T19:05:37Z</time>
      </trkpt>
      <trkpt lat="43.13754" lon="3.12779">
        <ele>20.839001</ele>
        <time>2011-04-19T19:05:43Z</time>
      </trkpt>
      <trkpt lat="43.13753" lon="3.12803">
        <ele>21.091</ele>
        <time>2011-04-19T19:05:48Z</time>
      </trkpt>
      <trkpt lat="43.1376" lon="3.12822">
        <ele>23.326</ele>
        <time>2011-04-19T19:05:53Z</time>
      </trkpt>
      <trkpt lat="43.13774" lon="3.12833">
        <ele>23.396999</ele>
        <time>2011-04-19T19:05:58Z</time>
      </trkpt>
      <trkpt lat="43.13794" lon="3.1283">
        <ele>24.069</ele>
        <time>2011-04-19T19:06:04Z</time>
      </trkpt>
      <trkpt lat="43.13811" lon="3.12831">
        <ele>24.726</ele>
        <time>2011-04-19T19:06:09Z</time>
      </trkpt>
      <trkpt lat="43.13829" lon="3.12833">
        <ele>25.322001</ele>
        <time>2011-04-19T19:06:15Z</time>
      </trkpt>
      <trkpt lat="43.13853" lon="3.12838">
        <ele>28.229</ele>
        <time>2011-04-19T19:06:22Z</time>
      </trkpt>
      <trkpt lat="43.13882" lon="3.12842">
        <ele>28.841</ele>
        <time>2011-04-19T19:06:31Z</time>
      </trkpt>
      <trkpt lat="43.13897" lon="3.1285">
        <ele>30.193001</ele>
        <time>2011-04-19T19:06:36Z</time>
      </trkpt>
      <trkpt lat="43.139" lon="3.12853">
        <ele>30.414</ele>
        <time>2011-04-19T19:06:37Z</time>
      </trkpt>
      <trkpt lat="43.13923" lon="3.1288">
        <ele>32.136002</ele>
        <time>2011-04-19T19:06:47Z</time>
      </trkpt>
      <trkpt lat="43.13945" lon="3.12898">
        <ele>31.389</ele>
        <time>2011-04-19T19:06:55Z</time>
      </trkpt>
      <trkpt lat="43.1396" lon="3.12906">
        <ele>33.700001</ele>
        <time>2011-04-19T19:07:00Z</time>
      </trkpt>
      <trkpt lat="43.13977" lon="3.12912">
        <ele>33.028999</ele>
        <time>2011-04-19T19:07:05Z</time>
      </trkpt>
      <trkpt lat="43.13991" lon="3.12917">
        <ele>33.582001</ele>
        <time>2011-04-19T19:07:09Z</time>
      </trkpt>
      <trkpt lat="43.14014" lon="3.1293">
        <ele>33.528</ele>
        <time>2011-04-19T19:07:17Z</time>
      </trkpt>
      <trkpt lat="43.14034" lon="3.12937">
        <ele>34.152</ele>
        <time>2011-04-19T19:07:23Z</time>
      </trkpt>
      <trkpt lat="43.14052" lon="3.1293">
        <ele>34.835999</ele>
        <time>2011-04-19T19:07:29Z</time>
      </trkpt>
      <trkpt lat="43.14057" lon="3.12929">
        <ele>35.534</ele>
        <time>2011-04-19T19:07:31Z</time>
      </trkpt>
      <trkpt lat="43.14058" lon="3.12938">
        <ele>34.995998</ele>
        <time>2011-04-19T19:07:33Z</time>
      </trkpt>
      <trkpt lat="43.14057" lon="3.12942">
        <ele>34.563999</ele>
        <time>2011-04-19T19:07:34Z</time>
      </trkpt>
      <trkpt lat="43.14056" lon="3.1296">
        <ele>33.880001</ele>
        <time>2011-04-19T19:07:38Z</time>
      </trkpt>
      <trkpt lat="43.14054" lon="3.1298">
        <ele>33.033001</ele>
        <time>2011-04-19T19:07:42Z</time>
      </trkpt>
      <trkpt lat="43.14047" lon="3.13011">
        <ele>31.101</ele>
        <time>2011-04-19T19:07:49Z</time>
      </trkpt>
      <trkpt lat="43.14042" lon="3.13022">
        <ele>30.283001</ele>
        <time>2011-04-19T19:07:53Z</time>
      </trkpt>
      <trkpt lat="43.14038" lon="3.13026">
        <ele>29.619</ele>
        <time>2011-04-19T19:07:54Z</time>
      </trkpt>
      <trkpt lat="43.14037" lon="3.13038">
        <ele>28.087</ele>
        <time>2011-04-19T19:07:57Z</time>
      </trkpt>
      <trkpt lat="43.1404" lon="3.13048">
        <ele>28.017</ele>
        <time>2011-04-19T19:07:59Z</time>
      </trkpt>
      <trkpt lat="43.14059" lon="3.13073">
        <ele>24.415001</ele>
        <time>2011-04-19T19:08:07Z</time>
      </trkpt>
      <trkpt lat="43.14064" lon="3.13077">
        <ele>24.082001</ele>
        <time>2011-04-19T19:08:09Z</time>
      </trkpt>
      <trkpt lat="43.14074" lon="3.13088">
        <ele>22.974001</ele>
        <time>2011-04-19T19:08:13Z</time>
      </trkpt>
      <trkpt lat="43.1408" lon="3.131">
        <ele>23.016001</ele>
        <time>2011-04-19T19:08:16Z</time>
      </trkpt>
      <trkpt lat="43.14093" lon="3.13116">
        <ele>19.145</ele>
        <time>2011-04-19T19:08:22Z</time>
      </trkpt>
      <trkpt lat="43.14097" lon="3.13125">
        <ele>15.393</ele>
        <time>2011-04-19T19:08:24Z</time>
      </trkpt>
      <trkpt lat="43.14115" lon="3.13137">
        <ele>14.724</ele>
        <time>2011-04-19T19:08:30Z</time>
      </trkpt>
      <trkpt lat="43.14121" lon="3.13148">
        <ele>13.364</ele>
        <time>2011-04-19T19:08:33Z</time>
      </trkpt>
      <trkpt lat="43.14118" lon="3.13156">
        <ele>11.093</ele>
        <time>2011-04-19T19:08:35Z</time>
      </trkpt>
      <trkpt lat="43.14116" lon="3.1316">
        <ele>9.894</ele>
        <time>2011-04-19T19:08:36Z</time>
      </trkpt>
      <trkpt lat="43.14109" lon="3.13164">
        <ele>6.069</ele>
        <time>2011-04-19T19:08:39Z</time>
      </trkpt>
      <trkpt lat="43.14104" lon="3.13164">
        <ele>3.974</ele>
        <time>2011-04-19T19:08:40Z</time>
      </trkpt>
      <trkpt lat="43.14095" lon="3.13176">
        <ele>0.863</ele>
        <time>2011-04-19T19:08:44Z</time>
      </trkpt>
      <trkpt lat="43.1409" lon="3.13176">
        <ele>0.033</ele>
        <time>2011-04-19T19:08:45Z</time>
      </trkpt>
      <trkpt lat="43.14056" lon="3.13166">
        <ele>-1.609</ele>
        <time>2011-04-19T19:08:56Z</time>
      </trkpt>
      <trkpt lat="43.14025" lon="3.13149">
        <ele>-0.678</ele>
        <time>2011-04-19T19:09:06Z</time>
      </trkpt>
      <trkpt lat="43.13983" lon="3.1312">
        <ele>-0.991</ele>
        <time>2011-04-19T19:09:21Z</time>
      </trkpt>
      <trkpt lat="43.13953" lon="3.13097">
        <ele>-1.134</ele>
        <time>2011-04-19T19:09:31Z</time>
      </trkpt>
      <trkpt lat="43.13911" lon="3.13088">
        <ele>0.867</ele>
        <time>2011-04-19T19:09:45Z</time>
      </trkpt>
      <trkpt lat="43.1386" lon="3.13083">
        <ele>-1.14</ele>
        <time>2011-04-19T19:10:00Z</time>
      </trkpt>
      <trkpt lat="43.13801" lon="3.13075">
        <ele>-0.345</ele>
        <time>2011-04-19T19:10:19Z</time>
      </trkpt>
      <trkpt lat="43.13772" lon="3.13072">
        <ele>-0.715</ele>
        <time>2011-04-19T19:10:28Z</time>
      </trkpt>
      <trkpt lat="43.13731" lon="3.13061">
        <ele>3.8789063</ele>
        <time>2011-04-19T19:10:40Z</time>
      </trkpt>
      <trkpt lat="43.13708" lon="3.13032">
        <ele>5.1289063</ele>
        <time>2011-04-19T19:10:50Z</time>
      </trkpt>
      <trkpt lat="43.13699" lon="3.13022">
        <ele>-0.809</ele>
        <time>2011-04-19T19:10:53Z</time>
      </trkpt>
      <trkpt lat="43.13659" lon="3.12972">
        <ele>-0.546</ele>
        <time>2011-04-19T19:11:10Z</time>
      </trkpt>
      <trkpt lat="43.13651" lon="3.12963">
        <ele>-0.373</ele>
        <time>2011-04-19T19:11:13Z</time>
      </trkpt>
      <trkpt lat="43.1362" lon="3.12935">
        <ele>-0.022</ele>
        <time>2011-04-19T19:11:25Z</time>
      </trkpt>
      <trkpt lat="43.13609" lon="3.12907">
        <ele>0.533</ele>
        <time>2011-04-19T19:11:32Z</time>
      </trkpt>
      <trkpt lat="43.13604" lon="3.12884">
        <ele>0.443</ele>
        <time>2011-04-19T19:11:37Z</time>
      </trkpt>
      <trkpt lat="43.13594" lon="3.12857">
        <ele>-0.919</ele>
        <time>2011-04-19T19:11:44Z</time>
      </trkpt>
      <trkpt lat="43.13591" lon="3.12835">
        <ele>-1.375</ele>
        <time>2011-04-19T19:11:49Z</time>
      </trkpt>
      <trkpt lat="43.13586" lon="3.12827">
        <ele>1.957031</ele>
        <time>2011-04-19T19:11:52Z</time>
      </trkpt>
      <trkpt lat="43.13566" lon="3.12829">
        <ele>1</ele>
        <time>2011-04-19T19:11:58Z</time>
      </trkpt>
      <trkpt lat="43.13553" lon="3.12829">
        <ele>1</ele>
        <time>2011-04-19T19:12:02Z</time>
      </trkpt>
      <trkpt lat="43.13552" lon="3.12828">
        <ele>1</ele>
        <time>2011-04-19T19:12:02Z</time>
      </trkpt>
      <trkpt lat="43.13538" lon="3.12793">
        <ele>2.175781</ele>
        <time>2011-04-19T19:12:11Z</time>
      </trkpt>
      <trkpt lat="43.13518" lon="3.12777">
        <ele>3.460938</ele>
        <time>2011-04-19T19:12:18Z</time>
      </trkpt>
      <trkpt lat="43.13472" lon="3.1275">
        <ele>6.027344</ele>
        <time>2011-04-19T19:12:34Z</time>
      </trkpt>
      <trkpt lat="43.13443" lon="3.12732">
        <ele>6.953125</ele>
        <time>2011-04-19T19:12:44Z</time>
      </trkpt>
      <trkpt lat="43.13434" lon="3.12723">
        <ele>7.574219</ele>
        <time>2011-04-19T19:12:47Z</time>
      </trkpt>
      <trkpt lat="43.13423" lon="3.12703">
        <ele>9.320313</ele>
        <time>2011-04-19T19:12:52Z</time>
      </trkpt>
      <trkpt lat="43.13407" lon="3.12695">
        <ele>9.679688</ele>
        <time>2011-04-19T19:12:58Z</time>
      </trkpt>
      <trkpt lat="43.13388" lon="3.12699">
        <ele>8.023438</ele>
        <time>2011-04-19T19:13:04Z</time>
      </trkpt>
      <trkpt lat="43.13364" lon="3.12697">
        <ele>6.566406</ele>
        <time>2011-04-19T19:13:11Z</time>
      </trkpt>
      <trkpt lat="43.13348" lon="3.12692">
        <ele>5.777344</ele>
        <time>2011-04-19T19:13:16Z</time>
      </trkpt>
      <trkpt lat="43.13327" lon="3.12665">
        <ele>6.183594</ele>
        <time>2011-04-19T19:13:25Z</time>
      </trkpt>
      <trkpt lat="43.13302" lon="3.12642">
        <ele>5.496094</ele>
        <time>2011-04-19T19:13:34Z</time>
      </trkpt>
      <trkpt lat="43.13288" lon="3.12632">
        <ele>4.378906</ele>
        <time>2011-04-19T19:13:39Z</time>
      </trkpt>
      <trkpt lat="43.1328" lon="3.12597">
        <ele>4.6875</ele>
        <time>2011-04-19T19:13:47Z</time>
      </trkpt>
      <trkpt lat="43.13303" lon="3.12613">
        <ele>7.167969</ele>
        <time>2011-04-19T19:13:56Z</time>
      </trkpt>
      <trkpt lat="43.13313" lon="3.12615">
        <ele>8.5625</ele>
        <time>2011-04-19T19:13:59Z</time>
      </trkpt>
      <trkpt lat="43.13334" lon="3.12593">
        <ele>12.519531</ele>
        <time>2011-04-19T19:14:07Z</time>
      </trkpt>
      <trkpt lat="43.13353" lon="3.12569">
        <ele>14.105469</ele>
        <time>2011-04-19T19:14:15Z</time>
      </trkpt>
      <trkpt lat="43.13364" lon="3.12544">
        <ele>13.699219</ele>
        <time>2011-04-19T19:14:21Z</time>
      </trkpt>
      <trkpt lat="43.13381" lon="3.12524">
        <ele>13.847656</ele>
        <time>2011-04-19T19:14:28Z</time>
      </trkpt>
      <trkpt lat="43.13401" lon="3.12524">
        <ele>14.871094</ele>
        <time>2011-04-19T19:14:34Z</time>
      </trkpt>
      <trkpt lat="43.13424" lon="3.12551">
        <ele>17.714844</ele>
        <time>2011-04-19T19:14:44Z</time>
      </trkpt>
      <trkpt lat="43.13448" lon="3.12554">
        <ele>20.367188</ele>
        <time>2011-04-19T19:14:51Z</time>
      </trkpt>
      <trkpt lat="43.13477" lon="3.12544">
        <ele>23.910156</ele>
        <time>2011-04-19T19:15:00Z</time>
      </trkpt>
      <trkpt lat="43.13496" lon="3.12527">
        <ele>26.53125</ele>
        <time>2011-04-19T19:15:07Z</time>
      </trkpt>
      <trkpt lat="43.13498" lon="3.12526">
        <ele>26.761719</ele>
        <time>2011-04-19T19:15:08Z</time>
      </trkpt>
      <trkpt lat="43.13528" lon="3.12494">
        <ele>29.609375</ele>
        <time>2011-04-19T19:15:20Z</time>
      </trkpt>
      <trkpt lat="43.13531" lon="3.12489">
        <ele>29.929688</ele>
        <time>2011-04-19T19:15:21Z</time>
      </trkpt>
      <trkpt lat="43.13547" lon="3.12467">
        <ele>31.539063</ele>
        <time>2011-04-19T19:15:28Z</time>
      </trkpt>
      <trkpt lat="43.13586" lon="3.12421">
        <ele>33.996094</ele>
        <time>2011-04-19T19:15:44Z</time>
      </trkpt>
      <trkpt lat="43.13624" lon="3.12383">
        <ele>35.898438</ele>
        <time>2011-04-19T19:15:58Z</time>
      </trkpt>
      <trkpt lat="43.13642" lon="3.12356">
        <ele>36.550781</ele>
        <time>2011-04-19T19:16:07Z</time>
      </trkpt>
      <trkpt lat="43.13648" lon="3.12343">
        <ele>30.319</ele>
        <time>2011-04-19T19:16:10Z</time>
      </trkpt>
      <trkpt lat="43.13649" lon="3.1234">
        <ele>30.445999</ele>
        <time>2011-04-19T19:16:11Z</time>
      </trkpt>
      <trkpt lat="43.13651" lon="3.12337">
        <ele>30.320999</ele>
        <time>2011-04-19T19:16:12Z</time>
      </trkpt>
      <trkpt lat="43.13665" lon="3.1232">
        <ele>31.951</ele>
        <time>2011-04-19T19:16:17Z</time>
      </trkpt>
      <trkpt lat="43.13667" lon="3.12319">
        <ele>32.181999</ele>
        <time>2011-04-19T19:16:18Z</time>
      </trkpt>
      <trkpt lat="43.13682" lon="3.12308">
        <ele>32.415001</ele>
        <time>2011-04-19T19:16:24Z</time>
      </trkpt>
      <trkpt lat="43.13693" lon="3.12288">
        <ele>32.666</ele>
        <time>2011-04-19T19:16:29Z</time>
      </trkpt>
      <trkpt lat="43.13706" lon="3.12262">
        <ele>33.594002</ele>
        <time>2011-04-19T19:16:36Z</time>
      </trkpt>
      <trkpt lat="43.13715" lon="3.12236">
        <ele>35.464001</ele>
        <time>2011-04-19T19:16:43Z</time>
      </trkpt>
      <trkpt lat="43.13723" lon="3.1221">
        <ele>35.521</ele>
        <time>2011-04-19T19:16:49Z</time>
      </trkpt>
      <trkpt lat="43.13738" lon="3.12188">
        <ele>37.172001</ele>
        <time>2011-04-19T19:16:56Z</time>
      </trkpt>
      <trkpt lat="43.13753" lon="3.12174">
        <ele>38.162998</ele>
        <time>2011-04-19T19:17:01Z</time>
      </trkpt>
      <trkpt lat="43.13765" lon="3.12166">
        <ele>40.058998</ele>
        <time>2011-04-19T19:17:05Z</time>
      </trkpt>
      <trkpt lat="43.13781" lon="3.12158">
        <ele>41.203999</ele>
        <time>2011-04-19T19:17:11Z</time>
      </trkpt>
      <trkpt lat="43.13799" lon="3.1215">
        <ele>44.403</ele>
        <time>2011-04-19T19:17:16Z</time>
      </trkpt>
      <trkpt lat="43.1382" lon="3.12133">
        <ele>45.207001</ele>
        <time>2011-04-19T19:17:24Z</time>
      </trkpt>
      <trkpt lat="43.13829" lon="3.12115">
        <ele>47.816002</ele>
        <time>2011-04-19T19:17:29Z</time>
      </trkpt>
      <trkpt lat="43.13841" lon="3.12096">
        <ele>48.438</ele>
        <time>2011-04-19T19:17:34Z</time>
      </trkpt>
      <trkpt lat="43.13845" lon="3.12091">
        <ele>49.391998</ele>
        <time>2011-04-19T19:17:36Z</time>
      </trkpt>
      <trkpt lat="43.1385" lon="3.12083">
        <ele>47.960999</ele>
        <time>2011-04-19T19:17:39Z</time>
      </trkpt>
      <trkpt lat="43.13864" lon="3.12066">
        <ele>50.638</ele>
        <time>2011-04-19T19:17:44Z</time>
      </trkpt>
      <trkpt lat="43.13878" lon="3.12042">
        <ele>50.181</ele>
        <time>2011-04-19T19:17:51Z</time>
      </trkpt>
      <trkpt lat="43.13881" lon="3.12035">
        <ele>51.414001</ele>
        <time>2011-04-19T19:17:53Z</time>
      </trkpt>
      <trkpt lat="43.13893" lon="3.12011">
        <ele>50.549999</ele>
        <time>2011-04-19T19:18:00Z</time>
      </trkpt>
      <trkpt lat="43.139" lon="3.12">
        <ele>53.750999</ele>
        <time>2011-04-19T19:18:03Z</time>
      </trkpt>
      <trkpt lat="43.13913" lon="3.1198">
        <ele>52.209999</ele>
        <time>2011-04-19T19:18:09Z</time>
      </trkpt>
      <trkpt lat="43.13928" lon="3.11955">
        <ele>51.876999</ele>
        <time>2011-04-19T19:18:16Z</time>
      </trkpt>
      <trkpt lat="43.13932" lon="3.11948">
        <ele>53.869</ele>
        <time>2011-04-19T19:18:18Z</time>
      </trkpt>
      <trkpt lat="43.13935" lon="3.1194">
        <ele>52.141998</ele>
        <time>2011-04-19T19:18:20Z</time>
      </trkpt>
      <trkpt lat="43.1395" lon="3.11918">
        <ele>52.851002</ele>
        <time>2011-04-19T19:18:27Z</time>
      </trkpt>
      <trkpt lat="43.13953" lon="3.11903">
        <ele>54.512001</ele>
        <time>2011-04-19T19:18:30Z</time>
      </trkpt>
      <trkpt lat="43.13948" lon="3.11895">
        <ele>53.59</ele>
        <time>2011-04-19T19:18:33Z</time>
      </trkpt>
      <trkpt lat="43.13948" lon="3.11886">
        <ele>53.861</ele>
        <time>2011-04-19T19:18:35Z</time>
      </trkpt>
      <trkpt lat="43.1395" lon="3.11882">
        <ele>53.404999</ele>
        <time>2011-04-19T19:18:36Z</time>
      </trkpt>
      <trkpt lat="43.1395" lon="3.11873">
        <ele>55.068001</ele>
        <time>2011-04-19T19:18:38Z</time>
      </trkpt>
      <trkpt lat="43.13946" lon="3.1185">
        <ele>55.592999</ele>
        <time>2011-04-19T19:18:43Z</time>
      </trkpt>
      <trkpt lat="43.1394" lon="3.11837">
        <ele>56.390999</ele>
        <time>2011-04-19T19:18:47Z</time>
      </trkpt>
      <trkpt lat="43.13927" lon="3.11833">
        <ele>55.611</ele>
        <time>2011-04-19T19:18:51Z</time>
      </trkpt>
      <trkpt lat="43.13919" lon="3.11832">
        <ele>54.870998</ele>
        <time>2011-04-19T19:18:53Z</time>
      </trkpt>
      <trkpt lat="43.13899" lon="3.11831">
        <ele>55.997002</ele>
        <time>2011-04-19T19:18:59Z</time>
      </trkpt>
      <trkpt lat="43.13862" lon="3.11829">
        <ele>53.749001</ele>
        <time>2011-04-19T19:19:11Z</time>
      </trkpt>
      <trkpt lat="43.13835" lon="3.11825">
        <ele>55.147999</ele>
        <time>2011-04-19T19:19:19Z</time>
      </trkpt>
      <trkpt lat="43.1382" lon="3.11824">
        <ele>54.604999</ele>
        <time>2011-04-19T19:19:24Z</time>
      </trkpt>
      <trkpt lat="43.13809" lon="3.1182">
        <ele>52.479</ele>
        <time>2011-04-19T19:19:27Z</time>
      </trkpt>
      <trkpt lat="43.13775" lon="3.11814">
        <ele>50.207001</ele>
        <time>2011-04-19T19:19:38Z</time>
      </trkpt>
      <trkpt lat="43.13751" lon="3.11813">
        <ele>49.146</ele>
        <time>2011-04-19T19:19:45Z</time>
      </trkpt>
      <trkpt lat="43.13729" lon="3.11811">
        <ele>48.646999</ele>
        <time>2011-04-19T19:19:52Z</time>
      </trkpt>
      <trkpt lat="43.13703" lon="3.11808">
        <ele>46.536999</ele>
        <time>2011-04-19T19:20:00Z</time>
      </trkpt>
      <trkpt lat="43.13698" lon="3.11807">
        <ele>45.418999</ele>
        <time>2011-04-19T19:20:02Z</time>
      </trkpt>
      <trkpt lat="43.13678" lon="3.11801">
        <ele>42.351002</ele>
        <time>2011-04-19T19:20:08Z</time>
      </trkpt>
      <trkpt lat="43.13649" lon="3.11793">
        <ele>39.411999</ele>
        <time>2011-04-19T19:20:17Z</time>
      </trkpt>
      <trkpt lat="43.1363" lon="3.11794">
        <ele>38.596001</ele>
        <time>2011-04-19T19:20:23Z</time>
      </trkpt>
      <trkpt lat="43.13626" lon="3.11798">
        <ele>39.210999</ele>
        <time>2011-04-19T19:20:24Z</time>
      </trkpt>
      <trkpt lat="43.13622" lon="3.11817">
        <ele>41.292</ele>
        <time>2011-04-19T19:20:29Z</time>
      </trkpt>
      <trkpt lat="43.13622" lon="3.11821">
        <ele>41.174</ele>
        <time>2011-04-19T19:20:30Z</time>
      </trkpt>
      <trkpt lat="43.13618" lon="3.11842">
        <ele>40.594002</ele>
        <time>2011-04-19T19:20:34Z</time>
      </trkpt>
      <trkpt lat="43.1361" lon="3.11841">
        <ele>41.201</ele>
        <time>2011-04-19T19:20:37Z</time>
      </trkpt>
      <trkpt lat="43.13598" lon="3.11831">
        <ele>43.208</ele>
        <time>2011-04-19T19:20:41Z</time>
      </trkpt>
      <trkpt lat="43.13599" lon="3.11821">
        <ele>45.785999</ele>
        <time>2011-04-19T19:20:44Z</time>
      </trkpt>
      <trkpt lat="43.13601" lon="3.11819">
        <ele>44.662998</ele>
        <time>2011-04-19T19:20:44Z</time>
      </trkpt>
      <trkpt lat="43.13612" lon="3.11801">
        <ele>45.155998</ele>
        <time>2011-04-19T19:20:50Z</time>
      </trkpt>
      <trkpt lat="43.13618" lon="3.11777">
        <ele>45.926998</ele>
        <time>2011-04-19T19:20:55Z</time>
      </trkpt>
      <trkpt lat="43.13623" lon="3.11762">
        <ele>48.792999</ele>
        <time>2011-04-19T19:20:59Z</time>
      </trkpt>
      <trkpt lat="43.13625" lon="3.11752">
        <ele>47.306</ele>
        <time>2011-04-19T19:21:01Z</time>
      </trkpt>
      <trkpt lat="43.13625" lon="3.11745">
        <ele>48.826</ele>
        <time>2011-04-19T19:21:03Z</time>
      </trkpt>
      <trkpt lat="43.13626" lon="3.11734">
        <ele>47.563999</ele>
        <time>2011-04-19T19:21:05Z</time>
      </trkpt>
      <trkpt lat="43.1363" lon="3.1171">
        <ele>50.060001</ele>
        <time>2011-04-19T19:21:11Z</time>
      </trkpt>
      <trkpt lat="43.13631" lon="3.11703">
        <ele>50.916</ele>
        <time>2011-04-19T19:21:13Z</time>
      </trkpt>
      <trkpt lat="43.13639" lon="3.1168">
        <ele>52.313</ele>
        <time>2011-04-19T19:21:18Z</time>
      </trkpt>
      <trkpt lat="43.13654" lon="3.11659">
        <ele>54.963001</ele>
        <time>2011-04-19T19:21:25Z</time>
      </trkpt>
      <trkpt lat="43.13658" lon="3.11655">
        <ele>56.07</ele>
        <time>2011-04-19T19:21:27Z</time>
      </trkpt>
      <trkpt lat="43.13674" lon="3.11649">
        <ele>57.308998</ele>
        <time>2011-04-19T19:21:32Z</time>
      </trkpt>
      <trkpt lat="43.13689" lon="3.11635">
        <ele>62.369</ele>
        <time>2011-04-19T19:21:37Z</time>
      </trkpt>
      <trkpt lat="43.13692" lon="3.11625">
        <ele>59.599998</ele>
        <time>2011-04-19T19:21:40Z</time>
      </trkpt>
      <trkpt lat="43.13692" lon="3.11622">
        <ele>59.841999</ele>
        <time>2011-04-19T19:21:40Z</time>
      </trkpt>
      <trkpt lat="43.13691" lon="3.11616">
        <ele>60.466</ele>
        <time>2011-04-19T19:21:42Z</time>
      </trkpt>
      <trkpt lat="43.13683" lon="3.11612">
        <ele>61.249001</ele>
        <time>2011-04-19T19:21:44Z</time>
      </trkpt>
      <trkpt lat="43.13658" lon="3.11611">
        <ele>61.337002</ele>
        <time>2011-04-19T19:21:52Z</time>
      </trkpt>
      <trkpt lat="43.13624" lon="3.1161">
        <ele>61.029999</ele>
        <time>2011-04-19T19:22:03Z</time>
      </trkpt>
      <trkpt lat="43.13607" lon="3.11609">
        <ele>61.111</ele>
        <time>2011-04-19T19:22:08Z</time>
      </trkpt>
      <trkpt lat="43.13593" lon="3.11597">
        <ele>62.584</ele>
        <time>2011-04-19T19:22:13Z</time>
      </trkpt>
      <trkpt lat="43.13592" lon="3.11576">
        <ele>63.854</ele>
        <time>2011-04-19T19:22:17Z</time>
      </trkpt>
      <trkpt lat="43.13596" lon="3.11567">
        <ele>64.012001</ele>
        <time>2011-04-19T19:22:20Z</time>
      </trkpt>
      <trkpt lat="43.1361" lon="3.11549">
        <ele>62.736</ele>
        <time>2011-04-19T19:22:26Z</time>
      </trkpt>
      <trkpt lat="43.13637" lon="3.11538">
        <ele>61.598</ele>
        <time>2011-04-19T19:22:34Z</time>
      </trkpt>
      <trkpt lat="43.1366" lon="3.11531">
        <ele>58.973</ele>
        <time>2011-04-19T19:22:42Z</time>
      </trkpt>
      <trkpt lat="43.137" lon="3.11522">
        <ele>60.865002</ele>
        <time>2011-04-19T19:22:54Z</time>
      </trkpt>
      <trkpt lat="43.13726" lon="3.11526">
        <ele>62.272999</ele>
        <time>2011-04-19T19:23:02Z</time>
      </trkpt>
      <trkpt lat="43.13748" lon="3.11532">
        <ele>62.292</ele>
        <time>2011-04-19T19:23:09Z</time>
      </trkpt>
      <trkpt lat="43.13783" lon="3.11536">
        <ele>63.042999</ele>
        <time>2011-04-19T19:23:20Z</time>
      </trkpt>
      <trkpt lat="43.13792" lon="3.11537">
        <ele>63.859001</ele>
        <time>2011-04-19T19:23:23Z</time>
      </trkpt>
      <trkpt lat="43.13808" lon="3.11528">
        <ele>62.945999</ele>
        <time>2011-04-19T19:23:28Z</time>
      </trkpt>
      <trkpt lat="43.1381" lon="3.11523">
        <ele>62.651001</ele>
        <time>2011-04-19T19:23:29Z</time>
      </trkpt>
      <trkpt lat="43.13814" lon="3.11506">
        <ele>64.447998</ele>
        <time>2011-04-19T19:23:33Z</time>
      </trkpt>
      <trkpt lat="43.13821" lon="3.11479">
        <ele>63.317001</ele>
        <time>2011-04-19T19:23:40Z</time>
      </trkpt>
      <trkpt lat="43.13824" lon="3.11462">
        <ele>63.194</ele>
        <time>2011-04-19T19:23:44Z</time>
      </trkpt>
      <trkpt lat="43.13827" lon="3.11424">
        <ele>62.396999</ele>
        <time>2011-04-19T19:23:52Z</time>
      </trkpt>
      <trkpt lat="43.13822" lon="3.11388">
        <ele>63.141998</ele>
        <time>2011-04-19T19:24:01Z</time>
      </trkpt>
      <trkpt lat="43.13819" lon="3.11382">
        <ele>63.351002</ele>
        <time>2011-04-19T19:24:02Z</time>
      </trkpt>
      <trkpt lat="43.13809" lon="3.11375">
        <ele>62.931999</ele>
        <time>2011-04-19T19:24:06Z</time>
      </trkpt>
      <trkpt lat="43.13772" lon="3.11365">
        <ele>61.290001</ele>
        <time>2011-04-19T19:24:17Z</time>
      </trkpt>
      <trkpt lat="43.13757" lon="3.11353">
        <ele>60.104999</ele>
        <time>2011-04-19T19:24:23Z</time>
      </trkpt>
      <trkpt lat="43.13745" lon="3.11351">
        <ele>59.632</ele>
        <time>2011-04-19T19:24:26Z</time>
      </trkpt>
      <trkpt lat="43.13739" lon="3.11349">
        <ele>59.75</ele>
        <time>2011-04-19T19:24:28Z</time>
      </trkpt>
      <trkpt lat="43.13735" lon="3.11335">
        <ele>56.576</ele>
        <time>2011-04-19T19:24:32Z</time>
      </trkpt>
      <trkpt lat="43.13736" lon="3.11319">
        <ele>55.462002</ele>
        <time>2011-04-19T19:24:35Z</time>
      </trkpt>
      <trkpt lat="43.13732" lon="3.113">
        <ele>57.089001</ele>
        <time>2011-04-19T19:24:40Z</time>
      </trkpt>
      <trkpt lat="43.13731" lon="3.11294">
        <ele>56.297001</ele>
        <time>2011-04-19T19:24:41Z</time>
      </trkpt>
      <trkpt lat="43.13728" lon="3.11286">
        <ele>55.411999</ele>
        <time>2011-04-19T19:24:43Z</time>
      </trkpt>
      <trkpt lat="43.13726" lon="3.11276">
        <ele>53.844002</ele>
        <time>2011-04-19T19:24:45Z</time>
      </trkpt>
      <trkpt lat="43.13728" lon="3.11272">
        <ele>53.91</ele>
        <time>2011-04-19T19:24:46Z</time>
      </trkpt>
      <trkpt lat="43.13727" lon="3.11263">
        <ele>54.672001</ele>
        <time>2011-04-19T19:24:48Z</time>
      </trkpt>
      <trkpt lat="43.13729" lon="3.11245">
        <ele>53.824001</ele>
        <time>2011-04-19T19:24:52Z</time>
      </trkpt>
      <trkpt lat="43.13723" lon="3.11231">
        <ele>52.556</ele>
        <time>2011-04-19T19:24:56Z</time>
      </trkpt>
      <trkpt lat="43.13716" lon="3.11233">
        <ele>50.960999</ele>
        <time>2011-04-19T19:24:58Z</time>
      </trkpt>
      <trkpt lat="43.13708" lon="3.11242">
        <ele>47.334999</ele>
        <time>2011-04-19T19:25:01Z</time>
      </trkpt>
      <trkpt lat="43.13701" lon="3.11249">
        <ele>49.856998</ele>
        <time>2011-04-19T19:25:04Z</time>
      </trkpt>
      <trkpt lat="43.13695" lon="3.11259">
        <ele>45.387001</ele>
        <time>2011-04-19T19:25:07Z</time>
      </trkpt>
      <trkpt lat="43.13695" lon="3.11262">
        <ele>43.921001</ele>
        <time>2011-04-19T19:25:08Z</time>
      </trkpt>
      <trkpt lat="43.13696" lon="3.11267">
        <ele>42.938</ele>
        <time>2011-04-19T19:25:09Z</time>
      </trkpt>
      <trkpt lat="43.13702" lon="3.11276">
        <ele>41.643002</ele>
        <time>2011-04-19T19:25:12Z</time>
      </trkpt>
      <trkpt lat="43.13707" lon="3.11285">
        <ele>42.757999</ele>
        <time>2011-04-19T19:25:14Z</time>
      </trkpt>
      <trkpt lat="43.13705" lon="3.11288">
        <ele>45.104999</ele>
        <time>2011-04-19T19:25:15Z</time>
      </trkpt>
      <trkpt lat="43.13703" lon="3.11287">
        <ele>43.978001</ele>
        <time>2011-04-19T19:25:16Z</time>
      </trkpt>
      <trkpt lat="43.13698" lon="3.11281">
        <ele>39.251999</ele>
        <time>2011-04-19T19:25:18Z</time>
      </trkpt>
      <trkpt lat="43.1369" lon="3.11275">
        <ele>36.688</ele>
        <time>2011-04-19T19:25:21Z</time>
      </trkpt>
      <trkpt lat="43.13683" lon="3.11267">
        <ele>36.914001</ele>
        <time>2011-04-19T19:25:24Z</time>
      </trkpt>
      <trkpt lat="43.13667" lon="3.11264">
        <ele>35.486</ele>
        <time>2011-04-19T19:25:29Z</time>
      </trkpt>
      <trkpt lat="43.13654" lon="3.11266">
        <ele>32.360001</ele>
        <time>2011-04-19T19:25:32Z</time>
      </trkpt>
      <trkpt lat="43.13653" lon="3.11264">
        <ele>32.112999</ele>
        <time>2011-04-19T19:25:33Z</time>
      </trkpt>
      <trkpt lat="43.13652" lon="3.11251">
        <ele>30.003</ele>
        <time>2011-04-19T19:25:36Z</time>
      </trkpt>
      <trkpt lat="43.13652" lon="3.11246">
        <ele>29.795</ele>
        <time>2011-04-19T19:25:37Z</time>
      </trkpt>
      <trkpt lat="43.13644" lon="3.11239">
        <ele>29.334999</ele>
        <time>2011-04-19T19:25:40Z</time>
      </trkpt>
      <trkpt lat="43.13639" lon="3.11243">
        <ele>26.583</ele>
        <time>2011-04-19T19:25:42Z</time>
      </trkpt>
      <trkpt lat="43.13629" lon="3.11244">
        <ele>26.402</ele>
        <time>2011-04-19T19:25:45Z</time>
      </trkpt>
      <trkpt lat="43.13612" lon="3.11247">
        <ele>25.973</ele>
        <time>2011-04-19T19:25:50Z</time>
      </trkpt>
      <trkpt lat="43.13608" lon="3.11252">
        <ele>25.924999</ele>
        <time>2011-04-19T19:25:52Z</time>
      </trkpt>
      <trkpt lat="43.13599" lon="3.11265">
        <ele>25.601999</ele>
        <time>2011-04-19T19:25:56Z</time>
      </trkpt>
      <trkpt lat="43.1359" lon="3.11283">
        <ele>25.031</ele>
        <time>2011-04-19T19:26:01Z</time>
      </trkpt>
      <trkpt lat="43.13585" lon="3.11294">
        <ele>24.423</ele>
        <time>2011-04-19T19:26:04Z</time>
      </trkpt>
      <trkpt lat="43.13581" lon="3.11323">
        <ele>23.132</ele>
        <time>2011-04-19T19:26:10Z</time>
      </trkpt>
      <trkpt lat="43.13578" lon="3.11345">
        <ele>24.636999</ele>
        <time>2011-04-19T19:26:15Z</time>
      </trkpt>
      <trkpt lat="43.13577" lon="3.11355">
        <ele>24.056999</ele>
        <time>2011-04-19T19:26:18Z</time>
      </trkpt>
      <trkpt lat="43.13566" lon="3.1136">
        <ele>22.785</ele>
        <time>2011-04-19T19:26:21Z</time>
      </trkpt>
      <trkpt lat="43.13563" lon="3.1136">
        <ele>22.533001</ele>
        <time>2011-04-19T19:26:22Z</time>
      </trkpt>
      <trkpt lat="43.1356" lon="3.1136">
        <ele>22.885</ele>
        <time>2011-04-19T19:26:23Z</time>
      </trkpt>
      <trkpt lat="43.13551" lon="3.11373">
        <ele>24.685</ele>
        <time>2011-04-19T19:26:27Z</time>
      </trkpt>
      <trkpt lat="43.13551" lon="3.1138">
        <ele>25.445999</ele>
        <time>2011-04-19T19:26:28Z</time>
      </trkpt>
      <trkpt lat="43.1355" lon="3.11394">
        <ele>25.149</ele>
        <time>2011-04-19T19:26:32Z</time>
      </trkpt>
      <trkpt lat="43.13548" lon="3.11405">
        <ele>24.805</ele>
        <time>2011-04-19T19:26:34Z</time>
      </trkpt>
      <trkpt lat="43.1353" lon="3.11434">
        <ele>22.999001</ele>
        <time>2011-04-19T19:26:42Z</time>
      </trkpt>
      <trkpt lat="43.13492" lon="3.11468">
        <ele>21.358</ele>
        <time>2011-04-19T19:26:57Z</time>
      </trkpt>
      <trkpt lat="43.13477" lon="3.11482">
        <ele>19.266001</ele>
        <time>2011-04-19T19:27:02Z</time>
      </trkpt>
      <trkpt lat="43.13472" lon="3.11487">
        <ele>19.485001</ele>
        <time>2011-04-19T19:27:04Z</time>
      </trkpt>
      <trkpt lat="43.13454" lon="3.115">
        <ele>21.497</ele>
        <time>2011-04-19T19:27:10Z</time>
      </trkpt>
      <trkpt lat="43.13442" lon="3.11518">
        <ele>20.322001</ele>
        <time>2011-04-19T19:27:16Z</time>
      </trkpt>
      <trkpt lat="43.1344" lon="3.1153">
        <ele>19.709</ele>
        <time>2011-04-19T19:27:19Z</time>
      </trkpt>
      <trkpt lat="43.1344" lon="3.1154">
        <ele>18.844</ele>
        <time>2011-04-19T19:27:21Z</time>
      </trkpt>
      <trkpt lat="43.13439" lon="3.11552">
        <ele>20.302999</ele>
        <time>2011-04-19T19:27:24Z</time>
      </trkpt>
      <trkpt lat="43.13438" lon="3.11576">
        <ele>22.874001</ele>
        <time>2011-04-19T19:27:29Z</time>
      </trkpt>
      <trkpt lat="43.13434" lon="3.11587">
        <ele>24.431</ele>
        <time>2011-04-19T19:27:32Z</time>
      </trkpt>
      <trkpt lat="43.13431" lon="3.11594">
        <ele>23.360001</ele>
        <time>2011-04-19T19:27:33Z</time>
      </trkpt>
      <trkpt lat="43.13417" lon="3.11617">
        <ele>24.025999</ele>
        <time>2011-04-19T19:27:40Z</time>
      </trkpt>
      <trkpt lat="43.13409" lon="3.11637">
        <ele>25.768</ele>
        <time>2011-04-19T19:27:45Z</time>
      </trkpt>
      <trkpt lat="43.13405" lon="3.11646">
        <ele>25.495001</ele>
        <time>2011-04-19T19:27:48Z</time>
      </trkpt>
      <trkpt lat="43.13399" lon="3.11674">
        <ele>25.544001</ele>
        <time>2011-04-19T19:27:54Z</time>
      </trkpt>
      <trkpt lat="43.13387" lon="3.11703">
        <ele>25.063</ele>
        <time>2011-04-19T19:28:02Z</time>
      </trkpt>
      <trkpt lat="43.13364" lon="3.11722">
        <ele>24.915001</ele>
        <time>2011-04-19T19:28:10Z</time>
      </trkpt>
      <trkpt lat="43.13359" lon="3.11723">
        <ele>24.98</ele>
        <time>2011-04-19T19:28:12Z</time>
      </trkpt>
      <trkpt lat="43.13331" lon="3.11739">
        <ele>24.322001</ele>
        <time>2011-04-19T19:28:21Z</time>
      </trkpt>
      <trkpt lat="43.13323" lon="3.11744">
        <ele>24.323</ele>
        <time>2011-04-19T19:28:24Z</time>
      </trkpt>
      <trkpt lat="43.13285" lon="3.11758">
        <ele>25.007</ele>
        <time>2011-04-19T19:28:36Z</time>
      </trkpt>
      <trkpt lat="43.13263" lon="3.1177">
        <ele>25.584999</ele>
        <time>2011-04-19T19:28:43Z</time>
      </trkpt>
      <trkpt lat="43.13241" lon="3.11789">
        <ele>26.040001</ele>
        <time>2011-04-19T19:28:51Z</time>
      </trkpt>
      <trkpt lat="43.13231" lon="3.118">
        <ele>26.046</ele>
        <time>2011-04-19T19:28:55Z</time>
      </trkpt>
      <trkpt lat="43.1321" lon="3.11824">
        <ele>25.855</ele>
        <time>2011-04-19T19:29:03Z</time>
      </trkpt>
      <trkpt lat="43.13203" lon="3.11833">
        <ele>27.250999</ele>
        <time>2011-04-19T19:29:06Z</time>
      </trkpt>
      <trkpt lat="43.13197" lon="3.11841">
        <ele>28.066</ele>
        <time>2011-04-19T19:29:09Z</time>
      </trkpt>
      <trkpt lat="43.13191" lon="3.11838">
        <ele>28.312</ele>
        <time>2011-04-19T19:29:11Z</time>
      </trkpt>
      <trkpt lat="43.13192" lon="3.11835">
        <ele>28.705999</ele>
        <time>2011-04-19T19:29:11Z</time>
      </trkpt>
      <trkpt lat="43.13197" lon="3.11809">
        <ele>31.347</ele>
        <time>2011-04-19T19:29:17Z</time>
      </trkpt>
      <trkpt lat="43.13207" lon="3.11779">
        <ele>31.148001</ele>
        <time>2011-04-19T19:29:25Z</time>
      </trkpt>
      <trkpt lat="43.13215" lon="3.11764">
        <ele>32.923</ele>
        <time>2011-04-19T19:29:29Z</time>
      </trkpt>
      <trkpt lat="43.13226" lon="3.11749">
        <ele>33.102001</ele>
        <time>2011-04-19T19:29:34Z</time>
      </trkpt>
      <trkpt lat="43.13232" lon="3.11732">
        <ele>32.818001</ele>
        <time>2011-04-19T19:29:38Z</time>
      </trkpt>
      <trkpt lat="43.13236" lon="3.11715">
        <ele>32.205002</ele>
        <time>2011-04-19T19:29:42Z</time>
      </trkpt>
      <trkpt lat="43.13241" lon="3.11694">
        <ele>39.002998</ele>
        <time>2011-04-19T19:29:47Z</time>
      </trkpt>
      <trkpt lat="43.13244" lon="3.1167">
        <ele>36.903999</ele>
        <time>2011-04-19T19:29:52Z</time>
      </trkpt>
      <trkpt lat="43.13247" lon="3.11657">
        <ele>38.139</ele>
        <time>2011-04-19T19:29:56Z</time>
      </trkpt>
      <trkpt lat="43.13254" lon="3.1164">
        <ele>39.133999</ele>
        <time>2011-04-19T19:30:00Z</time>
      </trkpt>
      <trkpt lat="43.13264" lon="3.11616">
        <ele>39.316002</ele>
        <time>2011-04-19T19:30:06Z</time>
      </trkpt>
      <trkpt lat="43.13269" lon="3.11589">
        <ele>40.743</ele>
        <time>2011-04-19T19:30:12Z</time>
      </trkpt>
      <trkpt lat="43.13273" lon="3.1157">
        <ele>41.485001</ele>
        <time>2011-04-19T19:30:17Z</time>
      </trkpt>
      <trkpt lat="43.13279" lon="3.1153">
        <ele>43.681999</ele>
        <time>2011-04-19T19:30:26Z</time>
      </trkpt>
      <trkpt lat="43.13281" lon="3.1152">
        <ele>44.911999</ele>
        <time>2011-04-19T19:30:28Z</time>
      </trkpt>
      <trkpt lat="43.13286" lon="3.1149">
        <ele>45.490002</ele>
        <time>2011-04-19T19:30:35Z</time>
      </trkpt>
      <trkpt lat="43.1329" lon="3.11461">
        <ele>46.042999</ele>
        <time>2011-04-19T19:30:42Z</time>
      </trkpt>
      <trkpt lat="43.13296" lon="3.11429">
        <ele>45.049999</ele>
        <time>2011-04-19T19:30:49Z</time>
      </trkpt>
      <trkpt lat="43.13299" lon="3.1142">
        <ele>48.445</ele>
        <time>2011-04-19T19:30:52Z</time>
      </trkpt>
      <trkpt lat="43.13309" lon="3.11397">
        <ele>47.612</ele>
        <time>2011-04-19T19:30:58Z</time>
      </trkpt>
      <trkpt lat="43.1332" lon="3.11371">
        <ele>48.063</ele>
        <time>2011-04-19T19:31:04Z</time>
      </trkpt>
      <trkpt lat="43.13333" lon="3.1134">
        <ele>48.964001</ele>
        <time>2011-04-19T19:31:12Z</time>
      </trkpt>
      <trkpt lat="43.13341" lon="3.11328">
        <ele>53.248001</ele>
        <time>2011-04-19T19:31:16Z</time>
      </trkpt>
      <trkpt lat="43.13356" lon="3.11313">
        <ele>54.169998</ele>
        <time>2011-04-19T19:31:22Z</time>
      </trkpt>
      <trkpt lat="43.13363" lon="3.11307">
        <ele>52.174</ele>
        <time>2011-04-19T19:31:24Z</time>
      </trkpt>
      <trkpt lat="43.13372" lon="3.11296">
        <ele>54.813</ele>
        <time>2011-04-19T19:31:28Z</time>
      </trkpt>
      <trkpt lat="43.13382" lon="3.11277">
        <ele>55.963001</ele>
        <time>2011-04-19T19:31:33Z</time>
      </trkpt>
      <trkpt lat="43.13389" lon="3.11267">
        <ele>54.453999</ele>
        <time>2011-04-19T19:31:36Z</time>
      </trkpt>
      <trkpt lat="43.13397" lon="3.11254">
        <ele>56.035</ele>
        <time>2011-04-19T19:31:40Z</time>
      </trkpt>
      <trkpt lat="43.13412" lon="3.11229">
        <ele>57.195</ele>
        <time>2011-04-19T19:31:47Z</time>
      </trkpt>
      <trkpt lat="43.13422" lon="3.11205">
        <ele>58.384998</ele>
        <time>2011-04-19T19:31:54Z</time>
      </trkpt>
      <trkpt lat="43.13425" lon="3.11199">
        <ele>59.348</ele>
        <time>2011-04-19T19:31:55Z</time>
      </trkpt>
      <trkpt lat="43.13431" lon="3.1118">
        <ele>60.324001</ele>
        <time>2011-04-19T19:32:00Z</time>
      </trkpt>
      <trkpt lat="43.13436" lon="3.11167">
        <ele>61.675999</ele>
        <time>2011-04-19T19:32:03Z</time>
      </trkpt>
      <trkpt lat="43.13447" lon="3.11154">
        <ele>62.266998</ele>
        <time>2011-04-19T19:32:08Z</time>
      </trkpt>
      <trkpt lat="43.13463" lon="3.11143">
        <ele>64.908997</ele>
        <time>2011-04-19T19:32:13Z</time>
      </trkpt>
      <trkpt lat="43.13465" lon="3.11142">
        <ele>64.934998</ele>
        <time>2011-04-19T19:32:14Z</time>
      </trkpt>
      <trkpt lat="43.13479" lon="3.11128">
        <ele>66.361999</ele>
        <time>2011-04-19T19:32:19Z</time>
      </trkpt>
      <trkpt lat="43.13473" lon="3.11113">
        <ele>66.022003</ele>
        <time>2011-04-19T19:32:23Z</time>
      </trkpt>
      <trkpt lat="43.13454" lon="3.11109">
        <ele>65.079002</ele>
        <time>2011-04-19T19:32:29Z</time>
      </trkpt>
      <trkpt lat="43.1345" lon="3.1111">
        <ele>64.824997</ele>
        <time>2011-04-19T19:32:30Z</time>
      </trkpt>
      <trkpt lat="43.13436" lon="3.1111">
        <ele>66.82</ele>
        <time>2011-04-19T19:32:35Z</time>
      </trkpt>
      <trkpt lat="43.13411" lon="3.11109">
        <ele>69.719002</ele>
        <time>2011-04-19T19:32:42Z</time>
      </trkpt>
      <trkpt lat="43.13387" lon="3.11107">
        <ele>67.514</ele>
        <time>2011-04-19T19:32:50Z</time>
      </trkpt>
      <trkpt lat="43.13368" lon="3.11115">
        <ele>67.384003</ele>
        <time>2011-04-19T19:32:56Z</time>
      </trkpt>
      <trkpt lat="43.13356" lon="3.11131">
        <ele>65.675781</ele>
        <time>2011-04-19T19:33:01Z</time>
      </trkpt>
      <trkpt lat="43.1333" lon="3.11151">
        <ele>64.890625</ele>
        <time>2011-04-19T19:33:10Z</time>
      </trkpt>
      <trkpt lat="43.13298" lon="3.11168">
        <ele>63.261718</ele>
        <time>2011-04-19T19:33:21Z</time>
      </trkpt>
      <trkpt lat="43.13266" lon="3.11166">
        <ele>59.34375</ele>
        <time>2011-04-19T19:33:31Z</time>
      </trkpt>
      <trkpt lat="43.13255" lon="3.11183">
        <ele>58.6875</ele>
        <time>2011-04-19T19:33:36Z</time>
      </trkpt>
      <trkpt lat="43.13244" lon="3.11227">
        <ele>60.210937</ele>
        <time>2011-04-19T19:33:46Z</time>
      </trkpt>
      <trkpt lat="43.1324" lon="3.1124">
        <ele>60.144531</ele>
        <time>2011-04-19T19:33:49Z</time>
      </trkpt>
      <trkpt lat="43.1323" lon="3.11246">
        <ele>59.027343</ele>
        <time>2011-04-19T19:33:53Z</time>
      </trkpt>
      <trkpt lat="43.13224" lon="3.11249">
        <ele>57.652343</ele>
        <time>2011-04-19T19:33:55Z</time>
      </trkpt>
      <trkpt lat="43.13222" lon="3.11248">
        <ele>69</ele>
        <time>2011-04-19T19:33:55Z</time>
      </trkpt>
      <trkpt lat="43.13217" lon="3.11245">
        <ele>69</ele>
        <time>2011-04-19T19:33:57Z</time>
      </trkpt>
      <trkpt lat="43.13218" lon="3.11234">
        <ele>70</ele>
        <time>2011-04-19T19:34:00Z</time>
      </trkpt>
      <trkpt lat="43.13218" lon="3.11227">
        <ele>70</ele>
        <time>2011-04-19T19:34:01Z</time>
      </trkpt>
      <trkpt lat="43.13218" lon="3.11224">
        <ele>70</ele>
        <time>2011-04-19T19:34:02Z</time>
      </trkpt>
      <trkpt lat="43.13213" lon="3.11217">
        <ele>70</ele>
        <time>2011-04-19T19:34:04Z</time>
      </trkpt>
      <trkpt lat="43.13208" lon="3.11219">
        <ele>69</ele>
        <time>2011-04-19T19:34:06Z</time>
      </trkpt>
      <trkpt lat="43.13206" lon="3.1122">
        <ele>68</ele>
        <time>2011-04-19T19:34:07Z</time>
      </trkpt>
      <trkpt lat="43.132" lon="3.11225">
        <ele>67</ele>
        <time>2011-04-19T19:34:09Z</time>
      </trkpt>
      <trkpt lat="43.13198" lon="3.11228">
        <ele>66</ele>
        <time>2011-04-19T19:34:10Z</time>
      </trkpt>
      <trkpt lat="43.13195" lon="3.11231">
        <ele>66</ele>
        <time>2011-04-19T19:34:11Z</time>
      </trkpt>
      <trkpt lat="43.13191" lon="3.11238">
        <ele>65</ele>
        <time>2011-04-19T19:34:13Z</time>
      </trkpt>
      <trkpt lat="43.13184" lon="3.11248">
        <ele>64</ele>
        <time>2011-04-19T19:34:16Z</time>
      </trkpt>
      <trkpt lat="43.13181" lon="3.11251">
        <ele>64</ele>
        <time>2011-04-19T19:34:17Z</time>
      </trkpt>
      <trkpt lat="43.13177" lon="3.11253">
        <ele>63</ele>
        <time>2011-04-19T19:34:18Z</time>
      </trkpt>
      <trkpt lat="43.13169" lon="3.11256">
        <ele>62</ele>
        <time>2011-04-19T19:34:21Z</time>
      </trkpt>
      <trkpt lat="43.13164" lon="3.11249">
        <ele>59</ele>
        <time>2011-04-19T19:34:23Z</time>
      </trkpt>
      <trkpt lat="43.13163" lon="3.11248">
        <ele>58</ele>
        <time>2011-04-19T19:34:23Z</time>
      </trkpt>
      <trkpt lat="43.13162" lon="3.11246">
        <ele>58</ele>
        <time>2011-04-19T19:34:24Z</time>
      </trkpt>
      <trkpt lat="43.13162" lon="3.11243">
        <ele>56</ele>
        <time>2011-04-19T19:34:24Z</time>
      </trkpt>
      <trkpt lat="43.13162" lon="3.11243">
        <ele>56</ele>
        <time>2011-04-19T19:34:25Z</time>
      </trkpt>
      <trkpt lat="43.1316" lon="3.11235">
        <ele>54</ele>
        <time>2011-04-19T19:34:26Z</time>
      </trkpt>
      <trkpt lat="43.1315" lon="3.11236">
        <ele>51</ele>
        <time>2011-04-19T19:34:29Z</time>
      </trkpt>
      <trkpt lat="43.13147" lon="3.11242">
        <ele>50</ele>
        <time>2011-04-19T19:34:31Z</time>
      </trkpt>
      <trkpt lat="43.13144" lon="3.11257">
        <ele>50</ele>
        <time>2011-04-19T19:34:34Z</time>
      </trkpt>
      <trkpt lat="43.13139" lon="3.11269">
        <ele>49</ele>
        <time>2011-04-19T19:34:38Z</time>
      </trkpt>
      <trkpt lat="43.13137" lon="3.11272">
        <ele>49</ele>
        <time>2011-04-19T19:34:38Z</time>
      </trkpt>
      <trkpt lat="43.13135" lon="3.11278">
        <ele>48</ele>
        <time>2011-04-19T19:34:40Z</time>
      </trkpt>
      <trkpt lat="43.13134" lon="3.11282">
        <ele>47</ele>
        <time>2011-04-19T19:34:41Z</time>
      </trkpt>
      <trkpt lat="43.13132" lon="3.11292">
        <ele>45</ele>
        <time>2011-04-19T19:34:43Z</time>
      </trkpt>
      <trkpt lat="43.13127" lon="3.11309">
        <ele>43</ele>
        <time>2011-04-19T19:34:47Z</time>
      </trkpt>
      <trkpt lat="43.13123" lon="3.11316">
        <ele>42</ele>
        <time>2011-04-19T19:34:49Z</time>
      </trkpt>
      <trkpt lat="43.1312" lon="3.11322">
        <ele>40</ele>
        <time>2011-04-19T19:34:51Z</time>
      </trkpt>
      <trkpt lat="43.13115" lon="3.11341">
        <ele>37</ele>
        <time>2011-04-19T19:34:56Z</time>
      </trkpt>
      <trkpt lat="43.13109" lon="3.11348">
        <ele>35</ele>
        <time>2011-04-19T19:34:58Z</time>
      </trkpt>
      <trkpt lat="43.13102" lon="3.11349">
        <ele>34</ele>
        <time>2011-04-19T19:35:00Z</time>
      </trkpt>
      <trkpt lat="43.13095" lon="3.11347">
        <ele>32</ele>
        <time>2011-04-19T19:35:02Z</time>
      </trkpt>
      <trkpt lat="43.13094" lon="3.11351">
        <ele>25.886</ele>
        <time>2011-04-19T19:35:03Z</time>
      </trkpt>
      <trkpt lat="43.13106" lon="3.11377">
        <ele>26.521</ele>
        <time>2011-04-19T19:35:10Z</time>
      </trkpt>
      <trkpt lat="43.13115" lon="3.1141">
        <ele>26.184</ele>
        <time>2011-04-19T19:35:18Z</time>
      </trkpt>
      <trkpt lat="43.13118" lon="3.11435">
        <ele>24.566</ele>
        <time>2011-04-19T19:35:24Z</time>
      </trkpt>
      <trkpt lat="43.13119" lon="3.11449">
        <ele>23.049</ele>
        <time>2011-04-19T19:35:27Z</time>
      </trkpt>
      <trkpt lat="43.13128" lon="3.11474">
        <ele>22.746</ele>
        <time>2011-04-19T19:35:33Z</time>
      </trkpt>
      <trkpt lat="43.13107" lon="3.11479">
        <ele>23.014</ele>
        <time>2011-04-19T19:35:39Z</time>
      </trkpt>
      <trkpt lat="43.13094" lon="3.11484">
        <ele>21.768999</ele>
        <time>2011-04-19T19:35:44Z</time>
      </trkpt>
      <trkpt lat="43.13079" lon="3.11486">
        <ele>21.122</ele>
        <time>2011-04-19T19:35:48Z</time>
      </trkpt>
      <trkpt lat="43.13075" lon="3.11485">
        <ele>21.422001</ele>
        <time>2011-04-19T19:35:49Z</time>
      </trkpt>
      <trkpt lat="43.13062" lon="3.1148">
        <ele>20.396</ele>
        <time>2011-04-19T19:35:54Z</time>
      </trkpt>
      <trkpt lat="43.13055" lon="3.11478">
        <ele>20.528</ele>
        <time>2011-04-19T19:35:56Z</time>
      </trkpt>
      <trkpt lat="43.13042" lon="3.1148">
        <ele>20.108999</ele>
        <time>2011-04-19T19:36:00Z</time>
      </trkpt>
      <trkpt lat="43.13029" lon="3.1148">
        <ele>19.851999</ele>
        <time>2011-04-19T19:36:04Z</time>
      </trkpt>
      <trkpt lat="43.13014" lon="3.11486">
        <ele>19.830999</ele>
        <time>2011-04-19T19:36:09Z</time>
      </trkpt>
      <trkpt lat="43.13012" lon="3.11488">
        <ele>19.561001</ele>
        <time>2011-04-19T19:36:10Z</time>
      </trkpt>
      <trkpt lat="43.12994" lon="3.11503">
        <ele>18.663</ele>
        <time>2011-04-19T19:36:16Z</time>
      </trkpt>
      <trkpt lat="43.12981" lon="3.11513">
        <ele>18.534</ele>
        <time>2011-04-19T19:36:21Z</time>
      </trkpt>
      <trkpt lat="43.1297" lon="3.11514">
        <ele>19.162001</ele>
        <time>2011-04-19T19:36:24Z</time>
      </trkpt>
      <trkpt lat="43.12963" lon="3.11496">
        <ele>20.35</ele>
        <time>2011-04-19T19:36:29Z</time>
      </trkpt>
      <trkpt lat="43.12955" lon="3.11477">
        <ele>20.773001</ele>
        <time>2011-04-19T19:36:34Z</time>
      </trkpt>
      <trkpt lat="43.12939" lon="3.11473">
        <ele>20.277</ele>
        <time>2011-04-19T19:36:38Z</time>
      </trkpt>
      <trkpt lat="43.12928" lon="3.1147">
        <ele>20.329</ele>
        <time>2011-04-19T19:36:42Z</time>
      </trkpt>
      <trkpt lat="43.12925" lon="3.11467">
        <ele>20.722</ele>
        <time>2011-04-19T19:36:43Z</time>
      </trkpt>
      <trkpt lat="43.12914" lon="3.11459">
        <ele>20.357</ele>
        <time>2011-04-19T19:36:47Z</time>
      </trkpt>
      <trkpt lat="43.12899" lon="3.11449">
        <ele>20.455999</ele>
        <time>2011-04-19T19:36:52Z</time>
      </trkpt>
      <trkpt lat="43.12887" lon="3.11434">
        <ele>20.594999</ele>
        <time>2011-04-19T19:36:57Z</time>
      </trkpt>
      <trkpt lat="43.12873" lon="3.11415">
        <ele>20.556</ele>
        <time>2011-04-19T19:37:03Z</time>
      </trkpt>
      <trkpt lat="43.12865" lon="3.11407">
        <ele>20.513001</ele>
        <time>2011-04-19T19:37:06Z</time>
      </trkpt>
      <trkpt lat="43.12864" lon="3.11404">
        <ele>20.448999</ele>
        <time>2011-04-19T19:37:07Z</time>
      </trkpt>
      <trkpt lat="43.12863" lon="3.11386">
        <ele>20.298</ele>
        <time>2011-04-19T19:37:11Z</time>
      </trkpt>
      <trkpt lat="43.12852" lon="3.11371">
        <ele>19.369</ele>
        <time>2011-04-19T19:37:16Z</time>
      </trkpt>
      <trkpt lat="43.12849" lon="3.11365">
        <ele>19.086</ele>
        <time>2011-04-19T19:37:18Z</time>
      </trkpt>
      <trkpt lat="43.12848" lon="3.11344">
        <ele>18.528</ele>
        <time>2011-04-19T19:37:23Z</time>
      </trkpt>
      <trkpt lat="43.12831" lon="3.11334">
        <ele>12.5</ele>
        <time>2011-04-19T19:37:28Z</time>
      </trkpt>
      <trkpt lat="43.12814" lon="3.11331">
        <ele>11.917968</ele>
        <time>2011-04-19T19:37:33Z</time>
      </trkpt>
      <trkpt lat="43.12813" lon="3.11331">
        <ele>11.871093</ele>
        <time>2011-04-19T19:37:34Z</time>
      </trkpt>
      <trkpt lat="43.12783" lon="3.11316">
        <ele>10.839843</ele>
        <time>2011-04-19T19:37:43Z</time>
      </trkpt>
      <trkpt lat="43.12765" lon="3.11322">
        <ele>10.503906</ele>
        <time>2011-04-19T19:37:49Z</time>
      </trkpt>
      <trkpt lat="43.12747" lon="3.11329">
        <ele>10.328125</ele>
        <time>2011-04-19T19:37:55Z</time>
      </trkpt>
      <trkpt lat="43.12728" lon="3.11306">
        <ele>9.96875</ele>
        <time>2011-04-19T19:38:03Z</time>
      </trkpt>
      <trkpt lat="43.12736" lon="3.11253">
        <ele>9.1015625</ele>
        <time>2011-04-19T19:38:15Z</time>
      </trkpt>
      <trkpt lat="43.12739" lon="3.11206">
        <ele>9.9726563</ele>
        <time>2011-04-19T19:38:26Z</time>
      </trkpt>
      <trkpt lat="43.12732" lon="3.11163">
        <ele>11.574218</ele>
        <time>2011-04-19T19:38:35Z</time>
      </trkpt>
      <trkpt lat="43.12739" lon="3.1114">
        <ele>13.660156</ele>
        <time>2011-04-19T19:38:41Z</time>
      </trkpt>
      <trkpt lat="43.12748" lon="3.11147">
        <ele>10.692</ele>
        <time>2011-04-19T19:38:44Z</time>
      </trkpt>
      <trkpt lat="43.12752" lon="3.11146">
        <ele>10.783</ele>
        <time>2011-04-19T19:38:45Z</time>
      </trkpt>
      <trkpt lat="43.12783" lon="3.11139">
        <ele>11.45</ele>
        <time>2011-04-19T19:38:55Z</time>
      </trkpt>
      <trkpt lat="43.12811" lon="3.11129">
        <ele>12.078</ele>
        <time>2011-04-19T19:39:04Z</time>
      </trkpt>
      <trkpt lat="43.1284" lon="3.11117">
        <ele>13.303001</ele>
        <time>2011-04-19T19:39:13Z</time>
      </trkpt>
      <trkpt lat="43.12866" lon="3.11103">
        <ele>14.604</ele>
        <time>2011-04-19T19:39:22Z</time>
      </trkpt>
      <trkpt lat="43.12892" lon="3.11094">
        <ele>15.41</ele>
        <time>2011-04-19T19:39:30Z</time>
      </trkpt>
      <trkpt lat="43.1292" lon="3.11094">
        <ele>16.554001</ele>
        <time>2011-04-19T19:39:39Z</time>
      </trkpt>
      <trkpt lat="43.12951" lon="3.11096">
        <ele>17.323</ele>
        <time>2011-04-19T19:39:48Z</time>
      </trkpt>
      <trkpt lat="43.12975" lon="3.11108">
        <ele>18.072001</ele>
        <time>2011-04-19T19:39:56Z</time>
      </trkpt>
      <trkpt lat="43.12983" lon="3.11105">
        <ele>18.392</ele>
        <time>2011-04-19T19:39:59Z</time>
      </trkpt>
      <trkpt lat="43.12989" lon="3.11091">
        <ele>20.205</ele>
        <time>2011-04-19T19:40:02Z</time>
      </trkpt>
      <trkpt lat="43.12997" lon="3.1108">
        <ele>21.327</ele>
        <time>2011-04-19T19:40:06Z</time>
      </trkpt>
      <trkpt lat="43.12998" lon="3.11069">
        <ele>22.108</ele>
        <time>2011-04-19T19:40:09Z</time>
      </trkpt>
      <trkpt lat="43.12985" lon="3.11053">
        <ele>22.791</ele>
        <time>2011-04-19T19:40:14Z</time>
      </trkpt>
      <trkpt lat="43.12984" lon="3.11044">
        <ele>23.754999</ele>
        <time>2011-04-19T19:40:16Z</time>
      </trkpt>
      <trkpt lat="43.12979" lon="3.11037">
        <ele>25.146999</ele>
        <time>2011-04-19T19:40:18Z</time>
      </trkpt>
      <trkpt lat="43.12978" lon="3.11037">
        <ele>25.188</ele>
        <time>2011-04-19T19:40:19Z</time>
      </trkpt>
      <trkpt lat="43.12967" lon="3.11034">
        <ele>25.955</ele>
        <time>2011-04-19T19:40:22Z</time>
      </trkpt>
      <trkpt lat="43.12957" lon="3.11031">
        <ele>25.778999</ele>
        <time>2011-04-19T19:40:25Z</time>
      </trkpt>
      <trkpt lat="43.12941" lon="3.11028">
        <ele>25.403999</ele>
        <time>2011-04-19T19:40:30Z</time>
      </trkpt>
      <trkpt lat="43.12932" lon="3.11028">
        <ele>24.965</ele>
        <time>2011-04-19T19:40:33Z</time>
      </trkpt>
      <trkpt lat="43.12914" lon="3.11015">
        <ele>24.966999</ele>
        <time>2011-04-19T19:40:39Z</time>
      </trkpt>
      <trkpt lat="43.12912" lon="3.11013">
        <ele>24.978001</ele>
        <time>2011-04-19T19:40:40Z</time>
      </trkpt>
      <trkpt lat="43.1291" lon="3.11011">
        <ele>25.712</ele>
        <time>2011-04-19T19:40:41Z</time>
      </trkpt>
      <trkpt lat="43.12907" lon="3.11006">
        <ele>27.687</ele>
        <time>2011-04-19T19:40:42Z</time>
      </trkpt>
      <trkpt lat="43.12901" lon="3.10999">
        <ele>30.68</ele>
        <time>2011-04-19T19:40:45Z</time>
      </trkpt>
      <trkpt lat="43.12889" lon="3.10994">
        <ele>31.81</ele>
        <time>2011-04-19T19:40:49Z</time>
      </trkpt>
      <trkpt lat="43.12888" lon="3.10993">
        <ele>32.011002</ele>
        <time>2011-04-19T19:40:49Z</time>
      </trkpt>
      <trkpt lat="43.12873" lon="3.10995">
        <ele>30.820999</ele>
        <time>2011-04-19T19:40:53Z</time>
      </trkpt>
      <trkpt lat="43.1286" lon="3.10992">
        <ele>30.07</ele>
        <time>2011-04-19T19:40:57Z</time>
      </trkpt>
      <trkpt lat="43.1285" lon="3.10988">
        <ele>31.472</ele>
        <time>2011-04-19T19:41:01Z</time>
      </trkpt>
      <trkpt lat="43.12845" lon="3.10989">
        <ele>31.893</ele>
        <time>2011-04-19T19:41:02Z</time>
      </trkpt>
      <trkpt lat="43.1284" lon="3.10984">
        <ele>34.307999</ele>
        <time>2011-04-19T19:41:04Z</time>
      </trkpt>
      <trkpt lat="43.1284" lon="3.10981">
        <ele>34.994</ele>
        <time>2011-04-19T19:41:05Z</time>
      </trkpt>
      <trkpt lat="43.12839" lon="3.10975">
        <ele>36.762001</ele>
        <time>2011-04-19T19:41:07Z</time>
      </trkpt>
      <trkpt lat="43.12839" lon="3.10975">
        <ele>36.918999</ele>
        <time>2011-04-19T19:41:07Z</time>
      </trkpt>
      <trkpt lat="43.12839" lon="3.1097">
        <ele>38.403</ele>
        <time>2011-04-19T19:41:08Z</time>
      </trkpt>
      <trkpt lat="43.12838" lon="3.1097">
        <ele>38.549999</ele>
        <time>2011-04-19T19:41:08Z</time>
      </trkpt>
      <trkpt lat="43.12833" lon="3.10967">
        <ele>40.330002</ele>
        <time>2011-04-19T19:41:10Z</time>
      </trkpt>
      <trkpt lat="43.12832" lon="3.10965">
        <ele>40.734001</ele>
        <time>2011-04-19T19:41:10Z</time>
      </trkpt>
      <trkpt lat="43.12836" lon="3.10955">
        <ele>42.292999</ele>
        <time>2011-04-19T19:41:13Z</time>
      </trkpt>
      <trkpt lat="43.12835" lon="3.10943">
        <ele>42.730999</ele>
        <time>2011-04-19T19:41:15Z</time>
      </trkpt>
      <trkpt lat="43.12842" lon="3.10934">
        <ele>43.116001</ele>
        <time>2011-04-19T19:41:18Z</time>
      </trkpt>
      <trkpt lat="43.12851" lon="3.10933">
        <ele>44.159</ele>
        <time>2011-04-19T19:41:21Z</time>
      </trkpt>
      <trkpt lat="43.12856" lon="3.10935">
        <ele>44.834</ele>
        <time>2011-04-19T19:41:23Z</time>
      </trkpt>
      <trkpt lat="43.12866" lon="3.10934">
        <ele>44.724998</ele>
        <time>2011-04-19T19:41:26Z</time>
      </trkpt>
      <trkpt lat="43.12872" lon="3.1093">
        <ele>44.700001</ele>
        <time>2011-04-19T19:41:28Z</time>
      </trkpt>
      <trkpt lat="43.12876" lon="3.10925">
        <ele>44.305</ele>
        <time>2011-04-19T19:41:29Z</time>
      </trkpt>
      <trkpt lat="43.12886" lon="3.10909">
        <ele>45.393002</ele>
        <time>2011-04-19T19:41:34Z</time>
      </trkpt>
      <trkpt lat="43.12896" lon="3.10894">
        <ele>46.249001</ele>
        <time>2011-04-19T19:41:39Z</time>
      </trkpt>
      <trkpt lat="43.12898" lon="3.10892">
        <ele>46.198002</ele>
        <time>2011-04-19T19:41:40Z</time>
      </trkpt>
      <trkpt lat="43.12907" lon="3.1089">
        <ele>46.530998</ele>
        <time>2011-04-19T19:41:42Z</time>
      </trkpt>
      <trkpt lat="43.12914" lon="3.10882">
        <ele>46.842999</ele>
        <time>2011-04-19T19:41:45Z</time>
      </trkpt>
      <trkpt lat="43.12924" lon="3.10865">
        <ele>47.752998</ele>
        <time>2011-04-19T19:41:50Z</time>
      </trkpt>
      <trkpt lat="43.1292" lon="3.1086">
        <ele>44.432999</ele>
        <time>2011-04-19T19:41:52Z</time>
      </trkpt>
      <trkpt lat="43.12911" lon="3.10857">
        <ele>43.880001</ele>
        <time>2011-04-19T19:41:55Z</time>
      </trkpt>
      <trkpt lat="43.12899" lon="3.10854">
        <ele>42.813</ele>
        <time>2011-04-19T19:41:58Z</time>
      </trkpt>
      <trkpt lat="43.12894" lon="3.10848">
        <ele>43.014</ele>
        <time>2011-04-19T19:42:01Z</time>
      </trkpt>
      <trkpt lat="43.12893" lon="3.10841">
        <ele>44.966</ele>
        <time>2011-04-19T19:42:02Z</time>
      </trkpt>
      <trkpt lat="43.12894" lon="3.10837">
        <ele>42.724998</ele>
        <time>2011-04-19T19:42:03Z</time>
      </trkpt>
      <trkpt lat="43.12894" lon="3.10822">
        <ele>40.398998</ele>
        <time>2011-04-19T19:42:07Z</time>
      </trkpt>
      <trkpt lat="43.12881" lon="3.1081">
        <ele>37.536999</ele>
        <time>2011-04-19T19:42:11Z</time>
      </trkpt>
      <trkpt lat="43.12873" lon="3.10804">
        <ele>35.379002</ele>
        <time>2011-04-19T19:42:14Z</time>
      </trkpt>
      <trkpt lat="43.1287" lon="3.10797">
        <ele>32.780998</ele>
        <time>2011-04-19T19:42:16Z</time>
      </trkpt>
      <trkpt lat="43.12872" lon="3.10787">
        <ele>35.279999</ele>
        <time>2011-04-19T19:42:18Z</time>
      </trkpt>
      <trkpt lat="43.12877" lon="3.10785">
        <ele>37.374001</ele>
        <time>2011-04-19T19:42:20Z</time>
      </trkpt>
      <trkpt lat="43.1288" lon="3.10781">
        <ele>38.051998</ele>
        <time>2011-04-19T19:42:21Z</time>
      </trkpt>
      <trkpt lat="43.12888" lon="3.10769">
        <ele>36.639</ele>
        <time>2011-04-19T19:42:25Z</time>
      </trkpt>
      <trkpt lat="43.12895" lon="3.10774">
        <ele>39.249001</ele>
        <time>2011-04-19T19:42:27Z</time>
      </trkpt>
      <trkpt lat="43.12899" lon="3.10786">
        <ele>42.855999</ele>
        <time>2011-04-19T19:42:30Z</time>
      </trkpt>
      <trkpt lat="43.12898" lon="3.108">
        <ele>41.685001</ele>
        <time>2011-04-19T19:42:33Z</time>
      </trkpt>
      <trkpt lat="43.12905" lon="3.10803">
        <ele>42.744999</ele>
        <time>2011-04-19T19:42:35Z</time>
      </trkpt>
      <trkpt lat="43.12914" lon="3.10804">
        <ele>42.549999</ele>
        <time>2011-04-19T19:42:38Z</time>
      </trkpt>
      <trkpt lat="43.1292" lon="3.10798">
        <ele>43.828999</ele>
        <time>2011-04-19T19:42:41Z</time>
      </trkpt>
      <trkpt lat="43.12926" lon="3.10793">
        <ele>43.754002</ele>
        <time>2011-04-19T19:42:43Z</time>
      </trkpt>
      <trkpt lat="43.12929" lon="3.10787">
        <ele>43.769001</ele>
        <time>2011-04-19T19:42:44Z</time>
      </trkpt>
      <trkpt lat="43.12935" lon="3.10773">
        <ele>42.325001</ele>
        <time>2011-04-19T19:42:48Z</time>
      </trkpt>
      <trkpt lat="43.12938" lon="3.10757">
        <ele>43.421001</ele>
        <time>2011-04-19T19:42:52Z</time>
      </trkpt>
      <trkpt lat="43.12943" lon="3.1075">
        <ele>43.094002</ele>
        <time>2011-04-19T19:42:54Z</time>
      </trkpt>
      <trkpt lat="43.1295" lon="3.10749">
        <ele>42.373001</ele>
        <time>2011-04-19T19:42:56Z</time>
      </trkpt>
      <trkpt lat="43.12951" lon="3.10749">
        <ele>42.261002</ele>
        <time>2011-04-19T19:42:57Z</time>
      </trkpt>
      <trkpt lat="43.12963" lon="3.10741">
        <ele>43.775002</ele>
        <time>2011-04-19T19:43:00Z</time>
      </trkpt>
      <trkpt lat="43.1296" lon="3.10729">
        <ele>44.529999</ele>
        <time>2011-04-19T19:43:03Z</time>
      </trkpt>
      <trkpt lat="43.12949" lon="3.10718">
        <ele>41.744999</ele>
        <time>2011-04-19T19:43:07Z</time>
      </trkpt>
      <trkpt lat="43.1294" lon="3.10713">
        <ele>40.847</ele>
        <time>2011-04-19T19:43:11Z</time>
      </trkpt>
      <trkpt lat="43.12917" lon="3.10704">
        <ele>39.013</ele>
        <time>2011-04-19T19:43:18Z</time>
      </trkpt>
      <trkpt lat="43.12907" lon="3.10698">
        <ele>38.313999</ele>
        <time>2011-04-19T19:43:21Z</time>
      </trkpt>
      <trkpt lat="43.12887" lon="3.10695">
        <ele>37.646</ele>
        <time>2011-04-19T19:43:27Z</time>
      </trkpt>
      <trkpt lat="43.12869" lon="3.10691">
        <ele>35.814999</ele>
        <time>2011-04-19T19:43:33Z</time>
      </trkpt>
      <trkpt lat="43.12845" lon="3.10682">
        <ele>33.157002</ele>
        <time>2011-04-19T19:43:41Z</time>
      </trkpt>
      <trkpt lat="43.12833" lon="3.10678">
        <ele>34.051998</ele>
        <time>2011-04-19T19:43:44Z</time>
      </trkpt>
      <trkpt lat="43.12831" lon="3.10675">
        <ele>32.292999</ele>
        <time>2011-04-19T19:43:45Z</time>
      </trkpt>
      <trkpt lat="43.12821" lon="3.10665">
        <ele>33.264999</ele>
        <time>2011-04-19T19:43:49Z</time>
      </trkpt>
      <trkpt lat="43.12814" lon="3.10658">
        <ele>33.019001</ele>
        <time>2011-04-19T19:43:52Z</time>
      </trkpt>
      <trkpt lat="43.12812" lon="3.10649">
        <ele>31.841999</ele>
        <time>2011-04-19T19:43:54Z</time>
      </trkpt>
      <trkpt lat="43.12809" lon="3.10642">
        <ele>32</ele>
        <time>2011-04-19T19:43:56Z</time>
      </trkpt>
      <trkpt lat="43.12807" lon="3.10637">
        <ele>31.360001</ele>
        <time>2011-04-19T19:43:57Z</time>
      </trkpt>
      <trkpt lat="43.1281" lon="3.10623">
        <ele>30.679001</ele>
        <time>2011-04-19T19:44:00Z</time>
      </trkpt>
      <trkpt lat="43.12816" lon="3.10608">
        <ele>30.816999</ele>
        <time>2011-04-19T19:44:04Z</time>
      </trkpt>
      <trkpt lat="43.12817" lon="3.10603">
        <ele>30.849001</ele>
        <time>2011-04-19T19:44:05Z</time>
      </trkpt>
      <trkpt lat="43.12819" lon="3.10599">
        <ele>30.098</ele>
        <time>2011-04-19T19:44:06Z</time>
      </trkpt>
      <trkpt lat="43.12812" lon="3.10605">
        <ele>28.732</ele>
        <time>2011-04-19T19:44:09Z</time>
      </trkpt>
      <trkpt lat="43.12793" lon="3.10615">
        <ele>29.987</ele>
        <time>2011-04-19T19:44:15Z</time>
      </trkpt>
      <trkpt lat="43.1278" lon="3.10614">
        <ele>28.790001</ele>
        <time>2011-04-19T19:44:19Z</time>
      </trkpt>
      <trkpt lat="43.12763" lon="3.10617">
        <ele>26.615999</ele>
        <time>2011-04-19T19:44:24Z</time>
      </trkpt>
      <trkpt lat="43.12759" lon="3.10616">
        <ele>26.365</ele>
        <time>2011-04-19T19:44:26Z</time>
      </trkpt>
      <trkpt lat="43.12755" lon="3.10614">
        <ele>26.690001</ele>
        <time>2011-04-19T19:44:27Z</time>
      </trkpt>
      <trkpt lat="43.12755" lon="3.10614">
        <ele>27.400999</ele>
        <time>2011-04-19T19:44:27Z</time>
      </trkpt>
      <trkpt lat="43.12759" lon="3.10595">
        <ele>27.268999</ele>
        <time>2011-04-19T19:44:31Z</time>
      </trkpt>
      <trkpt lat="43.12758" lon="3.1059">
        <ele>26.927999</ele>
        <time>2011-04-19T19:44:32Z</time>
      </trkpt>
      <trkpt lat="43.1276" lon="3.10566">
        <ele>24.733</ele>
        <time>2011-04-19T19:44:38Z</time>
      </trkpt>
      <trkpt lat="43.12764" lon="3.10558">
        <ele>21.676001</ele>
        <time>2011-04-19T19:44:40Z</time>
      </trkpt>
      <trkpt lat="43.1276" lon="3.10547">
        <ele>21.386</ele>
        <time>2011-04-19T19:44:43Z</time>
      </trkpt>
      <trkpt lat="43.12753" lon="3.10526">
        <ele>17.274</ele>
        <time>2011-04-19T19:44:48Z</time>
      </trkpt>
      <trkpt lat="43.12748" lon="3.10501">
        <ele>13.87</ele>
        <time>2011-04-19T19:44:54Z</time>
      </trkpt>
      <trkpt lat="43.12747" lon="3.10497">
        <ele>13.872</ele>
        <time>2011-04-19T19:44:55Z</time>
      </trkpt>
      <trkpt lat="43.12739" lon="3.10468">
        <ele>16.382</ele>
        <time>2011-04-19T19:45:02Z</time>
      </trkpt>
      <trkpt lat="43.12743" lon="3.10452">
        <ele>7.077</ele>
        <time>2011-04-19T19:45:05Z</time>
      </trkpt>
      <trkpt lat="43.12745" lon="3.10452">
        <ele>6.874</ele>
        <time>2011-04-19T19:45:06Z</time>
      </trkpt>
      <trkpt lat="43.12754" lon="3.1045">
        <ele>9.775</ele>
        <time>2011-04-19T19:45:09Z</time>
      </trkpt>
      <trkpt lat="43.12761" lon="3.10441">
        <ele>9.778</ele>
        <time>2011-04-19T19:45:12Z</time>
      </trkpt>
      <trkpt lat="43.12761" lon="3.10432">
        <ele>10.432</ele>
        <time>2011-04-19T19:45:14Z</time>
      </trkpt>
      <trkpt lat="43.12753" lon="3.10418">
        <ele>9.407</ele>
        <time>2011-04-19T19:45:18Z</time>
      </trkpt>
      <trkpt lat="43.12752" lon="3.10395">
        <ele>6.521</ele>
        <time>2011-04-19T19:45:23Z</time>
      </trkpt>
      <trkpt lat="43.12756" lon="3.10378">
        <ele>5.82</ele>
        <time>2011-04-19T19:45:27Z</time>
      </trkpt>
      <trkpt lat="43.12754" lon="3.1037">
        <ele>4.523</ele>
        <time>2011-04-19T19:45:29Z</time>
      </trkpt>
      <trkpt lat="43.12757" lon="3.10353">
        <ele>4.126</ele>
        <time>2011-04-19T19:45:33Z</time>
      </trkpt>
      <trkpt lat="43.12761" lon="3.10348">
        <ele>3.709</ele>
        <time>2011-04-19T19:45:34Z</time>
      </trkpt>
      <trkpt lat="43.12761" lon="3.10335">
        <ele>4.281</ele>
        <time>2011-04-19T19:45:37Z</time>
      </trkpt>
      <trkpt lat="43.12762" lon="3.10328">
        <ele>7.559</ele>
        <time>2011-04-19T19:45:39Z</time>
      </trkpt>
      <trkpt lat="43.12757" lon="3.1031">
        <ele>9.048</ele>
        <time>2011-04-19T19:45:43Z</time>
      </trkpt>
      <trkpt lat="43.12757" lon="3.10297">
        <ele>9.41</ele>
        <time>2011-04-19T19:45:46Z</time>
      </trkpt>
      <trkpt lat="43.12759" lon="3.1028">
        <ele>11.166</ele>
        <time>2011-04-19T19:45:50Z</time>
      </trkpt>
      <trkpt lat="43.12761" lon="3.10262">
        <ele>12.95</ele>
        <time>2011-04-19T19:45:54Z</time>
      </trkpt>
      <trkpt lat="43.12759" lon="3.10248">
        <ele>13.537</ele>
        <time>2011-04-19T19:45:57Z</time>
      </trkpt>
      <trkpt lat="43.12759" lon="3.10228">
        <ele>14.578</ele>
        <time>2011-04-19T19:46:02Z</time>
      </trkpt>
      <trkpt lat="43.12766" lon="3.10215">
        <ele>14.808</ele>
        <time>2011-04-19T19:46:05Z</time>
      </trkpt>
      <trkpt lat="43.12776" lon="3.10203">
        <ele>17.688</ele>
        <time>2011-04-19T19:46:09Z</time>
      </trkpt>
      <trkpt lat="43.12785" lon="3.1019">
        <ele>17.275999</ele>
        <time>2011-04-19T19:46:13Z</time>
      </trkpt>
      <trkpt lat="43.12796" lon="3.10171">
        <ele>18.370001</ele>
        <time>2011-04-19T19:46:19Z</time>
      </trkpt>
      <trkpt lat="43.12806" lon="3.10151">
        <ele>17.351999</ele>
        <time>2011-04-19T19:46:24Z</time>
      </trkpt>
      <trkpt lat="43.12808" lon="3.10132">
        <ele>17.004</ele>
        <time>2011-04-19T19:46:29Z</time>
      </trkpt>
      <trkpt lat="43.12805" lon="3.10097">
        <ele>16.892</ele>
        <time>2011-04-19T19:46:36Z</time>
      </trkpt>
      <trkpt lat="43.12806" lon="3.10076">
        <ele>16.650999</ele>
        <time>2011-04-19T19:46:41Z</time>
      </trkpt>
      <trkpt lat="43.12806" lon="3.10052">
        <ele>18.122</ele>
        <time>2011-04-19T19:46:46Z</time>
      </trkpt>
      <trkpt lat="43.12807" lon="3.10031">
        <ele>16.885</ele>
        <time>2011-04-19T19:46:51Z</time>
      </trkpt>
      <trkpt lat="43.12809" lon="3.10007">
        <ele>15.61</ele>
        <time>2011-04-19T19:46:57Z</time>
      </trkpt>
      <trkpt lat="43.12811" lon="3.10003">
        <ele>15.7</ele>
        <time>2011-04-19T19:46:58Z</time>
      </trkpt>
      <trkpt lat="43.12807" lon="3.09985">
        <ele>16.552</ele>
        <time>2011-04-19T19:47:02Z</time>
      </trkpt>
      <trkpt lat="43.12803" lon="3.09969">
        <ele>16.627001</ele>
        <time>2011-04-19T19:47:06Z</time>
      </trkpt>
      <trkpt lat="43.12798" lon="3.09954">
        <ele>19.421</ele>
        <time>2011-04-19T19:47:10Z</time>
      </trkpt>
      <trkpt lat="43.12794" lon="3.09942">
        <ele>17.889999</ele>
        <time>2011-04-19T19:47:13Z</time>
      </trkpt>
      <trkpt lat="43.12786" lon="3.09913">
        <ele>18.555</ele>
        <time>2011-04-19T19:47:19Z</time>
      </trkpt>
      <trkpt lat="43.12785" lon="3.0989">
        <ele>18.388001</ele>
        <time>2011-04-19T19:47:25Z</time>
      </trkpt>
      <trkpt lat="43.12791" lon="3.09871">
        <ele>19.288</ele>
        <time>2011-04-19T19:47:29Z</time>
      </trkpt>
      <trkpt lat="43.12799" lon="3.09851">
        <ele>21.285</ele>
        <time>2011-04-19T19:47:34Z</time>
      </trkpt>
      <trkpt lat="43.12803" lon="3.09829">
        <ele>23.254999</ele>
        <time>2011-04-19T19:47:40Z</time>
      </trkpt>
      <trkpt lat="43.1278" lon="3.09799">
        <ele>33.421875</ele>
        <time>2011-04-19T19:47:49Z</time>
      </trkpt>
      <trkpt lat="43.12765" lon="3.09785">
        <ele>38.270999</ele>
        <time>2011-04-19T19:47:55Z</time>
      </trkpt>
      <trkpt lat="43.12733" lon="3.09754">
        <ele>38.45</ele>
        <time>2011-04-19T19:48:07Z</time>
      </trkpt>
      <trkpt lat="43.12709" lon="3.09735">
        <ele>39.122001</ele>
        <time>2011-04-19T19:48:15Z</time>
      </trkpt>
      <trkpt lat="43.12704" lon="3.09716">
        <ele>39.562</ele>
        <time>2011-04-19T19:48:20Z</time>
      </trkpt>
      <trkpt lat="43.12703" lon="3.09686">
        <ele>41.460998</ele>
        <time>2011-04-19T19:48:27Z</time>
      </trkpt>
      <trkpt lat="43.12697" lon="3.0966">
        <ele>42.821998</ele>
        <time>2011-04-19T19:48:33Z</time>
      </trkpt>
      <trkpt lat="43.12688" lon="3.09637">
        <ele>44.237999</ele>
        <time>2011-04-19T19:48:39Z</time>
      </trkpt>
      <trkpt lat="43.12687" lon="3.09633">
        <ele>44.473999</ele>
        <time>2011-04-19T19:48:40Z</time>
      </trkpt>
      <trkpt lat="43.12676" lon="3.0963">
        <ele>45.416999</ele>
        <time>2011-04-19T19:48:43Z</time>
      </trkpt>
      <trkpt lat="43.12674" lon="3.09632">
        <ele>45.921001</ele>
        <time>2011-04-19T19:48:44Z</time>
      </trkpt>
      <trkpt lat="43.12656" lon="3.0965">
        <ele>46.734001</ele>
        <time>2011-04-19T19:48:51Z</time>
      </trkpt>
      <trkpt lat="43.12637" lon="3.09665">
        <ele>46.082</ele>
        <time>2011-04-19T19:48:57Z</time>
      </trkpt>
      <trkpt lat="43.12626" lon="3.09676">
        <ele>46.473999</ele>
        <time>2011-04-19T19:49:02Z</time>
      </trkpt>
      <trkpt lat="43.12618" lon="3.09676">
        <ele>45.641998</ele>
        <time>2011-04-19T19:49:04Z</time>
      </trkpt>
      <trkpt lat="43.12614" lon="3.09674">
        <ele>44.320999</ele>
        <time>2011-04-19T19:49:05Z</time>
      </trkpt>
      <trkpt lat="43.12613" lon="3.09673">
        <ele>43.522998</ele>
        <time>2011-04-19T19:49:06Z</time>
      </trkpt>
      <trkpt lat="43.12608" lon="3.09663">
        <ele>40.096</ele>
        <time>2011-04-19T19:49:08Z</time>
      </trkpt>
      <trkpt lat="43.12609" lon="3.09649">
        <ele>39.581001</ele>
        <time>2011-04-19T19:49:11Z</time>
      </trkpt>
      <trkpt lat="43.12606" lon="3.0963">
        <ele>38.585998</ele>
        <time>2011-04-19T19:49:16Z</time>
      </trkpt>
      <trkpt lat="43.12606" lon="3.09628">
        <ele>38.254001</ele>
        <time>2011-04-19T19:49:16Z</time>
      </trkpt>
      <trkpt lat="43.12614" lon="3.09587">
        <ele>25.976562</ele>
        <time>2011-04-19T19:49:26Z</time>
      </trkpt>
      <trkpt lat="43.1263" lon="3.0956">
        <ele>25.546875</ele>
        <time>2011-04-19T19:49:34Z</time>
      </trkpt>
      <trkpt lat="43.12639" lon="3.09536">
        <ele>25.324218</ele>
        <time>2011-04-19T19:49:40Z</time>
      </trkpt>
      <trkpt lat="43.12546" lon="3.09523">
        <ele>20.25</ele>
        <time>2011-04-19T19:50:09Z</time>
      </trkpt>
      <trkpt lat="43.12512" lon="3.09514">
        <ele>19.019531</ele>
        <time>2011-04-19T19:50:19Z</time>
      </trkpt>
      <trkpt lat="43.12496" lon="3.09523">
        <ele>18.085937</ele>
        <time>2011-04-19T19:50:25Z</time>
      </trkpt>
      <trkpt lat="43.12465" lon="3.0953">
        <ele>16.476562</ele>
        <time>2011-04-19T19:50:34Z</time>
      </trkpt>
      <trkpt lat="43.12422" lon="3.09547">
        <ele>16</ele>
        <time>2011-04-19T19:50:48Z</time>
      </trkpt>
    </trkseg>
  </trk>
</gpx>